<?xml version="1.0" encoding="UTF-8" standalone="no" ?>
<gpx xmlns="http://www.topografix.com/GPX/1/1" xmlns:xsi="http://www.w3.org/2001/XMLSchema-instance" xsi:schemaLocation="http://www.topografix.com/GPX/1/1 http://www.topografix.com/GPX/1/1/gpx.xsd" version="1.1" creator="VisuGPX - https://www.visugpx.com">
  <metadata>
    <name>Trace Combe et Falaise de Lioux</name>
    <desc><![CDATA[Sortie du 15 mai 2011 effectuée par 15 randonneurs du SCLapalud]]></desc>
  </metadata>
  <trk>
    <name><![CDATA[ACTIVE LOG]]></name>
    <trkseg>
      <trkpt lat="43.94566" lon="5.29498">
        <ele>283.726196</ele>
        <time>2011-05-15T09:46:48Z</time>
      </trkpt>
      <trkpt lat="43.94565" lon="5.29497">
        <ele>284.206909</ele>
        <time>2011-05-15T09:47:22Z</time>
      </trkpt>
      <trkpt lat="43.94561" lon="5.29491">
        <ele>284.206909</ele>
        <time>2011-05-15T09:47:44Z</time>
      </trkpt>
      <trkpt lat="43.94555" lon="5.29492">
        <ele>283.726196</ele>
        <time>2011-05-15T09:48:07Z</time>
      </trkpt>
      <trkpt lat="43.94554" lon="5.29493">
        <ele>284.687622</ele>
        <time>2011-05-15T09:48:58Z</time>
      </trkpt>
      <trkpt lat="43.94555" lon="5.29492">
        <ele>284.206909</ele>
        <time>2011-05-15T09:49:28Z</time>
      </trkpt>
      <trkpt lat="43.94555" lon="5.29491">
        <ele>284.687622</ele>
        <time>2011-05-15T09:49:57Z</time>
      </trkpt>
      <trkpt lat="43.94558" lon="5.29482">
        <ele>283.726196</ele>
        <time>2011-05-15T09:50:10Z</time>
      </trkpt>
      <trkpt lat="43.94564" lon="5.29477">
        <ele>287.09082</ele>
        <time>2011-05-15T09:50:26Z</time>
      </trkpt>
      <trkpt lat="43.94567" lon="5.29474">
        <ele>287.09082</ele>
        <time>2011-05-15T09:50:30Z</time>
      </trkpt>
      <trkpt lat="43.94574" lon="5.29473">
        <ele>288.052246</ele>
        <time>2011-05-15T09:50:37Z</time>
      </trkpt>
      <trkpt lat="43.94586" lon="5.29493">
        <ele>288.532959</ele>
        <time>2011-05-15T09:50:57Z</time>
      </trkpt>
      <trkpt lat="43.9459" lon="5.29496">
        <ele>289.01355</ele>
        <time>2011-05-15T09:51:02Z</time>
      </trkpt>
      <trkpt lat="43.94595" lon="5.29497">
        <ele>289.494141</ele>
        <time>2011-05-15T09:51:07Z</time>
      </trkpt>
      <trkpt lat="43.94598" lon="5.29499">
        <ele>289.974854</ele>
        <time>2011-05-15T09:51:10Z</time>
      </trkpt>
      <trkpt lat="43.94615" lon="5.29489">
        <ele>291.897461</ele>
        <time>2011-05-15T09:51:26Z</time>
      </trkpt>
      <trkpt lat="43.94625" lon="5.29476">
        <ele>293.339355</ele>
        <time>2011-05-15T09:51:39Z</time>
      </trkpt>
      <trkpt lat="43.94628" lon="5.29468">
        <ele>294.300781</ele>
        <time>2011-05-15T09:51:45Z</time>
      </trkpt>
      <trkpt lat="43.94628" lon="5.29462">
        <ele>294.300781</ele>
        <time>2011-05-15T09:51:49Z</time>
      </trkpt>
      <trkpt lat="43.94629" lon="5.29456">
        <ele>294.781372</ele>
        <time>2011-05-15T09:51:53Z</time>
      </trkpt>
      <trkpt lat="43.94631" lon="5.29451">
        <ele>294.781372</ele>
        <time>2011-05-15T09:51:57Z</time>
      </trkpt>
      <trkpt lat="43.94631" lon="5.29447">
        <ele>294.781372</ele>
        <time>2011-05-15T09:51:59Z</time>
      </trkpt>
      <trkpt lat="43.94634" lon="5.29439">
        <ele>295.742676</ele>
        <time>2011-05-15T09:52:04Z</time>
      </trkpt>
      <trkpt lat="43.94635" lon="5.29436">
        <ele>295.742676</ele>
        <time>2011-05-15T09:52:06Z</time>
      </trkpt>
      <trkpt lat="43.94636" lon="5.29429">
        <ele>295.742676</ele>
        <time>2011-05-15T09:52:11Z</time>
      </trkpt>
      <trkpt lat="43.94641" lon="5.294">
        <ele>297.665405</ele>
        <time>2011-05-15T09:52:31Z</time>
      </trkpt>
      <trkpt lat="43.94641" lon="5.29396">
        <ele>297.665405</ele>
        <time>2011-05-15T09:52:33Z</time>
      </trkpt>
      <trkpt lat="43.94647" lon="5.29376">
        <ele>298.626709</ele>
        <time>2011-05-15T09:52:49Z</time>
      </trkpt>
      <trkpt lat="43.94655" lon="5.29374">
        <ele>299.588013</ele>
        <time>2011-05-15T09:53:03Z</time>
      </trkpt>
      <trkpt lat="43.94666" lon="5.29366">
        <ele>300.549316</ele>
        <time>2011-05-15T09:53:20Z</time>
      </trkpt>
      <trkpt lat="43.9467" lon="5.29353">
        <ele>301.029907</ele>
        <time>2011-05-15T09:53:32Z</time>
      </trkpt>
      <trkpt lat="43.94669" lon="5.29326">
        <ele>300.549316</ele>
        <time>2011-05-15T09:53:51Z</time>
      </trkpt>
      <trkpt lat="43.94668" lon="5.29321">
        <ele>300.549316</ele>
        <time>2011-05-15T09:53:54Z</time>
      </trkpt>
      <trkpt lat="43.94669" lon="5.29313">
        <ele>300.068726</ele>
        <time>2011-05-15T09:54:01Z</time>
      </trkpt>
      <trkpt lat="43.94669" lon="5.29305">
        <ele>299.588013</ele>
        <time>2011-05-15T09:54:06Z</time>
      </trkpt>
      <trkpt lat="43.94665" lon="5.29291">
        <ele>297.665405</ele>
        <time>2011-05-15T09:54:21Z</time>
      </trkpt>
      <trkpt lat="43.94666" lon="5.29287">
        <ele>296.704102</ele>
        <time>2011-05-15T09:54:33Z</time>
      </trkpt>
      <trkpt lat="43.94671" lon="5.29286">
        <ele>295.261963</ele>
        <time>2011-05-15T09:54:46Z</time>
      </trkpt>
      <trkpt lat="43.94677" lon="5.29286">
        <ele>293.339355</ele>
        <time>2011-05-15T09:55:01Z</time>
      </trkpt>
      <trkpt lat="43.94684" lon="5.29288">
        <ele>293.820068</ele>
        <time>2011-05-15T09:55:08Z</time>
      </trkpt>
      <trkpt lat="43.94698" lon="5.29294">
        <ele>293.820068</ele>
        <time>2011-05-15T09:55:25Z</time>
      </trkpt>
      <trkpt lat="43.94715" lon="5.29304">
        <ele>294.781372</ele>
        <time>2011-05-15T09:55:46Z</time>
      </trkpt>
      <trkpt lat="43.94734" lon="5.29315">
        <ele>297.184692</ele>
        <time>2011-05-15T09:56:09Z</time>
      </trkpt>
      <trkpt lat="43.94745" lon="5.2932">
        <ele>298.626709</ele>
        <time>2011-05-15T09:56:24Z</time>
      </trkpt>
      <trkpt lat="43.94754" lon="5.29324">
        <ele>298.626709</ele>
        <time>2011-05-15T09:56:35Z</time>
      </trkpt>
      <trkpt lat="43.94764" lon="5.29335">
        <ele>300.549316</ele>
        <time>2011-05-15T09:56:54Z</time>
      </trkpt>
      <trkpt lat="43.94777" lon="5.29341">
        <ele>301.991333</ele>
        <time>2011-05-15T09:57:18Z</time>
      </trkpt>
      <trkpt lat="43.94793" lon="5.29341">
        <ele>302.471924</ele>
        <time>2011-05-15T09:57:32Z</time>
      </trkpt>
      <trkpt lat="43.94806" lon="5.29355">
        <ele>304.394653</ele>
        <time>2011-05-15T09:57:53Z</time>
      </trkpt>
      <trkpt lat="43.94818" lon="5.29355">
        <ele>305.355957</ele>
        <time>2011-05-15T09:58:20Z</time>
      </trkpt>
      <trkpt lat="43.94824" lon="5.29371">
        <ele>306.797852</ele>
        <time>2011-05-15T09:58:47Z</time>
      </trkpt>
      <trkpt lat="43.94831" lon="5.29379">
        <ele>308.239868</ele>
        <time>2011-05-15T09:59:05Z</time>
      </trkpt>
      <trkpt lat="43.94844" lon="5.29369">
        <ele>309.681885</ele>
        <time>2011-05-15T09:59:19Z</time>
      </trkpt>
      <trkpt lat="43.94858" lon="5.29361">
        <ele>310.643066</ele>
        <time>2011-05-15T09:59:33Z</time>
      </trkpt>
      <trkpt lat="43.94887" lon="5.29358">
        <ele>312.085205</ele>
        <time>2011-05-15T10:00:03Z</time>
      </trkpt>
      <trkpt lat="43.94892" lon="5.29358">
        <ele>312.085205</ele>
        <time>2011-05-15T10:00:21Z</time>
      </trkpt>
      <trkpt lat="43.94895" lon="5.29358">
        <ele>313.527222</ele>
        <time>2011-05-15T10:00:32Z</time>
      </trkpt>
      <trkpt lat="43.94898" lon="5.29358">
        <ele>314.007813</ele>
        <time>2011-05-15T10:00:36Z</time>
      </trkpt>
      <trkpt lat="43.94909" lon="5.29364">
        <ele>315.449829</ele>
        <time>2011-05-15T10:00:51Z</time>
      </trkpt>
      <trkpt lat="43.9492" lon="5.29366">
        <ele>316.411011</ele>
        <time>2011-05-15T10:01:04Z</time>
      </trkpt>
      <trkpt lat="43.94929" lon="5.29372">
        <ele>317.372437</ele>
        <time>2011-05-15T10:01:20Z</time>
      </trkpt>
      <trkpt lat="43.94938" lon="5.29371">
        <ele>317.372437</ele>
        <time>2011-05-15T10:01:33Z</time>
      </trkpt>
      <trkpt lat="43.94946" lon="5.29373">
        <ele>318.814331</ele>
        <time>2011-05-15T10:01:52Z</time>
      </trkpt>
      <trkpt lat="43.94958" lon="5.29365">
        <ele>319.775635</ele>
        <time>2011-05-15T10:02:09Z</time>
      </trkpt>
      <trkpt lat="43.94967" lon="5.29368">
        <ele>319.775635</ele>
        <time>2011-05-15T10:02:26Z</time>
      </trkpt>
      <trkpt lat="43.94979" lon="5.29366">
        <ele>321.698364</ele>
        <time>2011-05-15T10:02:42Z</time>
      </trkpt>
      <trkpt lat="43.94986" lon="5.29373">
        <ele>322.178955</ele>
        <time>2011-05-15T10:02:57Z</time>
      </trkpt>
      <trkpt lat="43.94996" lon="5.29371">
        <ele>323.140381</ele>
        <time>2011-05-15T10:03:15Z</time>
      </trkpt>
      <trkpt lat="43.95005" lon="5.29374">
        <ele>322.659668</ele>
        <time>2011-05-15T10:03:35Z</time>
      </trkpt>
      <trkpt lat="43.95017" lon="5.29368">
        <ele>325.543579</ele>
        <time>2011-05-15T10:03:51Z</time>
      </trkpt>
      <trkpt lat="43.95028" lon="5.29378">
        <ele>327.466187</ele>
        <time>2011-05-15T10:04:08Z</time>
      </trkpt>
      <trkpt lat="43.95042" lon="5.29378">
        <ele>327.466187</ele>
        <time>2011-05-15T10:04:27Z</time>
      </trkpt>
      <trkpt lat="43.95054" lon="5.29371">
        <ele>328.427612</ele>
        <time>2011-05-15T10:04:46Z</time>
      </trkpt>
      <trkpt lat="43.95073" lon="5.29366">
        <ele>330.830933</ele>
        <time>2011-05-15T10:05:09Z</time>
      </trkpt>
      <trkpt lat="43.95095" lon="5.29379">
        <ele>331.792114</ele>
        <time>2011-05-15T10:05:32Z</time>
      </trkpt>
      <trkpt lat="43.951" lon="5.2938">
        <ele>332.272827</ele>
        <time>2011-05-15T10:05:37Z</time>
      </trkpt>
      <trkpt lat="43.95121" lon="5.29373">
        <ele>334.676147</ele>
        <time>2011-05-15T10:06:02Z</time>
      </trkpt>
      <trkpt lat="43.95134" lon="5.29363">
        <ele>335.156738</ele>
        <time>2011-05-15T10:06:28Z</time>
      </trkpt>
      <trkpt lat="43.95148" lon="5.29371">
        <ele>337.560059</ele>
        <time>2011-05-15T10:06:48Z</time>
      </trkpt>
      <trkpt lat="43.95166" lon="5.29369">
        <ele>339.002075</ele>
        <time>2011-05-15T10:07:13Z</time>
      </trkpt>
      <trkpt lat="43.95175" lon="5.29364">
        <ele>339.963379</ele>
        <time>2011-05-15T10:07:35Z</time>
      </trkpt>
      <trkpt lat="43.95185" lon="5.29361">
        <ele>341.885986</ele>
        <time>2011-05-15T10:07:51Z</time>
      </trkpt>
      <trkpt lat="43.95197" lon="5.29364">
        <ele>343.327881</ele>
        <time>2011-05-15T10:08:09Z</time>
      </trkpt>
      <trkpt lat="43.95213" lon="5.2936">
        <ele>344.77002</ele>
        <time>2011-05-15T10:08:28Z</time>
      </trkpt>
      <trkpt lat="43.95221" lon="5.29357">
        <ele>346.692627</ele>
        <time>2011-05-15T10:08:44Z</time>
      </trkpt>
      <trkpt lat="43.95237" lon="5.29349">
        <ele>348.134644</ele>
        <time>2011-05-15T10:09:05Z</time>
      </trkpt>
      <trkpt lat="43.95256" lon="5.2934">
        <ele>349.576538</ele>
        <time>2011-05-15T10:09:26Z</time>
      </trkpt>
      <trkpt lat="43.95283" lon="5.29357">
        <ele>351.499146</ele>
        <time>2011-05-15T10:09:58Z</time>
      </trkpt>
      <trkpt lat="43.95308" lon="5.29359">
        <ele>353.902588</ele>
        <time>2011-05-15T10:10:25Z</time>
      </trkpt>
      <trkpt lat="43.95319" lon="5.29345">
        <ele>354.86377</ele>
        <time>2011-05-15T10:10:42Z</time>
      </trkpt>
      <trkpt lat="43.95329" lon="5.2934">
        <ele>356.786377</ele>
        <time>2011-05-15T10:10:59Z</time>
      </trkpt>
      <trkpt lat="43.95338" lon="5.29348">
        <ele>357.747803</ele>
        <time>2011-05-15T10:11:14Z</time>
      </trkpt>
      <trkpt lat="43.95356" lon="5.29348">
        <ele>359.189697</ele>
        <time>2011-05-15T10:11:32Z</time>
      </trkpt>
      <trkpt lat="43.9537" lon="5.2936">
        <ele>360.151123</ele>
        <time>2011-05-15T10:12:00Z</time>
      </trkpt>
      <trkpt lat="43.95392" lon="5.2936">
        <ele>362.07373</ele>
        <time>2011-05-15T10:12:27Z</time>
      </trkpt>
      <trkpt lat="43.95403" lon="5.29361">
        <ele>363.035034</ele>
        <time>2011-05-15T10:12:44Z</time>
      </trkpt>
      <trkpt lat="43.95407" lon="5.29351">
        <ele>363.515747</ele>
        <time>2011-05-15T10:12:48Z</time>
      </trkpt>
      <trkpt lat="43.95418" lon="5.29354">
        <ele>363.996338</ele>
        <time>2011-05-15T10:13:06Z</time>
      </trkpt>
      <trkpt lat="43.95442" lon="5.29355">
        <ele>365.918945</ele>
        <time>2011-05-15T10:13:30Z</time>
      </trkpt>
      <trkpt lat="43.95447" lon="5.29364">
        <ele>367.360962</ele>
        <time>2011-05-15T10:13:47Z</time>
      </trkpt>
      <trkpt lat="43.95463" lon="5.29355">
        <ele>368.322266</ele>
        <time>2011-05-15T10:14:09Z</time>
      </trkpt>
      <trkpt lat="43.95462" lon="5.29342">
        <ele>369.764282</ele>
        <time>2011-05-15T10:14:33Z</time>
      </trkpt>
      <trkpt lat="43.95478" lon="5.2934">
        <ele>370.725586</ele>
        <time>2011-05-15T10:14:50Z</time>
      </trkpt>
      <trkpt lat="43.95485" lon="5.29337">
        <ele>373.128906</ele>
        <time>2011-05-15T10:15:06Z</time>
      </trkpt>
      <trkpt lat="43.95497" lon="5.29348">
        <ele>374.090088</ele>
        <time>2011-05-15T10:15:22Z</time>
      </trkpt>
      <trkpt lat="43.95523" lon="5.2936">
        <ele>376.012817</ele>
        <time>2011-05-15T10:15:44Z</time>
      </trkpt>
      <trkpt lat="43.95531" lon="5.29378">
        <ele>376.974243</ele>
        <time>2011-05-15T10:16:02Z</time>
      </trkpt>
      <trkpt lat="43.95535" lon="5.29402">
        <ele>379.858032</ele>
        <time>2011-05-15T10:16:21Z</time>
      </trkpt>
      <trkpt lat="43.95549" lon="5.29416">
        <ele>381.78064</ele>
        <time>2011-05-15T10:16:42Z</time>
      </trkpt>
      <trkpt lat="43.95555" lon="5.29417">
        <ele>381.300049</ele>
        <time>2011-05-15T10:16:46Z</time>
      </trkpt>
      <trkpt lat="43.95581" lon="5.29426">
        <ele>383.703247</ele>
        <time>2011-05-15T10:17:13Z</time>
      </trkpt>
      <trkpt lat="43.95594" lon="5.29433">
        <ele>385.145386</ele>
        <time>2011-05-15T10:17:32Z</time>
      </trkpt>
      <trkpt lat="43.95607" lon="5.29434">
        <ele>387.067993</ele>
        <time>2011-05-15T10:17:48Z</time>
      </trkpt>
      <trkpt lat="43.95629" lon="5.29443">
        <ele>388.51001</ele>
        <time>2011-05-15T10:18:08Z</time>
      </trkpt>
      <trkpt lat="43.9563" lon="5.29441">
        <ele>388.990601</ele>
        <time>2011-05-15T10:18:10Z</time>
      </trkpt>
      <trkpt lat="43.95633" lon="5.2944">
        <ele>389.471191</ele>
        <time>2011-05-15T10:18:12Z</time>
      </trkpt>
      <trkpt lat="43.95639" lon="5.29439">
        <ele>389.951904</ele>
        <time>2011-05-15T10:18:18Z</time>
      </trkpt>
      <trkpt lat="43.95651" lon="5.29442">
        <ele>388.990601</ele>
        <time>2011-05-15T10:18:33Z</time>
      </trkpt>
      <trkpt lat="43.95663" lon="5.29458">
        <ele>391.393799</ele>
        <time>2011-05-15T10:18:54Z</time>
      </trkpt>
      <trkpt lat="43.95691" lon="5.29442">
        <ele>393.316528</ele>
        <time>2011-05-15T10:19:16Z</time>
      </trkpt>
      <trkpt lat="43.95697" lon="5.29445">
        <ele>393.797241</ele>
        <time>2011-05-15T10:19:31Z</time>
      </trkpt>
      <trkpt lat="43.95706" lon="5.29442">
        <ele>395.239136</ele>
        <time>2011-05-15T10:19:40Z</time>
      </trkpt>
      <trkpt lat="43.95723" lon="5.29443">
        <ele>396.200562</ele>
        <time>2011-05-15T10:20:00Z</time>
      </trkpt>
      <trkpt lat="43.95745" lon="5.29437">
        <ele>397.642456</ele>
        <time>2011-05-15T10:20:18Z</time>
      </trkpt>
      <trkpt lat="43.95758" lon="5.29448">
        <ele>398.60376</ele>
        <time>2011-05-15T10:20:30Z</time>
      </trkpt>
      <trkpt lat="43.95761" lon="5.2945">
        <ele>399.084351</ele>
        <time>2011-05-15T10:20:32Z</time>
      </trkpt>
      <trkpt lat="43.95783" lon="5.29458">
        <ele>399.084351</ele>
        <time>2011-05-15T10:20:56Z</time>
      </trkpt>
      <trkpt lat="43.95799" lon="5.2947">
        <ele>401.00708</ele>
        <time>2011-05-15T10:21:14Z</time>
      </trkpt>
      <trkpt lat="43.9581" lon="5.29495">
        <ele>402.449097</ele>
        <time>2011-05-15T10:21:31Z</time>
      </trkpt>
      <trkpt lat="43.95835" lon="5.29483">
        <ele>404.371704</ele>
        <time>2011-05-15T10:21:55Z</time>
      </trkpt>
      <trkpt lat="43.95848" lon="5.29471">
        <ele>404.371704</ele>
        <time>2011-05-15T10:22:14Z</time>
      </trkpt>
      <trkpt lat="43.9586" lon="5.29448">
        <ele>404.852295</ele>
        <time>2011-05-15T10:22:37Z</time>
      </trkpt>
      <trkpt lat="43.95871" lon="5.29431">
        <ele>406.774902</ele>
        <time>2011-05-15T10:22:58Z</time>
      </trkpt>
      <trkpt lat="43.95893" lon="5.29423">
        <ele>407.736328</ele>
        <time>2011-05-15T10:23:15Z</time>
      </trkpt>
      <trkpt lat="43.95912" lon="5.2942">
        <ele>409.178345</ele>
        <time>2011-05-15T10:23:31Z</time>
      </trkpt>
      <trkpt lat="43.95924" lon="5.2942">
        <ele>409.659058</ele>
        <time>2011-05-15T10:23:49Z</time>
      </trkpt>
      <trkpt lat="43.95937" lon="5.29409">
        <ele>409.659058</ele>
        <time>2011-05-15T10:24:02Z</time>
      </trkpt>
      <trkpt lat="43.95958" lon="5.29395">
        <ele>411.100952</ele>
        <time>2011-05-15T10:24:22Z</time>
      </trkpt>
      <trkpt lat="43.95972" lon="5.29394">
        <ele>411.581665</ele>
        <time>2011-05-15T10:24:37Z</time>
      </trkpt>
      <trkpt lat="43.95988" lon="5.29399">
        <ele>412.062256</ele>
        <time>2011-05-15T10:24:55Z</time>
      </trkpt>
      <trkpt lat="43.96004" lon="5.29406">
        <ele>414.946167</ele>
        <time>2011-05-15T10:25:15Z</time>
      </trkpt>
      <trkpt lat="43.96021" lon="5.29407">
        <ele>415.907471</ele>
        <time>2011-05-15T10:25:37Z</time>
      </trkpt>
      <trkpt lat="43.96022" lon="5.29407">
        <ele>415.907471</ele>
        <time>2011-05-15T10:25:38Z</time>
      </trkpt>
      <trkpt lat="43.96042" lon="5.29409">
        <ele>417.8302</ele>
        <time>2011-05-15T10:26:00Z</time>
      </trkpt>
      <trkpt lat="43.96055" lon="5.29402">
        <ele>417.8302</ele>
        <time>2011-05-15T10:26:21Z</time>
      </trkpt>
      <trkpt lat="43.9606" lon="5.29401">
        <ele>419.272217</ele>
        <time>2011-05-15T10:26:54Z</time>
      </trkpt>
      <trkpt lat="43.96073" lon="5.29389">
        <ele>420.233398</ele>
        <time>2011-05-15T10:27:22Z</time>
      </trkpt>
      <trkpt lat="43.96088" lon="5.29386">
        <ele>420.233398</ele>
        <time>2011-05-15T10:27:42Z</time>
      </trkpt>
      <trkpt lat="43.96098" lon="5.29392">
        <ele>421.675415</ele>
        <time>2011-05-15T10:28:01Z</time>
      </trkpt>
      <trkpt lat="43.96118" lon="5.29392">
        <ele>423.117432</ele>
        <time>2011-05-15T10:28:20Z</time>
      </trkpt>
      <trkpt lat="43.96138" lon="5.29402">
        <ele>424.078735</ele>
        <time>2011-05-15T10:28:43Z</time>
      </trkpt>
      <trkpt lat="43.9615" lon="5.29391">
        <ele>424.559448</ele>
        <time>2011-05-15T10:29:01Z</time>
      </trkpt>
      <trkpt lat="43.96162" lon="5.29384">
        <ele>425.520752</ele>
        <time>2011-05-15T10:29:16Z</time>
      </trkpt>
      <trkpt lat="43.96175" lon="5.29381">
        <ele>426.482056</ele>
        <time>2011-05-15T10:29:36Z</time>
      </trkpt>
      <trkpt lat="43.96187" lon="5.29393">
        <ele>426.962769</ele>
        <time>2011-05-15T10:29:49Z</time>
      </trkpt>
      <trkpt lat="43.96198" lon="5.29408">
        <ele>427.443359</ele>
        <time>2011-05-15T10:30:09Z</time>
      </trkpt>
      <trkpt lat="43.96216" lon="5.29413">
        <ele>428.885376</ele>
        <time>2011-05-15T10:30:28Z</time>
      </trkpt>
      <trkpt lat="43.96226" lon="5.29406">
        <ele>429.365967</ele>
        <time>2011-05-15T10:30:49Z</time>
      </trkpt>
      <trkpt lat="43.96245" lon="5.29415">
        <ele>431.288574</ele>
        <time>2011-05-15T10:31:08Z</time>
      </trkpt>
      <trkpt lat="43.96262" lon="5.29415">
        <ele>431.769165</ele>
        <time>2011-05-15T10:31:25Z</time>
      </trkpt>
      <trkpt lat="43.96276" lon="5.29412">
        <ele>433.211304</ele>
        <time>2011-05-15T10:31:42Z</time>
      </trkpt>
      <trkpt lat="43.96284" lon="5.29415">
        <ele>433.211304</ele>
        <time>2011-05-15T10:31:52Z</time>
      </trkpt>
      <trkpt lat="43.96296" lon="5.29413">
        <ele>433.691895</ele>
        <time>2011-05-15T10:32:07Z</time>
      </trkpt>
      <trkpt lat="43.96307" lon="5.29403">
        <ele>434.65332</ele>
        <time>2011-05-15T10:32:27Z</time>
      </trkpt>
      <trkpt lat="43.96325" lon="5.29406">
        <ele>435.614502</ele>
        <time>2011-05-15T10:32:45Z</time>
      </trkpt>
      <trkpt lat="43.96331" lon="5.2941">
        <ele>436.575928</ele>
        <time>2011-05-15T10:32:55Z</time>
      </trkpt>
      <trkpt lat="43.96335" lon="5.29409">
        <ele>436.575928</ele>
        <time>2011-05-15T10:33:01Z</time>
      </trkpt>
      <trkpt lat="43.96351" lon="5.29413">
        <ele>437.537109</ele>
        <time>2011-05-15T10:33:17Z</time>
      </trkpt>
      <trkpt lat="43.96363" lon="5.29413">
        <ele>438.498535</ele>
        <time>2011-05-15T10:33:39Z</time>
      </trkpt>
      <trkpt lat="43.96385" lon="5.29409">
        <ele>440.421265</ele>
        <time>2011-05-15T10:34:05Z</time>
      </trkpt>
      <trkpt lat="43.96403" lon="5.29414">
        <ele>440.901855</ele>
        <time>2011-05-15T10:34:25Z</time>
      </trkpt>
      <trkpt lat="43.96409" lon="5.29429">
        <ele>441.382446</ele>
        <time>2011-05-15T10:34:40Z</time>
      </trkpt>
      <trkpt lat="43.96423" lon="5.29439">
        <ele>442.343872</ele>
        <time>2011-05-15T10:35:01Z</time>
      </trkpt>
      <trkpt lat="43.96427" lon="5.29452">
        <ele>445.708374</ele>
        <time>2011-05-15T10:35:20Z</time>
      </trkpt>
      <trkpt lat="43.96433" lon="5.29461">
        <ele>445.227661</ele>
        <time>2011-05-15T10:35:34Z</time>
      </trkpt>
      <trkpt lat="43.96443" lon="5.29463">
        <ele>446.669678</ele>
        <time>2011-05-15T10:35:54Z</time>
      </trkpt>
      <trkpt lat="43.96452" lon="5.29464">
        <ele>448.592407</ele>
        <time>2011-05-15T10:36:10Z</time>
      </trkpt>
      <trkpt lat="43.96464" lon="5.29468">
        <ele>449.553711</ele>
        <time>2011-05-15T10:36:31Z</time>
      </trkpt>
      <trkpt lat="43.96472" lon="5.29478">
        <ele>450.995605</ele>
        <time>2011-05-15T10:36:46Z</time>
      </trkpt>
      <trkpt lat="43.96488" lon="5.29493">
        <ele>452.918213</ele>
        <time>2011-05-15T10:37:09Z</time>
      </trkpt>
      <trkpt lat="43.96512" lon="5.29501">
        <ele>455.321533</ele>
        <time>2011-05-15T10:37:30Z</time>
      </trkpt>
      <trkpt lat="43.96514" lon="5.29502">
        <ele>455.802246</ele>
        <time>2011-05-15T10:37:32Z</time>
      </trkpt>
      <trkpt lat="43.96525" lon="5.2951">
        <ele>456.282959</ele>
        <time>2011-05-15T10:37:45Z</time>
      </trkpt>
      <trkpt lat="43.9654" lon="5.29519">
        <ele>459.647583</ele>
        <time>2011-05-15T10:38:03Z</time>
      </trkpt>
      <trkpt lat="43.96555" lon="5.29518">
        <ele>461.57019</ele>
        <time>2011-05-15T10:38:21Z</time>
      </trkpt>
      <trkpt lat="43.96569" lon="5.29518">
        <ele>463.012085</ele>
        <time>2011-05-15T10:38:39Z</time>
      </trkpt>
      <trkpt lat="43.96586" lon="5.29522">
        <ele>465.896118</ele>
        <time>2011-05-15T10:38:58Z</time>
      </trkpt>
      <trkpt lat="43.96586" lon="5.29516">
        <ele>467.818726</ele>
        <time>2011-05-15T10:39:06Z</time>
      </trkpt>
      <trkpt lat="43.96589" lon="5.29516">
        <ele>469.260742</ele>
        <time>2011-05-15T10:39:09Z</time>
      </trkpt>
      <trkpt lat="43.96594" lon="5.29514">
        <ele>470.221924</ele>
        <time>2011-05-15T10:39:16Z</time>
      </trkpt>
      <trkpt lat="43.96598" lon="5.29512">
        <ele>471.18335</ele>
        <time>2011-05-15T10:39:21Z</time>
      </trkpt>
      <trkpt lat="43.96619" lon="5.2951">
        <ele>474.547974</ele>
        <time>2011-05-15T10:39:40Z</time>
      </trkpt>
      <trkpt lat="43.96636" lon="5.29506">
        <ele>476.951294</ele>
        <time>2011-05-15T10:39:57Z</time>
      </trkpt>
      <trkpt lat="43.96649" lon="5.29505">
        <ele>480.315918</ele>
        <time>2011-05-15T10:40:12Z</time>
      </trkpt>
      <trkpt lat="43.96669" lon="5.29499">
        <ele>481.757813</ele>
        <time>2011-05-15T10:40:32Z</time>
      </trkpt>
      <trkpt lat="43.96671" lon="5.29499">
        <ele>482.238525</ele>
        <time>2011-05-15T10:40:34Z</time>
      </trkpt>
      <trkpt lat="43.96677" lon="5.29502">
        <ele>483.199829</ele>
        <time>2011-05-15T10:40:39Z</time>
      </trkpt>
      <trkpt lat="43.96692" lon="5.29494">
        <ele>484.641846</ele>
        <time>2011-05-15T10:40:52Z</time>
      </trkpt>
      <trkpt lat="43.96694" lon="5.29493">
        <ele>484.641846</ele>
        <time>2011-05-15T10:40:54Z</time>
      </trkpt>
      <trkpt lat="43.96706" lon="5.29491">
        <ele>486.564453</ele>
        <time>2011-05-15T10:41:05Z</time>
      </trkpt>
      <trkpt lat="43.96723" lon="5.29489">
        <ele>488.487183</ele>
        <time>2011-05-15T10:41:24Z</time>
      </trkpt>
      <trkpt lat="43.96741" lon="5.29482">
        <ele>490.890381</ele>
        <time>2011-05-15T10:41:43Z</time>
      </trkpt>
      <trkpt lat="43.96755" lon="5.29478">
        <ele>493.293579</ele>
        <time>2011-05-15T10:41:56Z</time>
      </trkpt>
      <trkpt lat="43.96762" lon="5.29472">
        <ele>494.255005</ele>
        <time>2011-05-15T10:42:04Z</time>
      </trkpt>
      <trkpt lat="43.96766" lon="5.2947">
        <ele>495.216187</ele>
        <time>2011-05-15T10:42:08Z</time>
      </trkpt>
      <trkpt lat="43.96769" lon="5.2947">
        <ele>495.696899</ele>
        <time>2011-05-15T10:42:11Z</time>
      </trkpt>
      <trkpt lat="43.96772" lon="5.29469">
        <ele>496.177734</ele>
        <time>2011-05-15T10:42:14Z</time>
      </trkpt>
      <trkpt lat="43.96777" lon="5.29465">
        <ele>496.658325</ele>
        <time>2011-05-15T10:42:19Z</time>
      </trkpt>
      <trkpt lat="43.96781" lon="5.29467">
        <ele>497.138916</ele>
        <time>2011-05-15T10:42:25Z</time>
      </trkpt>
      <trkpt lat="43.96784" lon="5.29466">
        <ele>498.100342</ele>
        <time>2011-05-15T10:42:30Z</time>
      </trkpt>
      <trkpt lat="43.96788" lon="5.29462">
        <ele>499.061523</ele>
        <time>2011-05-15T10:42:39Z</time>
      </trkpt>
      <trkpt lat="43.96793" lon="5.29462">
        <ele>499.542236</ele>
        <time>2011-05-15T10:42:42Z</time>
      </trkpt>
      <trkpt lat="43.96804" lon="5.29471">
        <ele>500.984131</ele>
        <time>2011-05-15T10:42:53Z</time>
      </trkpt>
      <trkpt lat="43.96816" lon="5.29474">
        <ele>502.426147</ele>
        <time>2011-05-15T10:43:04Z</time>
      </trkpt>
      <trkpt lat="43.96828" lon="5.29485">
        <ele>503.387451</ele>
        <time>2011-05-15T10:43:15Z</time>
      </trkpt>
      <trkpt lat="43.9684" lon="5.29487">
        <ele>503.868164</ele>
        <time>2011-05-15T10:43:26Z</time>
      </trkpt>
      <trkpt lat="43.96852" lon="5.29488">
        <ele>504.829468</ele>
        <time>2011-05-15T10:43:35Z</time>
      </trkpt>
      <trkpt lat="43.96872" lon="5.29485">
        <ele>506.752075</ele>
        <time>2011-05-15T10:43:52Z</time>
      </trkpt>
      <trkpt lat="43.96891" lon="5.29477">
        <ele>507.713501</ele>
        <time>2011-05-15T10:44:09Z</time>
      </trkpt>
      <trkpt lat="43.96907" lon="5.29471">
        <ele>509.155396</ele>
        <time>2011-05-15T10:44:22Z</time>
      </trkpt>
      <trkpt lat="43.96909" lon="5.29472">
        <ele>509.155396</ele>
        <time>2011-05-15T10:44:24Z</time>
      </trkpt>
      <trkpt lat="43.96916" lon="5.29473">
        <ele>509.636108</ele>
        <time>2011-05-15T10:44:29Z</time>
      </trkpt>
      <trkpt lat="43.96922" lon="5.29471">
        <ele>510.116699</ele>
        <time>2011-05-15T10:44:34Z</time>
      </trkpt>
      <trkpt lat="43.96941" lon="5.2947">
        <ele>510.116699</ele>
        <time>2011-05-15T10:44:50Z</time>
      </trkpt>
      <trkpt lat="43.96942" lon="5.2947">
        <ele>510.116699</ele>
        <time>2011-05-15T10:44:51Z</time>
      </trkpt>
      <trkpt lat="43.96952" lon="5.2947">
        <ele>510.116699</ele>
        <time>2011-05-15T10:44:59Z</time>
      </trkpt>
      <trkpt lat="43.9696" lon="5.29472">
        <ele>510.116699</ele>
        <time>2011-05-15T10:45:05Z</time>
      </trkpt>
      <trkpt lat="43.96965" lon="5.29474">
        <ele>510.116699</ele>
        <time>2011-05-15T10:45:10Z</time>
      </trkpt>
      <trkpt lat="43.96967" lon="5.29476">
        <ele>509.636108</ele>
        <time>2011-05-15T10:45:13Z</time>
      </trkpt>
      <trkpt lat="43.96972" lon="5.29478">
        <ele>509.636108</ele>
        <time>2011-05-15T10:45:18Z</time>
      </trkpt>
      <trkpt lat="43.96975" lon="5.29481">
        <ele>510.116699</ele>
        <time>2011-05-15T10:45:22Z</time>
      </trkpt>
      <trkpt lat="43.9699" lon="5.29494">
        <ele>510.116699</ele>
        <time>2011-05-15T10:45:37Z</time>
      </trkpt>
      <trkpt lat="43.96994" lon="5.29498">
        <ele>509.636108</ele>
        <time>2011-05-15T10:45:41Z</time>
      </trkpt>
      <trkpt lat="43.97011" lon="5.29509">
        <ele>510.59729</ele>
        <time>2011-05-15T10:45:55Z</time>
      </trkpt>
      <trkpt lat="43.9702" lon="5.29515">
        <ele>510.59729</ele>
        <time>2011-05-15T10:46:03Z</time>
      </trkpt>
      <trkpt lat="43.97024" lon="5.29515">
        <ele>510.59729</ele>
        <time>2011-05-15T10:46:05Z</time>
      </trkpt>
      <trkpt lat="43.97027" lon="5.29515">
        <ele>510.116699</ele>
        <time>2011-05-15T10:46:07Z</time>
      </trkpt>
      <trkpt lat="43.9704" lon="5.29513">
        <ele>512.039429</ele>
        <time>2011-05-15T10:46:18Z</time>
      </trkpt>
      <trkpt lat="43.97043" lon="5.29513">
        <ele>512.039429</ele>
        <time>2011-05-15T10:46:22Z</time>
      </trkpt>
      <trkpt lat="43.97049" lon="5.29514">
        <ele>512.039429</ele>
        <time>2011-05-15T10:46:28Z</time>
      </trkpt>
      <trkpt lat="43.97054" lon="5.29514">
        <ele>512.52002</ele>
        <time>2011-05-15T10:46:32Z</time>
      </trkpt>
      <trkpt lat="43.97059" lon="5.29515">
        <ele>513.000732</ele>
        <time>2011-05-15T10:46:36Z</time>
      </trkpt>
      <trkpt lat="43.97061" lon="5.29517">
        <ele>513.000732</ele>
        <time>2011-05-15T10:46:38Z</time>
      </trkpt>
      <trkpt lat="43.97074" lon="5.29524">
        <ele>514.442627</ele>
        <time>2011-05-15T10:46:49Z</time>
      </trkpt>
      <trkpt lat="43.97082" lon="5.29532">
        <ele>514.442627</ele>
        <time>2011-05-15T10:46:57Z</time>
      </trkpt>
      <trkpt lat="43.97084" lon="5.29535">
        <ele>514.442627</ele>
        <time>2011-05-15T10:47:00Z</time>
      </trkpt>
      <trkpt lat="43.97097" lon="5.29547">
        <ele>515.884644</ele>
        <time>2011-05-15T10:47:14Z</time>
      </trkpt>
      <trkpt lat="43.97107" lon="5.29548">
        <ele>516.365234</ele>
        <time>2011-05-15T10:47:20Z</time>
      </trkpt>
      <trkpt lat="43.97111" lon="5.29553">
        <ele>516.845947</ele>
        <time>2011-05-15T10:47:24Z</time>
      </trkpt>
      <trkpt lat="43.97116" lon="5.29564">
        <ele>515.404053</ele>
        <time>2011-05-15T10:47:33Z</time>
      </trkpt>
      <trkpt lat="43.97117" lon="5.29569">
        <ele>515.404053</ele>
        <time>2011-05-15T10:47:38Z</time>
      </trkpt>
      <trkpt lat="43.97122" lon="5.29578">
        <ele>517.807251</ele>
        <time>2011-05-15T10:47:45Z</time>
      </trkpt>
      <trkpt lat="43.97125" lon="5.29585">
        <ele>519.249268</ele>
        <time>2011-05-15T10:47:49Z</time>
      </trkpt>
      <trkpt lat="43.97133" lon="5.2961">
        <ele>519.729858</ele>
        <time>2011-05-15T10:48:06Z</time>
      </trkpt>
      <trkpt lat="43.9714" lon="5.29629">
        <ele>520.210571</ele>
        <time>2011-05-15T10:48:22Z</time>
      </trkpt>
      <trkpt lat="43.97145" lon="5.29644">
        <ele>520.210571</ele>
        <time>2011-05-15T10:48:35Z</time>
      </trkpt>
      <trkpt lat="43.97159" lon="5.29673">
        <ele>520.210571</ele>
        <time>2011-05-15T10:48:58Z</time>
      </trkpt>
      <trkpt lat="43.97171" lon="5.29683">
        <ele>520.210571</ele>
        <time>2011-05-15T10:49:10Z</time>
      </trkpt>
      <trkpt lat="43.9719" lon="5.29692">
        <ele>523.094604</ele>
        <time>2011-05-15T10:49:26Z</time>
      </trkpt>
      <trkpt lat="43.97202" lon="5.297">
        <ele>524.055786</ele>
        <time>2011-05-15T10:49:37Z</time>
      </trkpt>
      <trkpt lat="43.97212" lon="5.29707">
        <ele>524.536499</ele>
        <time>2011-05-15T10:49:47Z</time>
      </trkpt>
      <trkpt lat="43.97219" lon="5.29712">
        <ele>526.459106</ele>
        <time>2011-05-15T10:49:57Z</time>
      </trkpt>
      <trkpt lat="43.97227" lon="5.2971">
        <ele>526.459106</ele>
        <time>2011-05-15T10:50:15Z</time>
      </trkpt>
      <trkpt lat="43.97241" lon="5.2971">
        <ele>526.459106</ele>
        <time>2011-05-15T10:50:27Z</time>
      </trkpt>
      <trkpt lat="43.97246" lon="5.29707">
        <ele>526.459106</ele>
        <time>2011-05-15T10:50:36Z</time>
      </trkpt>
      <trkpt lat="43.97252" lon="5.29705">
        <ele>526.459106</ele>
        <time>2011-05-15T10:50:42Z</time>
      </trkpt>
      <trkpt lat="43.97249" lon="5.29704">
        <ele>526.459106</ele>
        <time>2011-05-15T10:50:53Z</time>
      </trkpt>
      <trkpt lat="43.97237" lon="5.29705">
        <ele>526.459106</ele>
        <time>2011-05-15T10:51:05Z</time>
      </trkpt>
      <trkpt lat="43.97228" lon="5.29705">
        <ele>525.497803</ele>
        <time>2011-05-15T10:51:14Z</time>
      </trkpt>
      <trkpt lat="43.97215" lon="5.29709">
        <ele>524.055786</ele>
        <time>2011-05-15T10:51:32Z</time>
      </trkpt>
      <trkpt lat="43.97219" lon="5.29711">
        <ele>524.055786</ele>
        <time>2011-05-15T10:52:02Z</time>
      </trkpt>
      <trkpt lat="43.97229" lon="5.2971">
        <ele>523.575195</ele>
        <time>2011-05-15T10:52:21Z</time>
      </trkpt>
      <trkpt lat="43.9725" lon="5.29705">
        <ele>525.497803</ele>
        <time>2011-05-15T10:52:41Z</time>
      </trkpt>
      <trkpt lat="43.97259" lon="5.29705">
        <ele>525.497803</ele>
        <time>2011-05-15T10:52:47Z</time>
      </trkpt>
      <trkpt lat="43.97264" lon="5.29705">
        <ele>525.497803</ele>
        <time>2011-05-15T10:52:50Z</time>
      </trkpt>
      <trkpt lat="43.9727" lon="5.29703">
        <ele>525.017212</ele>
        <time>2011-05-15T10:52:54Z</time>
      </trkpt>
      <trkpt lat="43.97274" lon="5.29703">
        <ele>525.497803</ele>
        <time>2011-05-15T10:52:58Z</time>
      </trkpt>
      <trkpt lat="43.9728" lon="5.29696">
        <ele>527.42041</ele>
        <time>2011-05-15T10:53:07Z</time>
      </trkpt>
      <trkpt lat="43.97285" lon="5.29695">
        <ele>526.939819</ele>
        <time>2011-05-15T10:53:20Z</time>
      </trkpt>
      <trkpt lat="43.97295" lon="5.29692">
        <ele>526.459106</ele>
        <time>2011-05-15T10:53:32Z</time>
      </trkpt>
      <trkpt lat="43.97297" lon="5.29689">
        <ele>525.978394</ele>
        <time>2011-05-15T10:53:48Z</time>
      </trkpt>
      <trkpt lat="43.97301" lon="5.29687">
        <ele>526.459106</ele>
        <time>2011-05-15T10:53:56Z</time>
      </trkpt>
      <trkpt lat="43.97306" lon="5.29682">
        <ele>525.497803</ele>
        <time>2011-05-15T10:54:02Z</time>
      </trkpt>
      <trkpt lat="43.97308" lon="5.29676">
        <ele>525.017212</ele>
        <time>2011-05-15T10:54:07Z</time>
      </trkpt>
      <trkpt lat="43.9731" lon="5.29674">
        <ele>525.017212</ele>
        <time>2011-05-15T10:54:10Z</time>
      </trkpt>
      <trkpt lat="43.97317" lon="5.29663">
        <ele>526.939819</ele>
        <time>2011-05-15T10:54:19Z</time>
      </trkpt>
      <trkpt lat="43.9732" lon="5.29662">
        <ele>526.939819</ele>
        <time>2011-05-15T10:54:22Z</time>
      </trkpt>
      <trkpt lat="43.97319" lon="5.2966">
        <ele>527.42041</ele>
        <time>2011-05-15T10:54:33Z</time>
      </trkpt>
      <trkpt lat="43.97317" lon="5.29663">
        <ele>525.497803</ele>
        <time>2011-05-15T10:54:50Z</time>
      </trkpt>
      <trkpt lat="43.97316" lon="5.29664">
        <ele>525.978394</ele>
        <time>2011-05-15T10:54:52Z</time>
      </trkpt>
      <trkpt lat="43.97315" lon="5.29662">
        <ele>528.862549</ele>
        <time>2011-05-15T10:55:02Z</time>
      </trkpt>
      <trkpt lat="43.97314" lon="5.29664">
        <ele>525.978394</ele>
        <time>2011-05-15T10:55:10Z</time>
      </trkpt>
      <trkpt lat="43.97311" lon="5.29665">
        <ele>523.094604</ele>
        <time>2011-05-15T10:55:46Z</time>
      </trkpt>
      <trkpt lat="43.97309" lon="5.29665">
        <ele>525.978394</ele>
        <time>2011-05-15T10:55:51Z</time>
      </trkpt>
      <trkpt lat="43.97308" lon="5.29664">
        <ele>525.978394</ele>
        <time>2011-05-15T10:55:52Z</time>
      </trkpt>
      <trkpt lat="43.97298" lon="5.29675">
        <ele>524.055786</ele>
        <time>2011-05-15T10:56:05Z</time>
      </trkpt>
      <trkpt lat="43.9729" lon="5.29676">
        <ele>524.536499</ele>
        <time>2011-05-15T10:56:12Z</time>
      </trkpt>
      <trkpt lat="43.97275" lon="5.29683">
        <ele>523.575195</ele>
        <time>2011-05-15T10:56:26Z</time>
      </trkpt>
      <trkpt lat="43.97261" lon="5.2969">
        <ele>523.094604</ele>
        <time>2011-05-15T10:56:40Z</time>
      </trkpt>
      <trkpt lat="43.9726" lon="5.29691">
        <ele>523.094604</ele>
        <time>2011-05-15T10:56:41Z</time>
      </trkpt>
      <trkpt lat="43.97255" lon="5.29696">
        <ele>522.613892</ele>
        <time>2011-05-15T10:56:45Z</time>
      </trkpt>
      <trkpt lat="43.97244" lon="5.297">
        <ele>521.652588</ele>
        <time>2011-05-15T10:56:54Z</time>
      </trkpt>
      <trkpt lat="43.97233" lon="5.29702">
        <ele>522.133179</ele>
        <time>2011-05-15T10:57:03Z</time>
      </trkpt>
      <trkpt lat="43.97225" lon="5.29704">
        <ele>521.652588</ele>
        <time>2011-05-15T10:57:09Z</time>
      </trkpt>
      <trkpt lat="43.97213" lon="5.29706">
        <ele>518.287842</ele>
        <time>2011-05-15T10:57:20Z</time>
      </trkpt>
      <trkpt lat="43.97208" lon="5.29704">
        <ele>518.768555</ele>
        <time>2011-05-15T10:57:36Z</time>
      </trkpt>
      <trkpt lat="43.97204" lon="5.29712">
        <ele>519.729858</ele>
        <time>2011-05-15T10:57:48Z</time>
      </trkpt>
      <trkpt lat="43.97193" lon="5.29726">
        <ele>522.133179</ele>
        <time>2011-05-15T10:58:06Z</time>
      </trkpt>
      <trkpt lat="43.97189" lon="5.29726">
        <ele>523.094604</ele>
        <time>2011-05-15T10:58:11Z</time>
      </trkpt>
      <trkpt lat="43.97177" lon="5.2972">
        <ele>525.497803</ele>
        <time>2011-05-15T10:58:28Z</time>
      </trkpt>
      <trkpt lat="43.97173" lon="5.29717">
        <ele>528.862549</ele>
        <time>2011-05-15T10:58:37Z</time>
      </trkpt>
      <trkpt lat="43.97158" lon="5.29711">
        <ele>530.304443</ele>
        <time>2011-05-15T10:58:58Z</time>
      </trkpt>
      <trkpt lat="43.97155" lon="5.2971">
        <ele>532.227051</ele>
        <time>2011-05-15T10:59:01Z</time>
      </trkpt>
      <trkpt lat="43.97143" lon="5.29706">
        <ele>535.110962</ele>
        <time>2011-05-15T10:59:21Z</time>
      </trkpt>
      <trkpt lat="43.97132" lon="5.29705">
        <ele>537.994995</ele>
        <time>2011-05-15T10:59:43Z</time>
      </trkpt>
      <trkpt lat="43.9713" lon="5.29709">
        <ele>540.398315</ele>
        <time>2011-05-15T11:00:00Z</time>
      </trkpt>
      <trkpt lat="43.9713" lon="5.29715">
        <ele>543.282104</ele>
        <time>2011-05-15T11:00:17Z</time>
      </trkpt>
      <trkpt lat="43.97126" lon="5.29725">
        <ele>546.646851</ele>
        <time>2011-05-15T11:00:35Z</time>
      </trkpt>
      <trkpt lat="43.97133" lon="5.29753">
        <ele>547.127441</ele>
        <time>2011-05-15T11:00:57Z</time>
      </trkpt>
      <trkpt lat="43.97147" lon="5.29777">
        <ele>547.608154</ele>
        <time>2011-05-15T11:01:20Z</time>
      </trkpt>
      <trkpt lat="43.9715" lon="5.29796">
        <ele>549.050049</ele>
        <time>2011-05-15T11:01:40Z</time>
      </trkpt>
      <trkpt lat="43.97158" lon="5.29813">
        <ele>550.492188</ele>
        <time>2011-05-15T11:01:56Z</time>
      </trkpt>
      <trkpt lat="43.97165" lon="5.29825">
        <ele>552.414551</ele>
        <time>2011-05-15T11:02:10Z</time>
      </trkpt>
      <trkpt lat="43.97165" lon="5.29828">
        <ele>555.298584</ele>
        <time>2011-05-15T11:02:16Z</time>
      </trkpt>
      <trkpt lat="43.97169" lon="5.29839">
        <ele>556.26001</ele>
        <time>2011-05-15T11:02:26Z</time>
      </trkpt>
      <trkpt lat="43.97172" lon="5.29849">
        <ele>558.66333</ele>
        <time>2011-05-15T11:02:42Z</time>
      </trkpt>
      <trkpt lat="43.97173" lon="5.29853">
        <ele>560.585938</ele>
        <time>2011-05-15T11:02:49Z</time>
      </trkpt>
      <trkpt lat="43.97173" lon="5.29858">
        <ele>562.028076</ele>
        <time>2011-05-15T11:02:59Z</time>
      </trkpt>
      <trkpt lat="43.97181" lon="5.29867">
        <ele>562.508545</ele>
        <time>2011-05-15T11:03:12Z</time>
      </trkpt>
      <trkpt lat="43.97188" lon="5.29869">
        <ele>565.392578</ele>
        <time>2011-05-15T11:03:21Z</time>
      </trkpt>
      <trkpt lat="43.97191" lon="5.29871">
        <ele>568.75708</ele>
        <time>2011-05-15T11:03:33Z</time>
      </trkpt>
      <trkpt lat="43.9719" lon="5.29872">
        <ele>568.75708</ele>
        <time>2011-05-15T11:03:34Z</time>
      </trkpt>
      <trkpt lat="43.97189" lon="5.29874">
        <ele>569.718506</ele>
        <time>2011-05-15T11:03:49Z</time>
      </trkpt>
      <trkpt lat="43.97185" lon="5.29887">
        <ele>571.1604</ele>
        <time>2011-05-15T11:04:04Z</time>
      </trkpt>
      <trkpt lat="43.97185" lon="5.29902">
        <ele>574.525146</ele>
        <time>2011-05-15T11:04:19Z</time>
      </trkpt>
      <trkpt lat="43.97186" lon="5.29912">
        <ele>575.486328</ele>
        <time>2011-05-15T11:04:36Z</time>
      </trkpt>
      <trkpt lat="43.97187" lon="5.29921">
        <ele>578.370361</ele>
        <time>2011-05-15T11:04:49Z</time>
      </trkpt>
      <trkpt lat="43.97188" lon="5.29923">
        <ele>579.331543</ele>
        <time>2011-05-15T11:04:51Z</time>
      </trkpt>
      <trkpt lat="43.97186" lon="5.29936">
        <ele>582.215576</ele>
        <time>2011-05-15T11:05:04Z</time>
      </trkpt>
      <trkpt lat="43.97184" lon="5.29942">
        <ele>580.773682</ele>
        <time>2011-05-15T11:05:18Z</time>
      </trkpt>
      <trkpt lat="43.97185" lon="5.2995">
        <ele>580.292969</ele>
        <time>2011-05-15T11:05:23Z</time>
      </trkpt>
      <trkpt lat="43.97186" lon="5.29958">
        <ele>583.657471</ele>
        <time>2011-05-15T11:05:35Z</time>
      </trkpt>
      <trkpt lat="43.97187" lon="5.29963">
        <ele>587.021973</ele>
        <time>2011-05-15T11:05:44Z</time>
      </trkpt>
      <trkpt lat="43.97187" lon="5.29965">
        <ele>587.502686</ele>
        <time>2011-05-15T11:05:46Z</time>
      </trkpt>
      <trkpt lat="43.97185" lon="5.29971">
        <ele>587.983398</ele>
        <time>2011-05-15T11:05:58Z</time>
      </trkpt>
      <trkpt lat="43.97183" lon="5.29979">
        <ele>587.021973</ele>
        <time>2011-05-15T11:06:08Z</time>
      </trkpt>
      <trkpt lat="43.97178" lon="5.29983">
        <ele>587.983398</ele>
        <time>2011-05-15T11:06:23Z</time>
      </trkpt>
      <trkpt lat="43.97174" lon="5.29983">
        <ele>591.348145</ele>
        <time>2011-05-15T11:06:28Z</time>
      </trkpt>
      <trkpt lat="43.9717" lon="5.29985">
        <ele>595.193359</ele>
        <time>2011-05-15T11:06:37Z</time>
      </trkpt>
      <trkpt lat="43.97168" lon="5.29985">
        <ele>593.270752</ele>
        <time>2011-05-15T11:06:42Z</time>
      </trkpt>
      <trkpt lat="43.97166" lon="5.29987">
        <ele>597.115967</ele>
        <time>2011-05-15T11:06:47Z</time>
      </trkpt>
      <trkpt lat="43.97167" lon="5.29988">
        <ele>597.115967</ele>
        <time>2011-05-15T11:06:48Z</time>
      </trkpt>
      <trkpt lat="43.97162" lon="5.29995">
        <ele>598.077393</ele>
        <time>2011-05-15T11:06:57Z</time>
      </trkpt>
      <trkpt lat="43.97153" lon="5.29999">
        <ele>599.519287</ele>
        <time>2011-05-15T11:07:14Z</time>
      </trkpt>
      <trkpt lat="43.97151" lon="5.3">
        <ele>601.922607</ele>
        <time>2011-05-15T11:07:18Z</time>
      </trkpt>
      <trkpt lat="43.97141" lon="5.30013">
        <ele>602.403076</ele>
        <time>2011-05-15T11:07:38Z</time>
      </trkpt>
      <trkpt lat="43.97139" lon="5.30028">
        <ele>605.287354</ele>
        <time>2011-05-15T11:07:57Z</time>
      </trkpt>
      <trkpt lat="43.97132" lon="5.30039">
        <ele>608.171387</ele>
        <time>2011-05-15T11:08:14Z</time>
      </trkpt>
      <trkpt lat="43.9713" lon="5.30042">
        <ele>610.09375</ele>
        <time>2011-05-15T11:08:19Z</time>
      </trkpt>
      <trkpt lat="43.97119" lon="5.30048">
        <ele>609.613281</ele>
        <time>2011-05-15T11:08:33Z</time>
      </trkpt>
      <trkpt lat="43.97115" lon="5.30051">
        <ele>611.535889</ele>
        <time>2011-05-15T11:08:41Z</time>
      </trkpt>
      <trkpt lat="43.97107" lon="5.30068">
        <ele>613.938965</ele>
        <time>2011-05-15T11:08:58Z</time>
      </trkpt>
      <trkpt lat="43.97105" lon="5.30072">
        <ele>612.016602</ele>
        <time>2011-05-15T11:09:03Z</time>
      </trkpt>
      <trkpt lat="43.97105" lon="5.30079">
        <ele>614.419678</ele>
        <time>2011-05-15T11:09:08Z</time>
      </trkpt>
      <trkpt lat="43.97102" lon="5.30088">
        <ele>614.419678</ele>
        <time>2011-05-15T11:09:16Z</time>
      </trkpt>
      <trkpt lat="43.97097" lon="5.30095">
        <ele>614.900391</ele>
        <time>2011-05-15T11:09:24Z</time>
      </trkpt>
      <trkpt lat="43.97098" lon="5.30115">
        <ele>613.938965</ele>
        <time>2011-05-15T11:09:39Z</time>
      </trkpt>
      <trkpt lat="43.97097" lon="5.30125">
        <ele>617.303711</ele>
        <time>2011-05-15T11:09:46Z</time>
      </trkpt>
      <trkpt lat="43.97097" lon="5.30126">
        <ele>617.303711</ele>
        <time>2011-05-15T11:09:47Z</time>
      </trkpt>
      <trkpt lat="43.97098" lon="5.30143">
        <ele>616.822998</ele>
        <time>2011-05-15T11:10:03Z</time>
      </trkpt>
      <trkpt lat="43.97094" lon="5.30152">
        <ele>619.707031</ele>
        <time>2011-05-15T11:10:12Z</time>
      </trkpt>
      <trkpt lat="43.97094" lon="5.30165">
        <ele>618.264893</ele>
        <time>2011-05-15T11:10:23Z</time>
      </trkpt>
      <trkpt lat="43.97095" lon="5.30171">
        <ele>621.14917</ele>
        <time>2011-05-15T11:10:28Z</time>
      </trkpt>
      <trkpt lat="43.97086" lon="5.30186">
        <ele>622.591064</ele>
        <time>2011-05-15T11:10:45Z</time>
      </trkpt>
      <trkpt lat="43.97085" lon="5.3019">
        <ele>621.629639</ele>
        <time>2011-05-15T11:10:48Z</time>
      </trkpt>
      <trkpt lat="43.97085" lon="5.30192">
        <ele>623.071777</ele>
        <time>2011-05-15T11:10:59Z</time>
      </trkpt>
      <trkpt lat="43.97085" lon="5.30193">
        <ele>623.071777</ele>
        <time>2011-05-15T11:11:34Z</time>
      </trkpt>
      <trkpt lat="43.97085" lon="5.30193">
        <ele>624.032959</ele>
        <time>2011-05-15T11:12:03Z</time>
      </trkpt>
      <trkpt lat="43.97085" lon="5.30193">
        <ele>624.032959</ele>
        <time>2011-05-15T11:12:21Z</time>
      </trkpt>
      <trkpt lat="43.97085" lon="5.30193">
        <ele>625.474854</ele>
        <time>2011-05-15T11:12:32Z</time>
      </trkpt>
      <trkpt lat="43.97085" lon="5.30193">
        <ele>622.110352</ele>
        <time>2011-05-15T11:12:33Z</time>
      </trkpt>
      <trkpt lat="43.97085" lon="5.30193">
        <ele>623.071777</ele>
        <time>2011-05-15T11:12:34Z</time>
      </trkpt>
      <trkpt lat="43.97085" lon="5.30193">
        <ele>622.591064</ele>
        <time>2011-05-15T11:12:47Z</time>
      </trkpt>
      <trkpt lat="43.97085" lon="5.30193">
        <ele>621.629639</ele>
        <time>2011-05-15T11:13:11Z</time>
      </trkpt>
      <trkpt lat="43.97083" lon="5.30196">
        <ele>623.071777</ele>
        <time>2011-05-15T11:14:20Z</time>
      </trkpt>
      <trkpt lat="43.97083" lon="5.30196">
        <ele>623.071777</ele>
        <time>2011-05-15T11:14:45Z</time>
      </trkpt>
      <trkpt lat="43.97083" lon="5.30197">
        <ele>622.591064</ele>
        <time>2011-05-15T11:15:26Z</time>
      </trkpt>
      <trkpt lat="43.97088" lon="5.30206">
        <ele>623.071777</ele>
        <time>2011-05-15T11:15:41Z</time>
      </trkpt>
      <trkpt lat="43.97096" lon="5.30212">
        <ele>623.55249</ele>
        <time>2011-05-15T11:15:53Z</time>
      </trkpt>
      <trkpt lat="43.97104" lon="5.30231">
        <ele>624.032959</ele>
        <time>2011-05-15T11:16:15Z</time>
      </trkpt>
      <trkpt lat="43.97114" lon="5.30241">
        <ele>626.436279</ele>
        <time>2011-05-15T11:16:28Z</time>
      </trkpt>
      <trkpt lat="43.97124" lon="5.30246">
        <ele>625.474854</ele>
        <time>2011-05-15T11:16:40Z</time>
      </trkpt>
      <trkpt lat="43.97127" lon="5.30248">
        <ele>626.916992</ele>
        <time>2011-05-15T11:16:55Z</time>
      </trkpt>
      <trkpt lat="43.97136" lon="5.30249">
        <ele>625.474854</ele>
        <time>2011-05-15T11:17:07Z</time>
      </trkpt>
      <trkpt lat="43.9714" lon="5.30249">
        <ele>626.916992</ele>
        <time>2011-05-15T11:17:11Z</time>
      </trkpt>
      <trkpt lat="43.97152" lon="5.30248">
        <ele>626.916992</ele>
        <time>2011-05-15T11:17:21Z</time>
      </trkpt>
      <trkpt lat="43.97157" lon="5.30248">
        <ele>626.436279</ele>
        <time>2011-05-15T11:17:25Z</time>
      </trkpt>
      <trkpt lat="43.97166" lon="5.30248">
        <ele>627.397705</ele>
        <time>2011-05-15T11:17:34Z</time>
      </trkpt>
      <trkpt lat="43.97171" lon="5.3025">
        <ele>627.878174</ele>
        <time>2011-05-15T11:17:38Z</time>
      </trkpt>
      <trkpt lat="43.9719" lon="5.30244">
        <ele>629.800781</ele>
        <time>2011-05-15T11:17:58Z</time>
      </trkpt>
      <trkpt lat="43.97208" lon="5.30238">
        <ele>630.281494</ele>
        <time>2011-05-15T11:18:15Z</time>
      </trkpt>
      <trkpt lat="43.97216" lon="5.30241">
        <ele>631.24292</ele>
        <time>2011-05-15T11:18:24Z</time>
      </trkpt>
      <trkpt lat="43.97224" lon="5.30242">
        <ele>634.126709</ele>
        <time>2011-05-15T11:18:32Z</time>
      </trkpt>
      <trkpt lat="43.97241" lon="5.30249">
        <ele>636.530273</ele>
        <time>2011-05-15T11:18:50Z</time>
      </trkpt>
      <trkpt lat="43.97242" lon="5.30249">
        <ele>636.530273</ele>
        <time>2011-05-15T11:18:51Z</time>
      </trkpt>
      <trkpt lat="43.97244" lon="5.30252">
        <ele>636.530273</ele>
        <time>2011-05-15T11:18:54Z</time>
      </trkpt>
      <trkpt lat="43.97248" lon="5.30257">
        <ele>636.049561</ele>
        <time>2011-05-15T11:18:59Z</time>
      </trkpt>
      <trkpt lat="43.97248" lon="5.30261">
        <ele>637.972168</ele>
        <time>2011-05-15T11:19:02Z</time>
      </trkpt>
      <trkpt lat="43.97258" lon="5.30274">
        <ele>639.414063</ele>
        <time>2011-05-15T11:19:17Z</time>
      </trkpt>
      <trkpt lat="43.97265" lon="5.30288">
        <ele>641.33667</ele>
        <time>2011-05-15T11:19:31Z</time>
      </trkpt>
      <trkpt lat="43.9727" lon="5.30293">
        <ele>641.817383</ele>
        <time>2011-05-15T11:19:47Z</time>
      </trkpt>
      <trkpt lat="43.9728" lon="5.303">
        <ele>643.73999</ele>
        <time>2011-05-15T11:20:11Z</time>
      </trkpt>
      <trkpt lat="43.97287" lon="5.30302">
        <ele>644.220703</ele>
        <time>2011-05-15T11:20:18Z</time>
      </trkpt>
      <trkpt lat="43.97297" lon="5.30299">
        <ele>647.585205</ele>
        <time>2011-05-15T11:20:28Z</time>
      </trkpt>
      <trkpt lat="43.97316" lon="5.30295">
        <ele>648.546387</ele>
        <time>2011-05-15T11:20:46Z</time>
      </trkpt>
      <trkpt lat="43.97329" lon="5.30287">
        <ele>650.469238</ele>
        <time>2011-05-15T11:21:00Z</time>
      </trkpt>
      <trkpt lat="43.97342" lon="5.30279">
        <ele>653.833984</ele>
        <time>2011-05-15T11:21:11Z</time>
      </trkpt>
      <trkpt lat="43.97343" lon="5.30279">
        <ele>653.833984</ele>
        <time>2011-05-15T11:21:12Z</time>
      </trkpt>
      <trkpt lat="43.97357" lon="5.30275">
        <ele>656.237061</ele>
        <time>2011-05-15T11:21:25Z</time>
      </trkpt>
      <trkpt lat="43.97362" lon="5.30275">
        <ele>653.833984</ele>
        <time>2011-05-15T11:21:32Z</time>
      </trkpt>
      <trkpt lat="43.97366" lon="5.30277">
        <ele>658.159912</ele>
        <time>2011-05-15T11:21:42Z</time>
      </trkpt>
      <trkpt lat="43.97367" lon="5.30276">
        <ele>658.640381</ele>
        <time>2011-05-15T11:22:01Z</time>
      </trkpt>
      <trkpt lat="43.97369" lon="5.30273">
        <ele>656.717773</ele>
        <time>2011-05-15T11:22:07Z</time>
      </trkpt>
      <trkpt lat="43.97371" lon="5.30269">
        <ele>657.198486</ele>
        <time>2011-05-15T11:22:22Z</time>
      </trkpt>
      <trkpt lat="43.97381" lon="5.30271">
        <ele>657.198486</ele>
        <time>2011-05-15T11:22:38Z</time>
      </trkpt>
      <trkpt lat="43.97383" lon="5.30274">
        <ele>658.159912</ele>
        <time>2011-05-15T11:22:42Z</time>
      </trkpt>
      <trkpt lat="43.97389" lon="5.30291">
        <ele>660.082275</ele>
        <time>2011-05-15T11:22:59Z</time>
      </trkpt>
      <trkpt lat="43.97392" lon="5.30299">
        <ele>661.043701</ele>
        <time>2011-05-15T11:23:08Z</time>
      </trkpt>
      <trkpt lat="43.97393" lon="5.30299">
        <ele>662.005127</ele>
        <time>2011-05-15T11:23:10Z</time>
      </trkpt>
      <trkpt lat="43.97396" lon="5.30303">
        <ele>659.601807</ele>
        <time>2011-05-15T11:23:14Z</time>
      </trkpt>
      <trkpt lat="43.97402" lon="5.30321">
        <ele>661.043701</ele>
        <time>2011-05-15T11:23:27Z</time>
      </trkpt>
      <trkpt lat="43.97403" lon="5.30337">
        <ele>661.524414</ele>
        <time>2011-05-15T11:23:40Z</time>
      </trkpt>
      <trkpt lat="43.97405" lon="5.3034">
        <ele>661.043701</ele>
        <time>2011-05-15T11:23:43Z</time>
      </trkpt>
      <trkpt lat="43.97407" lon="5.30343">
        <ele>661.043701</ele>
        <time>2011-05-15T11:23:46Z</time>
      </trkpt>
      <trkpt lat="43.9741" lon="5.3035">
        <ele>663.447021</ele>
        <time>2011-05-15T11:23:52Z</time>
      </trkpt>
      <trkpt lat="43.97411" lon="5.30355">
        <ele>662.966309</ele>
        <time>2011-05-15T11:23:56Z</time>
      </trkpt>
      <trkpt lat="43.97413" lon="5.30361">
        <ele>663.92749</ele>
        <time>2011-05-15T11:24:00Z</time>
      </trkpt>
      <trkpt lat="43.97415" lon="5.30366">
        <ele>664.888916</ele>
        <time>2011-05-15T11:24:04Z</time>
      </trkpt>
      <trkpt lat="43.97416" lon="5.30371">
        <ele>666.330811</ele>
        <time>2011-05-15T11:24:07Z</time>
      </trkpt>
      <trkpt lat="43.97421" lon="5.30383">
        <ele>663.92749</ele>
        <time>2011-05-15T11:24:21Z</time>
      </trkpt>
      <trkpt lat="43.97423" lon="5.30388">
        <ele>662.485596</ele>
        <time>2011-05-15T11:24:27Z</time>
      </trkpt>
      <trkpt lat="43.97428" lon="5.30397">
        <ele>662.485596</ele>
        <time>2011-05-15T11:24:35Z</time>
      </trkpt>
      <trkpt lat="43.97431" lon="5.30401">
        <ele>662.485596</ele>
        <time>2011-05-15T11:24:39Z</time>
      </trkpt>
      <trkpt lat="43.97433" lon="5.30407">
        <ele>664.888916</ele>
        <time>2011-05-15T11:24:45Z</time>
      </trkpt>
      <trkpt lat="43.97436" lon="5.30422">
        <ele>667.292236</ele>
        <time>2011-05-15T11:25:00Z</time>
      </trkpt>
      <trkpt lat="43.97436" lon="5.30422">
        <ele>667.772705</ele>
        <time>2011-05-15T11:25:01Z</time>
      </trkpt>
      <trkpt lat="43.97438" lon="5.3043">
        <ele>669.695801</ele>
        <time>2011-05-15T11:25:12Z</time>
      </trkpt>
      <trkpt lat="43.97438" lon="5.30438">
        <ele>671.137695</ele>
        <time>2011-05-15T11:25:24Z</time>
      </trkpt>
      <trkpt lat="43.97444" lon="5.30448">
        <ele>673.541016</ele>
        <time>2011-05-15T11:25:37Z</time>
      </trkpt>
      <trkpt lat="43.97447" lon="5.30457">
        <ele>675.463379</ele>
        <time>2011-05-15T11:25:52Z</time>
      </trkpt>
      <trkpt lat="43.97451" lon="5.30463">
        <ele>678.347412</ele>
        <time>2011-05-15T11:25:58Z</time>
      </trkpt>
      <trkpt lat="43.97453" lon="5.30474">
        <ele>678.347412</ele>
        <time>2011-05-15T11:26:12Z</time>
      </trkpt>
      <trkpt lat="43.97455" lon="5.30481">
        <ele>682.192627</ele>
        <time>2011-05-15T11:26:19Z</time>
      </trkpt>
      <trkpt lat="43.97454" lon="5.30481">
        <ele>682.192627</ele>
        <time>2011-05-15T11:26:20Z</time>
      </trkpt>
      <trkpt lat="43.97458" lon="5.30492">
        <ele>683.634521</ele>
        <time>2011-05-15T11:26:35Z</time>
      </trkpt>
      <trkpt lat="43.97459" lon="5.30497">
        <ele>687.960693</ele>
        <time>2011-05-15T11:26:47Z</time>
      </trkpt>
      <trkpt lat="43.97464" lon="5.30505">
        <ele>687.47998</ele>
        <time>2011-05-15T11:26:55Z</time>
      </trkpt>
      <trkpt lat="43.97466" lon="5.30509">
        <ele>689.402588</ele>
        <time>2011-05-15T11:27:00Z</time>
      </trkpt>
      <trkpt lat="43.97467" lon="5.30516">
        <ele>689.883301</ele>
        <time>2011-05-15T11:27:09Z</time>
      </trkpt>
      <trkpt lat="43.97469" lon="5.30519">
        <ele>690.364014</ele>
        <time>2011-05-15T11:27:13Z</time>
      </trkpt>
      <trkpt lat="43.9747" lon="5.30527">
        <ele>692.767334</ele>
        <time>2011-05-15T11:27:28Z</time>
      </trkpt>
      <trkpt lat="43.97471" lon="5.30531">
        <ele>694.689697</ele>
        <time>2011-05-15T11:27:33Z</time>
      </trkpt>
      <trkpt lat="43.97472" lon="5.30534">
        <ele>696.131836</ele>
        <time>2011-05-15T11:27:36Z</time>
      </trkpt>
      <trkpt lat="43.97476" lon="5.30548">
        <ele>699.015625</ele>
        <time>2011-05-15T11:27:51Z</time>
      </trkpt>
      <trkpt lat="43.97479" lon="5.30557">
        <ele>699.977051</ele>
        <time>2011-05-15T11:28:02Z</time>
      </trkpt>
      <trkpt lat="43.97481" lon="5.30568">
        <ele>700.458008</ele>
        <time>2011-05-15T11:28:17Z</time>
      </trkpt>
      <trkpt lat="43.97487" lon="5.30581">
        <ele>701.899902</ele>
        <time>2011-05-15T11:28:33Z</time>
      </trkpt>
      <trkpt lat="43.97489" lon="5.3059">
        <ele>704.783691</ele>
        <time>2011-05-15T11:28:42Z</time>
      </trkpt>
      <trkpt lat="43.9749" lon="5.30593">
        <ele>703.341797</ele>
        <time>2011-05-15T11:28:45Z</time>
      </trkpt>
      <trkpt lat="43.97493" lon="5.30602">
        <ele>706.225586</ele>
        <time>2011-05-15T11:29:00Z</time>
      </trkpt>
      <trkpt lat="43.97493" lon="5.30603">
        <ele>705.745117</ele>
        <time>2011-05-15T11:29:06Z</time>
      </trkpt>
      <trkpt lat="43.97493" lon="5.30612">
        <ele>707.667725</ele>
        <time>2011-05-15T11:29:17Z</time>
      </trkpt>
      <trkpt lat="43.97493" lon="5.30619">
        <ele>707.187012</ele>
        <time>2011-05-15T11:29:32Z</time>
      </trkpt>
      <trkpt lat="43.97493" lon="5.30622">
        <ele>709.590332</ele>
        <time>2011-05-15T11:29:55Z</time>
      </trkpt>
      <trkpt lat="43.97493" lon="5.30626">
        <ele>710.551514</ele>
        <time>2011-05-15T11:30:12Z</time>
      </trkpt>
      <trkpt lat="43.97493" lon="5.30628">
        <ele>713.916016</ele>
        <time>2011-05-15T11:30:14Z</time>
      </trkpt>
      <trkpt lat="43.97494" lon="5.30628">
        <ele>713.435547</ele>
        <time>2011-05-15T11:30:15Z</time>
      </trkpt>
      <trkpt lat="43.97494" lon="5.30629">
        <ele>709.109619</ele>
        <time>2011-05-15T11:30:18Z</time>
      </trkpt>
      <trkpt lat="43.97493" lon="5.30628">
        <ele>706.706299</ele>
        <time>2011-05-15T11:30:19Z</time>
      </trkpt>
      <trkpt lat="43.97491" lon="5.30627">
        <ele>711.512939</ele>
        <time>2011-05-15T11:30:21Z</time>
      </trkpt>
      <trkpt lat="43.9749" lon="5.30626">
        <ele>711.993652</ele>
        <time>2011-05-15T11:30:22Z</time>
      </trkpt>
      <trkpt lat="43.97488" lon="5.30627">
        <ele>713.435547</ele>
        <time>2011-05-15T11:30:24Z</time>
      </trkpt>
      <trkpt lat="43.97481" lon="5.3063">
        <ele>712.474121</ele>
        <time>2011-05-15T11:30:36Z</time>
      </trkpt>
      <trkpt lat="43.97489" lon="5.30628">
        <ele>708.148438</ele>
        <time>2011-05-15T11:30:49Z</time>
      </trkpt>
      <trkpt lat="43.97491" lon="5.30628">
        <ele>704.783691</ele>
        <time>2011-05-15T11:30:52Z</time>
      </trkpt>
      <trkpt lat="43.97492" lon="5.30628">
        <ele>708.148438</ele>
        <time>2011-05-15T11:30:53Z</time>
      </trkpt>
      <trkpt lat="43.97494" lon="5.30628">
        <ele>711.993652</ele>
        <time>2011-05-15T11:30:55Z</time>
      </trkpt>
      <trkpt lat="43.97495" lon="5.30628">
        <ele>711.993652</ele>
        <time>2011-05-15T11:30:56Z</time>
      </trkpt>
      <trkpt lat="43.97496" lon="5.3063">
        <ele>709.590332</ele>
        <time>2011-05-15T11:30:59Z</time>
      </trkpt>
      <trkpt lat="43.97499" lon="5.3063">
        <ele>708.148438</ele>
        <time>2011-05-15T11:31:01Z</time>
      </trkpt>
      <trkpt lat="43.97502" lon="5.30634">
        <ele>711.032227</ele>
        <time>2011-05-15T11:31:06Z</time>
      </trkpt>
      <trkpt lat="43.97503" lon="5.30643">
        <ele>712.954834</ele>
        <time>2011-05-15T11:31:12Z</time>
      </trkpt>
      <trkpt lat="43.97501" lon="5.30651">
        <ele>714.396729</ele>
        <time>2011-05-15T11:31:17Z</time>
      </trkpt>
      <trkpt lat="43.97503" lon="5.30656">
        <ele>717.281006</ele>
        <time>2011-05-15T11:31:27Z</time>
      </trkpt>
      <trkpt lat="43.97501" lon="5.30652">
        <ele>714.396729</ele>
        <time>2011-05-15T11:31:33Z</time>
      </trkpt>
      <trkpt lat="43.97501" lon="5.3065">
        <ele>719.203613</ele>
        <time>2011-05-15T11:31:36Z</time>
      </trkpt>
      <trkpt lat="43.97502" lon="5.30649">
        <ele>718.242188</ele>
        <time>2011-05-15T11:31:37Z</time>
      </trkpt>
      <trkpt lat="43.97502" lon="5.30647">
        <ele>713.916016</ele>
        <time>2011-05-15T11:31:38Z</time>
      </trkpt>
      <trkpt lat="43.97502" lon="5.30647">
        <ele>715.838867</ele>
        <time>2011-05-15T11:31:39Z</time>
      </trkpt>
      <trkpt lat="43.97503" lon="5.30646">
        <ele>712.474121</ele>
        <time>2011-05-15T11:31:41Z</time>
      </trkpt>
      <trkpt lat="43.97508" lon="5.30648">
        <ele>712.954834</ele>
        <time>2011-05-15T11:31:54Z</time>
      </trkpt>
      <trkpt lat="43.97509" lon="5.3065">
        <ele>713.435547</ele>
        <time>2011-05-15T11:31:55Z</time>
      </trkpt>
      <trkpt lat="43.9751" lon="5.30655">
        <ele>713.916016</ele>
        <time>2011-05-15T11:31:59Z</time>
      </trkpt>
      <trkpt lat="43.97512" lon="5.30659">
        <ele>714.396729</ele>
        <time>2011-05-15T11:32:03Z</time>
      </trkpt>
      <trkpt lat="43.97513" lon="5.30663">
        <ele>715.358154</ele>
        <time>2011-05-15T11:32:05Z</time>
      </trkpt>
      <trkpt lat="43.97515" lon="5.30669">
        <ele>715.358154</ele>
        <time>2011-05-15T11:32:09Z</time>
      </trkpt>
      <trkpt lat="43.97517" lon="5.30682">
        <ele>719.203613</ele>
        <time>2011-05-15T11:32:18Z</time>
      </trkpt>
      <trkpt lat="43.97517" lon="5.30687">
        <ele>717.761475</ele>
        <time>2011-05-15T11:32:22Z</time>
      </trkpt>
      <trkpt lat="43.97518" lon="5.30691">
        <ele>719.203613</ele>
        <time>2011-05-15T11:32:24Z</time>
      </trkpt>
      <trkpt lat="43.97516" lon="5.30698">
        <ele>717.761475</ele>
        <time>2011-05-15T11:32:29Z</time>
      </trkpt>
      <trkpt lat="43.97518" lon="5.30702">
        <ele>718.242188</ele>
        <time>2011-05-15T11:32:31Z</time>
      </trkpt>
      <trkpt lat="43.97517" lon="5.30706">
        <ele>718.7229</ele>
        <time>2011-05-15T11:32:34Z</time>
      </trkpt>
      <trkpt lat="43.97518" lon="5.30713">
        <ele>719.203613</ele>
        <time>2011-05-15T11:32:37Z</time>
      </trkpt>
      <trkpt lat="43.97523" lon="5.30729">
        <ele>719.203613</ele>
        <time>2011-05-15T11:32:48Z</time>
      </trkpt>
      <trkpt lat="43.97526" lon="5.30735">
        <ele>719.684326</ele>
        <time>2011-05-15T11:32:53Z</time>
      </trkpt>
      <trkpt lat="43.97528" lon="5.30743">
        <ele>721.126221</ele>
        <time>2011-05-15T11:32:58Z</time>
      </trkpt>
      <trkpt lat="43.97534" lon="5.30762">
        <ele>721.126221</ele>
        <time>2011-05-15T11:33:11Z</time>
      </trkpt>
      <trkpt lat="43.97534" lon="5.30765">
        <ele>721.606689</ele>
        <time>2011-05-15T11:33:12Z</time>
      </trkpt>
      <trkpt lat="43.97536" lon="5.30772">
        <ele>720.164795</ele>
        <time>2011-05-15T11:33:16Z</time>
      </trkpt>
      <trkpt lat="43.97536" lon="5.30778">
        <ele>721.126221</ele>
        <time>2011-05-15T11:33:19Z</time>
      </trkpt>
      <trkpt lat="43.97537" lon="5.30784">
        <ele>722.568115</ele>
        <time>2011-05-15T11:33:23Z</time>
      </trkpt>
      <trkpt lat="43.97539" lon="5.30803">
        <ele>723.048828</ele>
        <time>2011-05-15T11:33:36Z</time>
      </trkpt>
      <trkpt lat="43.97539" lon="5.30804">
        <ele>724.01001</ele>
        <time>2011-05-15T11:33:37Z</time>
      </trkpt>
      <trkpt lat="43.97543" lon="5.30817">
        <ele>724.01001</ele>
        <time>2011-05-15T11:33:47Z</time>
      </trkpt>
      <trkpt lat="43.97544" lon="5.30829">
        <ele>722.087402</ele>
        <time>2011-05-15T11:34:00Z</time>
      </trkpt>
      <trkpt lat="43.97544" lon="5.30829">
        <ele>721.606689</ele>
        <time>2011-05-15T11:34:06Z</time>
      </trkpt>
      <trkpt lat="43.97545" lon="5.30834">
        <ele>722.087402</ele>
        <time>2011-05-15T11:34:39Z</time>
      </trkpt>
      <trkpt lat="43.97551" lon="5.30843">
        <ele>725.932617</ele>
        <time>2011-05-15T11:34:51Z</time>
      </trkpt>
      <trkpt lat="43.97552" lon="5.30854">
        <ele>722.568115</ele>
        <time>2011-05-15T11:35:01Z</time>
      </trkpt>
      <trkpt lat="43.97552" lon="5.30855">
        <ele>726.41333</ele>
        <time>2011-05-15T11:35:02Z</time>
      </trkpt>
      <trkpt lat="43.97552" lon="5.30857">
        <ele>724.971436</ele>
        <time>2011-05-15T11:35:03Z</time>
      </trkpt>
      <trkpt lat="43.97552" lon="5.30865">
        <ele>725.932617</ele>
        <time>2011-05-15T11:35:08Z</time>
      </trkpt>
      <trkpt lat="43.97557" lon="5.30881">
        <ele>727.374756</ele>
        <time>2011-05-15T11:35:23Z</time>
      </trkpt>
      <trkpt lat="43.9756" lon="5.30888">
        <ele>728.335938</ele>
        <time>2011-05-15T11:35:29Z</time>
      </trkpt>
      <trkpt lat="43.97563" lon="5.309">
        <ele>726.894043</ele>
        <time>2011-05-15T11:35:42Z</time>
      </trkpt>
      <trkpt lat="43.97565" lon="5.30911">
        <ele>729.297119</ele>
        <time>2011-05-15T11:35:56Z</time>
      </trkpt>
      <trkpt lat="43.97566" lon="5.30916">
        <ele>728.81665</ele>
        <time>2011-05-15T11:36:00Z</time>
      </trkpt>
      <trkpt lat="43.97569" lon="5.30928">
        <ele>729.777832</ele>
        <time>2011-05-15T11:36:12Z</time>
      </trkpt>
      <trkpt lat="43.97571" lon="5.30948">
        <ele>733.623291</ele>
        <time>2011-05-15T11:36:26Z</time>
      </trkpt>
      <trkpt lat="43.97572" lon="5.30949">
        <ele>733.623291</ele>
        <time>2011-05-15T11:36:27Z</time>
      </trkpt>
      <trkpt lat="43.97574" lon="5.30965">
        <ele>732.662109</ele>
        <time>2011-05-15T11:36:36Z</time>
      </trkpt>
      <trkpt lat="43.97578" lon="5.30997">
        <ele>736.026611</ele>
        <time>2011-05-15T11:36:53Z</time>
      </trkpt>
      <trkpt lat="43.97578" lon="5.30999">
        <ele>736.026611</ele>
        <time>2011-05-15T11:36:54Z</time>
      </trkpt>
      <trkpt lat="43.97582" lon="5.31015">
        <ele>736.987793</ele>
        <time>2011-05-15T11:37:06Z</time>
      </trkpt>
      <trkpt lat="43.97585" lon="5.31025">
        <ele>739.391113</ele>
        <time>2011-05-15T11:37:13Z</time>
      </trkpt>
      <trkpt lat="43.97592" lon="5.31055">
        <ele>736.987793</ele>
        <time>2011-05-15T11:37:34Z</time>
      </trkpt>
      <trkpt lat="43.97593" lon="5.31058">
        <ele>738.910645</ele>
        <time>2011-05-15T11:37:36Z</time>
      </trkpt>
      <trkpt lat="43.976" lon="5.31078">
        <ele>738.910645</ele>
        <time>2011-05-15T11:37:52Z</time>
      </trkpt>
      <trkpt lat="43.97606" lon="5.31097">
        <ele>739.391113</ele>
        <time>2011-05-15T11:38:07Z</time>
      </trkpt>
      <trkpt lat="43.97614" lon="5.31127">
        <ele>739.391113</ele>
        <time>2011-05-15T11:38:26Z</time>
      </trkpt>
      <trkpt lat="43.97626" lon="5.31155">
        <ele>740.833008</ele>
        <time>2011-05-15T11:38:45Z</time>
      </trkpt>
      <trkpt lat="43.9764" lon="5.31179">
        <ele>740.352539</ele>
        <time>2011-05-15T11:39:02Z</time>
      </trkpt>
      <trkpt lat="43.97641" lon="5.31184">
        <ele>740.352539</ele>
        <time>2011-05-15T11:39:05Z</time>
      </trkpt>
      <trkpt lat="43.97642" lon="5.31189">
        <ele>739.871826</ele>
        <time>2011-05-15T11:39:08Z</time>
      </trkpt>
      <trkpt lat="43.97647" lon="5.31198">
        <ele>740.352539</ele>
        <time>2011-05-15T11:39:15Z</time>
      </trkpt>
      <trkpt lat="43.97649" lon="5.31204">
        <ele>740.352539</ele>
        <time>2011-05-15T11:39:19Z</time>
      </trkpt>
      <trkpt lat="43.97661" lon="5.31229">
        <ele>740.833008</ele>
        <time>2011-05-15T11:39:37Z</time>
      </trkpt>
      <trkpt lat="43.97672" lon="5.31249">
        <ele>744.197754</ele>
        <time>2011-05-15T11:39:52Z</time>
      </trkpt>
      <trkpt lat="43.97677" lon="5.31256">
        <ele>741.313721</ele>
        <time>2011-05-15T11:39:58Z</time>
      </trkpt>
      <trkpt lat="43.97678" lon="5.31258">
        <ele>740.833008</ele>
        <time>2011-05-15T11:39:59Z</time>
      </trkpt>
      <trkpt lat="43.97678" lon="5.31259">
        <ele>744.197754</ele>
        <time>2011-05-15T11:40:00Z</time>
      </trkpt>
      <trkpt lat="43.97686" lon="5.31272">
        <ele>742.755859</ele>
        <time>2011-05-15T11:40:10Z</time>
      </trkpt>
      <trkpt lat="43.97702" lon="5.31303">
        <ele>742.755859</ele>
        <time>2011-05-15T11:40:33Z</time>
      </trkpt>
      <trkpt lat="43.97715" lon="5.31324">
        <ele>742.275146</ele>
        <time>2011-05-15T11:40:51Z</time>
      </trkpt>
      <trkpt lat="43.97718" lon="5.3133">
        <ele>742.755859</ele>
        <time>2011-05-15T11:40:55Z</time>
      </trkpt>
      <trkpt lat="43.97731" lon="5.31352">
        <ele>744.197754</ele>
        <time>2011-05-15T11:41:13Z</time>
      </trkpt>
      <trkpt lat="43.97742" lon="5.3137">
        <ele>747.081543</ele>
        <time>2011-05-15T11:41:27Z</time>
      </trkpt>
      <trkpt lat="43.9776" lon="5.31398">
        <ele>747.562256</ele>
        <time>2011-05-15T11:41:49Z</time>
      </trkpt>
      <trkpt lat="43.97775" lon="5.31421">
        <ele>747.081543</ele>
        <time>2011-05-15T11:42:08Z</time>
      </trkpt>
      <trkpt lat="43.9779" lon="5.31444">
        <ele>747.081543</ele>
        <time>2011-05-15T11:42:27Z</time>
      </trkpt>
      <trkpt lat="43.97807" lon="5.3147">
        <ele>748.043213</ele>
        <time>2011-05-15T11:42:50Z</time>
      </trkpt>
      <trkpt lat="43.9782" lon="5.31492">
        <ele>748.523682</ele>
        <time>2011-05-15T11:43:07Z</time>
      </trkpt>
      <trkpt lat="43.97831" lon="5.31508">
        <ele>751.407715</ele>
        <time>2011-05-15T11:43:21Z</time>
      </trkpt>
      <trkpt lat="43.97832" lon="5.31509">
        <ele>751.407715</ele>
        <time>2011-05-15T11:43:22Z</time>
      </trkpt>
      <trkpt lat="43.97836" lon="5.31516">
        <ele>750.446533</ele>
        <time>2011-05-15T11:43:27Z</time>
      </trkpt>
      <trkpt lat="43.97839" lon="5.31521">
        <ele>752.368896</ele>
        <time>2011-05-15T11:43:31Z</time>
      </trkpt>
      <trkpt lat="43.9785" lon="5.3154">
        <ele>754.291748</ele>
        <time>2011-05-15T11:43:47Z</time>
      </trkpt>
      <trkpt lat="43.97855" lon="5.31548">
        <ele>754.291748</ele>
        <time>2011-05-15T11:43:53Z</time>
      </trkpt>
      <trkpt lat="43.97857" lon="5.31549">
        <ele>753.811035</ele>
        <time>2011-05-15T11:43:55Z</time>
      </trkpt>
      <trkpt lat="43.97865" lon="5.31565">
        <ele>756.694824</ele>
        <time>2011-05-15T11:44:07Z</time>
      </trkpt>
      <trkpt lat="43.97869" lon="5.3157">
        <ele>756.214111</ele>
        <time>2011-05-15T11:44:12Z</time>
      </trkpt>
      <trkpt lat="43.97871" lon="5.31573">
        <ele>758.617432</ele>
        <time>2011-05-15T11:44:15Z</time>
      </trkpt>
      <trkpt lat="43.97878" lon="5.31586">
        <ele>761.982178</ele>
        <time>2011-05-15T11:44:25Z</time>
      </trkpt>
      <trkpt lat="43.97879" lon="5.31587">
        <ele>758.617432</ele>
        <time>2011-05-15T11:44:26Z</time>
      </trkpt>
      <trkpt lat="43.9788" lon="5.31589">
        <ele>758.617432</ele>
        <time>2011-05-15T11:44:27Z</time>
      </trkpt>
      <trkpt lat="43.97899" lon="5.31616">
        <ele>761.020752</ele>
        <time>2011-05-15T11:44:49Z</time>
      </trkpt>
      <trkpt lat="43.97909" lon="5.31631">
        <ele>757.65625</ele>
        <time>2011-05-15T11:45:02Z</time>
      </trkpt>
      <trkpt lat="43.9791" lon="5.31632">
        <ele>758.136963</ele>
        <time>2011-05-15T11:45:03Z</time>
      </trkpt>
      <trkpt lat="43.97911" lon="5.31632">
        <ele>758.617432</ele>
        <time>2011-05-15T11:45:05Z</time>
      </trkpt>
      <trkpt lat="43.97916" lon="5.31629">
        <ele>759.578857</ele>
        <time>2011-05-15T11:45:21Z</time>
      </trkpt>
      <trkpt lat="43.97915" lon="5.31629">
        <ele>760.059326</ele>
        <time>2011-05-15T11:45:44Z</time>
      </trkpt>
      <trkpt lat="43.97915" lon="5.31631">
        <ele>758.617432</ele>
        <time>2011-05-15T11:45:46Z</time>
      </trkpt>
      <trkpt lat="43.97918" lon="5.31642">
        <ele>757.65625</ele>
        <time>2011-05-15T11:45:53Z</time>
      </trkpt>
      <trkpt lat="43.97922" lon="5.31645">
        <ele>759.578857</ele>
        <time>2011-05-15T11:46:04Z</time>
      </trkpt>
      <trkpt lat="43.97928" lon="5.31655">
        <ele>760.059326</ele>
        <time>2011-05-15T11:46:14Z</time>
      </trkpt>
      <trkpt lat="43.97943" lon="5.31674">
        <ele>763.904541</ele>
        <time>2011-05-15T11:46:31Z</time>
      </trkpt>
      <trkpt lat="43.97956" lon="5.31693">
        <ele>764.385498</ele>
        <time>2011-05-15T11:46:45Z</time>
      </trkpt>
      <trkpt lat="43.9797" lon="5.31712">
        <ele>766.308105</ele>
        <time>2011-05-15T11:47:01Z</time>
      </trkpt>
      <trkpt lat="43.97987" lon="5.31741">
        <ele>765.827637</ele>
        <time>2011-05-15T11:47:21Z</time>
      </trkpt>
      <trkpt lat="43.97998" lon="5.31756">
        <ele>766.788818</ele>
        <time>2011-05-15T11:47:33Z</time>
      </trkpt>
      <trkpt lat="43.98002" lon="5.31762">
        <ele>767.75</ele>
        <time>2011-05-15T11:47:37Z</time>
      </trkpt>
      <trkpt lat="43.98004" lon="5.31766">
        <ele>766.308105</ele>
        <time>2011-05-15T11:47:40Z</time>
      </trkpt>
      <trkpt lat="43.98013" lon="5.31781">
        <ele>766.788818</ele>
        <time>2011-05-15T11:47:52Z</time>
      </trkpt>
      <trkpt lat="43.98031" lon="5.31813">
        <ele>764.385498</ele>
        <time>2011-05-15T11:48:15Z</time>
      </trkpt>
      <trkpt lat="43.98049" lon="5.31844">
        <ele>763.904541</ele>
        <time>2011-05-15T11:48:36Z</time>
      </trkpt>
      <trkpt lat="43.98056" lon="5.31854">
        <ele>762.943359</ele>
        <time>2011-05-15T11:48:44Z</time>
      </trkpt>
      <trkpt lat="43.98062" lon="5.31863">
        <ele>762.943359</ele>
        <time>2011-05-15T11:48:52Z</time>
      </trkpt>
      <trkpt lat="43.98076" lon="5.31884">
        <ele>762.943359</ele>
        <time>2011-05-15T11:49:08Z</time>
      </trkpt>
      <trkpt lat="43.98084" lon="5.31893">
        <ele>762.462646</ele>
        <time>2011-05-15T11:49:16Z</time>
      </trkpt>
      <trkpt lat="43.98089" lon="5.31901">
        <ele>761.501465</ele>
        <time>2011-05-15T11:49:21Z</time>
      </trkpt>
      <trkpt lat="43.98093" lon="5.31907">
        <ele>761.020752</ele>
        <time>2011-05-15T11:49:26Z</time>
      </trkpt>
      <trkpt lat="43.98095" lon="5.3191">
        <ele>763.424072</ele>
        <time>2011-05-15T11:49:28Z</time>
      </trkpt>
      <trkpt lat="43.98097" lon="5.31915">
        <ele>761.020752</ele>
        <time>2011-05-15T11:49:31Z</time>
      </trkpt>
      <trkpt lat="43.9811" lon="5.31944">
        <ele>761.982178</ele>
        <time>2011-05-15T11:49:46Z</time>
      </trkpt>
      <trkpt lat="43.98126" lon="5.31971">
        <ele>763.424072</ele>
        <time>2011-05-15T11:50:03Z</time>
      </trkpt>
      <trkpt lat="43.98133" lon="5.31983">
        <ele>764.385498</ele>
        <time>2011-05-15T11:50:10Z</time>
      </trkpt>
      <trkpt lat="43.98155" lon="5.3202">
        <ele>763.424072</ele>
        <time>2011-05-15T11:50:35Z</time>
      </trkpt>
      <trkpt lat="43.98168" lon="5.32041">
        <ele>763.424072</ele>
        <time>2011-05-15T11:50:50Z</time>
      </trkpt>
      <trkpt lat="43.98194" lon="5.32081">
        <ele>765.827637</ele>
        <time>2011-05-15T11:51:16Z</time>
      </trkpt>
      <trkpt lat="43.98211" lon="5.32114">
        <ele>764.866211</ele>
        <time>2011-05-15T11:51:37Z</time>
      </trkpt>
      <trkpt lat="43.98226" lon="5.3214">
        <ele>765.827637</ele>
        <time>2011-05-15T11:51:57Z</time>
      </trkpt>
      <trkpt lat="43.98241" lon="5.32163">
        <ele>761.982178</ele>
        <time>2011-05-15T11:52:14Z</time>
      </trkpt>
      <trkpt lat="43.98252" lon="5.32183">
        <ele>762.462646</ele>
        <time>2011-05-15T11:52:28Z</time>
      </trkpt>
      <trkpt lat="43.98258" lon="5.32193">
        <ele>762.943359</ele>
        <time>2011-05-15T11:52:34Z</time>
      </trkpt>
      <trkpt lat="43.98267" lon="5.32206">
        <ele>760.059326</ele>
        <time>2011-05-15T11:52:43Z</time>
      </trkpt>
      <trkpt lat="43.98283" lon="5.32231">
        <ele>757.65625</ele>
        <time>2011-05-15T11:53:03Z</time>
      </trkpt>
      <trkpt lat="43.98303" lon="5.3226">
        <ele>755.733643</ele>
        <time>2011-05-15T11:53:24Z</time>
      </trkpt>
      <trkpt lat="43.98324" lon="5.32282">
        <ele>754.291748</ele>
        <time>2011-05-15T11:53:43Z</time>
      </trkpt>
      <trkpt lat="43.98334" lon="5.32294">
        <ele>755.25293</ele>
        <time>2011-05-15T11:53:52Z</time>
      </trkpt>
      <trkpt lat="43.98345" lon="5.32307">
        <ele>755.25293</ele>
        <time>2011-05-15T11:54:03Z</time>
      </trkpt>
      <trkpt lat="43.98368" lon="5.32337">
        <ele>753.811035</ele>
        <time>2011-05-15T11:54:28Z</time>
      </trkpt>
      <trkpt lat="43.9838" lon="5.32351">
        <ele>754.772217</ele>
        <time>2011-05-15T11:54:39Z</time>
      </trkpt>
      <trkpt lat="43.98391" lon="5.32366">
        <ele>753.811035</ele>
        <time>2011-05-15T11:54:55Z</time>
      </trkpt>
      <trkpt lat="43.98403" lon="5.32385">
        <ele>754.291748</ele>
        <time>2011-05-15T11:55:13Z</time>
      </trkpt>
      <trkpt lat="43.98422" lon="5.32401">
        <ele>753.330322</ele>
        <time>2011-05-15T11:55:32Z</time>
      </trkpt>
      <trkpt lat="43.98433" lon="5.32408">
        <ele>751.888428</ele>
        <time>2011-05-15T11:55:42Z</time>
      </trkpt>
      <trkpt lat="43.98451" lon="5.32419">
        <ele>752.368896</ele>
        <time>2011-05-15T11:56:00Z</time>
      </trkpt>
      <trkpt lat="43.98467" lon="5.32427">
        <ele>750.446533</ele>
        <time>2011-05-15T11:56:14Z</time>
      </trkpt>
      <trkpt lat="43.9848" lon="5.32436">
        <ele>747.562256</ele>
        <time>2011-05-15T11:56:28Z</time>
      </trkpt>
      <trkpt lat="43.98495" lon="5.32445">
        <ele>748.043213</ele>
        <time>2011-05-15T11:56:42Z</time>
      </trkpt>
      <trkpt lat="43.98506" lon="5.32452">
        <ele>747.562256</ele>
        <time>2011-05-15T11:56:51Z</time>
      </trkpt>
      <trkpt lat="43.98516" lon="5.32457">
        <ele>745.639648</ele>
        <time>2011-05-15T11:57:00Z</time>
      </trkpt>
      <trkpt lat="43.98533" lon="5.32468">
        <ele>746.120361</ele>
        <time>2011-05-15T11:57:15Z</time>
      </trkpt>
      <trkpt lat="43.9854" lon="5.32472">
        <ele>743.236328</ele>
        <time>2011-05-15T11:57:21Z</time>
      </trkpt>
      <trkpt lat="43.98541" lon="5.32473">
        <ele>742.275146</ele>
        <time>2011-05-15T11:57:23Z</time>
      </trkpt>
      <trkpt lat="43.98545" lon="5.32475">
        <ele>741.313721</ele>
        <time>2011-05-15T11:57:26Z</time>
      </trkpt>
      <trkpt lat="43.98562" lon="5.32487">
        <ele>739.391113</ele>
        <time>2011-05-15T11:57:43Z</time>
      </trkpt>
      <trkpt lat="43.98565" lon="5.32489">
        <ele>737.468506</ele>
        <time>2011-05-15T11:57:46Z</time>
      </trkpt>
      <trkpt lat="43.98568" lon="5.32493">
        <ele>738.910645</ele>
        <time>2011-05-15T11:57:51Z</time>
      </trkpt>
      <trkpt lat="43.98572" lon="5.32495">
        <ele>735.545898</ele>
        <time>2011-05-15T11:57:54Z</time>
      </trkpt>
      <trkpt lat="43.98573" lon="5.32495">
        <ele>735.545898</ele>
        <time>2011-05-15T11:57:55Z</time>
      </trkpt>
      <trkpt lat="43.98588" lon="5.32499">
        <ele>734.584717</ele>
        <time>2011-05-15T11:58:11Z</time>
      </trkpt>
      <trkpt lat="43.98591" lon="5.32504">
        <ele>733.623291</ele>
        <time>2011-05-15T11:58:17Z</time>
      </trkpt>
      <trkpt lat="43.98599" lon="5.32513">
        <ele>732.662109</ele>
        <time>2011-05-15T11:58:28Z</time>
      </trkpt>
      <trkpt lat="43.986" lon="5.32516">
        <ele>732.662109</ele>
        <time>2011-05-15T11:58:31Z</time>
      </trkpt>
      <trkpt lat="43.98603" lon="5.32517">
        <ele>731.700439</ele>
        <time>2011-05-15T11:58:34Z</time>
      </trkpt>
      <trkpt lat="43.98619" lon="5.32526">
        <ele>729.297119</ele>
        <time>2011-05-15T11:58:52Z</time>
      </trkpt>
      <trkpt lat="43.98624" lon="5.32533">
        <ele>727.374756</ele>
        <time>2011-05-15T11:58:59Z</time>
      </trkpt>
      <trkpt lat="43.98636" lon="5.32538">
        <ele>724.01001</ele>
        <time>2011-05-15T11:59:12Z</time>
      </trkpt>
      <trkpt lat="43.98639" lon="5.32539">
        <ele>722.568115</ele>
        <time>2011-05-15T11:59:15Z</time>
      </trkpt>
      <trkpt lat="43.98641" lon="5.3254">
        <ele>723.529541</ele>
        <time>2011-05-15T11:59:17Z</time>
      </trkpt>
      <trkpt lat="43.98644" lon="5.32545">
        <ele>720.645508</ele>
        <time>2011-05-15T11:59:22Z</time>
      </trkpt>
      <trkpt lat="43.98654" lon="5.32559">
        <ele>717.281006</ele>
        <time>2011-05-15T11:59:36Z</time>
      </trkpt>
      <trkpt lat="43.98661" lon="5.3257">
        <ele>715.838867</ele>
        <time>2011-05-15T11:59:47Z</time>
      </trkpt>
      <trkpt lat="43.98665" lon="5.32571">
        <ele>714.396729</ele>
        <time>2011-05-15T11:59:51Z</time>
      </trkpt>
      <trkpt lat="43.98671" lon="5.32573">
        <ele>711.512939</ele>
        <time>2011-05-15T11:59:59Z</time>
      </trkpt>
      <trkpt lat="43.98672" lon="5.32573">
        <ele>711.512939</ele>
        <time>2011-05-15T12:00:00Z</time>
      </trkpt>
      <trkpt lat="43.98681" lon="5.32579">
        <ele>709.590332</ele>
        <time>2011-05-15T12:00:11Z</time>
      </trkpt>
      <trkpt lat="43.98687" lon="5.32584">
        <ele>706.706299</ele>
        <time>2011-05-15T12:00:24Z</time>
      </trkpt>
      <trkpt lat="43.98695" lon="5.3259">
        <ele>703.341797</ele>
        <time>2011-05-15T12:00:58Z</time>
      </trkpt>
      <trkpt lat="43.98698" lon="5.32595">
        <ele>699.977051</ele>
        <time>2011-05-15T12:01:21Z</time>
      </trkpt>
      <trkpt lat="43.98702" lon="5.32599">
        <ele>699.015625</ele>
        <time>2011-05-15T12:01:28Z</time>
      </trkpt>
      <trkpt lat="43.98708" lon="5.32606">
        <ele>698.534912</ele>
        <time>2011-05-15T12:01:47Z</time>
      </trkpt>
      <trkpt lat="43.98711" lon="5.32612">
        <ele>695.17041</ele>
        <time>2011-05-15T12:01:55Z</time>
      </trkpt>
      <trkpt lat="43.98712" lon="5.32613">
        <ele>693.728516</ele>
        <time>2011-05-15T12:01:57Z</time>
      </trkpt>
      <trkpt lat="43.98715" lon="5.32612">
        <ele>692.286621</ele>
        <time>2011-05-15T12:02:02Z</time>
      </trkpt>
      <trkpt lat="43.98719" lon="5.32613">
        <ele>690.364014</ele>
        <time>2011-05-15T12:02:09Z</time>
      </trkpt>
      <trkpt lat="43.9872" lon="5.32614">
        <ele>688.922119</ele>
        <time>2011-05-15T12:02:11Z</time>
      </trkpt>
      <trkpt lat="43.98726" lon="5.32616">
        <ele>686.999268</ele>
        <time>2011-05-15T12:02:17Z</time>
      </trkpt>
      <trkpt lat="43.9873" lon="5.32617">
        <ele>684.596191</ele>
        <time>2011-05-15T12:02:30Z</time>
      </trkpt>
      <trkpt lat="43.98733" lon="5.32619">
        <ele>683.153809</ele>
        <time>2011-05-15T12:02:32Z</time>
      </trkpt>
      <trkpt lat="43.98737" lon="5.32622">
        <ele>679.789307</ele>
        <time>2011-05-15T12:02:36Z</time>
      </trkpt>
      <trkpt lat="43.9874" lon="5.32626">
        <ele>680.27002</ele>
        <time>2011-05-15T12:02:39Z</time>
      </trkpt>
      <trkpt lat="43.98747" lon="5.32632">
        <ele>678.828125</ele>
        <time>2011-05-15T12:02:46Z</time>
      </trkpt>
      <trkpt lat="43.98756" lon="5.3264">
        <ele>675.463379</ele>
        <time>2011-05-15T12:02:59Z</time>
      </trkpt>
      <trkpt lat="43.98758" lon="5.32643">
        <ele>673.060303</ele>
        <time>2011-05-15T12:03:03Z</time>
      </trkpt>
      <trkpt lat="43.98762" lon="5.32644">
        <ele>675.463379</ele>
        <time>2011-05-15T12:03:07Z</time>
      </trkpt>
      <trkpt lat="43.98765" lon="5.32644">
        <ele>672.098877</ele>
        <time>2011-05-15T12:03:11Z</time>
      </trkpt>
      <trkpt lat="43.98766" lon="5.32644">
        <ele>671.618164</ele>
        <time>2011-05-15T12:03:13Z</time>
      </trkpt>
      <trkpt lat="43.98771" lon="5.32648">
        <ele>667.772705</ele>
        <time>2011-05-15T12:03:21Z</time>
      </trkpt>
      <trkpt lat="43.98771" lon="5.32648">
        <ele>667.772705</ele>
        <time>2011-05-15T12:03:22Z</time>
      </trkpt>
      <trkpt lat="43.98774" lon="5.3265">
        <ele>665.369629</ele>
        <time>2011-05-15T12:03:28Z</time>
      </trkpt>
      <trkpt lat="43.9878" lon="5.32656">
        <ele>662.966309</ele>
        <time>2011-05-15T12:03:37Z</time>
      </trkpt>
      <trkpt lat="43.98786" lon="5.32661">
        <ele>660.082275</ele>
        <time>2011-05-15T12:03:49Z</time>
      </trkpt>
      <trkpt lat="43.98789" lon="5.32669">
        <ele>656.717773</ele>
        <time>2011-05-15T12:04:02Z</time>
      </trkpt>
      <trkpt lat="43.98789" lon="5.3267">
        <ele>656.717773</ele>
        <time>2011-05-15T12:04:03Z</time>
      </trkpt>
      <trkpt lat="43.98794" lon="5.32673">
        <ele>653.353271</ele>
        <time>2011-05-15T12:04:16Z</time>
      </trkpt>
      <trkpt lat="43.98795" lon="5.32673">
        <ele>656.237061</ele>
        <time>2011-05-15T12:04:18Z</time>
      </trkpt>
      <trkpt lat="43.98795" lon="5.32674">
        <ele>654.795166</ele>
        <time>2011-05-15T12:04:19Z</time>
      </trkpt>
      <trkpt lat="43.98798" lon="5.32678">
        <ele>653.833984</ele>
        <time>2011-05-15T12:04:28Z</time>
      </trkpt>
      <trkpt lat="43.988" lon="5.32677">
        <ele>652.391846</ele>
        <time>2011-05-15T12:04:31Z</time>
      </trkpt>
      <trkpt lat="43.98802" lon="5.32679">
        <ele>648.546387</ele>
        <time>2011-05-15T12:04:36Z</time>
      </trkpt>
      <trkpt lat="43.98803" lon="5.3268">
        <ele>649.988525</ele>
        <time>2011-05-15T12:04:40Z</time>
      </trkpt>
      <trkpt lat="43.98808" lon="5.32683">
        <ele>648.546387</ele>
        <time>2011-05-15T12:04:51Z</time>
      </trkpt>
      <trkpt lat="43.9881" lon="5.32684">
        <ele>646.624023</ele>
        <time>2011-05-15T12:04:56Z</time>
      </trkpt>
      <trkpt lat="43.98812" lon="5.32687">
        <ele>642.778809</ele>
        <time>2011-05-15T12:05:07Z</time>
      </trkpt>
      <trkpt lat="43.98815" lon="5.32687">
        <ele>643.73999</ele>
        <time>2011-05-15T12:05:11Z</time>
      </trkpt>
      <trkpt lat="43.98816" lon="5.32689">
        <ele>641.33667</ele>
        <time>2011-05-15T12:05:14Z</time>
      </trkpt>
      <trkpt lat="43.98819" lon="5.32694">
        <ele>638.452881</ele>
        <time>2011-05-15T12:05:21Z</time>
      </trkpt>
      <trkpt lat="43.9882" lon="5.32698">
        <ele>637.010742</ele>
        <time>2011-05-15T12:05:26Z</time>
      </trkpt>
      <trkpt lat="43.9882" lon="5.32699">
        <ele>638.452881</ele>
        <time>2011-05-15T12:05:28Z</time>
      </trkpt>
      <trkpt lat="43.98824" lon="5.32704">
        <ele>637.010742</ele>
        <time>2011-05-15T12:05:39Z</time>
      </trkpt>
      <trkpt lat="43.98833" lon="5.32708">
        <ele>633.645996</ele>
        <time>2011-05-15T12:05:52Z</time>
      </trkpt>
      <trkpt lat="43.98838" lon="5.32712">
        <ele>630.762207</ele>
        <time>2011-05-15T12:06:02Z</time>
      </trkpt>
      <trkpt lat="43.9884" lon="5.32713">
        <ele>627.878174</ele>
        <time>2011-05-15T12:06:09Z</time>
      </trkpt>
      <trkpt lat="43.98845" lon="5.32719">
        <ele>624.513672</ele>
        <time>2011-05-15T12:06:18Z</time>
      </trkpt>
      <trkpt lat="43.98846" lon="5.32721">
        <ele>625.474854</ele>
        <time>2011-05-15T12:06:21Z</time>
      </trkpt>
      <trkpt lat="43.98856" lon="5.32726">
        <ele>626.916992</ele>
        <time>2011-05-15T12:06:37Z</time>
      </trkpt>
      <trkpt lat="43.98867" lon="5.32728">
        <ele>628.358887</ele>
        <time>2011-05-15T12:06:53Z</time>
      </trkpt>
      <trkpt lat="43.98882" lon="5.32734">
        <ele>629.320068</ele>
        <time>2011-05-15T12:07:13Z</time>
      </trkpt>
      <trkpt lat="43.98905" lon="5.32751">
        <ele>630.281494</ele>
        <time>2011-05-15T12:07:33Z</time>
      </trkpt>
      <trkpt lat="43.98911" lon="5.32758">
        <ele>628.8396</ele>
        <time>2011-05-15T12:07:40Z</time>
      </trkpt>
      <trkpt lat="43.98923" lon="5.3276">
        <ele>631.723389</ele>
        <time>2011-05-15T12:07:53Z</time>
      </trkpt>
      <trkpt lat="43.9895" lon="5.32747">
        <ele>632.684814</ele>
        <time>2011-05-15T12:08:22Z</time>
      </trkpt>
      <trkpt lat="43.98992" lon="5.32763">
        <ele>634.607422</ele>
        <time>2011-05-15T12:08:46Z</time>
      </trkpt>
      <trkpt lat="43.99009" lon="5.32775">
        <ele>634.607422</ele>
        <time>2011-05-15T12:09:00Z</time>
      </trkpt>
      <trkpt lat="43.99017" lon="5.3279">
        <ele>635.568604</ele>
        <time>2011-05-15T12:09:12Z</time>
      </trkpt>
      <trkpt lat="43.99036" lon="5.32801">
        <ele>636.049561</ele>
        <time>2011-05-15T12:09:26Z</time>
      </trkpt>
      <trkpt lat="43.99052" lon="5.3282">
        <ele>636.049561</ele>
        <time>2011-05-15T12:09:43Z</time>
      </trkpt>
      <trkpt lat="43.99065" lon="5.3284">
        <ele>637.010742</ele>
        <time>2011-05-15T12:09:58Z</time>
      </trkpt>
      <trkpt lat="43.99078" lon="5.32862">
        <ele>638.452881</ele>
        <time>2011-05-15T12:10:15Z</time>
      </trkpt>
      <trkpt lat="43.99079" lon="5.32865">
        <ele>638.452881</ele>
        <time>2011-05-15T12:10:17Z</time>
      </trkpt>
      <trkpt lat="43.99087" lon="5.32866">
        <ele>638.452881</ele>
        <time>2011-05-15T12:10:21Z</time>
      </trkpt>
      <trkpt lat="43.99099" lon="5.32878">
        <ele>638.933594</ele>
        <time>2011-05-15T12:10:32Z</time>
      </trkpt>
      <trkpt lat="43.99099" lon="5.32882">
        <ele>638.933594</ele>
        <time>2011-05-15T12:10:34Z</time>
      </trkpt>
      <trkpt lat="43.99109" lon="5.32899">
        <ele>639.414063</ele>
        <time>2011-05-15T12:10:47Z</time>
      </trkpt>
      <trkpt lat="43.99114" lon="5.32926">
        <ele>640.375488</ele>
        <time>2011-05-15T12:11:02Z</time>
      </trkpt>
      <trkpt lat="43.99117" lon="5.32933">
        <ele>641.33667</ele>
        <time>2011-05-15T12:11:07Z</time>
      </trkpt>
      <trkpt lat="43.99117" lon="5.32941">
        <ele>641.33667</ele>
        <time>2011-05-15T12:11:11Z</time>
      </trkpt>
      <trkpt lat="43.99132" lon="5.32963">
        <ele>641.33667</ele>
        <time>2011-05-15T12:11:27Z</time>
      </trkpt>
      <trkpt lat="43.99142" lon="5.32967">
        <ele>641.33667</ele>
        <time>2011-05-15T12:11:33Z</time>
      </trkpt>
      <trkpt lat="43.99144" lon="5.32971">
        <ele>641.817383</ele>
        <time>2011-05-15T12:11:36Z</time>
      </trkpt>
      <trkpt lat="43.99156" lon="5.32994">
        <ele>642.778809</ele>
        <time>2011-05-15T12:11:51Z</time>
      </trkpt>
      <trkpt lat="43.99156" lon="5.32998">
        <ele>642.778809</ele>
        <time>2011-05-15T12:11:53Z</time>
      </trkpt>
      <trkpt lat="43.99168" lon="5.33017">
        <ele>644.701172</ele>
        <time>2011-05-15T12:12:07Z</time>
      </trkpt>
      <trkpt lat="43.99175" lon="5.3303">
        <ele>644.701172</ele>
        <time>2011-05-15T12:12:16Z</time>
      </trkpt>
      <trkpt lat="43.9918" lon="5.33034">
        <ele>644.220703</ele>
        <time>2011-05-15T12:12:20Z</time>
      </trkpt>
      <trkpt lat="43.99192" lon="5.33044">
        <ele>644.220703</ele>
        <time>2011-05-15T12:12:31Z</time>
      </trkpt>
      <trkpt lat="43.99197" lon="5.3306">
        <ele>644.701172</ele>
        <time>2011-05-15T12:12:40Z</time>
      </trkpt>
      <trkpt lat="43.99199" lon="5.33068">
        <ele>645.181885</ele>
        <time>2011-05-15T12:12:45Z</time>
      </trkpt>
      <trkpt lat="43.99218" lon="5.33083">
        <ele>647.585205</ele>
        <time>2011-05-15T12:13:03Z</time>
      </trkpt>
      <trkpt lat="43.99222" lon="5.33086">
        <ele>646.624023</ele>
        <time>2011-05-15T12:13:07Z</time>
      </trkpt>
      <trkpt lat="43.99222" lon="5.3309">
        <ele>647.585205</ele>
        <time>2011-05-15T12:13:09Z</time>
      </trkpt>
      <trkpt lat="43.99227" lon="5.33106">
        <ele>647.104492</ele>
        <time>2011-05-15T12:13:18Z</time>
      </trkpt>
      <trkpt lat="43.99224" lon="5.33128">
        <ele>648.065918</ele>
        <time>2011-05-15T12:13:31Z</time>
      </trkpt>
      <trkpt lat="43.99228" lon="5.33126">
        <ele>647.104492</ele>
        <time>2011-05-15T12:14:16Z</time>
      </trkpt>
      <trkpt lat="43.99228" lon="5.33126">
        <ele>648.065918</ele>
        <time>2011-05-15T12:14:42Z</time>
      </trkpt>
      <trkpt lat="43.99229" lon="5.33127">
        <ele>648.065918</ele>
        <time>2011-05-15T12:15:15Z</time>
      </trkpt>
      <trkpt lat="43.99229" lon="5.33126">
        <ele>647.585205</ele>
        <time>2011-05-15T12:16:04Z</time>
      </trkpt>
      <trkpt lat="43.99231" lon="5.33119">
        <ele>647.104492</ele>
        <time>2011-05-15T12:16:14Z</time>
      </trkpt>
      <trkpt lat="43.99232" lon="5.33119">
        <ele>647.104492</ele>
        <time>2011-05-15T12:17:40Z</time>
      </trkpt>
      <trkpt lat="43.99232" lon="5.33119">
        <ele>644.220703</ele>
        <time>2011-05-15T12:18:52Z</time>
      </trkpt>
      <trkpt lat="43.99232" lon="5.33119">
        <ele>645.662598</ele>
        <time>2011-05-15T12:19:01Z</time>
      </trkpt>
      <trkpt lat="43.99231" lon="5.33119">
        <ele>642.778809</ele>
        <time>2011-05-15T12:19:57Z</time>
      </trkpt>
      <trkpt lat="43.99231" lon="5.33118">
        <ele>645.662598</ele>
        <time>2011-05-15T12:21:44Z</time>
      </trkpt>
      <trkpt lat="43.99231" lon="5.33117">
        <ele>642.778809</ele>
        <time>2011-05-15T12:26:57Z</time>
      </trkpt>
      <trkpt lat="43.9923" lon="5.33117">
        <ele>642.778809</ele>
        <time>2011-05-15T12:29:19Z</time>
      </trkpt>
      <trkpt lat="43.9923" lon="5.33117">
        <ele>641.817383</ele>
        <time>2011-05-15T12:31:33Z</time>
      </trkpt>
      <trkpt lat="43.99229" lon="5.33116">
        <ele>644.701172</ele>
        <time>2011-05-15T12:40:13Z</time>
      </trkpt>
      <trkpt lat="43.99229" lon="5.33115">
        <ele>645.181885</ele>
        <time>2011-05-15T12:45:31Z</time>
      </trkpt>
      <trkpt lat="43.99223" lon="5.33116">
        <ele>644.220703</ele>
        <time>2011-05-15T12:45:46Z</time>
      </trkpt>
      <trkpt lat="43.99226" lon="5.3312">
        <ele>645.181885</ele>
        <time>2011-05-15T12:46:03Z</time>
      </trkpt>
      <trkpt lat="43.99232" lon="5.33121">
        <ele>643.73999</ele>
        <time>2011-05-15T12:46:18Z</time>
      </trkpt>
      <trkpt lat="43.99232" lon="5.3312">
        <ele>641.33667</ele>
        <time>2011-05-15T12:47:19Z</time>
      </trkpt>
      <trkpt lat="43.99232" lon="5.33119">
        <ele>644.220703</ele>
        <time>2011-05-15T12:49:34Z</time>
      </trkpt>
      <trkpt lat="43.9923" lon="5.33116">
        <ele>645.181885</ele>
        <time>2011-05-15T12:55:09Z</time>
      </trkpt>
      <trkpt lat="43.9923" lon="5.33117">
        <ele>647.104492</ele>
        <time>2011-05-15T12:56:28Z</time>
      </trkpt>
      <trkpt lat="43.9923" lon="5.33118">
        <ele>643.73999</ele>
        <time>2011-05-15T12:57:22Z</time>
      </trkpt>
      <trkpt lat="43.99229" lon="5.33118">
        <ele>645.662598</ele>
        <time>2011-05-15T12:57:32Z</time>
      </trkpt>
      <trkpt lat="43.99229" lon="5.33121">
        <ele>645.181885</ele>
        <time>2011-05-15T12:57:57Z</time>
      </trkpt>
      <trkpt lat="43.99224" lon="5.33121">
        <ele>645.662598</ele>
        <time>2011-05-15T12:58:51Z</time>
      </trkpt>
      <trkpt lat="43.99221" lon="5.33141">
        <ele>647.104492</ele>
        <time>2011-05-15T12:59:13Z</time>
      </trkpt>
      <trkpt lat="43.99226" lon="5.33154">
        <ele>646.143311</ele>
        <time>2011-05-15T12:59:25Z</time>
      </trkpt>
      <trkpt lat="43.99226" lon="5.33159">
        <ele>645.662598</ele>
        <time>2011-05-15T12:59:27Z</time>
      </trkpt>
      <trkpt lat="43.99232" lon="5.33186">
        <ele>647.585205</ele>
        <time>2011-05-15T12:59:45Z</time>
      </trkpt>
      <trkpt lat="43.99234" lon="5.33192">
        <ele>647.585205</ele>
        <time>2011-05-15T12:59:49Z</time>
      </trkpt>
      <trkpt lat="43.99243" lon="5.3322">
        <ele>648.546387</ele>
        <time>2011-05-15T13:00:06Z</time>
      </trkpt>
      <trkpt lat="43.99256" lon="5.33257">
        <ele>649.507813</ele>
        <time>2011-05-15T13:00:31Z</time>
      </trkpt>
      <trkpt lat="43.99257" lon="5.33261">
        <ele>649.988525</ele>
        <time>2011-05-15T13:00:34Z</time>
      </trkpt>
      <trkpt lat="43.99267" lon="5.33289">
        <ele>652.391846</ele>
        <time>2011-05-15T13:00:53Z</time>
      </trkpt>
      <trkpt lat="43.99269" lon="5.33293">
        <ele>651.43042</ele>
        <time>2011-05-15T13:00:56Z</time>
      </trkpt>
      <trkpt lat="43.99272" lon="5.33299">
        <ele>652.391846</ele>
        <time>2011-05-15T13:01:01Z</time>
      </trkpt>
      <trkpt lat="43.99273" lon="5.33301">
        <ele>651.43042</ele>
        <time>2011-05-15T13:01:03Z</time>
      </trkpt>
      <trkpt lat="43.99284" lon="5.33317">
        <ele>651.911133</ele>
        <time>2011-05-15T13:01:17Z</time>
      </trkpt>
      <trkpt lat="43.99287" lon="5.33325">
        <ele>653.353271</ele>
        <time>2011-05-15T13:01:24Z</time>
      </trkpt>
      <trkpt lat="43.99292" lon="5.33328">
        <ele>651.43042</ele>
        <time>2011-05-15T13:01:41Z</time>
      </trkpt>
      <trkpt lat="43.99289" lon="5.3333">
        <ele>653.833984</ele>
        <time>2011-05-15T13:01:48Z</time>
      </trkpt>
      <trkpt lat="43.99285" lon="5.33331">
        <ele>652.391846</ele>
        <time>2011-05-15T13:02:01Z</time>
      </trkpt>
      <trkpt lat="43.99284" lon="5.3334">
        <ele>655.756592</ele>
        <time>2011-05-15T13:02:18Z</time>
      </trkpt>
      <trkpt lat="43.99283" lon="5.33347">
        <ele>659.121094</ele>
        <time>2011-05-15T13:02:36Z</time>
      </trkpt>
      <trkpt lat="43.99282" lon="5.33354">
        <ele>659.601807</ele>
        <time>2011-05-15T13:02:49Z</time>
      </trkpt>
      <trkpt lat="43.99283" lon="5.33359">
        <ele>660.562988</ele>
        <time>2011-05-15T13:02:53Z</time>
      </trkpt>
      <trkpt lat="43.99284" lon="5.33362">
        <ele>659.601807</ele>
        <time>2011-05-15T13:02:55Z</time>
      </trkpt>
      <trkpt lat="43.9929" lon="5.33377">
        <ele>660.082275</ele>
        <time>2011-05-15T13:03:10Z</time>
      </trkpt>
      <trkpt lat="43.99297" lon="5.33399">
        <ele>659.601807</ele>
        <time>2011-05-15T13:03:28Z</time>
      </trkpt>
      <trkpt lat="43.99298" lon="5.33405">
        <ele>660.082275</ele>
        <time>2011-05-15T13:03:32Z</time>
      </trkpt>
      <trkpt lat="43.993" lon="5.3341">
        <ele>659.601807</ele>
        <time>2011-05-15T13:03:34Z</time>
      </trkpt>
      <trkpt lat="43.99309" lon="5.33418">
        <ele>658.640381</ele>
        <time>2011-05-15T13:03:42Z</time>
      </trkpt>
      <trkpt lat="43.99316" lon="5.33422">
        <ele>658.159912</ele>
        <time>2011-05-15T13:03:49Z</time>
      </trkpt>
      <trkpt lat="43.99324" lon="5.33431">
        <ele>659.121094</ele>
        <time>2011-05-15T13:03:58Z</time>
      </trkpt>
      <trkpt lat="43.99328" lon="5.33439">
        <ele>658.640381</ele>
        <time>2011-05-15T13:04:19Z</time>
      </trkpt>
      <trkpt lat="43.99323" lon="5.33447">
        <ele>656.717773</ele>
        <time>2011-05-15T13:04:45Z</time>
      </trkpt>
      <trkpt lat="43.99316" lon="5.33456">
        <ele>659.601807</ele>
        <time>2011-05-15T13:05:01Z</time>
      </trkpt>
      <trkpt lat="43.9931" lon="5.33459">
        <ele>660.082275</ele>
        <time>2011-05-15T13:05:16Z</time>
      </trkpt>
      <trkpt lat="43.99309" lon="5.33459">
        <ele>660.082275</ele>
        <time>2011-05-15T13:05:17Z</time>
      </trkpt>
      <trkpt lat="43.99298" lon="5.33459">
        <ele>659.121094</ele>
        <time>2011-05-15T13:05:29Z</time>
      </trkpt>
      <trkpt lat="43.99296" lon="5.3346">
        <ele>660.562988</ele>
        <time>2011-05-15T13:05:31Z</time>
      </trkpt>
      <trkpt lat="43.99293" lon="5.33467">
        <ele>660.562988</ele>
        <time>2011-05-15T13:05:37Z</time>
      </trkpt>
      <trkpt lat="43.99297" lon="5.33473">
        <ele>661.043701</ele>
        <time>2011-05-15T13:05:43Z</time>
      </trkpt>
      <trkpt lat="43.99299" lon="5.33475">
        <ele>661.524414</ele>
        <time>2011-05-15T13:05:45Z</time>
      </trkpt>
      <trkpt lat="43.99307" lon="5.33484">
        <ele>662.005127</ele>
        <time>2011-05-15T13:05:51Z</time>
      </trkpt>
      <trkpt lat="43.99311" lon="5.3349">
        <ele>661.043701</ele>
        <time>2011-05-15T13:05:57Z</time>
      </trkpt>
      <trkpt lat="43.99321" lon="5.33506">
        <ele>660.082275</ele>
        <time>2011-05-15T13:06:16Z</time>
      </trkpt>
      <trkpt lat="43.99328" lon="5.33514">
        <ele>658.640381</ele>
        <time>2011-05-15T13:06:31Z</time>
      </trkpt>
      <trkpt lat="43.99334" lon="5.33518">
        <ele>660.562988</ele>
        <time>2011-05-15T13:06:47Z</time>
      </trkpt>
      <trkpt lat="43.99334" lon="5.33519">
        <ele>662.485596</ele>
        <time>2011-05-15T13:06:51Z</time>
      </trkpt>
      <trkpt lat="43.99341" lon="5.33525">
        <ele>662.485596</ele>
        <time>2011-05-15T13:07:11Z</time>
      </trkpt>
      <trkpt lat="43.99348" lon="5.33531">
        <ele>662.485596</ele>
        <time>2011-05-15T13:07:31Z</time>
      </trkpt>
      <trkpt lat="43.99357" lon="5.33542">
        <ele>662.005127</ele>
        <time>2011-05-15T13:07:53Z</time>
      </trkpt>
      <trkpt lat="43.9936" lon="5.33553">
        <ele>664.888916</ele>
        <time>2011-05-15T13:08:05Z</time>
      </trkpt>
      <trkpt lat="43.99358" lon="5.3356">
        <ele>664.888916</ele>
        <time>2011-05-15T13:08:21Z</time>
      </trkpt>
      <trkpt lat="43.9936" lon="5.33564">
        <ele>665.369629</ele>
        <time>2011-05-15T13:08:35Z</time>
      </trkpt>
      <trkpt lat="43.9937" lon="5.33576">
        <ele>665.369629</ele>
        <time>2011-05-15T13:08:52Z</time>
      </trkpt>
      <trkpt lat="43.99375" lon="5.33584">
        <ele>663.447021</ele>
        <time>2011-05-15T13:09:07Z</time>
      </trkpt>
      <trkpt lat="43.99375" lon="5.33584">
        <ele>662.966309</ele>
        <time>2011-05-15T13:09:08Z</time>
      </trkpt>
      <trkpt lat="43.99371" lon="5.33593">
        <ele>664.888916</ele>
        <time>2011-05-15T13:09:30Z</time>
      </trkpt>
      <trkpt lat="43.99369" lon="5.33595">
        <ele>664.888916</ele>
        <time>2011-05-15T13:09:33Z</time>
      </trkpt>
      <trkpt lat="43.99362" lon="5.33603">
        <ele>666.330811</ele>
        <time>2011-05-15T13:09:44Z</time>
      </trkpt>
      <trkpt lat="43.9936" lon="5.33616">
        <ele>666.811523</ele>
        <time>2011-05-15T13:09:57Z</time>
      </trkpt>
      <trkpt lat="43.99359" lon="5.33621">
        <ele>667.772705</ele>
        <time>2011-05-15T13:10:03Z</time>
      </trkpt>
      <trkpt lat="43.99358" lon="5.33624">
        <ele>667.292236</ele>
        <time>2011-05-15T13:10:09Z</time>
      </trkpt>
      <trkpt lat="43.99369" lon="5.33636">
        <ele>667.772705</ele>
        <time>2011-05-15T13:10:23Z</time>
      </trkpt>
      <trkpt lat="43.9937" lon="5.33643">
        <ele>666.330811</ele>
        <time>2011-05-15T13:10:27Z</time>
      </trkpt>
      <trkpt lat="43.99375" lon="5.33654">
        <ele>664.408203</ele>
        <time>2011-05-15T13:10:34Z</time>
      </trkpt>
      <trkpt lat="43.99376" lon="5.33655">
        <ele>665.369629</ele>
        <time>2011-05-15T13:10:35Z</time>
      </trkpt>
      <trkpt lat="43.99378" lon="5.33657">
        <ele>666.330811</ele>
        <time>2011-05-15T13:10:37Z</time>
      </trkpt>
      <trkpt lat="43.99382" lon="5.33661">
        <ele>667.772705</ele>
        <time>2011-05-15T13:10:40Z</time>
      </trkpt>
      <trkpt lat="43.99385" lon="5.33668">
        <ele>669.215088</ele>
        <time>2011-05-15T13:10:49Z</time>
      </trkpt>
      <trkpt lat="43.99386" lon="5.33672">
        <ele>666.330811</ele>
        <time>2011-05-15T13:10:52Z</time>
      </trkpt>
      <trkpt lat="43.9939" lon="5.33679">
        <ele>665.850342</ele>
        <time>2011-05-15T13:10:58Z</time>
      </trkpt>
      <trkpt lat="43.99399" lon="5.33691">
        <ele>667.292236</ele>
        <time>2011-05-15T13:11:09Z</time>
      </trkpt>
      <trkpt lat="43.99401" lon="5.33699">
        <ele>665.369629</ele>
        <time>2011-05-15T13:11:14Z</time>
      </trkpt>
      <trkpt lat="43.99408" lon="5.337">
        <ele>665.369629</ele>
        <time>2011-05-15T13:11:28Z</time>
      </trkpt>
      <trkpt lat="43.99413" lon="5.33702">
        <ele>666.811523</ele>
        <time>2011-05-15T13:11:33Z</time>
      </trkpt>
      <trkpt lat="43.99419" lon="5.33704">
        <ele>665.369629</ele>
        <time>2011-05-15T13:11:38Z</time>
      </trkpt>
      <trkpt lat="43.99424" lon="5.33704">
        <ele>665.369629</ele>
        <time>2011-05-15T13:11:44Z</time>
      </trkpt>
      <trkpt lat="43.99438" lon="5.33717">
        <ele>665.369629</ele>
        <time>2011-05-15T13:11:57Z</time>
      </trkpt>
      <trkpt lat="43.99452" lon="5.33729">
        <ele>665.850342</ele>
        <time>2011-05-15T13:12:13Z</time>
      </trkpt>
      <trkpt lat="43.99461" lon="5.3374">
        <ele>665.369629</ele>
        <time>2011-05-15T13:12:25Z</time>
      </trkpt>
      <trkpt lat="43.99462" lon="5.33739">
        <ele>664.408203</ele>
        <time>2011-05-15T13:12:27Z</time>
      </trkpt>
      <trkpt lat="43.99467" lon="5.33738">
        <ele>665.369629</ele>
        <time>2011-05-15T13:12:33Z</time>
      </trkpt>
      <trkpt lat="43.99473" lon="5.33746">
        <ele>665.369629</ele>
        <time>2011-05-15T13:12:48Z</time>
      </trkpt>
      <trkpt lat="43.99478" lon="5.33749">
        <ele>662.966309</ele>
        <time>2011-05-15T13:13:18Z</time>
      </trkpt>
      <trkpt lat="43.99473" lon="5.33746">
        <ele>663.92749</ele>
        <time>2011-05-15T13:13:39Z</time>
      </trkpt>
      <trkpt lat="43.99479" lon="5.33762">
        <ele>664.408203</ele>
        <time>2011-05-15T13:14:06Z</time>
      </trkpt>
      <trkpt lat="43.99487" lon="5.33774">
        <ele>664.888916</ele>
        <time>2011-05-15T13:14:15Z</time>
      </trkpt>
      <trkpt lat="43.99495" lon="5.33791">
        <ele>664.888916</ele>
        <time>2011-05-15T13:14:28Z</time>
      </trkpt>
      <trkpt lat="43.99501" lon="5.33799">
        <ele>664.408203</ele>
        <time>2011-05-15T13:14:36Z</time>
      </trkpt>
      <trkpt lat="43.99513" lon="5.3382">
        <ele>665.369629</ele>
        <time>2011-05-15T13:14:51Z</time>
      </trkpt>
      <trkpt lat="43.9953" lon="5.33855">
        <ele>666.330811</ele>
        <time>2011-05-15T13:15:16Z</time>
      </trkpt>
      <trkpt lat="43.9954" lon="5.33872">
        <ele>665.850342</ele>
        <time>2011-05-15T13:15:29Z</time>
      </trkpt>
      <trkpt lat="43.99543" lon="5.33876">
        <ele>666.811523</ele>
        <time>2011-05-15T13:15:33Z</time>
      </trkpt>
      <trkpt lat="43.99546" lon="5.33882">
        <ele>667.292236</ele>
        <time>2011-05-15T13:15:37Z</time>
      </trkpt>
      <trkpt lat="43.99561" lon="5.33911">
        <ele>668.253662</ele>
        <time>2011-05-15T13:15:58Z</time>
      </trkpt>
      <trkpt lat="43.99565" lon="5.33923">
        <ele>669.695801</ele>
        <time>2011-05-15T13:16:06Z</time>
      </trkpt>
      <trkpt lat="43.9957" lon="5.33932">
        <ele>672.098877</ele>
        <time>2011-05-15T13:16:13Z</time>
      </trkpt>
      <trkpt lat="43.99571" lon="5.33937">
        <ele>670.17627</ele>
        <time>2011-05-15T13:16:15Z</time>
      </trkpt>
      <trkpt lat="43.99574" lon="5.33942">
        <ele>669.215088</ele>
        <time>2011-05-15T13:16:18Z</time>
      </trkpt>
      <trkpt lat="43.99576" lon="5.33946">
        <ele>669.215088</ele>
        <time>2011-05-15T13:16:21Z</time>
      </trkpt>
      <trkpt lat="43.99582" lon="5.33954">
        <ele>668.734375</ele>
        <time>2011-05-15T13:16:28Z</time>
      </trkpt>
      <trkpt lat="43.99585" lon="5.3396">
        <ele>669.695801</ele>
        <time>2011-05-15T13:16:32Z</time>
      </trkpt>
      <trkpt lat="43.99586" lon="5.33963">
        <ele>668.734375</ele>
        <time>2011-05-15T13:16:34Z</time>
      </trkpt>
      <trkpt lat="43.99589" lon="5.33967">
        <ele>670.656982</ele>
        <time>2011-05-15T13:16:37Z</time>
      </trkpt>
      <trkpt lat="43.99605" lon="5.33992">
        <ele>672.57959</ele>
        <time>2011-05-15T13:16:56Z</time>
      </trkpt>
      <trkpt lat="43.9961" lon="5.34">
        <ele>673.541016</ele>
        <time>2011-05-15T13:17:01Z</time>
      </trkpt>
      <trkpt lat="43.99621" lon="5.34016">
        <ele>674.502197</ele>
        <time>2011-05-15T13:17:14Z</time>
      </trkpt>
      <trkpt lat="43.99624" lon="5.34022">
        <ele>674.502197</ele>
        <time>2011-05-15T13:17:18Z</time>
      </trkpt>
      <trkpt lat="43.99625" lon="5.34025">
        <ele>673.541016</ele>
        <time>2011-05-15T13:17:20Z</time>
      </trkpt>
      <trkpt lat="43.99626" lon="5.34028">
        <ele>675.944092</ele>
        <time>2011-05-15T13:17:22Z</time>
      </trkpt>
      <trkpt lat="43.99629" lon="5.34033">
        <ele>676.424805</ele>
        <time>2011-05-15T13:17:26Z</time>
      </trkpt>
      <trkpt lat="43.99632" lon="5.34039">
        <ele>674.502197</ele>
        <time>2011-05-15T13:17:30Z</time>
      </trkpt>
      <trkpt lat="43.99633" lon="5.3404">
        <ele>674.502197</ele>
        <time>2011-05-15T13:17:31Z</time>
      </trkpt>
      <trkpt lat="43.99634" lon="5.34044">
        <ele>677.866699</ele>
        <time>2011-05-15T13:17:34Z</time>
      </trkpt>
      <trkpt lat="43.99635" lon="5.34045">
        <ele>677.38623</ele>
        <time>2011-05-15T13:17:35Z</time>
      </trkpt>
      <trkpt lat="43.99642" lon="5.34057">
        <ele>679.789307</ele>
        <time>2011-05-15T13:17:44Z</time>
      </trkpt>
      <trkpt lat="43.99644" lon="5.34062">
        <ele>677.866699</ele>
        <time>2011-05-15T13:17:47Z</time>
      </trkpt>
      <trkpt lat="43.99645" lon="5.3407">
        <ele>678.347412</ele>
        <time>2011-05-15T13:17:54Z</time>
      </trkpt>
      <trkpt lat="43.99651" lon="5.34077">
        <ele>678.828125</ele>
        <time>2011-05-15T13:17:59Z</time>
      </trkpt>
      <trkpt lat="43.99654" lon="5.34086">
        <ele>680.27002</ele>
        <time>2011-05-15T13:18:08Z</time>
      </trkpt>
      <trkpt lat="43.99656" lon="5.34096">
        <ele>679.789307</ele>
        <time>2011-05-15T13:18:18Z</time>
      </trkpt>
      <trkpt lat="43.99646" lon="5.34096">
        <ele>679.308594</ele>
        <time>2011-05-15T13:18:29Z</time>
      </trkpt>
      <trkpt lat="43.99627" lon="5.34095">
        <ele>678.828125</ele>
        <time>2011-05-15T13:18:44Z</time>
      </trkpt>
      <trkpt lat="43.99622" lon="5.341">
        <ele>679.789307</ele>
        <time>2011-05-15T13:18:52Z</time>
      </trkpt>
      <trkpt lat="43.9963" lon="5.34105">
        <ele>677.866699</ele>
        <time>2011-05-15T13:18:59Z</time>
      </trkpt>
      <trkpt lat="43.99631" lon="5.34104">
        <ele>677.866699</ele>
        <time>2011-05-15T13:19:00Z</time>
      </trkpt>
      <trkpt lat="43.99634" lon="5.341">
        <ele>679.308594</ele>
        <time>2011-05-15T13:19:04Z</time>
      </trkpt>
      <trkpt lat="43.99637" lon="5.34099">
        <ele>679.789307</ele>
        <time>2011-05-15T13:19:07Z</time>
      </trkpt>
      <trkpt lat="43.99641" lon="5.34101">
        <ele>679.308594</ele>
        <time>2011-05-15T13:19:10Z</time>
      </trkpt>
      <trkpt lat="43.99657" lon="5.34103">
        <ele>680.750732</ele>
        <time>2011-05-15T13:19:21Z</time>
      </trkpt>
      <trkpt lat="43.99668" lon="5.34096">
        <ele>680.27002</ele>
        <time>2011-05-15T13:19:32Z</time>
      </trkpt>
      <trkpt lat="43.99669" lon="5.34087">
        <ele>680.27002</ele>
        <time>2011-05-15T13:19:50Z</time>
      </trkpt>
      <trkpt lat="43.9967" lon="5.34098">
        <ele>680.27002</ele>
        <time>2011-05-15T13:20:07Z</time>
      </trkpt>
      <trkpt lat="43.9968" lon="5.34108">
        <ele>680.27002</ele>
        <time>2011-05-15T13:20:15Z</time>
      </trkpt>
      <trkpt lat="43.99691" lon="5.34114">
        <ele>681.711914</ele>
        <time>2011-05-15T13:20:30Z</time>
      </trkpt>
      <trkpt lat="43.99699" lon="5.34125">
        <ele>684.115479</ele>
        <time>2011-05-15T13:20:45Z</time>
      </trkpt>
      <trkpt lat="43.99701" lon="5.34128">
        <ele>683.634521</ele>
        <time>2011-05-15T13:20:47Z</time>
      </trkpt>
      <trkpt lat="43.99704" lon="5.34135">
        <ele>682.192627</ele>
        <time>2011-05-15T13:20:56Z</time>
      </trkpt>
      <trkpt lat="43.99706" lon="5.3414">
        <ele>684.596191</ele>
        <time>2011-05-15T13:21:04Z</time>
      </trkpt>
      <trkpt lat="43.99709" lon="5.34142">
        <ele>683.153809</ele>
        <time>2011-05-15T13:21:06Z</time>
      </trkpt>
      <trkpt lat="43.99718" lon="5.34158">
        <ele>683.634521</ele>
        <time>2011-05-15T13:21:22Z</time>
      </trkpt>
      <trkpt lat="43.99722" lon="5.34164">
        <ele>684.115479</ele>
        <time>2011-05-15T13:21:26Z</time>
      </trkpt>
      <trkpt lat="43.99736" lon="5.34182">
        <ele>685.076904</ele>
        <time>2011-05-15T13:21:45Z</time>
      </trkpt>
      <trkpt lat="43.99737" lon="5.34183">
        <ele>685.076904</ele>
        <time>2011-05-15T13:21:46Z</time>
      </trkpt>
      <trkpt lat="43.99742" lon="5.34195">
        <ele>684.596191</ele>
        <time>2011-05-15T13:22:04Z</time>
      </trkpt>
      <trkpt lat="43.99746" lon="5.34194">
        <ele>684.115479</ele>
        <time>2011-05-15T13:22:21Z</time>
      </trkpt>
      <trkpt lat="43.99748" lon="5.34189">
        <ele>684.115479</ele>
        <time>2011-05-15T13:22:40Z</time>
      </trkpt>
      <trkpt lat="43.99747" lon="5.34191">
        <ele>685.076904</ele>
        <time>2011-05-15T13:23:15Z</time>
      </trkpt>
      <trkpt lat="43.99747" lon="5.34191">
        <ele>684.596191</ele>
        <time>2011-05-15T13:23:36Z</time>
      </trkpt>
      <trkpt lat="43.99746" lon="5.34183">
        <ele>685.076904</ele>
        <time>2011-05-15T13:24:12Z</time>
      </trkpt>
      <trkpt lat="43.99744" lon="5.34178">
        <ele>684.115479</ele>
        <time>2011-05-15T13:24:25Z</time>
      </trkpt>
      <trkpt lat="43.99743" lon="5.34178">
        <ele>681.231445</ele>
        <time>2011-05-15T13:24:40Z</time>
      </trkpt>
      <trkpt lat="43.99744" lon="5.34179">
        <ele>684.115479</ele>
        <time>2011-05-15T13:24:45Z</time>
      </trkpt>
      <trkpt lat="43.99744" lon="5.34179">
        <ele>684.115479</ele>
        <time>2011-05-15T13:24:51Z</time>
      </trkpt>
      <trkpt lat="43.99741" lon="5.34184">
        <ele>683.153809</ele>
        <time>2011-05-15T13:25:29Z</time>
      </trkpt>
      <trkpt lat="43.99736" lon="5.3418">
        <ele>683.153809</ele>
        <time>2011-05-15T13:25:50Z</time>
      </trkpt>
      <trkpt lat="43.99732" lon="5.34172">
        <ele>681.711914</ele>
        <time>2011-05-15T13:25:59Z</time>
      </trkpt>
      <trkpt lat="43.99732" lon="5.34164">
        <ele>683.153809</ele>
        <time>2011-05-15T13:26:08Z</time>
      </trkpt>
      <trkpt lat="43.99729" lon="5.34157">
        <ele>685.076904</ele>
        <time>2011-05-15T13:26:15Z</time>
      </trkpt>
      <trkpt lat="43.99726" lon="5.34154">
        <ele>683.153809</ele>
        <time>2011-05-15T13:26:18Z</time>
      </trkpt>
      <trkpt lat="43.99714" lon="5.34143">
        <ele>683.634521</ele>
        <time>2011-05-15T13:26:29Z</time>
      </trkpt>
      <trkpt lat="43.99702" lon="5.34127">
        <ele>682.67334</ele>
        <time>2011-05-15T13:26:48Z</time>
      </trkpt>
      <trkpt lat="43.99698" lon="5.34126">
        <ele>684.596191</ele>
        <time>2011-05-15T13:27:04Z</time>
      </trkpt>
      <trkpt lat="43.99697" lon="5.34125">
        <ele>684.596191</ele>
        <time>2011-05-15T13:27:05Z</time>
      </trkpt>
      <trkpt lat="43.99692" lon="5.34119">
        <ele>683.153809</ele>
        <time>2011-05-15T13:27:10Z</time>
      </trkpt>
      <trkpt lat="43.99687" lon="5.34118">
        <ele>682.67334</ele>
        <time>2011-05-15T13:27:13Z</time>
      </trkpt>
      <trkpt lat="43.99673" lon="5.34104">
        <ele>682.192627</ele>
        <time>2011-05-15T13:27:25Z</time>
      </trkpt>
      <trkpt lat="43.99657" lon="5.34103">
        <ele>679.308594</ele>
        <time>2011-05-15T13:27:39Z</time>
      </trkpt>
      <trkpt lat="43.99649" lon="5.34097">
        <ele>679.789307</ele>
        <time>2011-05-15T13:27:46Z</time>
      </trkpt>
      <trkpt lat="43.99633" lon="5.341">
        <ele>678.828125</ele>
        <time>2011-05-15T13:28:00Z</time>
      </trkpt>
      <trkpt lat="43.99628" lon="5.34105">
        <ele>680.27002</ele>
        <time>2011-05-15T13:28:12Z</time>
      </trkpt>
      <trkpt lat="43.99628" lon="5.34107">
        <ele>680.27002</ele>
        <time>2011-05-15T13:28:25Z</time>
      </trkpt>
      <trkpt lat="43.99626" lon="5.34111">
        <ele>679.308594</ele>
        <time>2011-05-15T13:28:32Z</time>
      </trkpt>
      <trkpt lat="43.99616" lon="5.34118">
        <ele>680.27002</ele>
        <time>2011-05-15T13:28:40Z</time>
      </trkpt>
      <trkpt lat="43.99612" lon="5.3412">
        <ele>680.750732</ele>
        <time>2011-05-15T13:28:43Z</time>
      </trkpt>
      <trkpt lat="43.99593" lon="5.34114">
        <ele>679.789307</ele>
        <time>2011-05-15T13:29:00Z</time>
      </trkpt>
      <trkpt lat="43.99578" lon="5.3411">
        <ele>677.38623</ele>
        <time>2011-05-15T13:29:12Z</time>
      </trkpt>
      <trkpt lat="43.99557" lon="5.34106">
        <ele>678.347412</ele>
        <time>2011-05-15T13:29:25Z</time>
      </trkpt>
      <trkpt lat="43.99544" lon="5.34105">
        <ele>677.38623</ele>
        <time>2011-05-15T13:29:35Z</time>
      </trkpt>
      <trkpt lat="43.9953" lon="5.34104">
        <ele>679.308594</ele>
        <time>2011-05-15T13:29:49Z</time>
      </trkpt>
      <trkpt lat="43.99517" lon="5.34105">
        <ele>676.424805</ele>
        <time>2011-05-15T13:30:02Z</time>
      </trkpt>
      <trkpt lat="43.99497" lon="5.34108">
        <ele>678.828125</ele>
        <time>2011-05-15T13:30:17Z</time>
      </trkpt>
      <trkpt lat="43.99477" lon="5.34103">
        <ele>678.828125</ele>
        <time>2011-05-15T13:30:35Z</time>
      </trkpt>
      <trkpt lat="43.99467" lon="5.34102">
        <ele>678.828125</ele>
        <time>2011-05-15T13:30:44Z</time>
      </trkpt>
      <trkpt lat="43.9946" lon="5.34101">
        <ele>680.750732</ele>
        <time>2011-05-15T13:30:49Z</time>
      </trkpt>
      <trkpt lat="43.99445" lon="5.34101">
        <ele>679.789307</ele>
        <time>2011-05-15T13:31:02Z</time>
      </trkpt>
      <trkpt lat="43.99431" lon="5.34098">
        <ele>679.789307</ele>
        <time>2011-05-15T13:31:15Z</time>
      </trkpt>
      <trkpt lat="43.99411" lon="5.34097">
        <ele>680.750732</ele>
        <time>2011-05-15T13:31:33Z</time>
      </trkpt>
      <trkpt lat="43.99392" lon="5.34098">
        <ele>680.750732</ele>
        <time>2011-05-15T13:31:49Z</time>
      </trkpt>
      <trkpt lat="43.99377" lon="5.34095">
        <ele>680.27002</ele>
        <time>2011-05-15T13:32:03Z</time>
      </trkpt>
      <trkpt lat="43.99368" lon="5.34096">
        <ele>679.789307</ele>
        <time>2011-05-15T13:32:10Z</time>
      </trkpt>
      <trkpt lat="43.99361" lon="5.34094">
        <ele>680.27002</ele>
        <time>2011-05-15T13:32:15Z</time>
      </trkpt>
      <trkpt lat="43.99358" lon="5.34094">
        <ele>679.789307</ele>
        <time>2011-05-15T13:32:17Z</time>
      </trkpt>
      <trkpt lat="43.99347" lon="5.34097">
        <ele>680.27002</ele>
        <time>2011-05-15T13:32:30Z</time>
      </trkpt>
      <trkpt lat="43.99332" lon="5.34094">
        <ele>680.27002</ele>
        <time>2011-05-15T13:32:41Z</time>
      </trkpt>
      <trkpt lat="43.99314" lon="5.34094">
        <ele>681.711914</ele>
        <time>2011-05-15T13:32:56Z</time>
      </trkpt>
      <trkpt lat="43.99291" lon="5.3409">
        <ele>681.711914</ele>
        <time>2011-05-15T13:33:16Z</time>
      </trkpt>
      <trkpt lat="43.99272" lon="5.34088">
        <ele>682.67334</ele>
        <time>2011-05-15T13:33:32Z</time>
      </trkpt>
      <trkpt lat="43.99259" lon="5.3409">
        <ele>685.076904</ele>
        <time>2011-05-15T13:33:44Z</time>
      </trkpt>
      <trkpt lat="43.9925" lon="5.34087">
        <ele>684.115479</ele>
        <time>2011-05-15T13:33:50Z</time>
      </trkpt>
      <trkpt lat="43.99245" lon="5.34086">
        <ele>684.596191</ele>
        <time>2011-05-15T13:33:55Z</time>
      </trkpt>
      <trkpt lat="43.99232" lon="5.34077">
        <ele>684.596191</ele>
        <time>2011-05-15T13:34:08Z</time>
      </trkpt>
      <trkpt lat="43.9922" lon="5.3407">
        <ele>685.557373</ele>
        <time>2011-05-15T13:34:21Z</time>
      </trkpt>
      <trkpt lat="43.99216" lon="5.34071">
        <ele>684.596191</ele>
        <time>2011-05-15T13:34:25Z</time>
      </trkpt>
      <trkpt lat="43.99209" lon="5.34067">
        <ele>684.596191</ele>
        <time>2011-05-15T13:34:31Z</time>
      </trkpt>
      <trkpt lat="43.99204" lon="5.34065">
        <ele>684.115479</ele>
        <time>2011-05-15T13:34:34Z</time>
      </trkpt>
      <trkpt lat="43.99191" lon="5.34052">
        <ele>683.634521</ele>
        <time>2011-05-15T13:34:47Z</time>
      </trkpt>
      <trkpt lat="43.99185" lon="5.34044">
        <ele>684.115479</ele>
        <time>2011-05-15T13:34:55Z</time>
      </trkpt>
      <trkpt lat="43.99175" lon="5.34035">
        <ele>684.596191</ele>
        <time>2011-05-15T13:35:06Z</time>
      </trkpt>
      <trkpt lat="43.99161" lon="5.34022">
        <ele>686.038086</ele>
        <time>2011-05-15T13:35:19Z</time>
      </trkpt>
      <trkpt lat="43.99147" lon="5.34016">
        <ele>685.557373</ele>
        <time>2011-05-15T13:35:32Z</time>
      </trkpt>
      <trkpt lat="43.99138" lon="5.3401">
        <ele>684.596191</ele>
        <time>2011-05-15T13:35:40Z</time>
      </trkpt>
      <trkpt lat="43.99135" lon="5.34008">
        <ele>684.115479</ele>
        <time>2011-05-15T13:35:43Z</time>
      </trkpt>
      <trkpt lat="43.9913" lon="5.34008">
        <ele>683.634521</ele>
        <time>2011-05-15T13:35:47Z</time>
      </trkpt>
      <trkpt lat="43.99113" lon="5.34002">
        <ele>684.115479</ele>
        <time>2011-05-15T13:36:00Z</time>
      </trkpt>
      <trkpt lat="43.99098" lon="5.33996">
        <ele>683.634521</ele>
        <time>2011-05-15T13:36:16Z</time>
      </trkpt>
      <trkpt lat="43.99084" lon="5.33992">
        <ele>684.115479</ele>
        <time>2011-05-15T13:36:29Z</time>
      </trkpt>
      <trkpt lat="43.99071" lon="5.33988">
        <ele>683.634521</ele>
        <time>2011-05-15T13:36:43Z</time>
      </trkpt>
      <trkpt lat="43.99069" lon="5.33986">
        <ele>683.153809</ele>
        <time>2011-05-15T13:36:45Z</time>
      </trkpt>
      <trkpt lat="43.99063" lon="5.3398">
        <ele>683.634521</ele>
        <time>2011-05-15T13:36:51Z</time>
      </trkpt>
      <trkpt lat="43.99056" lon="5.33966">
        <ele>684.115479</ele>
        <time>2011-05-15T13:37:03Z</time>
      </trkpt>
      <trkpt lat="43.99054" lon="5.33951">
        <ele>683.634521</ele>
        <time>2011-05-15T13:37:15Z</time>
      </trkpt>
      <trkpt lat="43.99054" lon="5.33947">
        <ele>683.153809</ele>
        <time>2011-05-15T13:37:18Z</time>
      </trkpt>
      <trkpt lat="43.99052" lon="5.3394">
        <ele>682.67334</ele>
        <time>2011-05-15T13:37:22Z</time>
      </trkpt>
      <trkpt lat="43.99042" lon="5.33925">
        <ele>681.231445</ele>
        <time>2011-05-15T13:37:37Z</time>
      </trkpt>
      <trkpt lat="43.99036" lon="5.33919">
        <ele>679.789307</ele>
        <time>2011-05-15T13:37:44Z</time>
      </trkpt>
      <trkpt lat="43.99027" lon="5.33912">
        <ele>680.750732</ele>
        <time>2011-05-15T13:37:54Z</time>
      </trkpt>
      <trkpt lat="43.99018" lon="5.3391">
        <ele>679.789307</ele>
        <time>2011-05-15T13:38:02Z</time>
      </trkpt>
      <trkpt lat="43.99016" lon="5.3391">
        <ele>679.789307</ele>
        <time>2011-05-15T13:38:04Z</time>
      </trkpt>
      <trkpt lat="43.99007" lon="5.33913">
        <ele>677.866699</ele>
        <time>2011-05-15T13:38:11Z</time>
      </trkpt>
      <trkpt lat="43.99" lon="5.33913">
        <ele>679.308594</ele>
        <time>2011-05-15T13:38:17Z</time>
      </trkpt>
      <trkpt lat="43.98987" lon="5.33916">
        <ele>680.750732</ele>
        <time>2011-05-15T13:38:29Z</time>
      </trkpt>
      <trkpt lat="43.98968" lon="5.33916">
        <ele>681.711914</ele>
        <time>2011-05-15T13:38:49Z</time>
      </trkpt>
      <trkpt lat="43.98946" lon="5.33919">
        <ele>684.115479</ele>
        <time>2011-05-15T13:39:09Z</time>
      </trkpt>
      <trkpt lat="43.98937" lon="5.33917">
        <ele>684.115479</ele>
        <time>2011-05-15T13:39:16Z</time>
      </trkpt>
      <trkpt lat="43.98926" lon="5.33915">
        <ele>684.596191</ele>
        <time>2011-05-15T13:39:26Z</time>
      </trkpt>
      <trkpt lat="43.98911" lon="5.33917">
        <ele>684.115479</ele>
        <time>2011-05-15T13:39:38Z</time>
      </trkpt>
      <trkpt lat="43.98904" lon="5.33918">
        <ele>684.596191</ele>
        <time>2011-05-15T13:39:45Z</time>
      </trkpt>
      <trkpt lat="43.989" lon="5.33919">
        <ele>686.999268</ele>
        <time>2011-05-15T13:39:49Z</time>
      </trkpt>
      <trkpt lat="43.9888" lon="5.3392">
        <ele>683.153809</ele>
        <time>2011-05-15T13:40:05Z</time>
      </trkpt>
      <trkpt lat="43.98873" lon="5.33923">
        <ele>685.076904</ele>
        <time>2011-05-15T13:40:10Z</time>
      </trkpt>
      <trkpt lat="43.9887" lon="5.33925">
        <ele>686.038086</ele>
        <time>2011-05-15T13:40:13Z</time>
      </trkpt>
      <trkpt lat="43.9887" lon="5.33923">
        <ele>686.038086</ele>
        <time>2011-05-15T13:40:16Z</time>
      </trkpt>
      <trkpt lat="43.98864" lon="5.33923">
        <ele>686.518799</ele>
        <time>2011-05-15T13:40:20Z</time>
      </trkpt>
      <trkpt lat="43.98851" lon="5.33921">
        <ele>686.038086</ele>
        <time>2011-05-15T13:40:33Z</time>
      </trkpt>
      <trkpt lat="43.9883" lon="5.33917">
        <ele>685.557373</ele>
        <time>2011-05-15T13:40:50Z</time>
      </trkpt>
      <trkpt lat="43.98806" lon="5.33914">
        <ele>686.038086</ele>
        <time>2011-05-15T13:41:11Z</time>
      </trkpt>
      <trkpt lat="43.98792" lon="5.33912">
        <ele>686.038086</ele>
        <time>2011-05-15T13:41:23Z</time>
      </trkpt>
      <trkpt lat="43.98787" lon="5.3391">
        <ele>684.115479</ele>
        <time>2011-05-15T13:41:28Z</time>
      </trkpt>
      <trkpt lat="43.98772" lon="5.33908">
        <ele>685.076904</ele>
        <time>2011-05-15T13:41:42Z</time>
      </trkpt>
      <trkpt lat="43.98757" lon="5.33903">
        <ele>683.634521</ele>
        <time>2011-05-15T13:41:54Z</time>
      </trkpt>
      <trkpt lat="43.98749" lon="5.33902">
        <ele>686.518799</ele>
        <time>2011-05-15T13:42:05Z</time>
      </trkpt>
      <trkpt lat="43.9873" lon="5.33896">
        <ele>688.922119</ele>
        <time>2011-05-15T13:42:23Z</time>
      </trkpt>
      <trkpt lat="43.98706" lon="5.3388">
        <ele>688.441406</ele>
        <time>2011-05-15T13:42:45Z</time>
      </trkpt>
      <trkpt lat="43.98695" lon="5.33876">
        <ele>688.922119</ele>
        <time>2011-05-15T13:42:56Z</time>
      </trkpt>
      <trkpt lat="43.9868" lon="5.3387">
        <ele>689.402588</ele>
        <time>2011-05-15T13:43:11Z</time>
      </trkpt>
      <trkpt lat="43.98679" lon="5.33869">
        <ele>689.402588</ele>
        <time>2011-05-15T13:43:12Z</time>
      </trkpt>
      <trkpt lat="43.98666" lon="5.33859">
        <ele>687.960693</ele>
        <time>2011-05-15T13:43:23Z</time>
      </trkpt>
      <trkpt lat="43.98653" lon="5.33847">
        <ele>688.441406</ele>
        <time>2011-05-15T13:43:37Z</time>
      </trkpt>
      <trkpt lat="43.98635" lon="5.33831">
        <ele>688.441406</ele>
        <time>2011-05-15T13:43:57Z</time>
      </trkpt>
      <trkpt lat="43.98624" lon="5.33825">
        <ele>691.325195</ele>
        <time>2011-05-15T13:44:10Z</time>
      </trkpt>
      <trkpt lat="43.98605" lon="5.33819">
        <ele>691.805908</ele>
        <time>2011-05-15T13:44:26Z</time>
      </trkpt>
      <trkpt lat="43.98582" lon="5.33811">
        <ele>693.728516</ele>
        <time>2011-05-15T13:44:45Z</time>
      </trkpt>
      <trkpt lat="43.98572" lon="5.33796">
        <ele>695.17041</ele>
        <time>2011-05-15T13:45:05Z</time>
      </trkpt>
      <trkpt lat="43.98571" lon="5.33794">
        <ele>695.17041</ele>
        <time>2011-05-15T13:45:07Z</time>
      </trkpt>
      <trkpt lat="43.98561" lon="5.33786">
        <ele>697.093018</ele>
        <time>2011-05-15T13:45:15Z</time>
      </trkpt>
      <trkpt lat="43.98556" lon="5.33776">
        <ele>696.612549</ele>
        <time>2011-05-15T13:45:24Z</time>
      </trkpt>
      <trkpt lat="43.98553" lon="5.33766">
        <ele>698.534912</ele>
        <time>2011-05-15T13:45:33Z</time>
      </trkpt>
      <trkpt lat="43.98541" lon="5.33749">
        <ele>696.612549</ele>
        <time>2011-05-15T13:45:49Z</time>
      </trkpt>
      <trkpt lat="43.98536" lon="5.33745">
        <ele>698.534912</ele>
        <time>2011-05-15T13:45:54Z</time>
      </trkpt>
      <trkpt lat="43.98533" lon="5.33741">
        <ele>697.57373</ele>
        <time>2011-05-15T13:45:57Z</time>
      </trkpt>
      <trkpt lat="43.98532" lon="5.33736">
        <ele>699.015625</ele>
        <time>2011-05-15T13:46:02Z</time>
      </trkpt>
      <trkpt lat="43.98527" lon="5.33731">
        <ele>700.938477</ele>
        <time>2011-05-15T13:46:07Z</time>
      </trkpt>
      <trkpt lat="43.98518" lon="5.33716">
        <ele>701.899902</ele>
        <time>2011-05-15T13:46:20Z</time>
      </trkpt>
      <trkpt lat="43.98515" lon="5.33703">
        <ele>700.938477</ele>
        <time>2011-05-15T13:46:31Z</time>
      </trkpt>
      <trkpt lat="43.98514" lon="5.337">
        <ele>702.380371</ele>
        <time>2011-05-15T13:46:34Z</time>
      </trkpt>
      <trkpt lat="43.9851" lon="5.33691">
        <ele>703.82251</ele>
        <time>2011-05-15T13:46:41Z</time>
      </trkpt>
      <trkpt lat="43.98509" lon="5.33687">
        <ele>702.380371</ele>
        <time>2011-05-15T13:46:44Z</time>
      </trkpt>
      <trkpt lat="43.98504" lon="5.3368">
        <ele>703.341797</ele>
        <time>2011-05-15T13:46:51Z</time>
      </trkpt>
      <trkpt lat="43.98501" lon="5.33671">
        <ele>704.303223</ele>
        <time>2011-05-15T13:46:57Z</time>
      </trkpt>
      <trkpt lat="43.98499" lon="5.33666">
        <ele>705.264404</ele>
        <time>2011-05-15T13:47:01Z</time>
      </trkpt>
      <trkpt lat="43.98495" lon="5.33659">
        <ele>705.264404</ele>
        <time>2011-05-15T13:47:08Z</time>
      </trkpt>
      <trkpt lat="43.98494" lon="5.33648">
        <ele>704.783691</ele>
        <time>2011-05-15T13:47:14Z</time>
      </trkpt>
      <trkpt lat="43.98492" lon="5.3364">
        <ele>704.303223</ele>
        <time>2011-05-15T13:47:19Z</time>
      </trkpt>
      <trkpt lat="43.98491" lon="5.33638">
        <ele>704.783691</ele>
        <time>2011-05-15T13:47:21Z</time>
      </trkpt>
      <trkpt lat="43.98488" lon="5.33634">
        <ele>708.148438</ele>
        <time>2011-05-15T13:47:25Z</time>
      </trkpt>
      <trkpt lat="43.98488" lon="5.33633">
        <ele>707.187012</ele>
        <time>2011-05-15T13:47:26Z</time>
      </trkpt>
      <trkpt lat="43.98481" lon="5.33623">
        <ele>707.667725</ele>
        <time>2011-05-15T13:47:35Z</time>
      </trkpt>
      <trkpt lat="43.98478" lon="5.33619">
        <ele>709.109619</ele>
        <time>2011-05-15T13:47:38Z</time>
      </trkpt>
      <trkpt lat="43.98473" lon="5.33604">
        <ele>709.109619</ele>
        <time>2011-05-15T13:47:52Z</time>
      </trkpt>
      <trkpt lat="43.98467" lon="5.33589">
        <ele>708.628906</ele>
        <time>2011-05-15T13:48:04Z</time>
      </trkpt>
      <trkpt lat="43.98465" lon="5.33588">
        <ele>712.474121</ele>
        <time>2011-05-15T13:48:06Z</time>
      </trkpt>
      <trkpt lat="43.98465" lon="5.33586">
        <ele>711.032227</ele>
        <time>2011-05-15T13:48:07Z</time>
      </trkpt>
      <trkpt lat="43.9846" lon="5.33579">
        <ele>709.590332</ele>
        <time>2011-05-15T13:48:14Z</time>
      </trkpt>
      <trkpt lat="43.98444" lon="5.3356">
        <ele>713.435547</ele>
        <time>2011-05-15T13:48:33Z</time>
      </trkpt>
      <trkpt lat="43.98444" lon="5.33557">
        <ele>712.954834</ele>
        <time>2011-05-15T13:48:35Z</time>
      </trkpt>
      <trkpt lat="43.98436" lon="5.33544">
        <ele>714.396729</ele>
        <time>2011-05-15T13:48:48Z</time>
      </trkpt>
      <trkpt lat="43.9843" lon="5.3354">
        <ele>714.877441</ele>
        <time>2011-05-15T13:48:53Z</time>
      </trkpt>
      <trkpt lat="43.98427" lon="5.33537">
        <ele>715.358154</ele>
        <time>2011-05-15T13:48:57Z</time>
      </trkpt>
      <trkpt lat="43.98418" lon="5.33529">
        <ele>716.31958</ele>
        <time>2011-05-15T13:49:07Z</time>
      </trkpt>
      <trkpt lat="43.98405" lon="5.33526">
        <ele>719.203613</ele>
        <time>2011-05-15T13:49:20Z</time>
      </trkpt>
      <trkpt lat="43.98395" lon="5.33522">
        <ele>721.126221</ele>
        <time>2011-05-15T13:49:31Z</time>
      </trkpt>
      <trkpt lat="43.98382" lon="5.33518">
        <ele>721.126221</ele>
        <time>2011-05-15T13:49:47Z</time>
      </trkpt>
      <trkpt lat="43.98376" lon="5.33519">
        <ele>723.048828</ele>
        <time>2011-05-15T13:49:50Z</time>
      </trkpt>
      <trkpt lat="43.98373" lon="5.33519">
        <ele>721.606689</ele>
        <time>2011-05-15T13:49:53Z</time>
      </trkpt>
      <trkpt lat="43.98371" lon="5.33518">
        <ele>724.971436</ele>
        <time>2011-05-15T13:49:56Z</time>
      </trkpt>
      <trkpt lat="43.98359" lon="5.33514">
        <ele>725.932617</ele>
        <time>2011-05-15T13:50:08Z</time>
      </trkpt>
      <trkpt lat="43.98349" lon="5.33511">
        <ele>727.855225</ele>
        <time>2011-05-15T13:50:16Z</time>
      </trkpt>
      <trkpt lat="43.98347" lon="5.33511">
        <ele>726.41333</ele>
        <time>2011-05-15T13:50:18Z</time>
      </trkpt>
      <trkpt lat="43.98334" lon="5.3351">
        <ele>729.297119</ele>
        <time>2011-05-15T13:50:31Z</time>
      </trkpt>
      <trkpt lat="43.98321" lon="5.33511">
        <ele>730.258545</ele>
        <time>2011-05-15T13:50:44Z</time>
      </trkpt>
      <trkpt lat="43.98314" lon="5.33513">
        <ele>730.739258</ele>
        <time>2011-05-15T13:50:51Z</time>
      </trkpt>
      <trkpt lat="43.98312" lon="5.33512">
        <ele>730.258545</ele>
        <time>2011-05-15T13:50:53Z</time>
      </trkpt>
      <trkpt lat="43.983" lon="5.33514">
        <ele>731.700439</ele>
        <time>2011-05-15T13:51:02Z</time>
      </trkpt>
      <trkpt lat="43.98298" lon="5.33515">
        <ele>731.219971</ele>
        <time>2011-05-15T13:51:04Z</time>
      </trkpt>
      <trkpt lat="43.98288" lon="5.33519">
        <ele>730.739258</ele>
        <time>2011-05-15T13:51:14Z</time>
      </trkpt>
      <trkpt lat="43.98283" lon="5.33522">
        <ele>733.142578</ele>
        <time>2011-05-15T13:51:19Z</time>
      </trkpt>
      <trkpt lat="43.98283" lon="5.33523">
        <ele>732.662109</ele>
        <time>2011-05-15T13:51:20Z</time>
      </trkpt>
      <trkpt lat="43.98281" lon="5.33524">
        <ele>731.700439</ele>
        <time>2011-05-15T13:51:22Z</time>
      </trkpt>
      <trkpt lat="43.98274" lon="5.33524">
        <ele>732.181396</ele>
        <time>2011-05-15T13:51:26Z</time>
      </trkpt>
      <trkpt lat="43.98263" lon="5.33528">
        <ele>733.623291</ele>
        <time>2011-05-15T13:51:39Z</time>
      </trkpt>
      <trkpt lat="43.9826" lon="5.3353">
        <ele>734.584717</ele>
        <time>2011-05-15T13:52:18Z</time>
      </trkpt>
      <trkpt lat="43.98259" lon="5.33529">
        <ele>735.545898</ele>
        <time>2011-05-15T13:52:41Z</time>
      </trkpt>
      <trkpt lat="43.98259" lon="5.33529">
        <ele>736.507324</ele>
        <time>2011-05-15T13:53:20Z</time>
      </trkpt>
      <trkpt lat="43.98259" lon="5.33529">
        <ele>735.06543</ele>
        <time>2011-05-15T13:53:22Z</time>
      </trkpt>
      <trkpt lat="43.98258" lon="5.33529">
        <ele>736.026611</ele>
        <time>2011-05-15T13:53:48Z</time>
      </trkpt>
      <trkpt lat="43.98258" lon="5.33529">
        <ele>733.142578</ele>
        <time>2011-05-15T13:54:17Z</time>
      </trkpt>
      <trkpt lat="43.98258" lon="5.33529">
        <ele>735.06543</ele>
        <time>2011-05-15T13:54:23Z</time>
      </trkpt>
      <trkpt lat="43.98258" lon="5.33529">
        <ele>732.662109</ele>
        <time>2011-05-15T13:54:40Z</time>
      </trkpt>
      <trkpt lat="43.98258" lon="5.33529">
        <ele>735.06543</ele>
        <time>2011-05-15T13:54:56Z</time>
      </trkpt>
      <trkpt lat="43.98252" lon="5.3353">
        <ele>733.142578</ele>
        <time>2011-05-15T13:55:10Z</time>
      </trkpt>
      <trkpt lat="43.98247" lon="5.33533">
        <ele>734.584717</ele>
        <time>2011-05-15T13:55:16Z</time>
      </trkpt>
      <trkpt lat="43.98238" lon="5.33533">
        <ele>732.662109</ele>
        <time>2011-05-15T13:55:26Z</time>
      </trkpt>
      <trkpt lat="43.98237" lon="5.33534">
        <ele>734.104004</ele>
        <time>2011-05-15T13:55:28Z</time>
      </trkpt>
      <trkpt lat="43.98226" lon="5.33537">
        <ele>734.584717</ele>
        <time>2011-05-15T13:55:39Z</time>
      </trkpt>
      <trkpt lat="43.98213" lon="5.33539">
        <ele>732.181396</ele>
        <time>2011-05-15T13:55:53Z</time>
      </trkpt>
      <trkpt lat="43.98201" lon="5.33539">
        <ele>736.026611</ele>
        <time>2011-05-15T13:56:04Z</time>
      </trkpt>
      <trkpt lat="43.982" lon="5.3354">
        <ele>735.06543</ele>
        <time>2011-05-15T13:56:05Z</time>
      </trkpt>
      <trkpt lat="43.98198" lon="5.33541">
        <ele>733.142578</ele>
        <time>2011-05-15T13:56:08Z</time>
      </trkpt>
      <trkpt lat="43.98192" lon="5.33544">
        <ele>733.142578</ele>
        <time>2011-05-15T13:56:14Z</time>
      </trkpt>
      <trkpt lat="43.98186" lon="5.33545">
        <ele>733.142578</ele>
        <time>2011-05-15T13:56:20Z</time>
      </trkpt>
      <trkpt lat="43.98171" lon="5.33552">
        <ele>732.181396</ele>
        <time>2011-05-15T13:56:36Z</time>
      </trkpt>
      <trkpt lat="43.98161" lon="5.33557">
        <ele>730.739258</ele>
        <time>2011-05-15T13:56:47Z</time>
      </trkpt>
      <trkpt lat="43.98156" lon="5.33562">
        <ele>732.181396</ele>
        <time>2011-05-15T13:56:53Z</time>
      </trkpt>
      <trkpt lat="43.98154" lon="5.33562">
        <ele>730.739258</ele>
        <time>2011-05-15T13:56:55Z</time>
      </trkpt>
      <trkpt lat="43.9815" lon="5.33564">
        <ele>733.142578</ele>
        <time>2011-05-15T13:56:58Z</time>
      </trkpt>
      <trkpt lat="43.98143" lon="5.33565">
        <ele>729.297119</ele>
        <time>2011-05-15T13:57:06Z</time>
      </trkpt>
      <trkpt lat="43.98141" lon="5.33565">
        <ele>732.662109</ele>
        <time>2011-05-15T13:57:08Z</time>
      </trkpt>
      <trkpt lat="43.98139" lon="5.33564">
        <ele>730.739258</ele>
        <time>2011-05-15T13:57:10Z</time>
      </trkpt>
      <trkpt lat="43.98131" lon="5.33561">
        <ele>731.219971</ele>
        <time>2011-05-15T13:57:19Z</time>
      </trkpt>
      <trkpt lat="43.98122" lon="5.33566">
        <ele>730.739258</ele>
        <time>2011-05-15T13:57:32Z</time>
      </trkpt>
      <trkpt lat="43.9812" lon="5.33574">
        <ele>732.662109</ele>
        <time>2011-05-15T13:57:39Z</time>
      </trkpt>
      <trkpt lat="43.98112" lon="5.3359">
        <ele>734.104004</ele>
        <time>2011-05-15T13:57:57Z</time>
      </trkpt>
      <trkpt lat="43.98111" lon="5.33592">
        <ele>734.584717</ele>
        <time>2011-05-15T13:57:59Z</time>
      </trkpt>
      <trkpt lat="43.98109" lon="5.33594">
        <ele>735.06543</ele>
        <time>2011-05-15T13:58:01Z</time>
      </trkpt>
      <trkpt lat="43.98104" lon="5.33594">
        <ele>735.545898</ele>
        <time>2011-05-15T13:58:07Z</time>
      </trkpt>
      <trkpt lat="43.98084" lon="5.33587">
        <ele>735.06543</ele>
        <time>2011-05-15T13:58:27Z</time>
      </trkpt>
      <trkpt lat="43.9808" lon="5.33583">
        <ele>734.104004</ele>
        <time>2011-05-15T13:58:31Z</time>
      </trkpt>
      <trkpt lat="43.98065" lon="5.33577">
        <ele>733.623291</ele>
        <time>2011-05-15T13:58:46Z</time>
      </trkpt>
      <trkpt lat="43.98054" lon="5.33572">
        <ele>730.739258</ele>
        <time>2011-05-15T13:58:56Z</time>
      </trkpt>
      <trkpt lat="43.98049" lon="5.33566">
        <ele>731.219971</ele>
        <time>2011-05-15T13:59:02Z</time>
      </trkpt>
      <trkpt lat="43.98047" lon="5.33561">
        <ele>732.662109</ele>
        <time>2011-05-15T13:59:06Z</time>
      </trkpt>
      <trkpt lat="43.98046" lon="5.33561">
        <ele>731.700439</ele>
        <time>2011-05-15T13:59:07Z</time>
      </trkpt>
      <trkpt lat="43.98037" lon="5.33553">
        <ele>728.81665</ele>
        <time>2011-05-15T13:59:17Z</time>
      </trkpt>
      <trkpt lat="43.98035" lon="5.33551">
        <ele>728.335938</ele>
        <time>2011-05-15T13:59:18Z</time>
      </trkpt>
      <trkpt lat="43.98026" lon="5.33544">
        <ele>727.855225</ele>
        <time>2011-05-15T13:59:29Z</time>
      </trkpt>
      <trkpt lat="43.98022" lon="5.3354">
        <ele>726.894043</ele>
        <time>2011-05-15T13:59:34Z</time>
      </trkpt>
      <trkpt lat="43.98007" lon="5.33529">
        <ele>724.01001</ele>
        <time>2011-05-15T13:59:48Z</time>
      </trkpt>
      <trkpt lat="43.97992" lon="5.33521">
        <ele>722.087402</ele>
        <time>2011-05-15T14:00:02Z</time>
      </trkpt>
      <trkpt lat="43.97982" lon="5.33511">
        <ele>721.606689</ele>
        <time>2011-05-15T14:00:13Z</time>
      </trkpt>
      <trkpt lat="43.9798" lon="5.33508">
        <ele>720.164795</ele>
        <time>2011-05-15T14:00:15Z</time>
      </trkpt>
      <trkpt lat="43.97977" lon="5.33505">
        <ele>721.126221</ele>
        <time>2011-05-15T14:00:18Z</time>
      </trkpt>
      <trkpt lat="43.97967" lon="5.33494">
        <ele>718.7229</ele>
        <time>2011-05-15T14:00:30Z</time>
      </trkpt>
      <trkpt lat="43.97966" lon="5.33493">
        <ele>718.242188</ele>
        <time>2011-05-15T14:00:31Z</time>
      </trkpt>
      <trkpt lat="43.97963" lon="5.33491">
        <ele>717.281006</ele>
        <time>2011-05-15T14:00:34Z</time>
      </trkpt>
      <trkpt lat="43.97951" lon="5.33478">
        <ele>715.838867</ele>
        <time>2011-05-15T14:00:49Z</time>
      </trkpt>
      <trkpt lat="43.97945" lon="5.33471">
        <ele>715.358154</ele>
        <time>2011-05-15T14:00:56Z</time>
      </trkpt>
      <trkpt lat="43.97932" lon="5.33468">
        <ele>713.435547</ele>
        <time>2011-05-15T14:01:08Z</time>
      </trkpt>
      <trkpt lat="43.97918" lon="5.33459">
        <ele>711.032227</ele>
        <time>2011-05-15T14:01:23Z</time>
      </trkpt>
      <trkpt lat="43.97905" lon="5.33448">
        <ele>709.590332</ele>
        <time>2011-05-15T14:01:38Z</time>
      </trkpt>
      <trkpt lat="43.97896" lon="5.33438">
        <ele>708.148438</ele>
        <time>2011-05-15T14:01:51Z</time>
      </trkpt>
      <trkpt lat="43.97885" lon="5.33422">
        <ele>705.745117</ele>
        <time>2011-05-15T14:02:05Z</time>
      </trkpt>
      <trkpt lat="43.97881" lon="5.33418">
        <ele>705.745117</ele>
        <time>2011-05-15T14:02:10Z</time>
      </trkpt>
      <trkpt lat="43.97879" lon="5.33414">
        <ele>704.783691</ele>
        <time>2011-05-15T14:02:14Z</time>
      </trkpt>
      <trkpt lat="43.97874" lon="5.33409">
        <ele>703.82251</ele>
        <time>2011-05-15T14:02:22Z</time>
      </trkpt>
      <trkpt lat="43.97865" lon="5.33398">
        <ele>702.861084</ele>
        <time>2011-05-15T14:02:32Z</time>
      </trkpt>
      <trkpt lat="43.97857" lon="5.33391">
        <ele>700.458008</ele>
        <time>2011-05-15T14:02:43Z</time>
      </trkpt>
      <trkpt lat="43.97847" lon="5.33381">
        <ele>698.054443</ele>
        <time>2011-05-15T14:02:58Z</time>
      </trkpt>
      <trkpt lat="43.97846" lon="5.33379">
        <ele>697.093018</ele>
        <time>2011-05-15T14:03:00Z</time>
      </trkpt>
      <trkpt lat="43.97844" lon="5.33377">
        <ele>699.015625</ele>
        <time>2011-05-15T14:03:02Z</time>
      </trkpt>
      <trkpt lat="43.97838" lon="5.33371">
        <ele>697.093018</ele>
        <time>2011-05-15T14:03:09Z</time>
      </trkpt>
      <trkpt lat="43.97829" lon="5.33359">
        <ele>693.728516</ele>
        <time>2011-05-15T14:03:20Z</time>
      </trkpt>
      <trkpt lat="43.97818" lon="5.3335">
        <ele>692.286621</ele>
        <time>2011-05-15T14:03:34Z</time>
      </trkpt>
      <trkpt lat="43.97812" lon="5.33346">
        <ele>691.325195</ele>
        <time>2011-05-15T14:03:41Z</time>
      </trkpt>
      <trkpt lat="43.9781" lon="5.33343">
        <ele>690.844482</ele>
        <time>2011-05-15T14:03:43Z</time>
      </trkpt>
      <trkpt lat="43.97802" lon="5.33333">
        <ele>690.364014</ele>
        <time>2011-05-15T14:03:54Z</time>
      </trkpt>
      <trkpt lat="43.97791" lon="5.33332">
        <ele>686.999268</ele>
        <time>2011-05-15T14:04:04Z</time>
      </trkpt>
      <trkpt lat="43.97788" lon="5.33332">
        <ele>686.038086</ele>
        <time>2011-05-15T14:04:06Z</time>
      </trkpt>
      <trkpt lat="43.97784" lon="5.33336">
        <ele>687.47998</ele>
        <time>2011-05-15T14:04:11Z</time>
      </trkpt>
      <trkpt lat="43.97778" lon="5.3334">
        <ele>686.038086</ele>
        <time>2011-05-15T14:04:18Z</time>
      </trkpt>
      <trkpt lat="43.97769" lon="5.33343">
        <ele>685.076904</ele>
        <time>2011-05-15T14:04:27Z</time>
      </trkpt>
      <trkpt lat="43.97764" lon="5.33339">
        <ele>683.153809</ele>
        <time>2011-05-15T14:04:34Z</time>
      </trkpt>
      <trkpt lat="43.97759" lon="5.33333">
        <ele>683.153809</ele>
        <time>2011-05-15T14:04:40Z</time>
      </trkpt>
      <trkpt lat="43.97754" lon="5.33328">
        <ele>682.67334</ele>
        <time>2011-05-15T14:04:48Z</time>
      </trkpt>
      <trkpt lat="43.97742" lon="5.33329">
        <ele>680.750732</ele>
        <time>2011-05-15T14:05:05Z</time>
      </trkpt>
      <trkpt lat="43.97732" lon="5.33329">
        <ele>679.308594</ele>
        <time>2011-05-15T14:05:35Z</time>
      </trkpt>
      <trkpt lat="43.97723" lon="5.33318">
        <ele>676.424805</ele>
        <time>2011-05-15T14:05:51Z</time>
      </trkpt>
      <trkpt lat="43.97721" lon="5.33317">
        <ele>676.905518</ele>
        <time>2011-05-15T14:05:53Z</time>
      </trkpt>
      <trkpt lat="43.97716" lon="5.33311">
        <ele>674.021484</ele>
        <time>2011-05-15T14:05:58Z</time>
      </trkpt>
      <trkpt lat="43.97716" lon="5.3331">
        <ele>674.021484</ele>
        <time>2011-05-15T14:05:59Z</time>
      </trkpt>
      <trkpt lat="43.97714" lon="5.33307">
        <ele>675.463379</ele>
        <time>2011-05-15T14:06:01Z</time>
      </trkpt>
      <trkpt lat="43.97713" lon="5.33304">
        <ele>677.38623</ele>
        <time>2011-05-15T14:06:04Z</time>
      </trkpt>
      <trkpt lat="43.97711" lon="5.333">
        <ele>674.502197</ele>
        <time>2011-05-15T14:06:07Z</time>
      </trkpt>
      <trkpt lat="43.97706" lon="5.33294">
        <ele>673.541016</ele>
        <time>2011-05-15T14:06:14Z</time>
      </trkpt>
      <trkpt lat="43.97691" lon="5.33284">
        <ele>670.656982</ele>
        <time>2011-05-15T14:06:31Z</time>
      </trkpt>
      <trkpt lat="43.97689" lon="5.33285">
        <ele>669.695801</ele>
        <time>2011-05-15T14:06:34Z</time>
      </trkpt>
      <trkpt lat="43.97684" lon="5.33287">
        <ele>669.695801</ele>
        <time>2011-05-15T14:06:39Z</time>
      </trkpt>
      <trkpt lat="43.97679" lon="5.33288">
        <ele>668.734375</ele>
        <time>2011-05-15T14:06:44Z</time>
      </trkpt>
      <trkpt lat="43.97674" lon="5.33288">
        <ele>669.215088</ele>
        <time>2011-05-15T14:06:49Z</time>
      </trkpt>
      <trkpt lat="43.97666" lon="5.33285">
        <ele>665.850342</ele>
        <time>2011-05-15T14:06:57Z</time>
      </trkpt>
      <trkpt lat="43.9766" lon="5.33286">
        <ele>664.888916</ele>
        <time>2011-05-15T14:07:02Z</time>
      </trkpt>
      <trkpt lat="43.97647" lon="5.33283">
        <ele>662.966309</ele>
        <time>2011-05-15T14:07:14Z</time>
      </trkpt>
      <trkpt lat="43.97643" lon="5.33282">
        <ele>662.005127</ele>
        <time>2011-05-15T14:07:19Z</time>
      </trkpt>
      <trkpt lat="43.97632" lon="5.3328">
        <ele>660.082275</ele>
        <time>2011-05-15T14:07:29Z</time>
      </trkpt>
      <trkpt lat="43.97624" lon="5.33281">
        <ele>658.640381</ele>
        <time>2011-05-15T14:07:38Z</time>
      </trkpt>
      <trkpt lat="43.97618" lon="5.33284">
        <ele>657.198486</ele>
        <time>2011-05-15T14:07:45Z</time>
      </trkpt>
      <trkpt lat="43.97604" lon="5.33284">
        <ele>654.795166</ele>
        <time>2011-05-15T14:07:59Z</time>
      </trkpt>
      <trkpt lat="43.97596" lon="5.3328">
        <ele>653.833984</ele>
        <time>2011-05-15T14:08:07Z</time>
      </trkpt>
      <trkpt lat="43.97588" lon="5.3328">
        <ele>652.872559</ele>
        <time>2011-05-15T14:08:15Z</time>
      </trkpt>
      <trkpt lat="43.97585" lon="5.33278">
        <ele>652.872559</ele>
        <time>2011-05-15T14:08:17Z</time>
      </trkpt>
      <trkpt lat="43.97575" lon="5.33275">
        <ele>650.469238</ele>
        <time>2011-05-15T14:08:28Z</time>
      </trkpt>
      <trkpt lat="43.97566" lon="5.3328">
        <ele>648.065918</ele>
        <time>2011-05-15T14:08:36Z</time>
      </trkpt>
      <trkpt lat="43.97557" lon="5.33278">
        <ele>646.624023</ele>
        <time>2011-05-15T14:08:46Z</time>
      </trkpt>
      <trkpt lat="43.97537" lon="5.33275">
        <ele>642.298096</ele>
        <time>2011-05-15T14:09:04Z</time>
      </trkpt>
      <trkpt lat="43.97522" lon="5.33278">
        <ele>640.855957</ele>
        <time>2011-05-15T14:09:20Z</time>
      </trkpt>
      <trkpt lat="43.97513" lon="5.3328">
        <ele>637.972168</ele>
        <time>2011-05-15T14:09:29Z</time>
      </trkpt>
      <trkpt lat="43.97502" lon="5.33284">
        <ele>637.010742</ele>
        <time>2011-05-15T14:09:40Z</time>
      </trkpt>
      <trkpt lat="43.97498" lon="5.33284">
        <ele>636.530273</ele>
        <time>2011-05-15T14:09:44Z</time>
      </trkpt>
      <trkpt lat="43.9749" lon="5.33283">
        <ele>635.568604</ele>
        <time>2011-05-15T14:09:50Z</time>
      </trkpt>
      <trkpt lat="43.9748" lon="5.33283">
        <ele>632.684814</ele>
        <time>2011-05-15T14:10:01Z</time>
      </trkpt>
      <trkpt lat="43.97475" lon="5.33288">
        <ele>631.24292</ele>
        <time>2011-05-15T14:10:07Z</time>
      </trkpt>
      <trkpt lat="43.97472" lon="5.3329">
        <ele>630.762207</ele>
        <time>2011-05-15T14:10:10Z</time>
      </trkpt>
      <trkpt lat="43.97465" lon="5.33296">
        <ele>628.8396</ele>
        <time>2011-05-15T14:10:19Z</time>
      </trkpt>
      <trkpt lat="43.97451" lon="5.33307">
        <ele>625.955566</ele>
        <time>2011-05-15T14:10:35Z</time>
      </trkpt>
      <trkpt lat="43.97449" lon="5.33312">
        <ele>626.436279</ele>
        <time>2011-05-15T14:10:39Z</time>
      </trkpt>
      <trkpt lat="43.97446" lon="5.33313">
        <ele>624.994385</ele>
        <time>2011-05-15T14:10:42Z</time>
      </trkpt>
      <trkpt lat="43.97438" lon="5.33325">
        <ele>623.071777</ele>
        <time>2011-05-15T14:10:56Z</time>
      </trkpt>
      <trkpt lat="43.97432" lon="5.33334">
        <ele>621.629639</ele>
        <time>2011-05-15T14:11:05Z</time>
      </trkpt>
      <trkpt lat="43.9742" lon="5.33348">
        <ele>619.226318</ele>
        <time>2011-05-15T14:11:19Z</time>
      </trkpt>
      <trkpt lat="43.97419" lon="5.33349">
        <ele>619.226318</ele>
        <time>2011-05-15T14:11:20Z</time>
      </trkpt>
      <trkpt lat="43.97419" lon="5.33351">
        <ele>618.745605</ele>
        <time>2011-05-15T14:11:22Z</time>
      </trkpt>
      <trkpt lat="43.97413" lon="5.33358">
        <ele>616.822998</ele>
        <time>2011-05-15T14:11:30Z</time>
      </trkpt>
      <trkpt lat="43.97398" lon="5.3337">
        <ele>613.938965</ele>
        <time>2011-05-15T14:11:47Z</time>
      </trkpt>
      <trkpt lat="43.97396" lon="5.33376">
        <ele>612.977783</ele>
        <time>2011-05-15T14:11:51Z</time>
      </trkpt>
      <trkpt lat="43.97389" lon="5.33377">
        <ele>611.535889</ele>
        <time>2011-05-15T14:11:59Z</time>
      </trkpt>
      <trkpt lat="43.97387" lon="5.33379">
        <ele>610.574463</ele>
        <time>2011-05-15T14:12:02Z</time>
      </trkpt>
      <trkpt lat="43.97372" lon="5.33378">
        <ele>608.651855</ele>
        <time>2011-05-15T14:12:16Z</time>
      </trkpt>
      <trkpt lat="43.97372" lon="5.33378">
        <ele>609.132568</ele>
        <time>2011-05-15T14:12:17Z</time>
      </trkpt>
      <trkpt lat="43.97369" lon="5.33377">
        <ele>608.171387</ele>
        <time>2011-05-15T14:12:20Z</time>
      </trkpt>
      <trkpt lat="43.97367" lon="5.33377">
        <ele>608.171387</ele>
        <time>2011-05-15T14:12:22Z</time>
      </trkpt>
      <trkpt lat="43.97362" lon="5.33375">
        <ele>607.209961</ele>
        <time>2011-05-15T14:12:26Z</time>
      </trkpt>
      <trkpt lat="43.9736" lon="5.33375">
        <ele>606.729248</ele>
        <time>2011-05-15T14:12:28Z</time>
      </trkpt>
      <trkpt lat="43.97358" lon="5.33374">
        <ele>606.248535</ele>
        <time>2011-05-15T14:12:30Z</time>
      </trkpt>
      <trkpt lat="43.97355" lon="5.33373">
        <ele>606.248535</ele>
        <time>2011-05-15T14:12:32Z</time>
      </trkpt>
      <trkpt lat="43.97342" lon="5.33366">
        <ele>604.326172</ele>
        <time>2011-05-15T14:12:46Z</time>
      </trkpt>
      <trkpt lat="43.97331" lon="5.33365">
        <ele>602.403076</ele>
        <time>2011-05-15T14:12:55Z</time>
      </trkpt>
      <trkpt lat="43.97329" lon="5.33364">
        <ele>601.922607</ele>
        <time>2011-05-15T14:12:57Z</time>
      </trkpt>
      <trkpt lat="43.9732" lon="5.3336">
        <ele>600</ele>
        <time>2011-05-15T14:13:05Z</time>
      </trkpt>
      <trkpt lat="43.97317" lon="5.33361">
        <ele>600</ele>
        <time>2011-05-15T14:13:08Z</time>
      </trkpt>
      <trkpt lat="43.97312" lon="5.33363">
        <ele>598.077393</ele>
        <time>2011-05-15T14:13:14Z</time>
      </trkpt>
      <trkpt lat="43.97294" lon="5.33365">
        <ele>595.193359</ele>
        <time>2011-05-15T14:13:30Z</time>
      </trkpt>
      <trkpt lat="43.97281" lon="5.33366">
        <ele>594.232178</ele>
        <time>2011-05-15T14:13:43Z</time>
      </trkpt>
      <trkpt lat="43.97276" lon="5.33363">
        <ele>593.270752</ele>
        <time>2011-05-15T14:13:47Z</time>
      </trkpt>
      <trkpt lat="43.9726" lon="5.3336">
        <ele>592.30957</ele>
        <time>2011-05-15T14:14:01Z</time>
      </trkpt>
      <trkpt lat="43.97253" lon="5.3337">
        <ele>589.90625</ele>
        <time>2011-05-15T14:14:11Z</time>
      </trkpt>
      <trkpt lat="43.97249" lon="5.3337">
        <ele>589.90625</ele>
        <time>2011-05-15T14:14:14Z</time>
      </trkpt>
      <trkpt lat="43.97239" lon="5.33385">
        <ele>587.502686</ele>
        <time>2011-05-15T14:14:29Z</time>
      </trkpt>
      <trkpt lat="43.97234" lon="5.33389">
        <ele>586.541504</ele>
        <time>2011-05-15T14:14:35Z</time>
      </trkpt>
      <trkpt lat="43.9723" lon="5.33392">
        <ele>585.099609</ele>
        <time>2011-05-15T14:14:39Z</time>
      </trkpt>
      <trkpt lat="43.97217" lon="5.33397">
        <ele>583.176758</ele>
        <time>2011-05-15T14:14:53Z</time>
      </trkpt>
      <trkpt lat="43.97208" lon="5.33398">
        <ele>581.734863</ele>
        <time>2011-05-15T14:15:02Z</time>
      </trkpt>
      <trkpt lat="43.97202" lon="5.33395">
        <ele>579.812256</ele>
        <time>2011-05-15T14:15:08Z</time>
      </trkpt>
      <trkpt lat="43.97198" lon="5.33389">
        <ele>581.734863</ele>
        <time>2011-05-15T14:15:13Z</time>
      </trkpt>
      <trkpt lat="43.97192" lon="5.33389">
        <ele>579.331543</ele>
        <time>2011-05-15T14:15:18Z</time>
      </trkpt>
      <trkpt lat="43.97183" lon="5.33385">
        <ele>579.331543</ele>
        <time>2011-05-15T14:15:27Z</time>
      </trkpt>
      <trkpt lat="43.97176" lon="5.33382">
        <ele>576.928467</ele>
        <time>2011-05-15T14:15:33Z</time>
      </trkpt>
      <trkpt lat="43.97175" lon="5.33381">
        <ele>577.40918</ele>
        <time>2011-05-15T14:15:34Z</time>
      </trkpt>
      <trkpt lat="43.97163" lon="5.33381">
        <ele>575.005859</ele>
        <time>2011-05-15T14:15:48Z</time>
      </trkpt>
      <trkpt lat="43.97162" lon="5.33383">
        <ele>575.486328</ele>
        <time>2011-05-15T14:15:50Z</time>
      </trkpt>
      <trkpt lat="43.97159" lon="5.33385">
        <ele>575.005859</ele>
        <time>2011-05-15T14:15:52Z</time>
      </trkpt>
      <trkpt lat="43.97147" lon="5.3339">
        <ele>573.563965</ele>
        <time>2011-05-15T14:16:06Z</time>
      </trkpt>
      <trkpt lat="43.97145" lon="5.33391">
        <ele>573.083252</ele>
        <time>2011-05-15T14:16:08Z</time>
      </trkpt>
      <trkpt lat="43.97141" lon="5.33392">
        <ele>572.121826</ele>
        <time>2011-05-15T14:16:12Z</time>
      </trkpt>
      <trkpt lat="43.97127" lon="5.33401">
        <ele>569.718506</ele>
        <time>2011-05-15T14:16:26Z</time>
      </trkpt>
      <trkpt lat="43.97122" lon="5.33403">
        <ele>568.276367</ele>
        <time>2011-05-15T14:16:32Z</time>
      </trkpt>
      <trkpt lat="43.97113" lon="5.33411">
        <ele>566.35376</ele>
        <time>2011-05-15T14:16:44Z</time>
      </trkpt>
      <trkpt lat="43.9711" lon="5.33415">
        <ele>565.392578</ele>
        <time>2011-05-15T14:16:49Z</time>
      </trkpt>
      <trkpt lat="43.97106" lon="5.33419">
        <ele>565.392578</ele>
        <time>2011-05-15T14:16:55Z</time>
      </trkpt>
      <trkpt lat="43.97097" lon="5.33426">
        <ele>562.028076</ele>
        <time>2011-05-15T14:17:08Z</time>
      </trkpt>
      <trkpt lat="43.97097" lon="5.3343">
        <ele>562.989258</ele>
        <time>2011-05-15T14:17:20Z</time>
      </trkpt>
      <trkpt lat="43.97097" lon="5.3343">
        <ele>562.508545</ele>
        <time>2011-05-15T14:17:48Z</time>
      </trkpt>
      <trkpt lat="43.97095" lon="5.33432">
        <ele>561.547363</ele>
        <time>2011-05-15T14:18:15Z</time>
      </trkpt>
      <trkpt lat="43.9709" lon="5.33429">
        <ele>560.585938</ele>
        <time>2011-05-15T14:18:23Z</time>
      </trkpt>
      <trkpt lat="43.97077" lon="5.33409">
        <ele>560.105225</ele>
        <time>2011-05-15T14:18:39Z</time>
      </trkpt>
      <trkpt lat="43.97076" lon="5.33406">
        <ele>560.105225</ele>
        <time>2011-05-15T14:18:41Z</time>
      </trkpt>
      <trkpt lat="43.97069" lon="5.33396">
        <ele>560.105225</ele>
        <time>2011-05-15T14:18:50Z</time>
      </trkpt>
      <trkpt lat="43.97051" lon="5.33376">
        <ele>558.66333</ele>
        <time>2011-05-15T14:19:10Z</time>
      </trkpt>
      <trkpt lat="43.97049" lon="5.33374">
        <ele>558.182861</ele>
        <time>2011-05-15T14:19:12Z</time>
      </trkpt>
      <trkpt lat="43.97032" lon="5.33363">
        <ele>556.740723</ele>
        <time>2011-05-15T14:19:28Z</time>
      </trkpt>
      <trkpt lat="43.97019" lon="5.33352">
        <ele>554.817871</ele>
        <time>2011-05-15T14:19:42Z</time>
      </trkpt>
      <trkpt lat="43.97004" lon="5.3334">
        <ele>552.895264</ele>
        <time>2011-05-15T14:19:58Z</time>
      </trkpt>
      <trkpt lat="43.96998" lon="5.33337">
        <ele>550.972656</ele>
        <time>2011-05-15T14:20:04Z</time>
      </trkpt>
      <trkpt lat="43.96987" lon="5.33345">
        <ele>549.530762</ele>
        <time>2011-05-15T14:20:17Z</time>
      </trkpt>
      <trkpt lat="43.96983" lon="5.33351">
        <ele>548.569336</ele>
        <time>2011-05-15T14:20:24Z</time>
      </trkpt>
      <trkpt lat="43.96974" lon="5.33359">
        <ele>545.204834</ele>
        <time>2011-05-15T14:20:35Z</time>
      </trkpt>
      <trkpt lat="43.96966" lon="5.33356">
        <ele>543.282104</ele>
        <time>2011-05-15T14:20:43Z</time>
      </trkpt>
      <trkpt lat="43.96951" lon="5.33352">
        <ele>540.878906</ele>
        <time>2011-05-15T14:20:59Z</time>
      </trkpt>
      <trkpt lat="43.96949" lon="5.33352">
        <ele>540.878906</ele>
        <time>2011-05-15T14:21:01Z</time>
      </trkpt>
      <trkpt lat="43.96942" lon="5.33347">
        <ele>539.917603</ele>
        <time>2011-05-15T14:21:10Z</time>
      </trkpt>
      <trkpt lat="43.96939" lon="5.33347">
        <ele>539.43689</ele>
        <time>2011-05-15T14:21:14Z</time>
      </trkpt>
      <trkpt lat="43.96938" lon="5.33349">
        <ele>538.475708</ele>
        <time>2011-05-15T14:21:16Z</time>
      </trkpt>
      <trkpt lat="43.96937" lon="5.33351">
        <ele>537.994995</ele>
        <time>2011-05-15T14:21:18Z</time>
      </trkpt>
      <trkpt lat="43.96935" lon="5.33354">
        <ele>537.514282</ele>
        <time>2011-05-15T14:21:20Z</time>
      </trkpt>
      <trkpt lat="43.9693" lon="5.33372">
        <ele>535.110962</ele>
        <time>2011-05-15T14:21:35Z</time>
      </trkpt>
      <trkpt lat="43.96929" lon="5.33376">
        <ele>537.033691</ele>
        <time>2011-05-15T14:21:39Z</time>
      </trkpt>
      <trkpt lat="43.96928" lon="5.33378">
        <ele>534.630371</ele>
        <time>2011-05-15T14:21:42Z</time>
      </trkpt>
      <trkpt lat="43.96927" lon="5.33386">
        <ele>532.707764</ele>
        <time>2011-05-15T14:21:58Z</time>
      </trkpt>
      <trkpt lat="43.96919" lon="5.33399">
        <ele>530.304443</ele>
        <time>2011-05-15T14:22:13Z</time>
      </trkpt>
      <trkpt lat="43.96914" lon="5.33409">
        <ele>527.901001</ele>
        <time>2011-05-15T14:22:24Z</time>
      </trkpt>
      <trkpt lat="43.96907" lon="5.3341">
        <ele>527.901001</ele>
        <time>2011-05-15T14:22:31Z</time>
      </trkpt>
      <trkpt lat="43.96897" lon="5.33408">
        <ele>524.536499</ele>
        <time>2011-05-15T14:22:44Z</time>
      </trkpt>
      <trkpt lat="43.96893" lon="5.33411">
        <ele>524.536499</ele>
        <time>2011-05-15T14:22:48Z</time>
      </trkpt>
      <trkpt lat="43.9689" lon="5.33412">
        <ele>523.575195</ele>
        <time>2011-05-15T14:22:51Z</time>
      </trkpt>
      <trkpt lat="43.96886" lon="5.3342">
        <ele>522.133179</ele>
        <time>2011-05-15T14:22:59Z</time>
      </trkpt>
      <trkpt lat="43.96878" lon="5.3343">
        <ele>520.691284</ele>
        <time>2011-05-15T14:23:09Z</time>
      </trkpt>
      <trkpt lat="43.96872" lon="5.33439">
        <ele>517.807251</ele>
        <time>2011-05-15T14:23:19Z</time>
      </trkpt>
      <trkpt lat="43.96864" lon="5.33445">
        <ele>516.845947</ele>
        <time>2011-05-15T14:23:33Z</time>
      </trkpt>
      <trkpt lat="43.96859" lon="5.33449">
        <ele>513.962036</ele>
        <time>2011-05-15T14:23:40Z</time>
      </trkpt>
      <trkpt lat="43.96851" lon="5.33457">
        <ele>511.078003</ele>
        <time>2011-05-15T14:23:54Z</time>
      </trkpt>
      <trkpt lat="43.96851" lon="5.33481">
        <ele>509.636108</ele>
        <time>2011-05-15T14:24:14Z</time>
      </trkpt>
      <trkpt lat="43.96862" lon="5.33504">
        <ele>507.232788</ele>
        <time>2011-05-15T14:24:33Z</time>
      </trkpt>
      <trkpt lat="43.96866" lon="5.33513">
        <ele>504.348877</ele>
        <time>2011-05-15T14:24:49Z</time>
      </trkpt>
      <trkpt lat="43.96866" lon="5.33528">
        <ele>500.984131</ele>
        <time>2011-05-15T14:25:04Z</time>
      </trkpt>
      <trkpt lat="43.96866" lon="5.33529">
        <ele>500.984131</ele>
        <time>2011-05-15T14:25:05Z</time>
      </trkpt>
      <trkpt lat="43.96865" lon="5.33532">
        <ele>500.50354</ele>
        <time>2011-05-15T14:25:07Z</time>
      </trkpt>
      <trkpt lat="43.96862" lon="5.33539">
        <ele>499.061523</ele>
        <time>2011-05-15T14:25:13Z</time>
      </trkpt>
      <trkpt lat="43.96859" lon="5.33544">
        <ele>498.100342</ele>
        <time>2011-05-15T14:25:17Z</time>
      </trkpt>
      <trkpt lat="43.96854" lon="5.33552">
        <ele>496.177734</ele>
        <time>2011-05-15T14:25:25Z</time>
      </trkpt>
      <trkpt lat="43.96848" lon="5.33555">
        <ele>495.216187</ele>
        <time>2011-05-15T14:25:31Z</time>
      </trkpt>
      <trkpt lat="43.96846" lon="5.33557">
        <ele>495.216187</ele>
        <time>2011-05-15T14:25:34Z</time>
      </trkpt>
      <trkpt lat="43.96841" lon="5.33559">
        <ele>494.735596</ele>
        <time>2011-05-15T14:25:39Z</time>
      </trkpt>
      <trkpt lat="43.96823" lon="5.33573">
        <ele>491.851685</ele>
        <time>2011-05-15T14:26:01Z</time>
      </trkpt>
      <trkpt lat="43.96814" lon="5.33575">
        <ele>489.929077</ele>
        <time>2011-05-15T14:26:10Z</time>
      </trkpt>
      <trkpt lat="43.9681" lon="5.33574">
        <ele>491.370972</ele>
        <time>2011-05-15T14:26:13Z</time>
      </trkpt>
      <trkpt lat="43.96808" lon="5.33576">
        <ele>490.40979</ele>
        <time>2011-05-15T14:26:15Z</time>
      </trkpt>
      <trkpt lat="43.96804" lon="5.33577">
        <ele>489.448364</ele>
        <time>2011-05-15T14:26:18Z</time>
      </trkpt>
      <trkpt lat="43.9679" lon="5.33575">
        <ele>486.564453</ele>
        <time>2011-05-15T14:26:33Z</time>
      </trkpt>
      <trkpt lat="43.96783" lon="5.33582">
        <ele>484.641846</ele>
        <time>2011-05-15T14:26:47Z</time>
      </trkpt>
      <trkpt lat="43.96774" lon="5.33589">
        <ele>483.199829</ele>
        <time>2011-05-15T14:27:00Z</time>
      </trkpt>
      <trkpt lat="43.96766" lon="5.3359">
        <ele>481.757813</ele>
        <time>2011-05-15T14:27:07Z</time>
      </trkpt>
      <trkpt lat="43.96757" lon="5.33589">
        <ele>480.315918</ele>
        <time>2011-05-15T14:27:16Z</time>
      </trkpt>
      <trkpt lat="43.96754" lon="5.33588">
        <ele>480.796631</ele>
        <time>2011-05-15T14:27:19Z</time>
      </trkpt>
      <trkpt lat="43.96753" lon="5.33588">
        <ele>480.796631</ele>
        <time>2011-05-15T14:27:21Z</time>
      </trkpt>
      <trkpt lat="43.9675" lon="5.33586">
        <ele>479.835083</ele>
        <time>2011-05-15T14:27:24Z</time>
      </trkpt>
      <trkpt lat="43.9674" lon="5.33583">
        <ele>478.393188</ele>
        <time>2011-05-15T14:27:37Z</time>
      </trkpt>
      <trkpt lat="43.96736" lon="5.33591">
        <ele>475.989868</ele>
        <time>2011-05-15T14:27:45Z</time>
      </trkpt>
      <trkpt lat="43.96734" lon="5.33613">
        <ele>473.106079</ele>
        <time>2011-05-15T14:28:00Z</time>
      </trkpt>
      <trkpt lat="43.96732" lon="5.33615">
        <ele>472.625366</ele>
        <time>2011-05-15T14:28:03Z</time>
      </trkpt>
      <trkpt lat="43.9672" lon="5.33611">
        <ele>470.702637</ele>
        <time>2011-05-15T14:28:17Z</time>
      </trkpt>
      <trkpt lat="43.96715" lon="5.3361">
        <ele>471.18335</ele>
        <time>2011-05-15T14:28:22Z</time>
      </trkpt>
      <trkpt lat="43.96713" lon="5.33609">
        <ele>470.221924</ele>
        <time>2011-05-15T14:28:24Z</time>
      </trkpt>
      <trkpt lat="43.96711" lon="5.33607">
        <ele>470.221924</ele>
        <time>2011-05-15T14:28:27Z</time>
      </trkpt>
      <trkpt lat="43.96698" lon="5.33599">
        <ele>469.260742</ele>
        <time>2011-05-15T14:28:40Z</time>
      </trkpt>
      <trkpt lat="43.96691" lon="5.33591">
        <ele>468.299316</ele>
        <time>2011-05-15T14:28:48Z</time>
      </trkpt>
      <trkpt lat="43.96679" lon="5.33574">
        <ele>466.857422</ele>
        <time>2011-05-15T14:29:05Z</time>
      </trkpt>
      <trkpt lat="43.96669" lon="5.33561">
        <ele>465.896118</ele>
        <time>2011-05-15T14:29:17Z</time>
      </trkpt>
      <trkpt lat="43.96665" lon="5.33553">
        <ele>465.896118</ele>
        <time>2011-05-15T14:29:24Z</time>
      </trkpt>
      <trkpt lat="43.96662" lon="5.3355">
        <ele>464.934814</ele>
        <time>2011-05-15T14:29:28Z</time>
      </trkpt>
      <trkpt lat="43.96661" lon="5.33548">
        <ele>464.454102</ele>
        <time>2011-05-15T14:29:30Z</time>
      </trkpt>
      <trkpt lat="43.96648" lon="5.3354">
        <ele>461.57019</ele>
        <time>2011-05-15T14:29:48Z</time>
      </trkpt>
      <trkpt lat="43.96638" lon="5.33533">
        <ele>460.128174</ele>
        <time>2011-05-15T14:29:59Z</time>
      </trkpt>
      <trkpt lat="43.9663" lon="5.3352">
        <ele>458.205566</ele>
        <time>2011-05-15T14:30:14Z</time>
      </trkpt>
      <trkpt lat="43.96629" lon="5.33518">
        <ele>457.724976</ele>
        <time>2011-05-15T14:30:17Z</time>
      </trkpt>
      <trkpt lat="43.96616" lon="5.33509">
        <ele>454.84082</ele>
        <time>2011-05-15T14:30:34Z</time>
      </trkpt>
      <trkpt lat="43.96605" lon="5.33502">
        <ele>451.476318</ele>
        <time>2011-05-15T14:30:49Z</time>
      </trkpt>
      <trkpt lat="43.96591" lon="5.33496">
        <ele>450.515015</ele>
        <time>2011-05-15T14:31:06Z</time>
      </trkpt>
      <trkpt lat="43.96586" lon="5.33494">
        <ele>449.072998</ele>
        <time>2011-05-15T14:31:13Z</time>
      </trkpt>
      <trkpt lat="43.96583" lon="5.33493">
        <ele>448.592407</ele>
        <time>2011-05-15T14:31:15Z</time>
      </trkpt>
      <trkpt lat="43.9657" lon="5.33492">
        <ele>445.708374</ele>
        <time>2011-05-15T14:31:28Z</time>
      </trkpt>
      <trkpt lat="43.96565" lon="5.33486">
        <ele>444.266479</ele>
        <time>2011-05-15T14:31:35Z</time>
      </trkpt>
      <trkpt lat="43.96544" lon="5.33479">
        <ele>440.421265</ele>
        <time>2011-05-15T14:31:57Z</time>
      </trkpt>
      <trkpt lat="43.96529" lon="5.33473">
        <ele>438.498535</ele>
        <time>2011-05-15T14:32:13Z</time>
      </trkpt>
      <trkpt lat="43.96526" lon="5.33473">
        <ele>438.498535</ele>
        <time>2011-05-15T14:32:16Z</time>
      </trkpt>
      <trkpt lat="43.96517" lon="5.33468">
        <ele>437.537109</ele>
        <time>2011-05-15T14:32:25Z</time>
      </trkpt>
      <trkpt lat="43.96503" lon="5.33464">
        <ele>435.133911</ele>
        <time>2011-05-15T14:32:41Z</time>
      </trkpt>
      <trkpt lat="43.96492" lon="5.33459">
        <ele>433.691895</ele>
        <time>2011-05-15T14:32:51Z</time>
      </trkpt>
      <trkpt lat="43.96478" lon="5.33451">
        <ele>432.25</ele>
        <time>2011-05-15T14:33:05Z</time>
      </trkpt>
      <trkpt lat="43.96472" lon="5.33448">
        <ele>431.769165</ele>
        <time>2011-05-15T14:33:12Z</time>
      </trkpt>
      <trkpt lat="43.96469" lon="5.33443">
        <ele>431.769165</ele>
        <time>2011-05-15T14:33:16Z</time>
      </trkpt>
      <trkpt lat="43.96467" lon="5.33441">
        <ele>431.769165</ele>
        <time>2011-05-15T14:33:18Z</time>
      </trkpt>
      <trkpt lat="43.96465" lon="5.33436">
        <ele>430.327271</ele>
        <time>2011-05-15T14:33:22Z</time>
      </trkpt>
      <trkpt lat="43.96454" lon="5.33433">
        <ele>427.92395</ele>
        <time>2011-05-15T14:33:36Z</time>
      </trkpt>
      <trkpt lat="43.96443" lon="5.33431">
        <ele>425.520752</ele>
        <time>2011-05-15T14:33:51Z</time>
      </trkpt>
      <trkpt lat="43.96433" lon="5.33431">
        <ele>424.078735</ele>
        <time>2011-05-15T14:34:02Z</time>
      </trkpt>
      <trkpt lat="43.9643" lon="5.3343">
        <ele>422.156006</ele>
        <time>2011-05-15T14:34:07Z</time>
      </trkpt>
      <trkpt lat="43.96429" lon="5.33423">
        <ele>421.194824</ele>
        <time>2011-05-15T14:34:20Z</time>
      </trkpt>
      <trkpt lat="43.96429" lon="5.33411">
        <ele>422.636719</ele>
        <time>2011-05-15T14:34:37Z</time>
      </trkpt>
      <trkpt lat="43.96429" lon="5.33411">
        <ele>424.559448</ele>
        <time>2011-05-15T14:35:19Z</time>
      </trkpt>
      <trkpt lat="43.96429" lon="5.33411">
        <ele>421.194824</ele>
        <time>2011-05-15T14:35:38Z</time>
      </trkpt>
      <trkpt lat="43.96429" lon="5.33411">
        <ele>422.156006</ele>
        <time>2011-05-15T14:36:16Z</time>
      </trkpt>
      <trkpt lat="43.9643" lon="5.33408">
        <ele>422.156006</ele>
        <time>2011-05-15T14:36:31Z</time>
      </trkpt>
      <trkpt lat="43.96429" lon="5.33408">
        <ele>422.636719</ele>
        <time>2011-05-15T14:40:50Z</time>
      </trkpt>
      <trkpt lat="43.96428" lon="5.33406">
        <ele>423.598022</ele>
        <time>2011-05-15T14:41:12Z</time>
      </trkpt>
      <trkpt lat="43.96428" lon="5.33402">
        <ele>423.598022</ele>
        <time>2011-05-15T14:41:15Z</time>
      </trkpt>
      <trkpt lat="43.96426" lon="5.33398">
        <ele>423.598022</ele>
        <time>2011-05-15T14:41:18Z</time>
      </trkpt>
      <trkpt lat="43.96424" lon="5.33377">
        <ele>424.559448</ele>
        <time>2011-05-15T14:41:34Z</time>
      </trkpt>
      <trkpt lat="43.96422" lon="5.3337">
        <ele>424.078735</ele>
        <time>2011-05-15T14:41:40Z</time>
      </trkpt>
      <trkpt lat="43.96415" lon="5.33341">
        <ele>423.117432</ele>
        <time>2011-05-15T14:42:00Z</time>
      </trkpt>
      <trkpt lat="43.96415" lon="5.33336">
        <ele>423.598022</ele>
        <time>2011-05-15T14:42:03Z</time>
      </trkpt>
      <trkpt lat="43.96408" lon="5.33308">
        <ele>424.078735</ele>
        <time>2011-05-15T14:42:19Z</time>
      </trkpt>
      <trkpt lat="43.96408" lon="5.33302">
        <ele>424.078735</ele>
        <time>2011-05-15T14:42:22Z</time>
      </trkpt>
      <trkpt lat="43.96401" lon="5.33274">
        <ele>424.559448</ele>
        <time>2011-05-15T14:42:42Z</time>
      </trkpt>
      <trkpt lat="43.96394" lon="5.33249">
        <ele>426.001343</ele>
        <time>2011-05-15T14:42:58Z</time>
      </trkpt>
      <trkpt lat="43.9639" lon="5.3322">
        <ele>426.482056</ele>
        <time>2011-05-15T14:43:17Z</time>
      </trkpt>
      <trkpt lat="43.96388" lon="5.33211">
        <ele>426.962769</ele>
        <time>2011-05-15T14:43:23Z</time>
      </trkpt>
      <trkpt lat="43.96387" lon="5.33207">
        <ele>426.962769</ele>
        <time>2011-05-15T14:43:26Z</time>
      </trkpt>
      <trkpt lat="43.96386" lon="5.33202">
        <ele>426.962769</ele>
        <time>2011-05-15T14:43:29Z</time>
      </trkpt>
      <trkpt lat="43.9638" lon="5.33187">
        <ele>427.92395</ele>
        <time>2011-05-15T14:43:40Z</time>
      </trkpt>
      <trkpt lat="43.9638" lon="5.33183">
        <ele>427.92395</ele>
        <time>2011-05-15T14:43:42Z</time>
      </trkpt>
      <trkpt lat="43.9638" lon="5.33178">
        <ele>427.443359</ele>
        <time>2011-05-15T14:43:45Z</time>
      </trkpt>
      <trkpt lat="43.96378" lon="5.33159">
        <ele>427.92395</ele>
        <time>2011-05-15T14:43:56Z</time>
      </trkpt>
      <trkpt lat="43.96371" lon="5.33122">
        <ele>427.443359</ele>
        <time>2011-05-15T14:44:20Z</time>
      </trkpt>
      <trkpt lat="43.96364" lon="5.33094">
        <ele>429.846558</ele>
        <time>2011-05-15T14:44:38Z</time>
      </trkpt>
      <trkpt lat="43.96362" lon="5.33089">
        <ele>430.327271</ele>
        <time>2011-05-15T14:44:42Z</time>
      </trkpt>
      <trkpt lat="43.96361" lon="5.33083">
        <ele>430.807983</ele>
        <time>2011-05-15T14:44:46Z</time>
      </trkpt>
      <trkpt lat="43.96361" lon="5.33074">
        <ele>430.807983</ele>
        <time>2011-05-15T14:44:52Z</time>
      </trkpt>
      <trkpt lat="43.96362" lon="5.33066">
        <ele>430.807983</ele>
        <time>2011-05-15T14:44:57Z</time>
      </trkpt>
      <trkpt lat="43.9636" lon="5.33058">
        <ele>430.807983</ele>
        <time>2011-05-15T14:45:02Z</time>
      </trkpt>
      <trkpt lat="43.96359" lon="5.33034">
        <ele>432.25</ele>
        <time>2011-05-15T14:45:16Z</time>
      </trkpt>
      <trkpt lat="43.96358" lon="5.33027">
        <ele>432.25</ele>
        <time>2011-05-15T14:45:21Z</time>
      </trkpt>
      <trkpt lat="43.96356" lon="5.3302">
        <ele>433.211304</ele>
        <time>2011-05-15T14:45:26Z</time>
      </trkpt>
      <trkpt lat="43.96353" lon="5.33004">
        <ele>432.730713</ele>
        <time>2011-05-15T14:45:39Z</time>
      </trkpt>
      <trkpt lat="43.96349" lon="5.32993">
        <ele>433.211304</ele>
        <time>2011-05-15T14:45:46Z</time>
      </trkpt>
      <trkpt lat="43.96346" lon="5.32984">
        <ele>433.691895</ele>
        <time>2011-05-15T14:45:53Z</time>
      </trkpt>
      <trkpt lat="43.96344" lon="5.32982">
        <ele>434.172607</ele>
        <time>2011-05-15T14:45:55Z</time>
      </trkpt>
      <trkpt lat="43.96343" lon="5.32978">
        <ele>434.172607</ele>
        <time>2011-05-15T14:45:58Z</time>
      </trkpt>
      <trkpt lat="43.96341" lon="5.32973">
        <ele>433.691895</ele>
        <time>2011-05-15T14:46:01Z</time>
      </trkpt>
      <trkpt lat="43.9634" lon="5.32969">
        <ele>434.172607</ele>
        <time>2011-05-15T14:46:04Z</time>
      </trkpt>
      <trkpt lat="43.96339" lon="5.32966">
        <ele>434.172607</ele>
        <time>2011-05-15T14:46:06Z</time>
      </trkpt>
      <trkpt lat="43.96336" lon="5.32962">
        <ele>433.211304</ele>
        <time>2011-05-15T14:46:10Z</time>
      </trkpt>
      <trkpt lat="43.96333" lon="5.32958">
        <ele>433.691895</ele>
        <time>2011-05-15T14:46:13Z</time>
      </trkpt>
      <trkpt lat="43.96324" lon="5.32948">
        <ele>436.575928</ele>
        <time>2011-05-15T14:46:22Z</time>
      </trkpt>
      <trkpt lat="43.96321" lon="5.32941">
        <ele>434.65332</ele>
        <time>2011-05-15T14:46:27Z</time>
      </trkpt>
      <trkpt lat="43.96317" lon="5.32937">
        <ele>435.133911</ele>
        <time>2011-05-15T14:46:31Z</time>
      </trkpt>
      <trkpt lat="43.96317" lon="5.32931">
        <ele>434.65332</ele>
        <time>2011-05-15T14:46:35Z</time>
      </trkpt>
      <trkpt lat="43.96314" lon="5.32923">
        <ele>435.133911</ele>
        <time>2011-05-15T14:46:41Z</time>
      </trkpt>
      <trkpt lat="43.9631" lon="5.32917">
        <ele>434.65332</ele>
        <time>2011-05-15T14:46:47Z</time>
      </trkpt>
      <trkpt lat="43.96305" lon="5.32911">
        <ele>435.614502</ele>
        <time>2011-05-15T14:46:52Z</time>
      </trkpt>
      <trkpt lat="43.96303" lon="5.32908">
        <ele>436.575928</ele>
        <time>2011-05-15T14:46:55Z</time>
      </trkpt>
      <trkpt lat="43.963" lon="5.32904">
        <ele>436.095215</ele>
        <time>2011-05-15T14:46:58Z</time>
      </trkpt>
      <trkpt lat="43.96293" lon="5.32895">
        <ele>436.575928</ele>
        <time>2011-05-15T14:47:06Z</time>
      </trkpt>
      <trkpt lat="43.96292" lon="5.32889">
        <ele>436.095215</ele>
        <time>2011-05-15T14:47:11Z</time>
      </trkpt>
      <trkpt lat="43.96291" lon="5.32884">
        <ele>436.095215</ele>
        <time>2011-05-15T14:47:14Z</time>
      </trkpt>
      <trkpt lat="43.96287" lon="5.32876">
        <ele>437.056519</ele>
        <time>2011-05-15T14:47:20Z</time>
      </trkpt>
      <trkpt lat="43.96285" lon="5.3287">
        <ele>437.537109</ele>
        <time>2011-05-15T14:47:24Z</time>
      </trkpt>
      <trkpt lat="43.96284" lon="5.32863">
        <ele>438.017822</ele>
        <time>2011-05-15T14:47:28Z</time>
      </trkpt>
      <trkpt lat="43.96284" lon="5.32852">
        <ele>437.537109</ele>
        <time>2011-05-15T14:47:34Z</time>
      </trkpt>
      <trkpt lat="43.96285" lon="5.32832">
        <ele>438.017822</ele>
        <time>2011-05-15T14:47:46Z</time>
      </trkpt>
      <trkpt lat="43.96285" lon="5.32823">
        <ele>438.017822</ele>
        <time>2011-05-15T14:47:51Z</time>
      </trkpt>
      <trkpt lat="43.96285" lon="5.32818">
        <ele>438.498535</ele>
        <time>2011-05-15T14:47:54Z</time>
      </trkpt>
      <trkpt lat="43.96284" lon="5.32796">
        <ele>438.979126</ele>
        <time>2011-05-15T14:48:10Z</time>
      </trkpt>
      <trkpt lat="43.96284" lon="5.32788">
        <ele>438.979126</ele>
        <time>2011-05-15T14:48:14Z</time>
      </trkpt>
      <trkpt lat="43.96283" lon="5.3277">
        <ele>439.94043</ele>
        <time>2011-05-15T14:48:26Z</time>
      </trkpt>
      <trkpt lat="43.96281" lon="5.32757">
        <ele>440.421265</ele>
        <time>2011-05-15T14:48:34Z</time>
      </trkpt>
      <trkpt lat="43.96281" lon="5.32752">
        <ele>440.421265</ele>
        <time>2011-05-15T14:48:37Z</time>
      </trkpt>
      <trkpt lat="43.96273" lon="5.32722">
        <ele>441.382446</ele>
        <time>2011-05-15T14:48:56Z</time>
      </trkpt>
      <trkpt lat="43.9627" lon="5.32709">
        <ele>441.382446</ele>
        <time>2011-05-15T14:49:06Z</time>
      </trkpt>
      <trkpt lat="43.9627" lon="5.32703">
        <ele>441.382446</ele>
        <time>2011-05-15T14:49:10Z</time>
      </trkpt>
      <trkpt lat="43.96265" lon="5.32696">
        <ele>441.382446</ele>
        <time>2011-05-15T14:49:16Z</time>
      </trkpt>
      <trkpt lat="43.96263" lon="5.32687">
        <ele>441.863159</ele>
        <time>2011-05-15T14:49:23Z</time>
      </trkpt>
      <trkpt lat="43.96253" lon="5.32668">
        <ele>443.305054</ele>
        <time>2011-05-15T14:49:37Z</time>
      </trkpt>
      <trkpt lat="43.9625" lon="5.32663">
        <ele>442.824463</ele>
        <time>2011-05-15T14:49:42Z</time>
      </trkpt>
      <trkpt lat="43.96236" lon="5.32643">
        <ele>443.785767</ele>
        <time>2011-05-15T14:49:58Z</time>
      </trkpt>
      <trkpt lat="43.96235" lon="5.32641">
        <ele>444.266479</ele>
        <time>2011-05-15T14:50:00Z</time>
      </trkpt>
      <trkpt lat="43.96219" lon="5.32623">
        <ele>445.708374</ele>
        <time>2011-05-15T14:50:18Z</time>
      </trkpt>
      <trkpt lat="43.96204" lon="5.32615">
        <ele>446.669678</ele>
        <time>2011-05-15T14:50:34Z</time>
      </trkpt>
      <trkpt lat="43.96199" lon="5.32619">
        <ele>444.266479</ele>
        <time>2011-05-15T14:50:47Z</time>
      </trkpt>
      <trkpt lat="43.96197" lon="5.3262">
        <ele>447.150269</ele>
        <time>2011-05-15T14:50:50Z</time>
      </trkpt>
      <trkpt lat="43.96197" lon="5.3262">
        <ele>447.150269</ele>
        <time>2011-05-15T14:50:51Z</time>
      </trkpt>
      <trkpt lat="43.96194" lon="5.32619">
        <ele>446.669678</ele>
        <time>2011-05-15T14:51:10Z</time>
      </trkpt>
      <trkpt lat="43.96194" lon="5.32617">
        <ele>445.708374</ele>
        <time>2011-05-15T14:51:52Z</time>
      </trkpt>
      <trkpt lat="43.96192" lon="5.32612">
        <ele>445.227661</ele>
        <time>2011-05-15T14:52:11Z</time>
      </trkpt>
      <trkpt lat="43.96193" lon="5.32611">
        <ele>445.227661</ele>
        <time>2011-05-15T14:52:32Z</time>
      </trkpt>
      <trkpt lat="43.96193" lon="5.32615">
        <ele>445.708374</ele>
        <time>2011-05-15T14:52:49Z</time>
      </trkpt>
      <trkpt lat="43.96193" lon="5.32621">
        <ele>446.189087</ele>
        <time>2011-05-15T14:52:53Z</time>
      </trkpt>
      <trkpt lat="43.96194" lon="5.32642">
        <ele>447.150269</ele>
        <time>2011-05-15T14:53:05Z</time>
      </trkpt>
      <trkpt lat="43.96204" lon="5.32661">
        <ele>448.111816</ele>
        <time>2011-05-15T14:53:19Z</time>
      </trkpt>
      <trkpt lat="43.96208" lon="5.32677">
        <ele>449.072998</ele>
        <time>2011-05-15T14:53:34Z</time>
      </trkpt>
      <trkpt lat="43.96202" lon="5.32682">
        <ele>449.072998</ele>
        <time>2011-05-15T14:53:40Z</time>
      </trkpt>
      <trkpt lat="43.96197" lon="5.32675">
        <ele>449.072998</ele>
        <time>2011-05-15T14:53:46Z</time>
      </trkpt>
      <trkpt lat="43.96183" lon="5.3267">
        <ele>449.072998</ele>
        <time>2011-05-15T14:54:03Z</time>
      </trkpt>
      <trkpt lat="43.96175" lon="5.32664">
        <ele>449.553711</ele>
        <time>2011-05-15T14:54:16Z</time>
      </trkpt>
      <trkpt lat="43.96173" lon="5.32679">
        <ele>449.553711</ele>
        <time>2011-05-15T14:54:30Z</time>
      </trkpt>
      <trkpt lat="43.96172" lon="5.32686">
        <ele>450.034424</ele>
        <time>2011-05-15T14:54:40Z</time>
      </trkpt>
      <trkpt lat="43.96168" lon="5.32704">
        <ele>451.957031</ele>
        <time>2011-05-15T14:54:56Z</time>
      </trkpt>
      <trkpt lat="43.96166" lon="5.32712">
        <ele>452.437622</ele>
        <time>2011-05-15T14:55:03Z</time>
      </trkpt>
      <trkpt lat="43.96165" lon="5.32746">
        <ele>452.918213</ele>
        <time>2011-05-15T14:55:26Z</time>
      </trkpt>
      <trkpt lat="43.96166" lon="5.32768">
        <ele>453.398926</ele>
        <time>2011-05-15T14:55:43Z</time>
      </trkpt>
      <trkpt lat="43.96164" lon="5.32781">
        <ele>454.360229</ele>
        <time>2011-05-15T14:55:54Z</time>
      </trkpt>
      <trkpt lat="43.96152" lon="5.328">
        <ele>456.282959</ele>
        <time>2011-05-15T14:56:14Z</time>
      </trkpt>
      <trkpt lat="43.96143" lon="5.32811">
        <ele>459.647583</ele>
        <time>2011-05-15T14:56:29Z</time>
      </trkpt>
      <trkpt lat="43.96133" lon="5.32819">
        <ele>462.050781</ele>
        <time>2011-05-15T14:56:48Z</time>
      </trkpt>
      <trkpt lat="43.96127" lon="5.32825">
        <ele>463.492798</ele>
        <time>2011-05-15T14:57:07Z</time>
      </trkpt>
      <trkpt lat="43.96124" lon="5.32826">
        <ele>465.415527</ele>
        <time>2011-05-15T14:57:13Z</time>
      </trkpt>
      <trkpt lat="43.96118" lon="5.32825">
        <ele>465.415527</ele>
        <time>2011-05-15T14:57:30Z</time>
      </trkpt>
      <trkpt lat="43.96118" lon="5.32825">
        <ele>465.415527</ele>
        <time>2011-05-15T14:57:31Z</time>
      </trkpt>
      <trkpt lat="43.96097" lon="5.32835">
        <ele>465.896118</ele>
        <time>2011-05-15T14:57:55Z</time>
      </trkpt>
      <trkpt lat="43.96079" lon="5.32841">
        <ele>467.338135</ele>
        <time>2011-05-15T14:58:15Z</time>
      </trkpt>
      <trkpt lat="43.96073" lon="5.32845">
        <ele>471.18335</ele>
        <time>2011-05-15T14:58:22Z</time>
      </trkpt>
      <trkpt lat="43.96072" lon="5.32846">
        <ele>471.66394</ele>
        <time>2011-05-15T14:58:24Z</time>
      </trkpt>
      <trkpt lat="43.96058" lon="5.32852">
        <ele>475.028687</ele>
        <time>2011-05-15T14:58:40Z</time>
      </trkpt>
      <trkpt lat="43.96057" lon="5.32852">
        <ele>475.509277</ele>
        <time>2011-05-15T14:58:41Z</time>
      </trkpt>
      <trkpt lat="43.96048" lon="5.32848">
        <ele>477.431885</ele>
        <time>2011-05-15T14:58:55Z</time>
      </trkpt>
      <trkpt lat="43.96046" lon="5.32848">
        <ele>475.989868</ele>
        <time>2011-05-15T14:59:27Z</time>
      </trkpt>
      <trkpt lat="43.96045" lon="5.32849">
        <ele>476.470581</ele>
        <time>2011-05-15T15:00:02Z</time>
      </trkpt>
      <trkpt lat="43.96044" lon="5.32852">
        <ele>475.028687</ele>
        <time>2011-05-15T15:00:11Z</time>
      </trkpt>
      <trkpt lat="43.96034" lon="5.32859">
        <ele>476.470581</ele>
        <time>2011-05-15T15:00:27Z</time>
      </trkpt>
      <trkpt lat="43.9602" lon="5.32873">
        <ele>479.835083</ele>
        <time>2011-05-15T15:00:45Z</time>
      </trkpt>
      <trkpt lat="43.96019" lon="5.32877">
        <ele>481.277222</ele>
        <time>2011-05-15T15:00:49Z</time>
      </trkpt>
      <trkpt lat="43.96019" lon="5.32888">
        <ele>484.641846</ele>
        <time>2011-05-15T15:00:57Z</time>
      </trkpt>
      <trkpt lat="43.96019" lon="5.32895">
        <ele>485.122437</ele>
        <time>2011-05-15T15:01:01Z</time>
      </trkpt>
      <trkpt lat="43.96018" lon="5.32903">
        <ele>486.08374</ele>
        <time>2011-05-15T15:01:06Z</time>
      </trkpt>
      <trkpt lat="43.96019" lon="5.32914">
        <ele>489.929077</ele>
        <time>2011-05-15T15:01:13Z</time>
      </trkpt>
      <trkpt lat="43.96019" lon="5.32916">
        <ele>489.929077</ele>
        <time>2011-05-15T15:01:14Z</time>
      </trkpt>
      <trkpt lat="43.9602" lon="5.3292">
        <ele>489.448364</ele>
        <time>2011-05-15T15:01:16Z</time>
      </trkpt>
      <trkpt lat="43.96022" lon="5.32931">
        <ele>491.851685</ele>
        <time>2011-05-15T15:01:23Z</time>
      </trkpt>
      <trkpt lat="43.96023" lon="5.32932">
        <ele>491.851685</ele>
        <time>2011-05-15T15:01:24Z</time>
      </trkpt>
      <trkpt lat="43.96022" lon="5.32941">
        <ele>491.851685</ele>
        <time>2011-05-15T15:01:28Z</time>
      </trkpt>
      <trkpt lat="43.96025" lon="5.32965">
        <ele>493.293579</ele>
        <time>2011-05-15T15:01:41Z</time>
      </trkpt>
      <trkpt lat="43.96025" lon="5.32968">
        <ele>494.255005</ele>
        <time>2011-05-15T15:01:43Z</time>
      </trkpt>
      <trkpt lat="43.96027" lon="5.32975">
        <ele>494.735596</ele>
        <time>2011-05-15T15:01:47Z</time>
      </trkpt>
      <trkpt lat="43.96027" lon="5.32983">
        <ele>495.216187</ele>
        <time>2011-05-15T15:01:51Z</time>
      </trkpt>
      <trkpt lat="43.96028" lon="5.32987">
        <ele>498.100342</ele>
        <time>2011-05-15T15:01:54Z</time>
      </trkpt>
      <trkpt lat="43.9603" lon="5.32998">
        <ele>500.022949</ele>
        <time>2011-05-15T15:02:01Z</time>
      </trkpt>
      <trkpt lat="43.96029" lon="5.33004">
        <ele>500.022949</ele>
        <time>2011-05-15T15:02:05Z</time>
      </trkpt>
      <trkpt lat="43.96032" lon="5.33011">
        <ele>501.945557</ele>
        <time>2011-05-15T15:02:10Z</time>
      </trkpt>
      <trkpt lat="43.96032" lon="5.33017">
        <ele>501.945557</ele>
        <time>2011-05-15T15:02:14Z</time>
      </trkpt>
      <trkpt lat="43.96032" lon="5.3302">
        <ele>501.945557</ele>
        <time>2011-05-15T15:02:16Z</time>
      </trkpt>
      <trkpt lat="43.96035" lon="5.33044">
        <ele>503.868164</ele>
        <time>2011-05-15T15:02:31Z</time>
      </trkpt>
      <trkpt lat="43.96036" lon="5.33066">
        <ele>503.387451</ele>
        <time>2011-05-15T15:02:45Z</time>
      </trkpt>
      <trkpt lat="43.96037" lon="5.3309">
        <ele>502.426147</ele>
        <time>2011-05-15T15:03:01Z</time>
      </trkpt>
      <trkpt lat="43.96037" lon="5.33098">
        <ele>502.906738</ele>
        <time>2011-05-15T15:03:06Z</time>
      </trkpt>
      <trkpt lat="43.96036" lon="5.33101">
        <ele>503.868164</ele>
        <time>2011-05-15T15:03:08Z</time>
      </trkpt>
      <trkpt lat="43.96037" lon="5.33105">
        <ele>504.829468</ele>
        <time>2011-05-15T15:03:11Z</time>
      </trkpt>
      <trkpt lat="43.96037" lon="5.33109">
        <ele>504.348877</ele>
        <time>2011-05-15T15:03:13Z</time>
      </trkpt>
      <trkpt lat="43.96039" lon="5.3312">
        <ele>506.752075</ele>
        <time>2011-05-15T15:03:20Z</time>
      </trkpt>
      <trkpt lat="43.96039" lon="5.33133">
        <ele>507.232788</ele>
        <time>2011-05-15T15:03:28Z</time>
      </trkpt>
      <trkpt lat="43.96039" lon="5.33141">
        <ele>507.232788</ele>
        <time>2011-05-15T15:03:32Z</time>
      </trkpt>
      <trkpt lat="43.9604" lon="5.33153">
        <ele>507.232788</ele>
        <time>2011-05-15T15:03:41Z</time>
      </trkpt>
      <trkpt lat="43.96043" lon="5.33165">
        <ele>507.713501</ele>
        <time>2011-05-15T15:03:49Z</time>
      </trkpt>
      <trkpt lat="43.96043" lon="5.33183">
        <ele>506.271484</ele>
        <time>2011-05-15T15:04:00Z</time>
      </trkpt>
      <trkpt lat="43.96044" lon="5.3319">
        <ele>508.194092</ele>
        <time>2011-05-15T15:04:04Z</time>
      </trkpt>
      <trkpt lat="43.96045" lon="5.33195">
        <ele>507.713501</ele>
        <time>2011-05-15T15:04:07Z</time>
      </trkpt>
      <trkpt lat="43.96045" lon="5.332">
        <ele>507.713501</ele>
        <time>2011-05-15T15:04:11Z</time>
      </trkpt>
      <trkpt lat="43.96045" lon="5.33208">
        <ele>506.752075</ele>
        <time>2011-05-15T15:04:17Z</time>
      </trkpt>
      <trkpt lat="43.96047" lon="5.33223">
        <ele>507.713501</ele>
        <time>2011-05-15T15:04:27Z</time>
      </trkpt>
      <trkpt lat="43.96049" lon="5.33225">
        <ele>507.232788</ele>
        <time>2011-05-15T15:04:29Z</time>
      </trkpt>
      <trkpt lat="43.96048" lon="5.33234">
        <ele>507.713501</ele>
        <time>2011-05-15T15:04:34Z</time>
      </trkpt>
      <trkpt lat="43.96048" lon="5.33246">
        <ele>507.713501</ele>
        <time>2011-05-15T15:04:42Z</time>
      </trkpt>
      <trkpt lat="43.96041" lon="5.33266">
        <ele>508.674683</ele>
        <time>2011-05-15T15:04:56Z</time>
      </trkpt>
      <trkpt lat="43.96036" lon="5.33273">
        <ele>507.232788</ele>
        <time>2011-05-15T15:05:02Z</time>
      </trkpt>
      <trkpt lat="43.96032" lon="5.33282">
        <ele>508.674683</ele>
        <time>2011-05-15T15:05:10Z</time>
      </trkpt>
      <trkpt lat="43.96028" lon="5.3329">
        <ele>512.039429</ele>
        <time>2011-05-15T15:05:18Z</time>
      </trkpt>
      <trkpt lat="43.96023" lon="5.33295">
        <ele>512.039429</ele>
        <time>2011-05-15T15:05:24Z</time>
      </trkpt>
      <trkpt lat="43.96013" lon="5.33306">
        <ele>513.000732</ele>
        <time>2011-05-15T15:05:37Z</time>
      </trkpt>
      <trkpt lat="43.95995" lon="5.33312">
        <ele>515.404053</ele>
        <time>2011-05-15T15:05:54Z</time>
      </trkpt>
      <trkpt lat="43.95984" lon="5.33316">
        <ele>514.92334</ele>
        <time>2011-05-15T15:06:07Z</time>
      </trkpt>
      <trkpt lat="43.95977" lon="5.33319">
        <ele>515.884644</ele>
        <time>2011-05-15T15:06:14Z</time>
      </trkpt>
      <trkpt lat="43.95961" lon="5.33324">
        <ele>518.287842</ele>
        <time>2011-05-15T15:06:29Z</time>
      </trkpt>
      <trkpt lat="43.95959" lon="5.33325">
        <ele>516.845947</ele>
        <time>2011-05-15T15:06:31Z</time>
      </trkpt>
      <trkpt lat="43.95958" lon="5.33326">
        <ele>516.365234</ele>
        <time>2011-05-15T15:06:32Z</time>
      </trkpt>
      <trkpt lat="43.95943" lon="5.33334">
        <ele>517.807251</ele>
        <time>2011-05-15T15:06:46Z</time>
      </trkpt>
      <trkpt lat="43.95929" lon="5.3334">
        <ele>517.807251</ele>
        <time>2011-05-15T15:07:00Z</time>
      </trkpt>
      <trkpt lat="43.95915" lon="5.33342">
        <ele>519.729858</ele>
        <time>2011-05-15T15:07:15Z</time>
      </trkpt>
      <trkpt lat="43.95913" lon="5.33342">
        <ele>520.691284</ele>
        <time>2011-05-15T15:07:17Z</time>
      </trkpt>
      <trkpt lat="43.95901" lon="5.33344">
        <ele>522.133179</ele>
        <time>2011-05-15T15:07:26Z</time>
      </trkpt>
      <trkpt lat="43.95897" lon="5.33345">
        <ele>522.613892</ele>
        <time>2011-05-15T15:07:31Z</time>
      </trkpt>
      <trkpt lat="43.95896" lon="5.33345">
        <ele>522.133179</ele>
        <time>2011-05-15T15:07:32Z</time>
      </trkpt>
      <trkpt lat="43.95888" lon="5.33348">
        <ele>523.575195</ele>
        <time>2011-05-15T15:07:41Z</time>
      </trkpt>
      <trkpt lat="43.95886" lon="5.33348">
        <ele>524.055786</ele>
        <time>2011-05-15T15:07:42Z</time>
      </trkpt>
      <trkpt lat="43.95882" lon="5.33347">
        <ele>523.094604</ele>
        <time>2011-05-15T15:07:46Z</time>
      </trkpt>
      <trkpt lat="43.95881" lon="5.33346">
        <ele>524.536499</ele>
        <time>2011-05-15T15:07:48Z</time>
      </trkpt>
      <trkpt lat="43.95869" lon="5.33346">
        <ele>525.017212</ele>
        <time>2011-05-15T15:08:03Z</time>
      </trkpt>
      <trkpt lat="43.95865" lon="5.33346">
        <ele>525.978394</ele>
        <time>2011-05-15T15:08:08Z</time>
      </trkpt>
      <trkpt lat="43.95851" lon="5.33346">
        <ele>528.381836</ele>
        <time>2011-05-15T15:08:23Z</time>
      </trkpt>
      <trkpt lat="43.95842" lon="5.33345">
        <ele>529.34314</ele>
        <time>2011-05-15T15:08:35Z</time>
      </trkpt>
      <trkpt lat="43.95838" lon="5.33345">
        <ele>530.304443</ele>
        <time>2011-05-15T15:08:40Z</time>
      </trkpt>
      <trkpt lat="43.95828" lon="5.33345">
        <ele>531.265747</ele>
        <time>2011-05-15T15:08:53Z</time>
      </trkpt>
      <trkpt lat="43.95817" lon="5.33349">
        <ele>533.668945</ele>
        <time>2011-05-15T15:09:08Z</time>
      </trkpt>
      <trkpt lat="43.95809" lon="5.33348">
        <ele>534.149658</ele>
        <time>2011-05-15T15:09:18Z</time>
      </trkpt>
      <trkpt lat="43.95807" lon="5.33348">
        <ele>536.072388</ele>
        <time>2011-05-15T15:09:21Z</time>
      </trkpt>
      <trkpt lat="43.958" lon="5.33347">
        <ele>536.553101</ele>
        <time>2011-05-15T15:09:30Z</time>
      </trkpt>
      <trkpt lat="43.95794" lon="5.33349">
        <ele>537.994995</ele>
        <time>2011-05-15T15:09:39Z</time>
      </trkpt>
      <trkpt lat="43.95784" lon="5.33353">
        <ele>539.43689</ele>
        <time>2011-05-15T15:09:50Z</time>
      </trkpt>
      <trkpt lat="43.9578" lon="5.33354">
        <ele>537.994995</ele>
        <time>2011-05-15T15:09:55Z</time>
      </trkpt>
      <trkpt lat="43.95772" lon="5.3336">
        <ele>539.43689</ele>
        <time>2011-05-15T15:10:03Z</time>
      </trkpt>
      <trkpt lat="43.95767" lon="5.3336">
        <ele>540.398315</ele>
        <time>2011-05-15T15:10:08Z</time>
      </trkpt>
      <trkpt lat="43.95756" lon="5.33365">
        <ele>540.398315</ele>
        <time>2011-05-15T15:10:20Z</time>
      </trkpt>
      <trkpt lat="43.95753" lon="5.33365">
        <ele>541.84021</ele>
        <time>2011-05-15T15:10:23Z</time>
      </trkpt>
      <trkpt lat="43.95748" lon="5.33365">
        <ele>541.84021</ele>
        <time>2011-05-15T15:10:32Z</time>
      </trkpt>
      <trkpt lat="43.95747" lon="5.33365">
        <ele>545.685547</ele>
        <time>2011-05-15T15:10:40Z</time>
      </trkpt>
      <trkpt lat="43.95747" lon="5.33364">
        <ele>542.320923</ele>
        <time>2011-05-15T15:10:47Z</time>
      </trkpt>
      <trkpt lat="43.95747" lon="5.33364">
        <ele>543.762817</ele>
        <time>2011-05-15T15:11:13Z</time>
      </trkpt>
      <trkpt lat="43.95747" lon="5.33364">
        <ele>541.359497</ele>
        <time>2011-05-15T15:11:16Z</time>
      </trkpt>
      <trkpt lat="43.95747" lon="5.33364">
        <ele>542.320923</ele>
        <time>2011-05-15T15:11:18Z</time>
      </trkpt>
      <trkpt lat="43.95746" lon="5.33363">
        <ele>543.762817</ele>
        <time>2011-05-15T15:11:30Z</time>
      </trkpt>
      <trkpt lat="43.95746" lon="5.33362">
        <ele>543.762817</ele>
        <time>2011-05-15T15:11:38Z</time>
      </trkpt>
      <trkpt lat="43.95746" lon="5.33359">
        <ele>545.204834</ele>
        <time>2011-05-15T15:11:56Z</time>
      </trkpt>
      <trkpt lat="43.95754" lon="5.33353">
        <ele>546.646851</ele>
        <time>2011-05-15T15:12:06Z</time>
      </trkpt>
      <trkpt lat="43.95755" lon="5.33351">
        <ele>545.685547</ele>
        <time>2011-05-15T15:12:08Z</time>
      </trkpt>
      <trkpt lat="43.95758" lon="5.33344">
        <ele>544.724243</ele>
        <time>2011-05-15T15:12:14Z</time>
      </trkpt>
      <trkpt lat="43.95759" lon="5.33342">
        <ele>544.724243</ele>
        <time>2011-05-15T15:12:16Z</time>
      </trkpt>
      <trkpt lat="43.95761" lon="5.33339">
        <ele>545.685547</ele>
        <time>2011-05-15T15:12:19Z</time>
      </trkpt>
      <trkpt lat="43.9577" lon="5.33332">
        <ele>547.127441</ele>
        <time>2011-05-15T15:12:29Z</time>
      </trkpt>
      <trkpt lat="43.95776" lon="5.33324">
        <ele>547.608154</ele>
        <time>2011-05-15T15:12:36Z</time>
      </trkpt>
      <trkpt lat="43.95787" lon="5.33307">
        <ele>545.204834</ele>
        <time>2011-05-15T15:12:53Z</time>
      </trkpt>
      <trkpt lat="43.95789" lon="5.33306">
        <ele>548.088867</ele>
        <time>2011-05-15T15:12:56Z</time>
      </trkpt>
      <trkpt lat="43.95793" lon="5.33306">
        <ele>551.453369</ele>
        <time>2011-05-15T15:13:00Z</time>
      </trkpt>
      <trkpt lat="43.95798" lon="5.33304">
        <ele>551.453369</ele>
        <time>2011-05-15T15:13:06Z</time>
      </trkpt>
      <trkpt lat="43.95804" lon="5.33301">
        <ele>550.972656</ele>
        <time>2011-05-15T15:13:12Z</time>
      </trkpt>
      <trkpt lat="43.95808" lon="5.33297">
        <ele>553.856689</ele>
        <time>2011-05-15T15:13:17Z</time>
      </trkpt>
      <trkpt lat="43.95817" lon="5.33292">
        <ele>556.26001</ele>
        <time>2011-05-15T15:13:27Z</time>
      </trkpt>
      <trkpt lat="43.9582" lon="5.33291">
        <ele>555.779297</ele>
        <time>2011-05-15T15:13:30Z</time>
      </trkpt>
      <trkpt lat="43.95826" lon="5.33288">
        <ele>556.740723</ele>
        <time>2011-05-15T15:13:40Z</time>
      </trkpt>
      <trkpt lat="43.95831" lon="5.3329">
        <ele>554.817871</ele>
        <time>2011-05-15T15:13:45Z</time>
      </trkpt>
      <trkpt lat="43.95835" lon="5.33289">
        <ele>555.779297</ele>
        <time>2011-05-15T15:13:49Z</time>
      </trkpt>
      <trkpt lat="43.95836" lon="5.33289">
        <ele>555.298584</ele>
        <time>2011-05-15T15:13:51Z</time>
      </trkpt>
      <trkpt lat="43.9584" lon="5.3329">
        <ele>554.337402</ele>
        <time>2011-05-15T15:13:55Z</time>
      </trkpt>
      <trkpt lat="43.95841" lon="5.3329">
        <ele>553.856689</ele>
        <time>2011-05-15T15:13:56Z</time>
      </trkpt>
      <trkpt lat="43.95851" lon="5.33281">
        <ele>555.779297</ele>
        <time>2011-05-15T15:14:07Z</time>
      </trkpt>
      <trkpt lat="43.95851" lon="5.33274">
        <ele>557.702148</ele>
        <time>2011-05-15T15:14:15Z</time>
      </trkpt>
      <trkpt lat="43.95856" lon="5.33266">
        <ele>560.585938</ele>
        <time>2011-05-15T15:14:28Z</time>
      </trkpt>
      <trkpt lat="43.95859" lon="5.33265">
        <ele>560.585938</ele>
        <time>2011-05-15T15:14:31Z</time>
      </trkpt>
      <trkpt lat="43.95865" lon="5.33256">
        <ele>563.950439</ele>
        <time>2011-05-15T15:14:44Z</time>
      </trkpt>
      <trkpt lat="43.95869" lon="5.3325">
        <ele>565.873291</ele>
        <time>2011-05-15T15:14:52Z</time>
      </trkpt>
      <trkpt lat="43.95874" lon="5.33244">
        <ele>569.237793</ele>
        <time>2011-05-15T15:15:02Z</time>
      </trkpt>
      <trkpt lat="43.95877" lon="5.3324">
        <ele>567.315186</ele>
        <time>2011-05-15T15:15:06Z</time>
      </trkpt>
      <trkpt lat="43.9588" lon="5.33237">
        <ele>571.1604</ele>
        <time>2011-05-15T15:15:09Z</time>
      </trkpt>
      <trkpt lat="43.95884" lon="5.33233">
        <ele>572.602539</ele>
        <time>2011-05-15T15:15:16Z</time>
      </trkpt>
      <trkpt lat="43.95886" lon="5.33231">
        <ele>573.563965</ele>
        <time>2011-05-15T15:15:19Z</time>
      </trkpt>
      <trkpt lat="43.95887" lon="5.3323">
        <ele>572.602539</ele>
        <time>2011-05-15T15:15:20Z</time>
      </trkpt>
      <trkpt lat="43.95892" lon="5.3323">
        <ele>571.640869</ele>
        <time>2011-05-15T15:15:26Z</time>
      </trkpt>
      <trkpt lat="43.95898" lon="5.33228">
        <ele>570.679688</ele>
        <time>2011-05-15T15:15:35Z</time>
      </trkpt>
      <trkpt lat="43.95901" lon="5.33227">
        <ele>573.083252</ele>
        <time>2011-05-15T15:15:40Z</time>
      </trkpt>
      <trkpt lat="43.95907" lon="5.33221">
        <ele>574.044434</ele>
        <time>2011-05-15T15:15:49Z</time>
      </trkpt>
      <trkpt lat="43.95914" lon="5.33211">
        <ele>576.928467</ele>
        <time>2011-05-15T15:16:00Z</time>
      </trkpt>
      <trkpt lat="43.9592" lon="5.33206">
        <ele>579.812256</ele>
        <time>2011-05-15T15:16:09Z</time>
      </trkpt>
      <trkpt lat="43.95922" lon="5.33204">
        <ele>577.889648</ele>
        <time>2011-05-15T15:16:13Z</time>
      </trkpt>
      <trkpt lat="43.95923" lon="5.332">
        <ele>581.254395</ele>
        <time>2011-05-15T15:16:16Z</time>
      </trkpt>
      <trkpt lat="43.95923" lon="5.33198">
        <ele>581.254395</ele>
        <time>2011-05-15T15:16:17Z</time>
      </trkpt>
      <trkpt lat="43.95924" lon="5.33197">
        <ele>577.889648</ele>
        <time>2011-05-15T15:16:19Z</time>
      </trkpt>
      <trkpt lat="43.95926" lon="5.33196">
        <ele>581.254395</ele>
        <time>2011-05-15T15:16:22Z</time>
      </trkpt>
      <trkpt lat="43.95927" lon="5.33195">
        <ele>579.812256</ele>
        <time>2011-05-15T15:16:23Z</time>
      </trkpt>
      <trkpt lat="43.95928" lon="5.33195">
        <ele>581.254395</ele>
        <time>2011-05-15T15:16:26Z</time>
      </trkpt>
      <trkpt lat="43.95936" lon="5.33185">
        <ele>579.331543</ele>
        <time>2011-05-15T15:16:39Z</time>
      </trkpt>
      <trkpt lat="43.95937" lon="5.3318">
        <ele>580.773682</ele>
        <time>2011-05-15T15:16:43Z</time>
      </trkpt>
      <trkpt lat="43.95937" lon="5.33174">
        <ele>583.657471</ele>
        <time>2011-05-15T15:16:48Z</time>
      </trkpt>
      <trkpt lat="43.9593" lon="5.33161">
        <ele>581.254395</ele>
        <time>2011-05-15T15:17:01Z</time>
      </trkpt>
      <trkpt lat="43.9593" lon="5.3316">
        <ele>581.734863</ele>
        <time>2011-05-15T15:17:02Z</time>
      </trkpt>
      <trkpt lat="43.95929" lon="5.33157">
        <ele>579.812256</ele>
        <time>2011-05-15T15:17:05Z</time>
      </trkpt>
      <trkpt lat="43.95929" lon="5.33154">
        <ele>581.254395</ele>
        <time>2011-05-15T15:17:08Z</time>
      </trkpt>
      <trkpt lat="43.95925" lon="5.33136">
        <ele>580.773682</ele>
        <time>2011-05-15T15:17:24Z</time>
      </trkpt>
      <trkpt lat="43.95921" lon="5.33117">
        <ele>577.889648</ele>
        <time>2011-05-15T15:17:40Z</time>
      </trkpt>
      <trkpt lat="43.95922" lon="5.33105">
        <ele>578.370361</ele>
        <time>2011-05-15T15:17:55Z</time>
      </trkpt>
      <trkpt lat="43.95922" lon="5.33101">
        <ele>581.254395</ele>
        <time>2011-05-15T15:17:59Z</time>
      </trkpt>
      <trkpt lat="43.95922" lon="5.331">
        <ele>581.254395</ele>
        <time>2011-05-15T15:18:00Z</time>
      </trkpt>
      <trkpt lat="43.9592" lon="5.33097">
        <ele>578.370361</ele>
        <time>2011-05-15T15:18:05Z</time>
      </trkpt>
      <trkpt lat="43.9592" lon="5.33093">
        <ele>577.889648</ele>
        <time>2011-05-15T15:18:09Z</time>
      </trkpt>
      <trkpt lat="43.95916" lon="5.33086">
        <ele>576.447754</ele>
        <time>2011-05-15T15:18:16Z</time>
      </trkpt>
      <trkpt lat="43.95911" lon="5.33078">
        <ele>577.40918</ele>
        <time>2011-05-15T15:18:23Z</time>
      </trkpt>
      <trkpt lat="43.9591" lon="5.33067">
        <ele>577.889648</ele>
        <time>2011-05-15T15:18:33Z</time>
      </trkpt>
      <trkpt lat="43.95912" lon="5.3305">
        <ele>577.40918</ele>
        <time>2011-05-15T15:18:47Z</time>
      </trkpt>
      <trkpt lat="43.95909" lon="5.33038">
        <ele>577.889648</ele>
        <time>2011-05-15T15:18:59Z</time>
      </trkpt>
      <trkpt lat="43.95907" lon="5.33033">
        <ele>574.044434</ele>
        <time>2011-05-15T15:19:03Z</time>
      </trkpt>
      <trkpt lat="43.95906" lon="5.33032">
        <ele>578.851074</ele>
        <time>2011-05-15T15:19:04Z</time>
      </trkpt>
      <trkpt lat="43.95907" lon="5.33022">
        <ele>575.005859</ele>
        <time>2011-05-15T15:19:15Z</time>
      </trkpt>
      <trkpt lat="43.95906" lon="5.33021">
        <ele>575.005859</ele>
        <time>2011-05-15T15:19:16Z</time>
      </trkpt>
      <trkpt lat="43.95906" lon="5.33017">
        <ele>577.40918</ele>
        <time>2011-05-15T15:19:20Z</time>
      </trkpt>
      <trkpt lat="43.95906" lon="5.33005">
        <ele>573.563965</ele>
        <time>2011-05-15T15:19:33Z</time>
      </trkpt>
      <trkpt lat="43.95906" lon="5.33003">
        <ele>574.525146</ele>
        <time>2011-05-15T15:19:34Z</time>
      </trkpt>
      <trkpt lat="43.95906" lon="5.33001">
        <ele>571.1604</ele>
        <time>2011-05-15T15:19:36Z</time>
      </trkpt>
      <trkpt lat="43.95906" lon="5.33">
        <ele>575.005859</ele>
        <time>2011-05-15T15:19:38Z</time>
      </trkpt>
      <trkpt lat="43.95906" lon="5.32999">
        <ele>573.563965</ele>
        <time>2011-05-15T15:19:39Z</time>
      </trkpt>
      <trkpt lat="43.95904" lon="5.32998">
        <ele>570.679688</ele>
        <time>2011-05-15T15:19:40Z</time>
      </trkpt>
      <trkpt lat="43.95903" lon="5.32997">
        <ele>574.525146</ele>
        <time>2011-05-15T15:19:42Z</time>
      </trkpt>
      <trkpt lat="43.95902" lon="5.32996">
        <ele>577.40918</ele>
        <time>2011-05-15T15:19:43Z</time>
      </trkpt>
      <trkpt lat="43.95902" lon="5.32996">
        <ele>577.889648</ele>
        <time>2011-05-15T15:19:44Z</time>
      </trkpt>
      <trkpt lat="43.95901" lon="5.32981">
        <ele>578.370361</ele>
        <time>2011-05-15T15:20:01Z</time>
      </trkpt>
      <trkpt lat="43.95901" lon="5.32976">
        <ele>573.083252</ele>
        <time>2011-05-15T15:20:05Z</time>
      </trkpt>
      <trkpt lat="43.95901" lon="5.32974">
        <ele>574.044434</ele>
        <time>2011-05-15T15:20:07Z</time>
      </trkpt>
      <trkpt lat="43.95901" lon="5.32969">
        <ele>575.005859</ele>
        <time>2011-05-15T15:20:11Z</time>
      </trkpt>
      <trkpt lat="43.95901" lon="5.32967">
        <ele>578.851074</ele>
        <time>2011-05-15T15:20:15Z</time>
      </trkpt>
      <trkpt lat="43.95902" lon="5.32965">
        <ele>577.40918</ele>
        <time>2011-05-15T15:20:18Z</time>
      </trkpt>
      <trkpt lat="43.95901" lon="5.3296">
        <ele>580.292969</ele>
        <time>2011-05-15T15:20:24Z</time>
      </trkpt>
      <trkpt lat="43.95901" lon="5.32953">
        <ele>578.851074</ele>
        <time>2011-05-15T15:20:30Z</time>
      </trkpt>
      <trkpt lat="43.95901" lon="5.32953">
        <ele>574.044434</ele>
        <time>2011-05-15T15:20:33Z</time>
      </trkpt>
      <trkpt lat="43.95901" lon="5.32952">
        <ele>577.889648</ele>
        <time>2011-05-15T15:20:34Z</time>
      </trkpt>
      <trkpt lat="43.95901" lon="5.32951">
        <ele>574.044434</ele>
        <time>2011-05-15T15:20:36Z</time>
      </trkpt>
      <trkpt lat="43.95901" lon="5.32949">
        <ele>575.486328</ele>
        <time>2011-05-15T15:20:38Z</time>
      </trkpt>
      <trkpt lat="43.959" lon="5.32947">
        <ele>570.679688</ele>
        <time>2011-05-15T15:20:40Z</time>
      </trkpt>
      <trkpt lat="43.959" lon="5.32946">
        <ele>575.486328</ele>
        <time>2011-05-15T15:20:41Z</time>
      </trkpt>
      <trkpt lat="43.959" lon="5.32945">
        <ele>575.005859</ele>
        <time>2011-05-15T15:20:42Z</time>
      </trkpt>
      <trkpt lat="43.95891" lon="5.3293">
        <ele>575.005859</ele>
        <time>2011-05-15T15:21:00Z</time>
      </trkpt>
      <trkpt lat="43.95887" lon="5.32927">
        <ele>575.967041</ele>
        <time>2011-05-15T15:21:04Z</time>
      </trkpt>
      <trkpt lat="43.95884" lon="5.32921">
        <ele>575.486328</ele>
        <time>2011-05-15T15:21:10Z</time>
      </trkpt>
      <trkpt lat="43.95883" lon="5.32912">
        <ele>575.005859</ele>
        <time>2011-05-15T15:21:19Z</time>
      </trkpt>
      <trkpt lat="43.95882" lon="5.32895">
        <ele>575.486328</ele>
        <time>2011-05-15T15:21:34Z</time>
      </trkpt>
      <trkpt lat="43.9588" lon="5.32889">
        <ele>572.121826</ele>
        <time>2011-05-15T15:21:40Z</time>
      </trkpt>
      <trkpt lat="43.95879" lon="5.32888">
        <ele>572.602539</ele>
        <time>2011-05-15T15:21:42Z</time>
      </trkpt>
      <trkpt lat="43.95877" lon="5.32879">
        <ele>575.486328</ele>
        <time>2011-05-15T15:21:49Z</time>
      </trkpt>
      <trkpt lat="43.95878" lon="5.32874">
        <ele>575.005859</ele>
        <time>2011-05-15T15:21:54Z</time>
      </trkpt>
      <trkpt lat="43.95879" lon="5.32871">
        <ele>576.447754</ele>
        <time>2011-05-15T15:21:56Z</time>
      </trkpt>
      <trkpt lat="43.95884" lon="5.32858">
        <ele>573.083252</ele>
        <time>2011-05-15T15:22:09Z</time>
      </trkpt>
      <trkpt lat="43.95884" lon="5.32856">
        <ele>569.718506</ele>
        <time>2011-05-15T15:22:10Z</time>
      </trkpt>
      <trkpt lat="43.95884" lon="5.32855">
        <ele>577.40918</ele>
        <time>2011-05-15T15:22:11Z</time>
      </trkpt>
      <trkpt lat="43.95884" lon="5.32854">
        <ele>573.563965</ele>
        <time>2011-05-15T15:22:12Z</time>
      </trkpt>
      <trkpt lat="43.95884" lon="5.32848">
        <ele>571.1604</ele>
        <time>2011-05-15T15:22:18Z</time>
      </trkpt>
      <trkpt lat="43.95883" lon="5.32838">
        <ele>574.525146</ele>
        <time>2011-05-15T15:22:27Z</time>
      </trkpt>
      <trkpt lat="43.95885" lon="5.32837">
        <ele>574.044434</ele>
        <time>2011-05-15T15:22:30Z</time>
      </trkpt>
      <trkpt lat="43.95885" lon="5.32829">
        <ele>570.198975</ele>
        <time>2011-05-15T15:22:36Z</time>
      </trkpt>
      <trkpt lat="43.95884" lon="5.32823">
        <ele>570.198975</ele>
        <time>2011-05-15T15:22:42Z</time>
      </trkpt>
      <trkpt lat="43.95884" lon="5.3282">
        <ele>569.718506</ele>
        <time>2011-05-15T15:22:44Z</time>
      </trkpt>
      <trkpt lat="43.9588" lon="5.32807">
        <ele>575.486328</ele>
        <time>2011-05-15T15:22:59Z</time>
      </trkpt>
      <trkpt lat="43.95875" lon="5.32809">
        <ele>576.928467</ele>
        <time>2011-05-15T15:23:04Z</time>
      </trkpt>
      <trkpt lat="43.95874" lon="5.32806">
        <ele>576.447754</ele>
        <time>2011-05-15T15:23:09Z</time>
      </trkpt>
      <trkpt lat="43.95875" lon="5.328">
        <ele>578.851074</ele>
        <time>2011-05-15T15:23:14Z</time>
      </trkpt>
      <trkpt lat="43.95878" lon="5.32794">
        <ele>579.812256</ele>
        <time>2011-05-15T15:23:20Z</time>
      </trkpt>
      <trkpt lat="43.95879" lon="5.3279">
        <ele>577.40918</ele>
        <time>2011-05-15T15:23:24Z</time>
      </trkpt>
      <trkpt lat="43.95885" lon="5.32776">
        <ele>581.734863</ele>
        <time>2011-05-15T15:23:39Z</time>
      </trkpt>
      <trkpt lat="43.95887" lon="5.32774">
        <ele>587.021973</ele>
        <time>2011-05-15T15:23:42Z</time>
      </trkpt>
      <trkpt lat="43.95888" lon="5.32766">
        <ele>591.828857</ele>
        <time>2011-05-15T15:23:48Z</time>
      </trkpt>
      <trkpt lat="43.95886" lon="5.32761">
        <ele>588.464355</ele>
        <time>2011-05-15T15:23:52Z</time>
      </trkpt>
      <trkpt lat="43.95886" lon="5.3276">
        <ele>587.983398</ele>
        <time>2011-05-15T15:23:53Z</time>
      </trkpt>
      <trkpt lat="43.95882" lon="5.32753">
        <ele>584.618896</ele>
        <time>2011-05-15T15:23:58Z</time>
      </trkpt>
      <trkpt lat="43.95881" lon="5.32745">
        <ele>582.696289</ele>
        <time>2011-05-15T15:24:05Z</time>
      </trkpt>
      <trkpt lat="43.95877" lon="5.32735">
        <ele>588.945068</ele>
        <time>2011-05-15T15:24:14Z</time>
      </trkpt>
      <trkpt lat="43.95877" lon="5.32735">
        <ele>587.502686</ele>
        <time>2011-05-15T15:24:15Z</time>
      </trkpt>
      <trkpt lat="43.95875" lon="5.32733">
        <ele>584.138184</ele>
        <time>2011-05-15T15:24:17Z</time>
      </trkpt>
      <trkpt lat="43.95869" lon="5.32725">
        <ele>582.696289</ele>
        <time>2011-05-15T15:24:25Z</time>
      </trkpt>
      <trkpt lat="43.95867" lon="5.32723">
        <ele>584.618896</ele>
        <time>2011-05-15T15:24:28Z</time>
      </trkpt>
      <trkpt lat="43.95864" lon="5.3272">
        <ele>581.254395</ele>
        <time>2011-05-15T15:24:32Z</time>
      </trkpt>
      <trkpt lat="43.95862" lon="5.32716">
        <ele>585.099609</ele>
        <time>2011-05-15T15:24:36Z</time>
      </trkpt>
      <trkpt lat="43.95861" lon="5.32712">
        <ele>584.618896</ele>
        <time>2011-05-15T15:24:40Z</time>
      </trkpt>
      <trkpt lat="43.9586" lon="5.32705">
        <ele>582.215576</ele>
        <time>2011-05-15T15:24:46Z</time>
      </trkpt>
      <trkpt lat="43.95858" lon="5.32686">
        <ele>584.618896</ele>
        <time>2011-05-15T15:25:00Z</time>
      </trkpt>
      <trkpt lat="43.95857" lon="5.32682">
        <ele>583.176758</ele>
        <time>2011-05-15T15:25:04Z</time>
      </trkpt>
      <trkpt lat="43.95858" lon="5.32681">
        <ele>588.464355</ele>
        <time>2011-05-15T15:25:05Z</time>
      </trkpt>
      <trkpt lat="43.95857" lon="5.3268">
        <ele>586.060791</ele>
        <time>2011-05-15T15:25:06Z</time>
      </trkpt>
      <trkpt lat="43.95855" lon="5.32676">
        <ele>582.696289</ele>
        <time>2011-05-15T15:25:12Z</time>
      </trkpt>
      <trkpt lat="43.95854" lon="5.32674">
        <ele>586.541504</ele>
        <time>2011-05-15T15:25:14Z</time>
      </trkpt>
      <trkpt lat="43.95853" lon="5.32672">
        <ele>583.657471</ele>
        <time>2011-05-15T15:25:16Z</time>
      </trkpt>
      <trkpt lat="43.95852" lon="5.32672">
        <ele>584.138184</ele>
        <time>2011-05-15T15:25:17Z</time>
      </trkpt>
      <trkpt lat="43.95851" lon="5.32669">
        <ele>589.90625</ele>
        <time>2011-05-15T15:25:19Z</time>
      </trkpt>
      <trkpt lat="43.95851" lon="5.32669">
        <ele>589.90625</ele>
        <time>2011-05-15T15:25:20Z</time>
      </trkpt>
      <trkpt lat="43.95843" lon="5.32667">
        <ele>583.657471</ele>
        <time>2011-05-15T15:25:28Z</time>
      </trkpt>
      <trkpt lat="43.95843" lon="5.32664">
        <ele>582.215576</ele>
        <time>2011-05-15T15:25:31Z</time>
      </trkpt>
      <trkpt lat="43.95842" lon="5.32658">
        <ele>585.580078</ele>
        <time>2011-05-15T15:25:35Z</time>
      </trkpt>
      <trkpt lat="43.95842" lon="5.32658">
        <ele>585.580078</ele>
        <time>2011-05-15T15:25:36Z</time>
      </trkpt>
      <trkpt lat="43.95842" lon="5.32656">
        <ele>599.038574</ele>
        <time>2011-05-15T15:25:38Z</time>
      </trkpt>
      <trkpt lat="43.95841" lon="5.32655">
        <ele>595.674072</ele>
        <time>2011-05-15T15:25:39Z</time>
      </trkpt>
      <trkpt lat="43.95841" lon="5.32654">
        <ele>592.30957</ele>
        <time>2011-05-15T15:25:40Z</time>
      </trkpt>
      <trkpt lat="43.95841" lon="5.32653">
        <ele>587.983398</ele>
        <time>2011-05-15T15:25:41Z</time>
      </trkpt>
      <trkpt lat="43.9584" lon="5.32653">
        <ele>584.138184</ele>
        <time>2011-05-15T15:25:42Z</time>
      </trkpt>
      <trkpt lat="43.95839" lon="5.32652">
        <ele>588.945068</ele>
        <time>2011-05-15T15:25:44Z</time>
      </trkpt>
      <trkpt lat="43.95838" lon="5.3265">
        <ele>588.945068</ele>
        <time>2011-05-15T15:25:45Z</time>
      </trkpt>
      <trkpt lat="43.95837" lon="5.32647">
        <ele>583.657471</ele>
        <time>2011-05-15T15:25:48Z</time>
      </trkpt>
      <trkpt lat="43.95834" lon="5.32643">
        <ele>587.502686</ele>
        <time>2011-05-15T15:25:52Z</time>
      </trkpt>
      <trkpt lat="43.95833" lon="5.32641">
        <ele>587.502686</ele>
        <time>2011-05-15T15:25:54Z</time>
      </trkpt>
      <trkpt lat="43.95831" lon="5.32636">
        <ele>592.30957</ele>
        <time>2011-05-15T15:25:59Z</time>
      </trkpt>
      <trkpt lat="43.95831" lon="5.32635">
        <ele>591.828857</ele>
        <time>2011-05-15T15:26:00Z</time>
      </trkpt>
      <trkpt lat="43.9583" lon="5.32633">
        <ele>585.580078</ele>
        <time>2011-05-15T15:26:02Z</time>
      </trkpt>
      <trkpt lat="43.95829" lon="5.32631">
        <ele>583.657471</ele>
        <time>2011-05-15T15:26:04Z</time>
      </trkpt>
      <trkpt lat="43.95828" lon="5.32631">
        <ele>581.254395</ele>
        <time>2011-05-15T15:26:05Z</time>
      </trkpt>
      <trkpt lat="43.95824" lon="5.32627">
        <ele>580.292969</ele>
        <time>2011-05-15T15:26:09Z</time>
      </trkpt>
      <trkpt lat="43.95823" lon="5.32625">
        <ele>579.331543</ele>
        <time>2011-05-15T15:26:11Z</time>
      </trkpt>
      <trkpt lat="43.95823" lon="5.32621">
        <ele>582.696289</ele>
        <time>2011-05-15T15:26:14Z</time>
      </trkpt>
      <trkpt lat="43.95818" lon="5.32614">
        <ele>581.254395</ele>
        <time>2011-05-15T15:26:20Z</time>
      </trkpt>
      <trkpt lat="43.95814" lon="5.32607">
        <ele>577.889648</ele>
        <time>2011-05-15T15:26:26Z</time>
      </trkpt>
      <trkpt lat="43.95808" lon="5.32598">
        <ele>582.215576</ele>
        <time>2011-05-15T15:26:34Z</time>
      </trkpt>
      <trkpt lat="43.958" lon="5.32588">
        <ele>578.851074</ele>
        <time>2011-05-15T15:26:45Z</time>
      </trkpt>
      <trkpt lat="43.95799" lon="5.32585">
        <ele>580.292969</ele>
        <time>2011-05-15T15:26:48Z</time>
      </trkpt>
      <trkpt lat="43.95799" lon="5.32582">
        <ele>581.734863</ele>
        <time>2011-05-15T15:26:51Z</time>
      </trkpt>
      <trkpt lat="43.95799" lon="5.32581">
        <ele>580.773682</ele>
        <time>2011-05-15T15:26:53Z</time>
      </trkpt>
      <trkpt lat="43.958" lon="5.32577">
        <ele>576.928467</ele>
        <time>2011-05-15T15:26:59Z</time>
      </trkpt>
      <trkpt lat="43.958" lon="5.32577">
        <ele>578.370361</ele>
        <time>2011-05-15T15:27:00Z</time>
      </trkpt>
      <trkpt lat="43.95799" lon="5.32572">
        <ele>581.254395</ele>
        <time>2011-05-15T15:27:07Z</time>
      </trkpt>
      <trkpt lat="43.95796" lon="5.32567">
        <ele>575.005859</ele>
        <time>2011-05-15T15:27:12Z</time>
      </trkpt>
      <trkpt lat="43.95796" lon="5.32566">
        <ele>575.005859</ele>
        <time>2011-05-15T15:27:13Z</time>
      </trkpt>
      <trkpt lat="43.95797" lon="5.32566">
        <ele>571.640869</ele>
        <time>2011-05-15T15:27:17Z</time>
      </trkpt>
      <trkpt lat="43.95796" lon="5.32566">
        <ele>577.40918</ele>
        <time>2011-05-15T15:27:18Z</time>
      </trkpt>
      <trkpt lat="43.95796" lon="5.32565">
        <ele>575.486328</ele>
        <time>2011-05-15T15:27:19Z</time>
      </trkpt>
      <trkpt lat="43.95792" lon="5.32559">
        <ele>577.40918</ele>
        <time>2011-05-15T15:27:26Z</time>
      </trkpt>
      <trkpt lat="43.95785" lon="5.32552">
        <ele>578.851074</ele>
        <time>2011-05-15T15:27:35Z</time>
      </trkpt>
      <trkpt lat="43.95783" lon="5.32547">
        <ele>575.967041</ele>
        <time>2011-05-15T15:27:41Z</time>
      </trkpt>
      <trkpt lat="43.95782" lon="5.32541">
        <ele>575.005859</ele>
        <time>2011-05-15T15:27:46Z</time>
      </trkpt>
      <trkpt lat="43.95776" lon="5.32536">
        <ele>575.005859</ele>
        <time>2011-05-15T15:27:55Z</time>
      </trkpt>
      <trkpt lat="43.95774" lon="5.32535">
        <ele>574.525146</ele>
        <time>2011-05-15T15:27:59Z</time>
      </trkpt>
      <trkpt lat="43.95772" lon="5.32534">
        <ele>574.044434</ele>
        <time>2011-05-15T15:28:01Z</time>
      </trkpt>
      <trkpt lat="43.95764" lon="5.32525">
        <ele>570.679688</ele>
        <time>2011-05-15T15:28:14Z</time>
      </trkpt>
      <trkpt lat="43.95764" lon="5.32522">
        <ele>568.75708</ele>
        <time>2011-05-15T15:28:17Z</time>
      </trkpt>
      <trkpt lat="43.95755" lon="5.32517">
        <ele>567.795654</ele>
        <time>2011-05-15T15:28:31Z</time>
      </trkpt>
      <trkpt lat="43.95754" lon="5.32515">
        <ele>567.795654</ele>
        <time>2011-05-15T15:28:35Z</time>
      </trkpt>
      <trkpt lat="43.95747" lon="5.32505">
        <ele>565.392578</ele>
        <time>2011-05-15T15:28:44Z</time>
      </trkpt>
      <trkpt lat="43.95738" lon="5.32481">
        <ele>565.392578</ele>
        <time>2011-05-15T15:29:02Z</time>
      </trkpt>
      <trkpt lat="43.95734" lon="5.32464">
        <ele>562.989258</ele>
        <time>2011-05-15T15:29:16Z</time>
      </trkpt>
      <trkpt lat="43.95734" lon="5.32459">
        <ele>562.508545</ele>
        <time>2011-05-15T15:29:19Z</time>
      </trkpt>
      <trkpt lat="43.95735" lon="5.3244">
        <ele>561.06665</ele>
        <time>2011-05-15T15:29:37Z</time>
      </trkpt>
      <trkpt lat="43.95735" lon="5.32438">
        <ele>559.144043</ele>
        <time>2011-05-15T15:29:39Z</time>
      </trkpt>
      <trkpt lat="43.95734" lon="5.32434">
        <ele>562.028076</ele>
        <time>2011-05-15T15:29:42Z</time>
      </trkpt>
      <trkpt lat="43.95732" lon="5.32415">
        <ele>562.508545</ele>
        <time>2011-05-15T15:29:58Z</time>
      </trkpt>
      <trkpt lat="43.95732" lon="5.32411">
        <ele>561.547363</ele>
        <time>2011-05-15T15:30:01Z</time>
      </trkpt>
      <trkpt lat="43.95731" lon="5.32407">
        <ele>562.508545</ele>
        <time>2011-05-15T15:30:04Z</time>
      </trkpt>
      <trkpt lat="43.95729" lon="5.324">
        <ele>562.508545</ele>
        <time>2011-05-15T15:30:09Z</time>
      </trkpt>
      <trkpt lat="43.9573" lon="5.32391">
        <ele>563.950439</ele>
        <time>2011-05-15T15:30:15Z</time>
      </trkpt>
      <trkpt lat="43.95729" lon="5.32389">
        <ele>562.989258</ele>
        <time>2011-05-15T15:30:17Z</time>
      </trkpt>
      <trkpt lat="43.95727" lon="5.32384">
        <ele>561.06665</ele>
        <time>2011-05-15T15:30:21Z</time>
      </trkpt>
      <trkpt lat="43.95725" lon="5.3238">
        <ele>560.105225</ele>
        <time>2011-05-15T15:30:24Z</time>
      </trkpt>
      <trkpt lat="43.95716" lon="5.32361">
        <ele>563.950439</ele>
        <time>2011-05-15T15:30:39Z</time>
      </trkpt>
      <trkpt lat="43.95708" lon="5.32361">
        <ele>562.989258</ele>
        <time>2011-05-15T15:30:45Z</time>
      </trkpt>
      <trkpt lat="43.95699" lon="5.32364">
        <ele>563.469971</ele>
        <time>2011-05-15T15:30:52Z</time>
      </trkpt>
      <trkpt lat="43.95688" lon="5.32355">
        <ele>560.585938</ele>
        <time>2011-05-15T15:31:04Z</time>
      </trkpt>
      <trkpt lat="43.95686" lon="5.32352">
        <ele>560.585938</ele>
        <time>2011-05-15T15:31:08Z</time>
      </trkpt>
      <trkpt lat="43.95685" lon="5.32349">
        <ele>559.624756</ele>
        <time>2011-05-15T15:31:10Z</time>
      </trkpt>
      <trkpt lat="43.95678" lon="5.32343">
        <ele>560.585938</ele>
        <time>2011-05-15T15:31:17Z</time>
      </trkpt>
      <trkpt lat="43.95673" lon="5.32338">
        <ele>559.624756</ele>
        <time>2011-05-15T15:31:28Z</time>
      </trkpt>
      <trkpt lat="43.95674" lon="5.32332">
        <ele>558.66333</ele>
        <time>2011-05-15T15:31:43Z</time>
      </trkpt>
      <trkpt lat="43.95675" lon="5.32328">
        <ele>558.182861</ele>
        <time>2011-05-15T15:31:46Z</time>
      </trkpt>
      <trkpt lat="43.95674" lon="5.32325">
        <ele>557.221436</ele>
        <time>2011-05-15T15:31:48Z</time>
      </trkpt>
      <trkpt lat="43.95673" lon="5.32318">
        <ele>559.144043</ele>
        <time>2011-05-15T15:31:52Z</time>
      </trkpt>
      <trkpt lat="43.95665" lon="5.32302">
        <ele>556.26001</ele>
        <time>2011-05-15T15:32:02Z</time>
      </trkpt>
      <trkpt lat="43.95662" lon="5.32301">
        <ele>555.779297</ele>
        <time>2011-05-15T15:32:05Z</time>
      </trkpt>
      <trkpt lat="43.95649" lon="5.3229">
        <ele>552.414551</ele>
        <time>2011-05-15T15:32:18Z</time>
      </trkpt>
      <trkpt lat="43.95644" lon="5.32284">
        <ele>550.972656</ele>
        <time>2011-05-15T15:32:23Z</time>
      </trkpt>
      <trkpt lat="43.95647" lon="5.32277">
        <ele>551.934082</ele>
        <time>2011-05-15T15:32:37Z</time>
      </trkpt>
      <trkpt lat="43.95648" lon="5.32274">
        <ele>553.375977</ele>
        <time>2011-05-15T15:33:03Z</time>
      </trkpt>
      <trkpt lat="43.95647" lon="5.32272">
        <ele>550.011475</ele>
        <time>2011-05-15T15:33:06Z</time>
      </trkpt>
      <trkpt lat="43.95646" lon="5.32271">
        <ele>551.453369</ele>
        <time>2011-05-15T15:33:09Z</time>
      </trkpt>
      <trkpt lat="43.95643" lon="5.32271">
        <ele>550.972656</ele>
        <time>2011-05-15T15:33:17Z</time>
      </trkpt>
      <trkpt lat="43.95644" lon="5.32271">
        <ele>550.972656</ele>
        <time>2011-05-15T15:33:20Z</time>
      </trkpt>
      <trkpt lat="43.95644" lon="5.32271">
        <ele>551.453369</ele>
        <time>2011-05-15T15:33:29Z</time>
      </trkpt>
      <trkpt lat="43.95641" lon="5.32272">
        <ele>550.011475</ele>
        <time>2011-05-15T15:33:32Z</time>
      </trkpt>
      <trkpt lat="43.95635" lon="5.32274">
        <ele>550.492188</ele>
        <time>2011-05-15T15:33:51Z</time>
      </trkpt>
      <trkpt lat="43.95635" lon="5.32273">
        <ele>551.453369</ele>
        <time>2011-05-15T15:34:06Z</time>
      </trkpt>
      <trkpt lat="43.95641" lon="5.32271">
        <ele>552.895264</ele>
        <time>2011-05-15T15:34:18Z</time>
      </trkpt>
      <trkpt lat="43.95643" lon="5.3227">
        <ele>551.453369</ele>
        <time>2011-05-15T15:34:21Z</time>
      </trkpt>
      <trkpt lat="43.95645" lon="5.3227">
        <ele>553.375977</ele>
        <time>2011-05-15T15:34:23Z</time>
      </trkpt>
      <trkpt lat="43.95654" lon="5.32272">
        <ele>557.702148</ele>
        <time>2011-05-15T15:34:32Z</time>
      </trkpt>
      <trkpt lat="43.95655" lon="5.32273">
        <ele>557.221436</ele>
        <time>2011-05-15T15:34:33Z</time>
      </trkpt>
      <trkpt lat="43.95669" lon="5.32283">
        <ele>561.06665</ele>
        <time>2011-05-15T15:34:50Z</time>
      </trkpt>
      <trkpt lat="43.9568" lon="5.32287">
        <ele>562.028076</ele>
        <time>2011-05-15T15:35:01Z</time>
      </trkpt>
      <trkpt lat="43.95683" lon="5.32285">
        <ele>565.873291</ele>
        <time>2011-05-15T15:35:04Z</time>
      </trkpt>
      <trkpt lat="43.95686" lon="5.3228">
        <ele>564.431152</ele>
        <time>2011-05-15T15:35:09Z</time>
      </trkpt>
      <trkpt lat="43.95687" lon="5.32275">
        <ele>565.873291</ele>
        <time>2011-05-15T15:35:14Z</time>
      </trkpt>
      <trkpt lat="43.95689" lon="5.32272">
        <ele>567.795654</ele>
        <time>2011-05-15T15:35:17Z</time>
      </trkpt>
      <trkpt lat="43.95691" lon="5.32272">
        <ele>568.75708</ele>
        <time>2011-05-15T15:35:19Z</time>
      </trkpt>
      <trkpt lat="43.957" lon="5.32268">
        <ele>570.198975</ele>
        <time>2011-05-15T15:35:32Z</time>
      </trkpt>
      <trkpt lat="43.95703" lon="5.3227">
        <ele>570.198975</ele>
        <time>2011-05-15T15:35:41Z</time>
      </trkpt>
      <trkpt lat="43.9571" lon="5.32275">
        <ele>573.083252</ele>
        <time>2011-05-15T15:35:56Z</time>
      </trkpt>
      <trkpt lat="43.9571" lon="5.32275">
        <ele>573.083252</ele>
        <time>2011-05-15T15:35:57Z</time>
      </trkpt>
      <trkpt lat="43.9571" lon="5.32276">
        <ele>569.718506</ele>
        <time>2011-05-15T15:35:59Z</time>
      </trkpt>
      <trkpt lat="43.95711" lon="5.32277">
        <ele>570.679688</ele>
        <time>2011-05-15T15:36:00Z</time>
      </trkpt>
      <trkpt lat="43.95716" lon="5.32282">
        <ele>569.718506</ele>
        <time>2011-05-15T15:36:17Z</time>
      </trkpt>
      <trkpt lat="43.95717" lon="5.32282">
        <ele>570.679688</ele>
        <time>2011-05-15T15:36:26Z</time>
      </trkpt>
      <trkpt lat="43.95716" lon="5.32282">
        <ele>567.795654</ele>
        <time>2011-05-15T15:36:49Z</time>
      </trkpt>
      <trkpt lat="43.95715" lon="5.32281">
        <ele>566.834473</ele>
        <time>2011-05-15T15:36:57Z</time>
      </trkpt>
      <trkpt lat="43.95714" lon="5.32279">
        <ele>568.276367</ele>
        <time>2011-05-15T15:37:11Z</time>
      </trkpt>
      <trkpt lat="43.95713" lon="5.32277">
        <ele>567.795654</ele>
        <time>2011-05-15T15:37:24Z</time>
      </trkpt>
      <trkpt lat="43.95706" lon="5.3227">
        <ele>565.873291</ele>
        <time>2011-05-15T15:37:44Z</time>
      </trkpt>
      <trkpt lat="43.95703" lon="5.32269">
        <ele>563.950439</ele>
        <time>2011-05-15T15:37:50Z</time>
      </trkpt>
      <trkpt lat="43.95693" lon="5.32269">
        <ele>562.508545</ele>
        <time>2011-05-15T15:38:04Z</time>
      </trkpt>
      <trkpt lat="43.95689" lon="5.3227">
        <ele>561.06665</ele>
        <time>2011-05-15T15:38:09Z</time>
      </trkpt>
      <trkpt lat="43.95686" lon="5.32278">
        <ele>560.585938</ele>
        <time>2011-05-15T15:38:17Z</time>
      </trkpt>
      <trkpt lat="43.95686" lon="5.32279">
        <ele>561.547363</ele>
        <time>2011-05-15T15:38:32Z</time>
      </trkpt>
      <trkpt lat="43.95686" lon="5.32277">
        <ele>560.105225</ele>
        <time>2011-05-15T15:38:38Z</time>
      </trkpt>
      <trkpt lat="43.95691" lon="5.32274">
        <ele>563.469971</ele>
        <time>2011-05-15T15:39:01Z</time>
      </trkpt>
      <trkpt lat="43.95694" lon="5.32273">
        <ele>562.989258</ele>
        <time>2011-05-15T15:39:13Z</time>
      </trkpt>
      <trkpt lat="43.95697" lon="5.32271">
        <ele>563.469971</ele>
        <time>2011-05-15T15:39:17Z</time>
      </trkpt>
      <trkpt lat="43.95698" lon="5.32271">
        <ele>566.834473</ele>
        <time>2011-05-15T15:39:20Z</time>
      </trkpt>
      <trkpt lat="43.95698" lon="5.3227">
        <ele>566.35376</ele>
        <time>2011-05-15T15:39:21Z</time>
      </trkpt>
      <trkpt lat="43.95702" lon="5.32272">
        <ele>566.35376</ele>
        <time>2011-05-15T15:39:41Z</time>
      </trkpt>
      <trkpt lat="43.95702" lon="5.32272">
        <ele>567.795654</ele>
        <time>2011-05-15T15:39:44Z</time>
      </trkpt>
      <trkpt lat="43.95705" lon="5.32275">
        <ele>567.795654</ele>
        <time>2011-05-15T15:39:59Z</time>
      </trkpt>
      <trkpt lat="43.9571" lon="5.32281">
        <ele>567.315186</ele>
        <time>2011-05-15T15:40:34Z</time>
      </trkpt>
      <trkpt lat="43.95711" lon="5.32282">
        <ele>567.315186</ele>
        <time>2011-05-15T15:40:40Z</time>
      </trkpt>
      <trkpt lat="43.95712" lon="5.32283">
        <ele>563.950439</ele>
        <time>2011-05-15T15:40:50Z</time>
      </trkpt>
      <trkpt lat="43.95712" lon="5.32283">
        <ele>564.431152</ele>
        <time>2011-05-15T15:40:51Z</time>
      </trkpt>
      <trkpt lat="43.95713" lon="5.32282">
        <ele>566.35376</ele>
        <time>2011-05-15T15:40:59Z</time>
      </trkpt>
      <trkpt lat="43.95714" lon="5.3228">
        <ele>564.911865</ele>
        <time>2011-05-15T15:41:03Z</time>
      </trkpt>
      <trkpt lat="43.95716" lon="5.32276">
        <ele>565.392578</ele>
        <time>2011-05-15T15:41:09Z</time>
      </trkpt>
      <trkpt lat="43.95717" lon="5.32269">
        <ele>563.950439</ele>
        <time>2011-05-15T15:41:14Z</time>
      </trkpt>
      <trkpt lat="43.95717" lon="5.32259">
        <ele>563.950439</ele>
        <time>2011-05-15T15:41:21Z</time>
      </trkpt>
      <trkpt lat="43.95716" lon="5.32253">
        <ele>566.35376</ele>
        <time>2011-05-15T15:41:25Z</time>
      </trkpt>
      <trkpt lat="43.95714" lon="5.32246">
        <ele>564.911865</ele>
        <time>2011-05-15T15:41:30Z</time>
      </trkpt>
      <trkpt lat="43.95713" lon="5.32239">
        <ele>561.06665</ele>
        <time>2011-05-15T15:41:37Z</time>
      </trkpt>
      <trkpt lat="43.95711" lon="5.32235">
        <ele>564.431152</ele>
        <time>2011-05-15T15:41:40Z</time>
      </trkpt>
      <trkpt lat="43.9571" lon="5.32232">
        <ele>562.989258</ele>
        <time>2011-05-15T15:41:43Z</time>
      </trkpt>
      <trkpt lat="43.9571" lon="5.3222">
        <ele>562.508545</ele>
        <time>2011-05-15T15:41:51Z</time>
      </trkpt>
      <trkpt lat="43.9571" lon="5.32212">
        <ele>562.989258</ele>
        <time>2011-05-15T15:41:57Z</time>
      </trkpt>
      <trkpt lat="43.95709" lon="5.32209">
        <ele>563.950439</ele>
        <time>2011-05-15T15:41:59Z</time>
      </trkpt>
      <trkpt lat="43.95703" lon="5.32186">
        <ele>561.547363</ele>
        <time>2011-05-15T15:42:14Z</time>
      </trkpt>
      <trkpt lat="43.95701" lon="5.32179">
        <ele>561.06665</ele>
        <time>2011-05-15T15:42:19Z</time>
      </trkpt>
      <trkpt lat="43.957" lon="5.32176">
        <ele>562.028076</ele>
        <time>2011-05-15T15:42:21Z</time>
      </trkpt>
      <trkpt lat="43.95703" lon="5.32172">
        <ele>561.06665</ele>
        <time>2011-05-15T15:42:24Z</time>
      </trkpt>
      <trkpt lat="43.95701" lon="5.32153">
        <ele>563.950439</ele>
        <time>2011-05-15T15:42:37Z</time>
      </trkpt>
      <trkpt lat="43.95701" lon="5.3214">
        <ele>567.795654</ele>
        <time>2011-05-15T15:42:46Z</time>
      </trkpt>
      <trkpt lat="43.957" lon="5.32138">
        <ele>567.315186</ele>
        <time>2011-05-15T15:42:47Z</time>
      </trkpt>
      <trkpt lat="43.957" lon="5.32135">
        <ele>566.35376</ele>
        <time>2011-05-15T15:42:49Z</time>
      </trkpt>
      <trkpt lat="43.95699" lon="5.32132">
        <ele>565.392578</ele>
        <time>2011-05-15T15:42:54Z</time>
      </trkpt>
      <trkpt lat="43.95696" lon="5.32118">
        <ele>566.35376</ele>
        <time>2011-05-15T15:43:06Z</time>
      </trkpt>
      <trkpt lat="43.95697" lon="5.32115">
        <ele>565.873291</ele>
        <time>2011-05-15T15:43:08Z</time>
      </trkpt>
      <trkpt lat="43.95698" lon="5.32099">
        <ele>562.028076</ele>
        <time>2011-05-15T15:43:20Z</time>
      </trkpt>
      <trkpt lat="43.95698" lon="5.32098">
        <ele>562.508545</ele>
        <time>2011-05-15T15:43:21Z</time>
      </trkpt>
      <trkpt lat="43.95699" lon="5.32096">
        <ele>563.469971</ele>
        <time>2011-05-15T15:43:23Z</time>
      </trkpt>
      <trkpt lat="43.957" lon="5.32096">
        <ele>562.989258</ele>
        <time>2011-05-15T15:43:24Z</time>
      </trkpt>
      <trkpt lat="43.95701" lon="5.32095">
        <ele>561.547363</ele>
        <time>2011-05-15T15:43:26Z</time>
      </trkpt>
      <trkpt lat="43.95707" lon="5.32093">
        <ele>561.547363</ele>
        <time>2011-05-15T15:43:33Z</time>
      </trkpt>
      <trkpt lat="43.95708" lon="5.32091">
        <ele>562.028076</ele>
        <time>2011-05-15T15:43:35Z</time>
      </trkpt>
      <trkpt lat="43.95707" lon="5.32087">
        <ele>563.950439</ele>
        <time>2011-05-15T15:43:38Z</time>
      </trkpt>
      <trkpt lat="43.95705" lon="5.32083">
        <ele>566.834473</ele>
        <time>2011-05-15T15:43:41Z</time>
      </trkpt>
      <trkpt lat="43.957" lon="5.32073">
        <ele>569.237793</ele>
        <time>2011-05-15T15:43:49Z</time>
      </trkpt>
      <trkpt lat="43.95699" lon="5.3207">
        <ele>567.795654</ele>
        <time>2011-05-15T15:43:51Z</time>
      </trkpt>
      <trkpt lat="43.95699" lon="5.32067">
        <ele>566.35376</ele>
        <time>2011-05-15T15:43:53Z</time>
      </trkpt>
      <trkpt lat="43.95699" lon="5.32065">
        <ele>566.35376</ele>
        <time>2011-05-15T15:43:54Z</time>
      </trkpt>
      <trkpt lat="43.95699" lon="5.32061">
        <ele>569.718506</ele>
        <time>2011-05-15T15:43:57Z</time>
      </trkpt>
      <trkpt lat="43.95698" lon="5.32059">
        <ele>573.083252</ele>
        <time>2011-05-15T15:43:59Z</time>
      </trkpt>
      <trkpt lat="43.95698" lon="5.32056">
        <ele>570.679688</ele>
        <time>2011-05-15T15:44:01Z</time>
      </trkpt>
      <trkpt lat="43.95695" lon="5.32051">
        <ele>568.75708</ele>
        <time>2011-05-15T15:44:05Z</time>
      </trkpt>
      <trkpt lat="43.95691" lon="5.32045">
        <ele>569.718506</ele>
        <time>2011-05-15T15:44:10Z</time>
      </trkpt>
      <trkpt lat="43.95689" lon="5.3204">
        <ele>571.1604</ele>
        <time>2011-05-15T15:44:15Z</time>
      </trkpt>
      <trkpt lat="43.9569" lon="5.32039">
        <ele>571.640869</ele>
        <time>2011-05-15T15:44:16Z</time>
      </trkpt>
      <trkpt lat="43.95689" lon="5.32036">
        <ele>563.950439</ele>
        <time>2011-05-15T15:44:18Z</time>
      </trkpt>
      <trkpt lat="43.95685" lon="5.32031">
        <ele>566.834473</ele>
        <time>2011-05-15T15:44:23Z</time>
      </trkpt>
      <trkpt lat="43.95685" lon="5.32028">
        <ele>568.75708</ele>
        <time>2011-05-15T15:44:25Z</time>
      </trkpt>
      <trkpt lat="43.95682" lon="5.32025">
        <ele>567.795654</ele>
        <time>2011-05-15T15:44:27Z</time>
      </trkpt>
      <trkpt lat="43.95679" lon="5.3202">
        <ele>562.508545</ele>
        <time>2011-05-15T15:44:31Z</time>
      </trkpt>
      <trkpt lat="43.95678" lon="5.32019">
        <ele>564.911865</ele>
        <time>2011-05-15T15:44:32Z</time>
      </trkpt>
      <trkpt lat="43.95676" lon="5.32014">
        <ele>560.105225</ele>
        <time>2011-05-15T15:44:35Z</time>
      </trkpt>
      <trkpt lat="43.95675" lon="5.32011">
        <ele>566.35376</ele>
        <time>2011-05-15T15:44:37Z</time>
      </trkpt>
      <trkpt lat="43.95675" lon="5.3201">
        <ele>565.873291</ele>
        <time>2011-05-15T15:44:38Z</time>
      </trkpt>
      <trkpt lat="43.95673" lon="5.32003">
        <ele>572.602539</ele>
        <time>2011-05-15T15:44:43Z</time>
      </trkpt>
      <trkpt lat="43.95673" lon="5.32003">
        <ele>569.718506</ele>
        <time>2011-05-15T15:44:44Z</time>
      </trkpt>
      <trkpt lat="43.95675" lon="5.31995">
        <ele>564.431152</ele>
        <time>2011-05-15T15:44:50Z</time>
      </trkpt>
      <trkpt lat="43.95674" lon="5.31994">
        <ele>564.431152</ele>
        <time>2011-05-15T15:44:51Z</time>
      </trkpt>
      <trkpt lat="43.95672" lon="5.31989">
        <ele>559.144043</ele>
        <time>2011-05-15T15:44:55Z</time>
      </trkpt>
      <trkpt lat="43.95671" lon="5.31988">
        <ele>559.144043</ele>
        <time>2011-05-15T15:44:56Z</time>
      </trkpt>
      <trkpt lat="43.9567" lon="5.31986">
        <ele>560.585938</ele>
        <time>2011-05-15T15:44:58Z</time>
      </trkpt>
      <trkpt lat="43.95667" lon="5.3198">
        <ele>556.740723</ele>
        <time>2011-05-15T15:45:03Z</time>
      </trkpt>
      <trkpt lat="43.95667" lon="5.31977">
        <ele>560.105225</ele>
        <time>2011-05-15T15:45:05Z</time>
      </trkpt>
      <trkpt lat="43.95667" lon="5.31974">
        <ele>560.105225</ele>
        <time>2011-05-15T15:45:07Z</time>
      </trkpt>
      <trkpt lat="43.95664" lon="5.31964">
        <ele>555.298584</ele>
        <time>2011-05-15T15:45:14Z</time>
      </trkpt>
      <trkpt lat="43.95663" lon="5.31963">
        <ele>554.817871</ele>
        <time>2011-05-15T15:45:15Z</time>
      </trkpt>
      <trkpt lat="43.95663" lon="5.31962">
        <ele>558.182861</ele>
        <time>2011-05-15T15:45:16Z</time>
      </trkpt>
      <trkpt lat="43.95662" lon="5.31953">
        <ele>559.144043</ele>
        <time>2011-05-15T15:45:22Z</time>
      </trkpt>
      <trkpt lat="43.9566" lon="5.31951">
        <ele>558.66333</ele>
        <time>2011-05-15T15:45:24Z</time>
      </trkpt>
      <trkpt lat="43.95659" lon="5.31947">
        <ele>560.105225</ele>
        <time>2011-05-15T15:45:27Z</time>
      </trkpt>
      <trkpt lat="43.95659" lon="5.31946">
        <ele>555.779297</ele>
        <time>2011-05-15T15:45:28Z</time>
      </trkpt>
      <trkpt lat="43.95658" lon="5.31945">
        <ele>552.414551</ele>
        <time>2011-05-15T15:45:29Z</time>
      </trkpt>
      <trkpt lat="43.95658" lon="5.31943">
        <ele>556.26001</ele>
        <time>2011-05-15T15:45:30Z</time>
      </trkpt>
      <trkpt lat="43.95658" lon="5.31926">
        <ele>559.624756</ele>
        <time>2011-05-15T15:45:44Z</time>
      </trkpt>
      <trkpt lat="43.95659" lon="5.31925">
        <ele>558.66333</ele>
        <time>2011-05-15T15:45:45Z</time>
      </trkpt>
      <trkpt lat="43.95659" lon="5.31923">
        <ele>557.221436</ele>
        <time>2011-05-15T15:45:47Z</time>
      </trkpt>
      <trkpt lat="43.95658" lon="5.31921">
        <ele>549.050049</ele>
        <time>2011-05-15T15:45:48Z</time>
      </trkpt>
      <trkpt lat="43.95657" lon="5.31921">
        <ele>551.453369</ele>
        <time>2011-05-15T15:45:49Z</time>
      </trkpt>
      <trkpt lat="43.95654" lon="5.31915">
        <ele>554.817871</ele>
        <time>2011-05-15T15:45:54Z</time>
      </trkpt>
      <trkpt lat="43.95653" lon="5.31914">
        <ele>554.817871</ele>
        <time>2011-05-15T15:45:56Z</time>
      </trkpt>
      <trkpt lat="43.95649" lon="5.31912">
        <ele>558.182861</ele>
        <time>2011-05-15T15:46:00Z</time>
      </trkpt>
      <trkpt lat="43.95641" lon="5.31909">
        <ele>558.182861</ele>
        <time>2011-05-15T15:46:09Z</time>
      </trkpt>
      <trkpt lat="43.9564" lon="5.31909">
        <ele>557.702148</ele>
        <time>2011-05-15T15:46:10Z</time>
      </trkpt>
      <trkpt lat="43.95638" lon="5.31907">
        <ele>557.221436</ele>
        <time>2011-05-15T15:46:12Z</time>
      </trkpt>
      <trkpt lat="43.95626" lon="5.31895">
        <ele>557.702148</ele>
        <time>2011-05-15T15:46:26Z</time>
      </trkpt>
      <trkpt lat="43.95617" lon="5.31884">
        <ele>556.26001</ele>
        <time>2011-05-15T15:46:36Z</time>
      </trkpt>
      <trkpt lat="43.95616" lon="5.31882">
        <ele>554.817871</ele>
        <time>2011-05-15T15:46:38Z</time>
      </trkpt>
      <trkpt lat="43.95611" lon="5.31861">
        <ele>556.740723</ele>
        <time>2011-05-15T15:46:52Z</time>
      </trkpt>
      <trkpt lat="43.95611" lon="5.3186">
        <ele>556.740723</ele>
        <time>2011-05-15T15:46:53Z</time>
      </trkpt>
      <trkpt lat="43.95615" lon="5.31849">
        <ele>557.702148</ele>
        <time>2011-05-15T15:47:01Z</time>
      </trkpt>
      <trkpt lat="43.95614" lon="5.31844">
        <ele>559.144043</ele>
        <time>2011-05-15T15:47:04Z</time>
      </trkpt>
      <trkpt lat="43.95613" lon="5.3184">
        <ele>559.624756</ele>
        <time>2011-05-15T15:47:07Z</time>
      </trkpt>
      <trkpt lat="43.95609" lon="5.31831">
        <ele>555.779297</ele>
        <time>2011-05-15T15:47:14Z</time>
      </trkpt>
      <trkpt lat="43.95594" lon="5.31805">
        <ele>554.817871</ele>
        <time>2011-05-15T15:47:35Z</time>
      </trkpt>
      <trkpt lat="43.95592" lon="5.31803">
        <ele>554.817871</ele>
        <time>2011-05-15T15:47:39Z</time>
      </trkpt>
      <trkpt lat="43.95578" lon="5.31789">
        <ele>554.817871</ele>
        <time>2011-05-15T15:47:54Z</time>
      </trkpt>
      <trkpt lat="43.95573" lon="5.31769">
        <ele>553.856689</ele>
        <time>2011-05-15T15:48:07Z</time>
      </trkpt>
      <trkpt lat="43.95571" lon="5.3176">
        <ele>552.895264</ele>
        <time>2011-05-15T15:48:13Z</time>
      </trkpt>
      <trkpt lat="43.95567" lon="5.31747">
        <ele>551.934082</ele>
        <time>2011-05-15T15:48:21Z</time>
      </trkpt>
      <trkpt lat="43.95563" lon="5.31738">
        <ele>555.298584</ele>
        <time>2011-05-15T15:48:27Z</time>
      </trkpt>
      <trkpt lat="43.95563" lon="5.31718">
        <ele>555.298584</ele>
        <time>2011-05-15T15:48:41Z</time>
      </trkpt>
      <trkpt lat="43.95562" lon="5.31714">
        <ele>553.856689</ele>
        <time>2011-05-15T15:48:44Z</time>
      </trkpt>
      <trkpt lat="43.9556" lon="5.31713">
        <ele>551.934082</ele>
        <time>2011-05-15T15:48:46Z</time>
      </trkpt>
      <trkpt lat="43.95559" lon="5.31713">
        <ele>551.453369</ele>
        <time>2011-05-15T15:48:47Z</time>
      </trkpt>
      <trkpt lat="43.95555" lon="5.31711">
        <ele>551.934082</ele>
        <time>2011-05-15T15:48:51Z</time>
      </trkpt>
      <trkpt lat="43.95549" lon="5.31711">
        <ele>551.453369</ele>
        <time>2011-05-15T15:48:57Z</time>
      </trkpt>
      <trkpt lat="43.95545" lon="5.31708">
        <ele>552.895264</ele>
        <time>2011-05-15T15:49:00Z</time>
      </trkpt>
      <trkpt lat="43.9554" lon="5.31702">
        <ele>551.453369</ele>
        <time>2011-05-15T15:49:05Z</time>
      </trkpt>
      <trkpt lat="43.95537" lon="5.317">
        <ele>553.375977</ele>
        <time>2011-05-15T15:49:08Z</time>
      </trkpt>
      <trkpt lat="43.95524" lon="5.31688">
        <ele>550.972656</ele>
        <time>2011-05-15T15:49:23Z</time>
      </trkpt>
      <trkpt lat="43.95519" lon="5.31688">
        <ele>549.050049</ele>
        <time>2011-05-15T15:49:28Z</time>
      </trkpt>
      <trkpt lat="43.95516" lon="5.31688">
        <ele>548.088867</ele>
        <time>2011-05-15T15:49:32Z</time>
      </trkpt>
      <trkpt lat="43.95507" lon="5.31689">
        <ele>548.088867</ele>
        <time>2011-05-15T15:49:40Z</time>
      </trkpt>
      <trkpt lat="43.95502" lon="5.3168">
        <ele>547.608154</ele>
        <time>2011-05-15T15:49:45Z</time>
      </trkpt>
      <trkpt lat="43.95501" lon="5.3167">
        <ele>545.685547</ele>
        <time>2011-05-15T15:49:52Z</time>
      </trkpt>
      <trkpt lat="43.95495" lon="5.31659">
        <ele>543.762817</ele>
        <time>2011-05-15T15:50:02Z</time>
      </trkpt>
      <trkpt lat="43.95493" lon="5.31656">
        <ele>542.320923</ele>
        <time>2011-05-15T15:50:05Z</time>
      </trkpt>
      <trkpt lat="43.95482" lon="5.31648">
        <ele>538.956299</ele>
        <time>2011-05-15T15:50:17Z</time>
      </trkpt>
      <trkpt lat="43.9548" lon="5.31646">
        <ele>540.398315</ele>
        <time>2011-05-15T15:50:20Z</time>
      </trkpt>
      <trkpt lat="43.95478" lon="5.31643">
        <ele>538.956299</ele>
        <time>2011-05-15T15:50:22Z</time>
      </trkpt>
      <trkpt lat="43.95477" lon="5.31642">
        <ele>537.994995</ele>
        <time>2011-05-15T15:50:24Z</time>
      </trkpt>
      <trkpt lat="43.95469" lon="5.31632">
        <ele>537.994995</ele>
        <time>2011-05-15T15:50:33Z</time>
      </trkpt>
      <trkpt lat="43.95462" lon="5.31622">
        <ele>532.707764</ele>
        <time>2011-05-15T15:50:41Z</time>
      </trkpt>
      <trkpt lat="43.95461" lon="5.31621">
        <ele>534.149658</ele>
        <time>2011-05-15T15:50:42Z</time>
      </trkpt>
      <trkpt lat="43.95459" lon="5.31617">
        <ele>535.110962</ele>
        <time>2011-05-15T15:50:44Z</time>
      </trkpt>
      <trkpt lat="43.95445" lon="5.31605">
        <ele>533.668945</ele>
        <time>2011-05-15T15:50:59Z</time>
      </trkpt>
      <trkpt lat="43.95441" lon="5.31602">
        <ele>533.188354</ele>
        <time>2011-05-15T15:51:03Z</time>
      </trkpt>
      <trkpt lat="43.9544" lon="5.31599">
        <ele>535.110962</ele>
        <time>2011-05-15T15:51:05Z</time>
      </trkpt>
      <trkpt lat="43.95436" lon="5.31584">
        <ele>535.591553</ele>
        <time>2011-05-15T15:51:14Z</time>
      </trkpt>
      <trkpt lat="43.95431" lon="5.31557">
        <ele>537.033691</ele>
        <time>2011-05-15T15:51:30Z</time>
      </trkpt>
      <trkpt lat="43.95431" lon="5.31545">
        <ele>537.994995</ele>
        <time>2011-05-15T15:51:39Z</time>
      </trkpt>
      <trkpt lat="43.95432" lon="5.31543">
        <ele>535.110962</ele>
        <time>2011-05-15T15:51:45Z</time>
      </trkpt>
      <trkpt lat="43.95432" lon="5.31542">
        <ele>538.475708</ele>
        <time>2011-05-15T15:51:50Z</time>
      </trkpt>
      <trkpt lat="43.95431" lon="5.31542">
        <ele>534.630371</ele>
        <time>2011-05-15T15:52:03Z</time>
      </trkpt>
      <trkpt lat="43.95429" lon="5.31544">
        <ele>536.553101</ele>
        <time>2011-05-15T15:52:20Z</time>
      </trkpt>
      <trkpt lat="43.95428" lon="5.31543">
        <ele>535.591553</ele>
        <time>2011-05-15T15:52:22Z</time>
      </trkpt>
      <trkpt lat="43.95421" lon="5.31538">
        <ele>535.591553</ele>
        <time>2011-05-15T15:52:29Z</time>
      </trkpt>
      <trkpt lat="43.95411" lon="5.31526">
        <ele>538.956299</ele>
        <time>2011-05-15T15:52:39Z</time>
      </trkpt>
      <trkpt lat="43.95408" lon="5.31522">
        <ele>535.110962</ele>
        <time>2011-05-15T15:52:42Z</time>
      </trkpt>
      <trkpt lat="43.95394" lon="5.31493">
        <ele>537.033691</ele>
        <time>2011-05-15T15:53:00Z</time>
      </trkpt>
      <trkpt lat="43.95393" lon="5.31492">
        <ele>537.033691</ele>
        <time>2011-05-15T15:53:01Z</time>
      </trkpt>
      <trkpt lat="43.95391" lon="5.31487">
        <ele>537.994995</ele>
        <time>2011-05-15T15:53:04Z</time>
      </trkpt>
      <trkpt lat="43.95389" lon="5.31481">
        <ele>538.956299</ele>
        <time>2011-05-15T15:53:15Z</time>
      </trkpt>
      <trkpt lat="43.9539" lon="5.31482">
        <ele>540.398315</ele>
        <time>2011-05-15T15:53:17Z</time>
      </trkpt>
      <trkpt lat="43.95389" lon="5.31482">
        <ele>539.917603</ele>
        <time>2011-05-15T15:53:18Z</time>
      </trkpt>
      <trkpt lat="43.95383" lon="5.31473">
        <ele>537.033691</ele>
        <time>2011-05-15T15:53:25Z</time>
      </trkpt>
      <trkpt lat="43.95371" lon="5.3146">
        <ele>536.072388</ele>
        <time>2011-05-15T15:53:38Z</time>
      </trkpt>
      <trkpt lat="43.95357" lon="5.31454">
        <ele>533.668945</ele>
        <time>2011-05-15T15:53:50Z</time>
      </trkpt>
      <trkpt lat="43.95354" lon="5.31451">
        <ele>534.630371</ele>
        <time>2011-05-15T15:53:54Z</time>
      </trkpt>
      <trkpt lat="43.95354" lon="5.3145">
        <ele>534.630371</ele>
        <time>2011-05-15T15:53:56Z</time>
      </trkpt>
      <trkpt lat="43.95355" lon="5.31448">
        <ele>536.072388</ele>
        <time>2011-05-15T15:53:59Z</time>
      </trkpt>
      <trkpt lat="43.95356" lon="5.31446">
        <ele>540.398315</ele>
        <time>2011-05-15T15:54:03Z</time>
      </trkpt>
      <trkpt lat="43.95356" lon="5.31446">
        <ele>536.553101</ele>
        <time>2011-05-15T15:54:07Z</time>
      </trkpt>
      <trkpt lat="43.95357" lon="5.31446">
        <ele>535.110962</ele>
        <time>2011-05-15T15:54:09Z</time>
      </trkpt>
      <trkpt lat="43.95357" lon="5.31446">
        <ele>532.227051</ele>
        <time>2011-05-15T15:54:11Z</time>
      </trkpt>
      <trkpt lat="43.95357" lon="5.31445">
        <ele>523.575195</ele>
        <time>2011-05-15T15:54:13Z</time>
      </trkpt>
      <trkpt lat="43.95357" lon="5.31444">
        <ele>530.304443</ele>
        <time>2011-05-15T15:54:14Z</time>
      </trkpt>
      <trkpt lat="43.95357" lon="5.31444">
        <ele>534.149658</ele>
        <time>2011-05-15T15:54:15Z</time>
      </trkpt>
      <trkpt lat="43.95357" lon="5.31445">
        <ele>533.188354</ele>
        <time>2011-05-15T15:54:16Z</time>
      </trkpt>
      <trkpt lat="43.95357" lon="5.31444">
        <ele>531.746338</ele>
        <time>2011-05-15T15:54:20Z</time>
      </trkpt>
      <trkpt lat="43.95357" lon="5.31444">
        <ele>536.072388</ele>
        <time>2011-05-15T15:54:27Z</time>
      </trkpt>
      <trkpt lat="43.95357" lon="5.31444">
        <ele>531.265747</ele>
        <time>2011-05-15T15:54:29Z</time>
      </trkpt>
      <trkpt lat="43.95357" lon="5.31444">
        <ele>535.591553</ele>
        <time>2011-05-15T15:54:32Z</time>
      </trkpt>
      <trkpt lat="43.95358" lon="5.31443">
        <ele>524.536499</ele>
        <time>2011-05-15T15:54:33Z</time>
      </trkpt>
      <trkpt lat="43.95358" lon="5.31444">
        <ele>534.149658</ele>
        <time>2011-05-15T15:54:34Z</time>
      </trkpt>
      <trkpt lat="43.95358" lon="5.31444">
        <ele>543.762817</ele>
        <time>2011-05-15T15:54:35Z</time>
      </trkpt>
      <trkpt lat="43.95358" lon="5.31445">
        <ele>537.514282</ele>
        <time>2011-05-15T15:54:36Z</time>
      </trkpt>
      <trkpt lat="43.95358" lon="5.31445">
        <ele>534.630371</ele>
        <time>2011-05-15T15:54:39Z</time>
      </trkpt>
      <trkpt lat="43.95357" lon="5.31443">
        <ele>527.901001</ele>
        <time>2011-05-15T15:54:46Z</time>
      </trkpt>
      <trkpt lat="43.95357" lon="5.31443">
        <ele>530.785156</ele>
        <time>2011-05-15T15:54:47Z</time>
      </trkpt>
      <trkpt lat="43.95357" lon="5.31443">
        <ele>532.707764</ele>
        <time>2011-05-15T15:54:50Z</time>
      </trkpt>
      <trkpt lat="43.95357" lon="5.31443">
        <ele>530.785156</ele>
        <time>2011-05-15T15:54:55Z</time>
      </trkpt>
      <trkpt lat="43.95357" lon="5.31442">
        <ele>529.34314</ele>
        <time>2011-05-15T15:55:06Z</time>
      </trkpt>
      <trkpt lat="43.95357" lon="5.31442">
        <ele>528.862549</ele>
        <time>2011-05-15T15:55:12Z</time>
      </trkpt>
      <trkpt lat="43.95356" lon="5.31442">
        <ele>533.668945</ele>
        <time>2011-05-15T15:55:30Z</time>
      </trkpt>
      <trkpt lat="43.95356" lon="5.31442">
        <ele>531.265747</ele>
        <time>2011-05-15T15:55:31Z</time>
      </trkpt>
      <trkpt lat="43.95356" lon="5.31442">
        <ele>529.34314</ele>
        <time>2011-05-15T15:55:33Z</time>
      </trkpt>
      <trkpt lat="43.95356" lon="5.31442">
        <ele>528.862549</ele>
        <time>2011-05-15T15:55:42Z</time>
      </trkpt>
      <trkpt lat="43.95356" lon="5.31446">
        <ele>529.34314</ele>
        <time>2011-05-15T15:56:01Z</time>
      </trkpt>
      <trkpt lat="43.95351" lon="5.31453">
        <ele>528.862549</ele>
        <time>2011-05-15T15:56:11Z</time>
      </trkpt>
      <trkpt lat="43.95336" lon="5.31449">
        <ele>527.42041</ele>
        <time>2011-05-15T15:56:25Z</time>
      </trkpt>
      <trkpt lat="43.95334" lon="5.31448">
        <ele>526.459106</ele>
        <time>2011-05-15T15:56:27Z</time>
      </trkpt>
      <trkpt lat="43.95331" lon="5.31448">
        <ele>525.978394</ele>
        <time>2011-05-15T15:56:29Z</time>
      </trkpt>
      <trkpt lat="43.9531" lon="5.31445">
        <ele>523.094604</ele>
        <time>2011-05-15T15:56:45Z</time>
      </trkpt>
      <trkpt lat="43.95293" lon="5.31434">
        <ele>521.171997</ele>
        <time>2011-05-15T15:56:58Z</time>
      </trkpt>
      <trkpt lat="43.95289" lon="5.31431">
        <ele>519.249268</ele>
        <time>2011-05-15T15:57:01Z</time>
      </trkpt>
      <trkpt lat="43.95269" lon="5.3141">
        <ele>519.249268</ele>
        <time>2011-05-15T15:57:20Z</time>
      </trkpt>
      <trkpt lat="43.95263" lon="5.31406">
        <ele>519.729858</ele>
        <time>2011-05-15T15:57:25Z</time>
      </trkpt>
      <trkpt lat="43.95259" lon="5.31402">
        <ele>518.287842</ele>
        <time>2011-05-15T15:57:29Z</time>
      </trkpt>
      <trkpt lat="43.95257" lon="5.314">
        <ele>518.287842</ele>
        <time>2011-05-15T15:57:31Z</time>
      </trkpt>
      <trkpt lat="43.95253" lon="5.31396">
        <ele>516.365234</ele>
        <time>2011-05-15T15:57:35Z</time>
      </trkpt>
      <trkpt lat="43.9525" lon="5.31394">
        <ele>515.884644</ele>
        <time>2011-05-15T15:57:37Z</time>
      </trkpt>
      <trkpt lat="43.95249" lon="5.31393">
        <ele>514.92334</ele>
        <time>2011-05-15T15:57:39Z</time>
      </trkpt>
      <trkpt lat="43.95235" lon="5.31378">
        <ele>512.039429</ele>
        <time>2011-05-15T15:57:53Z</time>
      </trkpt>
      <trkpt lat="43.95235" lon="5.31376">
        <ele>511.558716</ele>
        <time>2011-05-15T15:57:54Z</time>
      </trkpt>
      <trkpt lat="43.95227" lon="5.31352">
        <ele>512.039429</ele>
        <time>2011-05-15T15:58:08Z</time>
      </trkpt>
      <trkpt lat="43.95223" lon="5.31345">
        <ele>512.039429</ele>
        <time>2011-05-15T15:58:15Z</time>
      </trkpt>
      <trkpt lat="43.95208" lon="5.3133">
        <ele>509.155396</ele>
        <time>2011-05-15T15:58:31Z</time>
      </trkpt>
      <trkpt lat="43.95202" lon="5.31324">
        <ele>509.155396</ele>
        <time>2011-05-15T15:58:37Z</time>
      </trkpt>
      <trkpt lat="43.95188" lon="5.3131">
        <ele>506.271484</ele>
        <time>2011-05-15T15:58:53Z</time>
      </trkpt>
      <trkpt lat="43.95182" lon="5.31298">
        <ele>505.790894</ele>
        <time>2011-05-15T15:59:01Z</time>
      </trkpt>
      <trkpt lat="43.95173" lon="5.31289">
        <ele>505.790894</ele>
        <time>2011-05-15T15:59:10Z</time>
      </trkpt>
      <trkpt lat="43.95171" lon="5.31286">
        <ele>505.790894</ele>
        <time>2011-05-15T15:59:13Z</time>
      </trkpt>
      <trkpt lat="43.95161" lon="5.31273">
        <ele>506.271484</ele>
        <time>2011-05-15T15:59:25Z</time>
      </trkpt>
      <trkpt lat="43.95152" lon="5.31263">
        <ele>502.906738</ele>
        <time>2011-05-15T15:59:35Z</time>
      </trkpt>
      <trkpt lat="43.95136" lon="5.31241">
        <ele>503.387451</ele>
        <time>2011-05-15T15:59:54Z</time>
      </trkpt>
      <trkpt lat="43.95135" lon="5.31239">
        <ele>504.348877</ele>
        <time>2011-05-15T15:59:56Z</time>
      </trkpt>
      <trkpt lat="43.95133" lon="5.31236">
        <ele>502.426147</ele>
        <time>2011-05-15T15:59:59Z</time>
      </trkpt>
      <trkpt lat="43.95131" lon="5.31233">
        <ele>506.271484</ele>
        <time>2011-05-15T16:00:02Z</time>
      </trkpt>
      <trkpt lat="43.9513" lon="5.31232">
        <ele>505.310181</ele>
        <time>2011-05-15T16:00:03Z</time>
      </trkpt>
      <trkpt lat="43.95128" lon="5.31228">
        <ele>503.387451</ele>
        <time>2011-05-15T16:00:06Z</time>
      </trkpt>
      <trkpt lat="43.95126" lon="5.31224">
        <ele>500.984131</ele>
        <time>2011-05-15T16:00:09Z</time>
      </trkpt>
      <trkpt lat="43.95113" lon="5.31212">
        <ele>498.100342</ele>
        <time>2011-05-15T16:00:24Z</time>
      </trkpt>
      <trkpt lat="43.95106" lon="5.31207">
        <ele>499.061523</ele>
        <time>2011-05-15T16:00:32Z</time>
      </trkpt>
      <trkpt lat="43.95103" lon="5.31206">
        <ele>497.619629</ele>
        <time>2011-05-15T16:00:36Z</time>
      </trkpt>
      <trkpt lat="43.95102" lon="5.31201">
        <ele>499.061523</ele>
        <time>2011-05-15T16:00:40Z</time>
      </trkpt>
      <trkpt lat="43.95101" lon="5.31198">
        <ele>497.138916</ele>
        <time>2011-05-15T16:00:42Z</time>
      </trkpt>
      <trkpt lat="43.951" lon="5.31196">
        <ele>495.696899</ele>
        <time>2011-05-15T16:00:44Z</time>
      </trkpt>
      <trkpt lat="43.95092" lon="5.31184">
        <ele>491.851685</ele>
        <time>2011-05-15T16:00:58Z</time>
      </trkpt>
      <trkpt lat="43.9509" lon="5.31176">
        <ele>492.332397</ele>
        <time>2011-05-15T16:01:17Z</time>
      </trkpt>
      <trkpt lat="43.95089" lon="5.31175">
        <ele>493.774292</ele>
        <time>2011-05-15T16:01:19Z</time>
      </trkpt>
      <trkpt lat="43.95088" lon="5.31174">
        <ele>491.370972</ele>
        <time>2011-05-15T16:01:22Z</time>
      </trkpt>
      <trkpt lat="43.9508" lon="5.3117">
        <ele>492.812988</ele>
        <time>2011-05-15T16:01:45Z</time>
      </trkpt>
      <trkpt lat="43.95074" lon="5.31161">
        <ele>492.812988</ele>
        <time>2011-05-15T16:01:55Z</time>
      </trkpt>
      <trkpt lat="43.95071" lon="5.31159">
        <ele>491.370972</ele>
        <time>2011-05-15T16:01:58Z</time>
      </trkpt>
      <trkpt lat="43.95069" lon="5.31157">
        <ele>492.812988</ele>
        <time>2011-05-15T16:02:01Z</time>
      </trkpt>
      <trkpt lat="43.95064" lon="5.31151">
        <ele>492.812988</ele>
        <time>2011-05-15T16:02:08Z</time>
      </trkpt>
      <trkpt lat="43.95057" lon="5.31138">
        <ele>491.370972</ele>
        <time>2011-05-15T16:02:20Z</time>
      </trkpt>
      <trkpt lat="43.95048" lon="5.31132">
        <ele>490.40979</ele>
        <time>2011-05-15T16:02:30Z</time>
      </trkpt>
      <trkpt lat="43.95044" lon="5.31126">
        <ele>490.40979</ele>
        <time>2011-05-15T16:02:36Z</time>
      </trkpt>
      <trkpt lat="43.95038" lon="5.31119">
        <ele>488.967773</ele>
        <time>2011-05-15T16:02:44Z</time>
      </trkpt>
      <trkpt lat="43.95036" lon="5.31115">
        <ele>488.487183</ele>
        <time>2011-05-15T16:02:47Z</time>
      </trkpt>
      <trkpt lat="43.95024" lon="5.31104">
        <ele>487.525635</ele>
        <time>2011-05-15T16:03:02Z</time>
      </trkpt>
      <trkpt lat="43.95021" lon="5.31102">
        <ele>489.929077</ele>
        <time>2011-05-15T16:03:05Z</time>
      </trkpt>
      <trkpt lat="43.95018" lon="5.311">
        <ele>484.641846</ele>
        <time>2011-05-15T16:03:09Z</time>
      </trkpt>
      <trkpt lat="43.95017" lon="5.31099">
        <ele>488.967773</ele>
        <time>2011-05-15T16:03:10Z</time>
      </trkpt>
      <trkpt lat="43.95013" lon="5.31095">
        <ele>488.487183</ele>
        <time>2011-05-15T16:03:15Z</time>
      </trkpt>
      <trkpt lat="43.95011" lon="5.31082">
        <ele>487.045044</ele>
        <time>2011-05-15T16:03:26Z</time>
      </trkpt>
      <trkpt lat="43.95011" lon="5.31079">
        <ele>489.448364</ele>
        <time>2011-05-15T16:03:28Z</time>
      </trkpt>
      <trkpt lat="43.95009" lon="5.31073">
        <ele>486.08374</ele>
        <time>2011-05-15T16:03:33Z</time>
      </trkpt>
      <trkpt lat="43.95005" lon="5.31058">
        <ele>487.525635</ele>
        <time>2011-05-15T16:03:46Z</time>
      </trkpt>
      <trkpt lat="43.95004" lon="5.31053">
        <ele>485.603027</ele>
        <time>2011-05-15T16:03:49Z</time>
      </trkpt>
      <trkpt lat="43.94998" lon="5.31036">
        <ele>483.68042</ele>
        <time>2011-05-15T16:04:01Z</time>
      </trkpt>
      <trkpt lat="43.94994" lon="5.3103">
        <ele>486.564453</ele>
        <time>2011-05-15T16:04:07Z</time>
      </trkpt>
      <trkpt lat="43.94992" lon="5.31027">
        <ele>491.370972</ele>
        <time>2011-05-15T16:04:16Z</time>
      </trkpt>
      <trkpt lat="43.94992" lon="5.31026">
        <ele>490.40979</ele>
        <time>2011-05-15T16:04:17Z</time>
      </trkpt>
      <trkpt lat="43.94992" lon="5.31025">
        <ele>494.255005</ele>
        <time>2011-05-15T16:04:20Z</time>
      </trkpt>
      <trkpt lat="43.94992" lon="5.31025">
        <ele>497.619629</ele>
        <time>2011-05-15T16:04:21Z</time>
      </trkpt>
      <trkpt lat="43.94992" lon="5.31024">
        <ele>488.487183</ele>
        <time>2011-05-15T16:04:22Z</time>
      </trkpt>
      <trkpt lat="43.94991" lon="5.31022">
        <ele>485.122437</ele>
        <time>2011-05-15T16:04:23Z</time>
      </trkpt>
      <trkpt lat="43.94989" lon="5.31021">
        <ele>478.873901</ele>
        <time>2011-05-15T16:04:24Z</time>
      </trkpt>
      <trkpt lat="43.94988" lon="5.31021">
        <ele>482.238525</ele>
        <time>2011-05-15T16:04:25Z</time>
      </trkpt>
      <trkpt lat="43.94987" lon="5.31021">
        <ele>472.144653</ele>
        <time>2011-05-15T16:04:26Z</time>
      </trkpt>
      <trkpt lat="43.94986" lon="5.31021">
        <ele>479.835083</ele>
        <time>2011-05-15T16:04:27Z</time>
      </trkpt>
      <trkpt lat="43.94984" lon="5.31021">
        <ele>483.199829</ele>
        <time>2011-05-15T16:04:29Z</time>
      </trkpt>
      <trkpt lat="43.94983" lon="5.3102">
        <ele>486.564453</ele>
        <time>2011-05-15T16:04:32Z</time>
      </trkpt>
      <trkpt lat="43.94981" lon="5.31019">
        <ele>482.238525</ele>
        <time>2011-05-15T16:04:34Z</time>
      </trkpt>
      <trkpt lat="43.9498" lon="5.31018">
        <ele>483.68042</ele>
        <time>2011-05-15T16:04:35Z</time>
      </trkpt>
      <trkpt lat="43.94978" lon="5.31017">
        <ele>474.547974</ele>
        <time>2011-05-15T16:04:38Z</time>
      </trkpt>
      <trkpt lat="43.94977" lon="5.31016">
        <ele>479.835083</ele>
        <time>2011-05-15T16:04:39Z</time>
      </trkpt>
      <trkpt lat="43.94976" lon="5.31013">
        <ele>481.757813</ele>
        <time>2011-05-15T16:04:42Z</time>
      </trkpt>
      <trkpt lat="43.94974" lon="5.31011">
        <ele>484.641846</ele>
        <time>2011-05-15T16:04:44Z</time>
      </trkpt>
      <trkpt lat="43.9497" lon="5.31009">
        <ele>479.835083</ele>
        <time>2011-05-15T16:04:48Z</time>
      </trkpt>
      <trkpt lat="43.94969" lon="5.31009">
        <ele>486.564453</ele>
        <time>2011-05-15T16:04:49Z</time>
      </trkpt>
      <trkpt lat="43.94968" lon="5.31008">
        <ele>486.564453</ele>
        <time>2011-05-15T16:04:50Z</time>
      </trkpt>
      <trkpt lat="43.94967" lon="5.31007">
        <ele>489.929077</ele>
        <time>2011-05-15T16:04:52Z</time>
      </trkpt>
      <trkpt lat="43.94964" lon="5.31004">
        <ele>491.851685</ele>
        <time>2011-05-15T16:04:55Z</time>
      </trkpt>
      <trkpt lat="43.94962" lon="5.31003">
        <ele>488.487183</ele>
        <time>2011-05-15T16:04:57Z</time>
      </trkpt>
      <trkpt lat="43.94959" lon="5.31001">
        <ele>489.929077</ele>
        <time>2011-05-15T16:05:00Z</time>
      </trkpt>
      <trkpt lat="43.94956" lon="5.31">
        <ele>494.735596</ele>
        <time>2011-05-15T16:05:03Z</time>
      </trkpt>
      <trkpt lat="43.94953" lon="5.30998">
        <ele>488.487183</ele>
        <time>2011-05-15T16:05:06Z</time>
      </trkpt>
      <trkpt lat="43.9495" lon="5.30997">
        <ele>484.161133</ele>
        <time>2011-05-15T16:05:09Z</time>
      </trkpt>
      <trkpt lat="43.9495" lon="5.30996">
        <ele>484.161133</ele>
        <time>2011-05-15T16:05:10Z</time>
      </trkpt>
      <trkpt lat="43.94949" lon="5.30992">
        <ele>483.199829</ele>
        <time>2011-05-15T16:05:14Z</time>
      </trkpt>
      <trkpt lat="43.94949" lon="5.30991">
        <ele>487.045044</ele>
        <time>2011-05-15T16:05:15Z</time>
      </trkpt>
      <trkpt lat="43.94949" lon="5.30991">
        <ele>482.719238</ele>
        <time>2011-05-15T16:05:16Z</time>
      </trkpt>
      <trkpt lat="43.94948" lon="5.3099">
        <ele>486.08374</ele>
        <time>2011-05-15T16:05:17Z</time>
      </trkpt>
      <trkpt lat="43.94948" lon="5.30989">
        <ele>481.757813</ele>
        <time>2011-05-15T16:05:18Z</time>
      </trkpt>
      <trkpt lat="43.94948" lon="5.30988">
        <ele>476.470581</ele>
        <time>2011-05-15T16:05:19Z</time>
      </trkpt>
      <trkpt lat="43.94946" lon="5.30985">
        <ele>475.989868</ele>
        <time>2011-05-15T16:05:21Z</time>
      </trkpt>
      <trkpt lat="43.94942" lon="5.30978">
        <ele>475.989868</ele>
        <time>2011-05-15T16:05:26Z</time>
      </trkpt>
      <trkpt lat="43.9494" lon="5.30976">
        <ele>473.58667</ele>
        <time>2011-05-15T16:05:28Z</time>
      </trkpt>
      <trkpt lat="43.94936" lon="5.30975">
        <ele>472.625366</ele>
        <time>2011-05-15T16:05:31Z</time>
      </trkpt>
      <trkpt lat="43.94931" lon="5.30972">
        <ele>474.547974</ele>
        <time>2011-05-15T16:05:37Z</time>
      </trkpt>
      <trkpt lat="43.94929" lon="5.30964">
        <ele>476.470581</ele>
        <time>2011-05-15T16:05:45Z</time>
      </trkpt>
      <trkpt lat="43.94929" lon="5.3096">
        <ele>479.835083</ele>
        <time>2011-05-15T16:05:48Z</time>
      </trkpt>
      <trkpt lat="43.94928" lon="5.30959">
        <ele>478.873901</ele>
        <time>2011-05-15T16:05:49Z</time>
      </trkpt>
      <trkpt lat="43.94929" lon="5.30953">
        <ele>479.835083</ele>
        <time>2011-05-15T16:05:54Z</time>
      </trkpt>
      <trkpt lat="43.9493" lon="5.30946">
        <ele>479.835083</ele>
        <time>2011-05-15T16:05:59Z</time>
      </trkpt>
      <trkpt lat="43.9493" lon="5.30944">
        <ele>483.199829</ele>
        <time>2011-05-15T16:06:00Z</time>
      </trkpt>
      <trkpt lat="43.94929" lon="5.30943">
        <ele>481.757813</ele>
        <time>2011-05-15T16:06:01Z</time>
      </trkpt>
      <trkpt lat="43.94929" lon="5.3094">
        <ele>479.835083</ele>
        <time>2011-05-15T16:06:03Z</time>
      </trkpt>
      <trkpt lat="43.94929" lon="5.30937">
        <ele>481.277222</ele>
        <time>2011-05-15T16:06:05Z</time>
      </trkpt>
      <trkpt lat="43.9493" lon="5.30931">
        <ele>481.757813</ele>
        <time>2011-05-15T16:06:10Z</time>
      </trkpt>
      <trkpt lat="43.94926" lon="5.30923">
        <ele>484.161133</ele>
        <time>2011-05-15T16:06:16Z</time>
      </trkpt>
      <trkpt lat="43.94925" lon="5.3092">
        <ele>482.238525</ele>
        <time>2011-05-15T16:06:18Z</time>
      </trkpt>
      <trkpt lat="43.94924" lon="5.30918">
        <ele>480.315918</ele>
        <time>2011-05-15T16:06:20Z</time>
      </trkpt>
      <trkpt lat="43.94921" lon="5.30907">
        <ele>482.719238</ele>
        <time>2011-05-15T16:06:27Z</time>
      </trkpt>
      <trkpt lat="43.94921" lon="5.30904">
        <ele>481.277222</ele>
        <time>2011-05-15T16:06:29Z</time>
      </trkpt>
      <trkpt lat="43.94919" lon="5.30896">
        <ele>480.315918</ele>
        <time>2011-05-15T16:06:34Z</time>
      </trkpt>
      <trkpt lat="43.94919" lon="5.30889">
        <ele>481.757813</ele>
        <time>2011-05-15T16:06:38Z</time>
      </trkpt>
      <trkpt lat="43.94918" lon="5.30886">
        <ele>483.199829</ele>
        <time>2011-05-15T16:06:40Z</time>
      </trkpt>
      <trkpt lat="43.94918" lon="5.30885">
        <ele>486.564453</ele>
        <time>2011-05-15T16:06:41Z</time>
      </trkpt>
      <trkpt lat="43.94918" lon="5.30884">
        <ele>483.199829</ele>
        <time>2011-05-15T16:06:42Z</time>
      </trkpt>
      <trkpt lat="43.94918" lon="5.30881">
        <ele>487.045044</ele>
        <time>2011-05-15T16:06:44Z</time>
      </trkpt>
      <trkpt lat="43.94918" lon="5.30879">
        <ele>482.719238</ele>
        <time>2011-05-15T16:06:45Z</time>
      </trkpt>
      <trkpt lat="43.94916" lon="5.30876">
        <ele>487.045044</ele>
        <time>2011-05-15T16:06:47Z</time>
      </trkpt>
      <trkpt lat="43.94911" lon="5.30858">
        <ele>487.045044</ele>
        <time>2011-05-15T16:06:59Z</time>
      </trkpt>
      <trkpt lat="43.94907" lon="5.30851">
        <ele>480.315918</ele>
        <time>2011-05-15T16:07:04Z</time>
      </trkpt>
      <trkpt lat="43.94905" lon="5.30848">
        <ele>479.354492</ele>
        <time>2011-05-15T16:07:06Z</time>
      </trkpt>
      <trkpt lat="43.94905" lon="5.30846">
        <ele>484.641846</ele>
        <time>2011-05-15T16:07:07Z</time>
      </trkpt>
      <trkpt lat="43.94904" lon="5.30845">
        <ele>484.641846</ele>
        <time>2011-05-15T16:07:08Z</time>
      </trkpt>
      <trkpt lat="43.94904" lon="5.3084">
        <ele>489.448364</ele>
        <time>2011-05-15T16:07:11Z</time>
      </trkpt>
      <trkpt lat="43.94904" lon="5.30838">
        <ele>493.293579</ele>
        <time>2011-05-15T16:07:12Z</time>
      </trkpt>
      <trkpt lat="43.94903" lon="5.30834">
        <ele>500.022949</ele>
        <time>2011-05-15T16:07:14Z</time>
      </trkpt>
      <trkpt lat="43.94902" lon="5.30832">
        <ele>496.177734</ele>
        <time>2011-05-15T16:07:16Z</time>
      </trkpt>
      <trkpt lat="43.94901" lon="5.3083">
        <ele>493.774292</ele>
        <time>2011-05-15T16:07:17Z</time>
      </trkpt>
      <trkpt lat="43.94901" lon="5.30825">
        <ele>489.929077</ele>
        <time>2011-05-15T16:07:20Z</time>
      </trkpt>
      <trkpt lat="43.94901" lon="5.30824">
        <ele>494.735596</ele>
        <time>2011-05-15T16:07:21Z</time>
      </trkpt>
      <trkpt lat="43.949" lon="5.30822">
        <ele>494.735596</ele>
        <time>2011-05-15T16:07:22Z</time>
      </trkpt>
      <trkpt lat="43.949" lon="5.30817">
        <ele>498.100342</ele>
        <time>2011-05-15T16:07:25Z</time>
      </trkpt>
      <trkpt lat="43.949" lon="5.30815">
        <ele>490.40979</ele>
        <time>2011-05-15T16:07:26Z</time>
      </trkpt>
      <trkpt lat="43.94898" lon="5.30806">
        <ele>495.696899</ele>
        <time>2011-05-15T16:07:31Z</time>
      </trkpt>
      <trkpt lat="43.94897" lon="5.30805">
        <ele>494.255005</ele>
        <time>2011-05-15T16:07:32Z</time>
      </trkpt>
      <trkpt lat="43.94897" lon="5.30803">
        <ele>491.370972</ele>
        <time>2011-05-15T16:07:33Z</time>
      </trkpt>
      <trkpt lat="43.94897" lon="5.308">
        <ele>501.464844</ele>
        <time>2011-05-15T16:07:35Z</time>
      </trkpt>
      <trkpt lat="43.94897" lon="5.30799">
        <ele>500.50354</ele>
        <time>2011-05-15T16:07:36Z</time>
      </trkpt>
      <trkpt lat="43.94898" lon="5.30793">
        <ele>500.022949</ele>
        <time>2011-05-15T16:07:40Z</time>
      </trkpt>
      <trkpt lat="43.94898" lon="5.3079">
        <ele>498.580933</ele>
        <time>2011-05-15T16:07:42Z</time>
      </trkpt>
      <trkpt lat="43.94897" lon="5.30786">
        <ele>490.40979</ele>
        <time>2011-05-15T16:07:45Z</time>
      </trkpt>
      <trkpt lat="43.94897" lon="5.30785">
        <ele>491.370972</ele>
        <time>2011-05-15T16:07:46Z</time>
      </trkpt>
      <trkpt lat="43.94897" lon="5.30784">
        <ele>500.022949</ele>
        <time>2011-05-15T16:07:47Z</time>
      </trkpt>
      <trkpt lat="43.94896" lon="5.30781">
        <ele>504.348877</ele>
        <time>2011-05-15T16:07:49Z</time>
      </trkpt>
      <trkpt lat="43.94896" lon="5.30779">
        <ele>500.984131</ele>
        <time>2011-05-15T16:07:50Z</time>
      </trkpt>
      <trkpt lat="43.94895" lon="5.30776">
        <ele>501.464844</ele>
        <time>2011-05-15T16:07:52Z</time>
      </trkpt>
      <trkpt lat="43.94894" lon="5.30773">
        <ele>491.370972</ele>
        <time>2011-05-15T16:07:54Z</time>
      </trkpt>
      <trkpt lat="43.94894" lon="5.30772">
        <ele>492.812988</ele>
        <time>2011-05-15T16:07:55Z</time>
      </trkpt>
      <trkpt lat="43.94892" lon="5.30769">
        <ele>494.255005</ele>
        <time>2011-05-15T16:07:57Z</time>
      </trkpt>
      <trkpt lat="43.94892" lon="5.30767">
        <ele>492.332397</ele>
        <time>2011-05-15T16:07:59Z</time>
      </trkpt>
      <trkpt lat="43.94891" lon="5.30762">
        <ele>488.487183</ele>
        <time>2011-05-15T16:08:02Z</time>
      </trkpt>
      <trkpt lat="43.9489" lon="5.3076">
        <ele>485.122437</ele>
        <time>2011-05-15T16:08:04Z</time>
      </trkpt>
      <trkpt lat="43.94888" lon="5.30758">
        <ele>484.161133</ele>
        <time>2011-05-15T16:08:06Z</time>
      </trkpt>
      <trkpt lat="43.94887" lon="5.30756">
        <ele>486.564453</ele>
        <time>2011-05-15T16:08:08Z</time>
      </trkpt>
      <trkpt lat="43.94881" lon="5.30747">
        <ele>485.603027</ele>
        <time>2011-05-15T16:08:17Z</time>
      </trkpt>
      <trkpt lat="43.9488" lon="5.30743">
        <ele>482.238525</ele>
        <time>2011-05-15T16:08:20Z</time>
      </trkpt>
      <trkpt lat="43.94879" lon="5.30742">
        <ele>483.199829</ele>
        <time>2011-05-15T16:08:21Z</time>
      </trkpt>
      <trkpt lat="43.94879" lon="5.30739">
        <ele>484.641846</ele>
        <time>2011-05-15T16:08:23Z</time>
      </trkpt>
      <trkpt lat="43.94876" lon="5.30733">
        <ele>481.277222</ele>
        <time>2011-05-15T16:08:27Z</time>
      </trkpt>
      <trkpt lat="43.94874" lon="5.30732">
        <ele>480.315918</ele>
        <time>2011-05-15T16:08:29Z</time>
      </trkpt>
      <trkpt lat="43.9487" lon="5.3073">
        <ele>477.431885</ele>
        <time>2011-05-15T16:08:33Z</time>
      </trkpt>
      <trkpt lat="43.94868" lon="5.30724">
        <ele>480.796631</ele>
        <time>2011-05-15T16:08:37Z</time>
      </trkpt>
      <trkpt lat="43.9487" lon="5.30716">
        <ele>480.796631</ele>
        <time>2011-05-15T16:08:42Z</time>
      </trkpt>
      <trkpt lat="43.94867" lon="5.3071">
        <ele>477.431885</ele>
        <time>2011-05-15T16:08:47Z</time>
      </trkpt>
      <trkpt lat="43.94866" lon="5.30708">
        <ele>480.796631</ele>
        <time>2011-05-15T16:08:48Z</time>
      </trkpt>
      <trkpt lat="43.94865" lon="5.30705">
        <ele>481.757813</ele>
        <time>2011-05-15T16:08:50Z</time>
      </trkpt>
      <trkpt lat="43.94864" lon="5.30703">
        <ele>478.873901</ele>
        <time>2011-05-15T16:08:52Z</time>
      </trkpt>
      <trkpt lat="43.94862" lon="5.30699">
        <ele>475.028687</ele>
        <time>2011-05-15T16:08:55Z</time>
      </trkpt>
      <trkpt lat="43.94861" lon="5.30698">
        <ele>472.144653</ele>
        <time>2011-05-15T16:08:56Z</time>
      </trkpt>
      <trkpt lat="43.94861" lon="5.30697">
        <ele>475.028687</ele>
        <time>2011-05-15T16:08:57Z</time>
      </trkpt>
      <trkpt lat="43.94857" lon="5.3069">
        <ele>471.18335</ele>
        <time>2011-05-15T16:09:03Z</time>
      </trkpt>
      <trkpt lat="43.94856" lon="5.3069">
        <ele>471.18335</ele>
        <time>2011-05-15T16:09:04Z</time>
      </trkpt>
      <trkpt lat="43.94855" lon="5.30688">
        <ele>476.470581</ele>
        <time>2011-05-15T16:09:05Z</time>
      </trkpt>
      <trkpt lat="43.94852" lon="5.30684">
        <ele>480.315918</ele>
        <time>2011-05-15T16:09:09Z</time>
      </trkpt>
      <trkpt lat="43.94851" lon="5.30679">
        <ele>474.547974</ele>
        <time>2011-05-15T16:09:12Z</time>
      </trkpt>
      <trkpt lat="43.9485" lon="5.30675">
        <ele>471.66394</ele>
        <time>2011-05-15T16:09:15Z</time>
      </trkpt>
      <trkpt lat="43.94845" lon="5.30666">
        <ele>471.18335</ele>
        <time>2011-05-15T16:09:21Z</time>
      </trkpt>
      <trkpt lat="43.94844" lon="5.30658">
        <ele>473.58667</ele>
        <time>2011-05-15T16:09:27Z</time>
      </trkpt>
      <trkpt lat="43.94835" lon="5.30642">
        <ele>469.260742</ele>
        <time>2011-05-15T16:09:39Z</time>
      </trkpt>
      <trkpt lat="43.94831" lon="5.30629">
        <ele>472.144653</ele>
        <time>2011-05-15T16:09:48Z</time>
      </trkpt>
      <trkpt lat="43.9483" lon="5.30626">
        <ele>470.221924</ele>
        <time>2011-05-15T16:09:51Z</time>
      </trkpt>
      <trkpt lat="43.9483" lon="5.30625">
        <ele>467.818726</ele>
        <time>2011-05-15T16:09:52Z</time>
      </trkpt>
      <trkpt lat="43.94828" lon="5.30621">
        <ele>475.509277</ele>
        <time>2011-05-15T16:09:55Z</time>
      </trkpt>
      <trkpt lat="43.94828" lon="5.30619">
        <ele>474.547974</ele>
        <time>2011-05-15T16:09:56Z</time>
      </trkpt>
      <trkpt lat="43.94826" lon="5.30615">
        <ele>475.509277</ele>
        <time>2011-05-15T16:10:00Z</time>
      </trkpt>
      <trkpt lat="43.94821" lon="5.30606">
        <ele>471.66394</ele>
        <time>2011-05-15T16:10:07Z</time>
      </trkpt>
      <trkpt lat="43.94815" lon="5.30585">
        <ele>474.067261</ele>
        <time>2011-05-15T16:10:20Z</time>
      </trkpt>
      <trkpt lat="43.94815" lon="5.30576">
        <ele>468.780029</ele>
        <time>2011-05-15T16:10:25Z</time>
      </trkpt>
      <trkpt lat="43.94815" lon="5.30574">
        <ele>470.221924</ele>
        <time>2011-05-15T16:10:26Z</time>
      </trkpt>
      <trkpt lat="43.94814" lon="5.3057">
        <ele>473.58667</ele>
        <time>2011-05-15T16:10:28Z</time>
      </trkpt>
      <trkpt lat="43.94815" lon="5.30569">
        <ele>473.106079</ele>
        <time>2011-05-15T16:10:29Z</time>
      </trkpt>
      <trkpt lat="43.94815" lon="5.30564">
        <ele>476.951294</ele>
        <time>2011-05-15T16:10:32Z</time>
      </trkpt>
      <trkpt lat="43.94815" lon="5.30561">
        <ele>480.796631</ele>
        <time>2011-05-15T16:10:34Z</time>
      </trkpt>
      <trkpt lat="43.94815" lon="5.3056">
        <ele>479.354492</ele>
        <time>2011-05-15T16:10:35Z</time>
      </trkpt>
      <trkpt lat="43.94815" lon="5.3056">
        <ele>486.564453</ele>
        <time>2011-05-15T16:10:36Z</time>
      </trkpt>
      <trkpt lat="43.94815" lon="5.3056">
        <ele>484.161133</ele>
        <time>2011-05-15T16:10:37Z</time>
      </trkpt>
      <trkpt lat="43.94815" lon="5.30557">
        <ele>479.354492</ele>
        <time>2011-05-15T16:10:45Z</time>
      </trkpt>
      <trkpt lat="43.94815" lon="5.30557">
        <ele>474.067261</ele>
        <time>2011-05-15T16:10:48Z</time>
      </trkpt>
      <trkpt lat="43.94815" lon="5.30556">
        <ele>468.299316</ele>
        <time>2011-05-15T16:10:49Z</time>
      </trkpt>
      <trkpt lat="43.94814" lon="5.30556">
        <ele>464.454102</ele>
        <time>2011-05-15T16:10:51Z</time>
      </trkpt>
      <trkpt lat="43.94814" lon="5.30555">
        <ele>466.376709</ele>
        <time>2011-05-15T16:10:53Z</time>
      </trkpt>
      <trkpt lat="43.94813" lon="5.30551">
        <ele>475.989868</ele>
        <time>2011-05-15T16:10:56Z</time>
      </trkpt>
      <trkpt lat="43.94812" lon="5.30549">
        <ele>479.354492</ele>
        <time>2011-05-15T16:10:58Z</time>
      </trkpt>
      <trkpt lat="43.94811" lon="5.30545">
        <ele>483.199829</ele>
        <time>2011-05-15T16:11:03Z</time>
      </trkpt>
      <trkpt lat="43.94811" lon="5.30544">
        <ele>487.045044</ele>
        <time>2011-05-15T16:11:04Z</time>
      </trkpt>
      <trkpt lat="43.94811" lon="5.30543">
        <ele>481.757813</ele>
        <time>2011-05-15T16:11:05Z</time>
      </trkpt>
      <trkpt lat="43.9481" lon="5.30543">
        <ele>476.951294</ele>
        <time>2011-05-15T16:11:06Z</time>
      </trkpt>
      <trkpt lat="43.9481" lon="5.30542">
        <ele>472.625366</ele>
        <time>2011-05-15T16:11:07Z</time>
      </trkpt>
      <trkpt lat="43.9481" lon="5.3054">
        <ele>488.487183</ele>
        <time>2011-05-15T16:11:09Z</time>
      </trkpt>
      <trkpt lat="43.9481" lon="5.30538">
        <ele>482.238525</ele>
        <time>2011-05-15T16:11:10Z</time>
      </trkpt>
      <trkpt lat="43.94809" lon="5.30536">
        <ele>482.719238</ele>
        <time>2011-05-15T16:11:11Z</time>
      </trkpt>
      <trkpt lat="43.94808" lon="5.30535">
        <ele>476.951294</ele>
        <time>2011-05-15T16:11:12Z</time>
      </trkpt>
      <trkpt lat="43.94808" lon="5.30534">
        <ele>482.719238</ele>
        <time>2011-05-15T16:11:13Z</time>
      </trkpt>
      <trkpt lat="43.94807" lon="5.30534">
        <ele>470.702637</ele>
        <time>2011-05-15T16:11:14Z</time>
      </trkpt>
      <trkpt lat="43.94807" lon="5.30532">
        <ele>472.625366</ele>
        <time>2011-05-15T16:11:17Z</time>
      </trkpt>
      <trkpt lat="43.94806" lon="5.3053">
        <ele>476.470581</ele>
        <time>2011-05-15T16:11:19Z</time>
      </trkpt>
      <trkpt lat="43.94805" lon="5.30529">
        <ele>473.106079</ele>
        <time>2011-05-15T16:11:20Z</time>
      </trkpt>
      <trkpt lat="43.94804" lon="5.30528">
        <ele>477.431885</ele>
        <time>2011-05-15T16:11:21Z</time>
      </trkpt>
      <trkpt lat="43.94801" lon="5.30523">
        <ele>472.144653</ele>
        <time>2011-05-15T16:11:26Z</time>
      </trkpt>
      <trkpt lat="43.948" lon="5.30522">
        <ele>477.431885</ele>
        <time>2011-05-15T16:11:27Z</time>
      </trkpt>
      <trkpt lat="43.94799" lon="5.30518">
        <ele>478.873901</ele>
        <time>2011-05-15T16:11:29Z</time>
      </trkpt>
      <trkpt lat="43.94799" lon="5.30517">
        <ele>472.144653</ele>
        <time>2011-05-15T16:11:30Z</time>
      </trkpt>
      <trkpt lat="43.94799" lon="5.30516">
        <ele>475.509277</ele>
        <time>2011-05-15T16:11:31Z</time>
      </trkpt>
      <trkpt lat="43.94797" lon="5.30512">
        <ele>472.144653</ele>
        <time>2011-05-15T16:11:34Z</time>
      </trkpt>
      <trkpt lat="43.94797" lon="5.30511">
        <ele>468.299316</ele>
        <time>2011-05-15T16:11:35Z</time>
      </trkpt>
      <trkpt lat="43.94795" lon="5.30509">
        <ele>465.415527</ele>
        <time>2011-05-15T16:11:39Z</time>
      </trkpt>
      <trkpt lat="43.94794" lon="5.30509">
        <ele>465.896118</ele>
        <time>2011-05-15T16:11:40Z</time>
      </trkpt>
      <trkpt lat="43.94793" lon="5.30507">
        <ele>470.221924</ele>
        <time>2011-05-15T16:11:42Z</time>
      </trkpt>
      <trkpt lat="43.94794" lon="5.30506">
        <ele>473.58667</ele>
        <time>2011-05-15T16:11:43Z</time>
      </trkpt>
      <trkpt lat="43.94793" lon="5.30506">
        <ele>472.144653</ele>
        <time>2011-05-15T16:11:44Z</time>
      </trkpt>
      <trkpt lat="43.94793" lon="5.30505">
        <ele>475.989868</ele>
        <time>2011-05-15T16:11:45Z</time>
      </trkpt>
      <trkpt lat="43.94793" lon="5.30504">
        <ele>481.757813</ele>
        <time>2011-05-15T16:11:46Z</time>
      </trkpt>
      <trkpt lat="43.94792" lon="5.30503">
        <ele>475.509277</ele>
        <time>2011-05-15T16:11:47Z</time>
      </trkpt>
      <trkpt lat="43.94792" lon="5.30503">
        <ele>482.238525</ele>
        <time>2011-05-15T16:11:48Z</time>
      </trkpt>
      <trkpt lat="43.94791" lon="5.305">
        <ele>482.719238</ele>
        <time>2011-05-15T16:11:50Z</time>
      </trkpt>
      <trkpt lat="43.94791" lon="5.30497">
        <ele>480.796631</ele>
        <time>2011-05-15T16:11:52Z</time>
      </trkpt>
      <trkpt lat="43.94791" lon="5.30496">
        <ele>485.603027</ele>
        <time>2011-05-15T16:11:53Z</time>
      </trkpt>
      <trkpt lat="43.94791" lon="5.30495">
        <ele>483.199829</ele>
        <time>2011-05-15T16:11:54Z</time>
      </trkpt>
      <trkpt lat="43.94791" lon="5.30494">
        <ele>479.835083</ele>
        <time>2011-05-15T16:11:55Z</time>
      </trkpt>
      <trkpt lat="43.94791" lon="5.30493">
        <ele>484.161133</ele>
        <time>2011-05-15T16:11:56Z</time>
      </trkpt>
      <trkpt lat="43.94791" lon="5.30493">
        <ele>489.448364</ele>
        <time>2011-05-15T16:11:57Z</time>
      </trkpt>
      <trkpt lat="43.94791" lon="5.30492">
        <ele>485.603027</ele>
        <time>2011-05-15T16:11:58Z</time>
      </trkpt>
      <trkpt lat="43.94791" lon="5.30491">
        <ele>489.448364</ele>
        <time>2011-05-15T16:11:59Z</time>
      </trkpt>
      <trkpt lat="43.9479" lon="5.3049">
        <ele>495.216187</ele>
        <time>2011-05-15T16:12:01Z</time>
      </trkpt>
      <trkpt lat="43.9479" lon="5.30489">
        <ele>491.370972</ele>
        <time>2011-05-15T16:12:02Z</time>
      </trkpt>
      <trkpt lat="43.9479" lon="5.30487">
        <ele>494.735596</ele>
        <time>2011-05-15T16:12:04Z</time>
      </trkpt>
      <trkpt lat="43.94789" lon="5.30486">
        <ele>492.812988</ele>
        <time>2011-05-15T16:12:05Z</time>
      </trkpt>
      <trkpt lat="43.94787" lon="5.30482">
        <ele>489.448364</ele>
        <time>2011-05-15T16:12:09Z</time>
      </trkpt>
      <trkpt lat="43.94789" lon="5.30478">
        <ele>481.277222</ele>
        <time>2011-05-15T16:12:12Z</time>
      </trkpt>
      <trkpt lat="43.94788" lon="5.30477">
        <ele>488.00647</ele>
        <time>2011-05-15T16:12:13Z</time>
      </trkpt>
      <trkpt lat="43.94788" lon="5.30476">
        <ele>491.370972</ele>
        <time>2011-05-15T16:12:14Z</time>
      </trkpt>
      <trkpt lat="43.94788" lon="5.30475">
        <ele>491.370972</ele>
        <time>2011-05-15T16:12:15Z</time>
      </trkpt>
      <trkpt lat="43.94787" lon="5.30473">
        <ele>483.68042</ele>
        <time>2011-05-15T16:12:17Z</time>
      </trkpt>
      <trkpt lat="43.94786" lon="5.30472">
        <ele>483.68042</ele>
        <time>2011-05-15T16:12:18Z</time>
      </trkpt>
      <trkpt lat="43.94783" lon="5.30469">
        <ele>479.835083</ele>
        <time>2011-05-15T16:12:21Z</time>
      </trkpt>
      <trkpt lat="43.94781" lon="5.30466">
        <ele>478.873901</ele>
        <time>2011-05-15T16:12:23Z</time>
      </trkpt>
      <trkpt lat="43.94778" lon="5.30463">
        <ele>475.028687</ele>
        <time>2011-05-15T16:12:27Z</time>
      </trkpt>
      <trkpt lat="43.94777" lon="5.30462">
        <ele>474.547974</ele>
        <time>2011-05-15T16:12:28Z</time>
      </trkpt>
      <trkpt lat="43.94776" lon="5.30462">
        <ele>468.299316</ele>
        <time>2011-05-15T16:12:29Z</time>
      </trkpt>
      <trkpt lat="43.94775" lon="5.30461">
        <ele>491.370972</ele>
        <time>2011-05-15T16:12:30Z</time>
      </trkpt>
      <trkpt lat="43.94775" lon="5.3046">
        <ele>490.40979</ele>
        <time>2011-05-15T16:12:31Z</time>
      </trkpt>
      <trkpt lat="43.94774" lon="5.3046">
        <ele>486.564453</ele>
        <time>2011-05-15T16:12:32Z</time>
      </trkpt>
      <trkpt lat="43.94773" lon="5.30459">
        <ele>487.525635</ele>
        <time>2011-05-15T16:12:33Z</time>
      </trkpt>
      <trkpt lat="43.94773" lon="5.30459">
        <ele>479.354492</ele>
        <time>2011-05-15T16:12:34Z</time>
      </trkpt>
      <trkpt lat="43.94772" lon="5.30458">
        <ele>483.68042</ele>
        <time>2011-05-15T16:12:35Z</time>
      </trkpt>
      <trkpt lat="43.94772" lon="5.30458">
        <ele>478.393188</ele>
        <time>2011-05-15T16:12:36Z</time>
      </trkpt>
      <trkpt lat="43.94772" lon="5.30456">
        <ele>486.564453</ele>
        <time>2011-05-15T16:12:39Z</time>
      </trkpt>
      <trkpt lat="43.94772" lon="5.30455">
        <ele>486.08374</ele>
        <time>2011-05-15T16:12:40Z</time>
      </trkpt>
      <trkpt lat="43.94772" lon="5.30455">
        <ele>491.851685</ele>
        <time>2011-05-15T16:12:41Z</time>
      </trkpt>
      <trkpt lat="43.94772" lon="5.30455">
        <ele>488.967773</ele>
        <time>2011-05-15T16:12:43Z</time>
      </trkpt>
      <trkpt lat="43.94772" lon="5.30455">
        <ele>482.238525</ele>
        <time>2011-05-15T16:12:44Z</time>
      </trkpt>
      <trkpt lat="43.94772" lon="5.30455">
        <ele>482.719238</ele>
        <time>2011-05-15T16:12:45Z</time>
      </trkpt>
      <trkpt lat="43.94772" lon="5.30455">
        <ele>479.354492</ele>
        <time>2011-05-15T16:12:47Z</time>
      </trkpt>
      <trkpt lat="43.94772" lon="5.30455">
        <ele>473.106079</ele>
        <time>2011-05-15T16:12:48Z</time>
      </trkpt>
      <trkpt lat="43.94772" lon="5.30455">
        <ele>478.393188</ele>
        <time>2011-05-15T16:12:49Z</time>
      </trkpt>
      <trkpt lat="43.94772" lon="5.30455">
        <ele>473.58667</ele>
        <time>2011-05-15T16:12:50Z</time>
      </trkpt>
      <trkpt lat="43.94772" lon="5.30455">
        <ele>469.741333</ele>
        <time>2011-05-15T16:12:51Z</time>
      </trkpt>
      <trkpt lat="43.94772" lon="5.30455">
        <ele>473.58667</ele>
        <time>2011-05-15T16:12:56Z</time>
      </trkpt>
      <trkpt lat="43.94772" lon="5.30455">
        <ele>476.951294</ele>
        <time>2011-05-15T16:12:57Z</time>
      </trkpt>
      <trkpt lat="43.94771" lon="5.30455">
        <ele>475.028687</ele>
        <time>2011-05-15T16:12:58Z</time>
      </trkpt>
      <trkpt lat="43.9477" lon="5.30453">
        <ele>470.221924</ele>
        <time>2011-05-15T16:13:01Z</time>
      </trkpt>
      <trkpt lat="43.94769" lon="5.30453">
        <ele>470.221924</ele>
        <time>2011-05-15T16:13:02Z</time>
      </trkpt>
      <trkpt lat="43.94768" lon="5.30452">
        <ele>473.58667</ele>
        <time>2011-05-15T16:13:03Z</time>
      </trkpt>
      <trkpt lat="43.94766" lon="5.30451">
        <ele>470.702637</ele>
        <time>2011-05-15T16:13:05Z</time>
      </trkpt>
      <trkpt lat="43.94764" lon="5.30449">
        <ele>474.547974</ele>
        <time>2011-05-15T16:13:07Z</time>
      </trkpt>
      <trkpt lat="43.94764" lon="5.30449">
        <ele>474.067261</ele>
        <time>2011-05-15T16:13:08Z</time>
      </trkpt>
      <trkpt lat="43.94763" lon="5.30448">
        <ele>470.221924</ele>
        <time>2011-05-15T16:13:09Z</time>
      </trkpt>
      <trkpt lat="43.94761" lon="5.30447">
        <ele>463.973389</ele>
        <time>2011-05-15T16:13:11Z</time>
      </trkpt>
      <trkpt lat="43.94761" lon="5.30446">
        <ele>488.00647</ele>
        <time>2011-05-15T16:13:12Z</time>
      </trkpt>
      <trkpt lat="43.94761" lon="5.30445">
        <ele>486.564453</ele>
        <time>2011-05-15T16:13:13Z</time>
      </trkpt>
      <trkpt lat="43.9476" lon="5.30445">
        <ele>478.873901</ele>
        <time>2011-05-15T16:13:14Z</time>
      </trkpt>
      <trkpt lat="43.94757" lon="5.30443">
        <ele>472.625366</ele>
        <time>2011-05-15T16:13:17Z</time>
      </trkpt>
      <trkpt lat="43.94756" lon="5.30442">
        <ele>473.106079</ele>
        <time>2011-05-15T16:13:18Z</time>
      </trkpt>
      <trkpt lat="43.94754" lon="5.3044">
        <ele>466.376709</ele>
        <time>2011-05-15T16:13:20Z</time>
      </trkpt>
      <trkpt lat="43.94753" lon="5.30439">
        <ele>468.299316</ele>
        <time>2011-05-15T16:13:21Z</time>
      </trkpt>
      <trkpt lat="43.94751" lon="5.30439">
        <ele>463.492798</ele>
        <time>2011-05-15T16:13:23Z</time>
      </trkpt>
      <trkpt lat="43.9475" lon="5.30438">
        <ele>460.608765</ele>
        <time>2011-05-15T16:13:24Z</time>
      </trkpt>
      <trkpt lat="43.94749" lon="5.30435">
        <ele>465.896118</ele>
        <time>2011-05-15T16:13:26Z</time>
      </trkpt>
      <trkpt lat="43.94748" lon="5.30434">
        <ele>458.686157</ele>
        <time>2011-05-15T16:13:27Z</time>
      </trkpt>
      <trkpt lat="43.94744" lon="5.30431">
        <ele>462.531372</ele>
        <time>2011-05-15T16:13:30Z</time>
      </trkpt>
      <trkpt lat="43.94742" lon="5.30429">
        <ele>467.818726</ele>
        <time>2011-05-15T16:13:32Z</time>
      </trkpt>
      <trkpt lat="43.94741" lon="5.30427">
        <ele>464.454102</ele>
        <time>2011-05-15T16:13:34Z</time>
      </trkpt>
      <trkpt lat="43.94739" lon="5.30424">
        <ele>458.686157</ele>
        <time>2011-05-15T16:13:36Z</time>
      </trkpt>
      <trkpt lat="43.94737" lon="5.30424">
        <ele>454.84082</ele>
        <time>2011-05-15T16:13:37Z</time>
      </trkpt>
      <trkpt lat="43.94736" lon="5.30423">
        <ele>463.492798</ele>
        <time>2011-05-15T16:13:38Z</time>
      </trkpt>
      <trkpt lat="43.94735" lon="5.30422">
        <ele>472.625366</ele>
        <time>2011-05-15T16:13:39Z</time>
      </trkpt>
      <trkpt lat="43.94734" lon="5.30422">
        <ele>472.144653</ele>
        <time>2011-05-15T16:13:40Z</time>
      </trkpt>
      <trkpt lat="43.9473" lon="5.30418">
        <ele>466.857422</ele>
        <time>2011-05-15T16:13:44Z</time>
      </trkpt>
      <trkpt lat="43.94729" lon="5.30417">
        <ele>463.012085</ele>
        <time>2011-05-15T16:13:45Z</time>
      </trkpt>
      <trkpt lat="43.94728" lon="5.30415">
        <ele>463.012085</ele>
        <time>2011-05-15T16:13:46Z</time>
      </trkpt>
      <trkpt lat="43.94727" lon="5.30411">
        <ele>466.857422</ele>
        <time>2011-05-15T16:13:49Z</time>
      </trkpt>
      <trkpt lat="43.94726" lon="5.3041">
        <ele>462.531372</ele>
        <time>2011-05-15T16:13:50Z</time>
      </trkpt>
      <trkpt lat="43.94726" lon="5.30408">
        <ele>465.415527</ele>
        <time>2011-05-15T16:13:51Z</time>
      </trkpt>
      <trkpt lat="43.94717" lon="5.304">
        <ele>462.531372</ele>
        <time>2011-05-15T16:14:00Z</time>
      </trkpt>
      <trkpt lat="43.94714" lon="5.30399">
        <ele>468.299316</ele>
        <time>2011-05-15T16:14:03Z</time>
      </trkpt>
      <trkpt lat="43.94713" lon="5.30398">
        <ele>464.454102</ele>
        <time>2011-05-15T16:14:04Z</time>
      </trkpt>
      <trkpt lat="43.94711" lon="5.30398">
        <ele>463.973389</ele>
        <time>2011-05-15T16:14:05Z</time>
      </trkpt>
      <trkpt lat="43.94709" lon="5.30397">
        <ele>463.012085</ele>
        <time>2011-05-15T16:14:07Z</time>
      </trkpt>
      <trkpt lat="43.94706" lon="5.30393">
        <ele>458.205566</ele>
        <time>2011-05-15T16:14:10Z</time>
      </trkpt>
      <trkpt lat="43.94702" lon="5.3039">
        <ele>456.76355</ele>
        <time>2011-05-15T16:14:13Z</time>
      </trkpt>
      <trkpt lat="43.94699" lon="5.30387">
        <ele>460.608765</ele>
        <time>2011-05-15T16:14:16Z</time>
      </trkpt>
      <trkpt lat="43.94698" lon="5.30385">
        <ele>462.050781</ele>
        <time>2011-05-15T16:14:17Z</time>
      </trkpt>
      <trkpt lat="43.94697" lon="5.30378">
        <ele>464.454102</ele>
        <time>2011-05-15T16:14:21Z</time>
      </trkpt>
      <trkpt lat="43.94694" lon="5.30373">
        <ele>460.608765</ele>
        <time>2011-05-15T16:14:25Z</time>
      </trkpt>
      <trkpt lat="43.9468" lon="5.30361">
        <ele>463.492798</ele>
        <time>2011-05-15T16:14:38Z</time>
      </trkpt>
      <trkpt lat="43.94678" lon="5.30359">
        <ele>457.244263</ele>
        <time>2011-05-15T16:14:40Z</time>
      </trkpt>
      <trkpt lat="43.94678" lon="5.30358">
        <ele>463.492798</ele>
        <time>2011-05-15T16:14:41Z</time>
      </trkpt>
      <trkpt lat="43.94675" lon="5.30354">
        <ele>461.089478</ele>
        <time>2011-05-15T16:14:45Z</time>
      </trkpt>
      <trkpt lat="43.94669" lon="5.3035">
        <ele>453.398926</ele>
        <time>2011-05-15T16:14:50Z</time>
      </trkpt>
      <trkpt lat="43.94668" lon="5.3035">
        <ele>458.686157</ele>
        <time>2011-05-15T16:14:51Z</time>
      </trkpt>
      <trkpt lat="43.94666" lon="5.30348">
        <ele>455.802246</ele>
        <time>2011-05-15T16:14:54Z</time>
      </trkpt>
      <trkpt lat="43.94665" lon="5.30345">
        <ele>459.647583</ele>
        <time>2011-05-15T16:14:56Z</time>
      </trkpt>
      <trkpt lat="43.94665" lon="5.30343">
        <ele>457.244263</ele>
        <time>2011-05-15T16:14:57Z</time>
      </trkpt>
      <trkpt lat="43.94665" lon="5.3034">
        <ele>458.205566</ele>
        <time>2011-05-15T16:14:59Z</time>
      </trkpt>
      <trkpt lat="43.94663" lon="5.30333">
        <ele>464.454102</ele>
        <time>2011-05-15T16:15:05Z</time>
      </trkpt>
      <trkpt lat="43.94661" lon="5.30332">
        <ele>458.205566</ele>
        <time>2011-05-15T16:15:08Z</time>
      </trkpt>
      <trkpt lat="43.94658" lon="5.3033">
        <ele>454.84082</ele>
        <time>2011-05-15T16:15:11Z</time>
      </trkpt>
      <trkpt lat="43.94655" lon="5.30326">
        <ele>453.398926</ele>
        <time>2011-05-15T16:15:14Z</time>
      </trkpt>
      <trkpt lat="43.94651" lon="5.30324">
        <ele>450.995605</ele>
        <time>2011-05-15T16:15:18Z</time>
      </trkpt>
      <trkpt lat="43.94647" lon="5.30319">
        <ele>457.244263</ele>
        <time>2011-05-15T16:15:22Z</time>
      </trkpt>
      <trkpt lat="43.94644" lon="5.30317">
        <ele>451.476318</ele>
        <time>2011-05-15T16:15:25Z</time>
      </trkpt>
      <trkpt lat="43.94643" lon="5.30316">
        <ele>449.553711</ele>
        <time>2011-05-15T16:15:26Z</time>
      </trkpt>
      <trkpt lat="43.94641" lon="5.30312">
        <ele>447.150269</ele>
        <time>2011-05-15T16:15:29Z</time>
      </trkpt>
      <trkpt lat="43.94638" lon="5.3031">
        <ele>445.708374</ele>
        <time>2011-05-15T16:15:32Z</time>
      </trkpt>
      <trkpt lat="43.94637" lon="5.30309">
        <ele>446.189087</ele>
        <time>2011-05-15T16:15:33Z</time>
      </trkpt>
      <trkpt lat="43.94632" lon="5.30303">
        <ele>442.343872</ele>
        <time>2011-05-15T16:15:40Z</time>
      </trkpt>
      <trkpt lat="43.94631" lon="5.30302">
        <ele>442.824463</ele>
        <time>2011-05-15T16:15:41Z</time>
      </trkpt>
      <trkpt lat="43.94628" lon="5.30292">
        <ele>443.305054</ele>
        <time>2011-05-15T16:15:47Z</time>
      </trkpt>
      <trkpt lat="43.94624" lon="5.30289">
        <ele>442.824463</ele>
        <time>2011-05-15T16:15:51Z</time>
      </trkpt>
      <trkpt lat="43.94618" lon="5.30292">
        <ele>442.343872</ele>
        <time>2011-05-15T16:15:56Z</time>
      </trkpt>
      <trkpt lat="43.94616" lon="5.30291">
        <ele>442.824463</ele>
        <time>2011-05-15T16:15:58Z</time>
      </trkpt>
      <trkpt lat="43.94613" lon="5.30286">
        <ele>448.592407</ele>
        <time>2011-05-15T16:16:02Z</time>
      </trkpt>
      <trkpt lat="43.94612" lon="5.30285">
        <ele>447.630981</ele>
        <time>2011-05-15T16:16:03Z</time>
      </trkpt>
      <trkpt lat="43.94611" lon="5.30283">
        <ele>446.669678</ele>
        <time>2011-05-15T16:16:05Z</time>
      </trkpt>
      <trkpt lat="43.94609" lon="5.30278">
        <ele>441.382446</ele>
        <time>2011-05-15T16:16:08Z</time>
      </trkpt>
      <trkpt lat="43.94607" lon="5.30272">
        <ele>448.111816</ele>
        <time>2011-05-15T16:16:12Z</time>
      </trkpt>
      <trkpt lat="43.94607" lon="5.3027">
        <ele>450.995605</ele>
        <time>2011-05-15T16:16:13Z</time>
      </trkpt>
      <trkpt lat="43.94604" lon="5.30264">
        <ele>445.708374</ele>
        <time>2011-05-15T16:16:17Z</time>
      </trkpt>
      <trkpt lat="43.94603" lon="5.30263">
        <ele>442.343872</ele>
        <time>2011-05-15T16:16:18Z</time>
      </trkpt>
      <trkpt lat="43.94602" lon="5.3026">
        <ele>441.382446</ele>
        <time>2011-05-15T16:16:20Z</time>
      </trkpt>
      <trkpt lat="43.94602" lon="5.30259">
        <ele>440.901855</ele>
        <time>2011-05-15T16:16:21Z</time>
      </trkpt>
      <trkpt lat="43.94597" lon="5.30255">
        <ele>442.343872</ele>
        <time>2011-05-15T16:16:26Z</time>
      </trkpt>
      <trkpt lat="43.94595" lon="5.30254">
        <ele>445.708374</ele>
        <time>2011-05-15T16:16:28Z</time>
      </trkpt>
      <trkpt lat="43.94591" lon="5.30252">
        <ele>441.863159</ele>
        <time>2011-05-15T16:16:31Z</time>
      </trkpt>
      <trkpt lat="43.94589" lon="5.30248">
        <ele>438.017822</ele>
        <time>2011-05-15T16:16:34Z</time>
      </trkpt>
      <trkpt lat="43.94586" lon="5.30245">
        <ele>432.730713</ele>
        <time>2011-05-15T16:16:37Z</time>
      </trkpt>
      <trkpt lat="43.94585" lon="5.30244">
        <ele>433.211304</ele>
        <time>2011-05-15T16:16:38Z</time>
      </trkpt>
      <trkpt lat="43.94583" lon="5.30243">
        <ele>433.211304</ele>
        <time>2011-05-15T16:16:40Z</time>
      </trkpt>
      <trkpt lat="43.94576" lon="5.30231">
        <ele>436.575928</ele>
        <time>2011-05-15T16:16:50Z</time>
      </trkpt>
      <trkpt lat="43.94573" lon="5.30224">
        <ele>440.421265</ele>
        <time>2011-05-15T16:16:55Z</time>
      </trkpt>
      <trkpt lat="43.94571" lon="5.30222">
        <ele>443.785767</ele>
        <time>2011-05-15T16:16:57Z</time>
      </trkpt>
      <trkpt lat="43.9457" lon="5.30221">
        <ele>441.863159</ele>
        <time>2011-05-15T16:16:59Z</time>
      </trkpt>
      <trkpt lat="43.94567" lon="5.30218">
        <ele>438.017822</ele>
        <time>2011-05-15T16:17:02Z</time>
      </trkpt>
      <trkpt lat="43.94566" lon="5.30217">
        <ele>439.459717</ele>
        <time>2011-05-15T16:17:03Z</time>
      </trkpt>
      <trkpt lat="43.94563" lon="5.30214">
        <ele>435.133911</ele>
        <time>2011-05-15T16:17:07Z</time>
      </trkpt>
      <trkpt lat="43.94562" lon="5.30212">
        <ele>434.172607</ele>
        <time>2011-05-15T16:17:09Z</time>
      </trkpt>
      <trkpt lat="43.94558" lon="5.30206">
        <ele>430.807983</ele>
        <time>2011-05-15T16:17:15Z</time>
      </trkpt>
      <trkpt lat="43.94554" lon="5.30203">
        <ele>431.769165</ele>
        <time>2011-05-15T16:17:19Z</time>
      </trkpt>
      <trkpt lat="43.9455" lon="5.30198">
        <ele>432.25</ele>
        <time>2011-05-15T16:17:25Z</time>
      </trkpt>
      <trkpt lat="43.94549" lon="5.30197">
        <ele>428.404663</ele>
        <time>2011-05-15T16:17:28Z</time>
      </trkpt>
      <trkpt lat="43.94549" lon="5.30197">
        <ele>427.92395</ele>
        <time>2011-05-15T16:17:29Z</time>
      </trkpt>
      <trkpt lat="43.94549" lon="5.30197">
        <ele>432.25</ele>
        <time>2011-05-15T16:17:38Z</time>
      </trkpt>
      <trkpt lat="43.94549" lon="5.30197">
        <ele>435.614502</ele>
        <time>2011-05-15T16:17:45Z</time>
      </trkpt>
      <trkpt lat="43.94549" lon="5.30197">
        <ele>434.65332</ele>
        <time>2011-05-15T16:17:46Z</time>
      </trkpt>
      <trkpt lat="43.94549" lon="5.30197">
        <ele>430.327271</ele>
        <time>2011-05-15T16:17:48Z</time>
      </trkpt>
      <trkpt lat="43.94549" lon="5.30197">
        <ele>433.211304</ele>
        <time>2011-05-15T16:17:52Z</time>
      </trkpt>
      <trkpt lat="43.94549" lon="5.30197">
        <ele>432.730713</ele>
        <time>2011-05-15T16:17:53Z</time>
      </trkpt>
      <trkpt lat="43.94548" lon="5.30194">
        <ele>433.211304</ele>
        <time>2011-05-15T16:17:59Z</time>
      </trkpt>
      <trkpt lat="43.94548" lon="5.30193">
        <ele>433.691895</ele>
        <time>2011-05-15T16:18:00Z</time>
      </trkpt>
      <trkpt lat="43.94546" lon="5.30187">
        <ele>433.211304</ele>
        <time>2011-05-15T16:18:04Z</time>
      </trkpt>
      <trkpt lat="43.94545" lon="5.30185">
        <ele>436.575928</ele>
        <time>2011-05-15T16:18:06Z</time>
      </trkpt>
      <trkpt lat="43.94543" lon="5.30181">
        <ele>432.730713</ele>
        <time>2011-05-15T16:18:09Z</time>
      </trkpt>
      <trkpt lat="43.94542" lon="5.3018">
        <ele>433.211304</ele>
        <time>2011-05-15T16:18:10Z</time>
      </trkpt>
      <trkpt lat="43.94539" lon="5.30177">
        <ele>432.25</ele>
        <time>2011-05-15T16:18:14Z</time>
      </trkpt>
      <trkpt lat="43.94538" lon="5.30176">
        <ele>435.614502</ele>
        <time>2011-05-15T16:18:15Z</time>
      </trkpt>
      <trkpt lat="43.94537" lon="5.30175">
        <ele>434.65332</ele>
        <time>2011-05-15T16:18:16Z</time>
      </trkpt>
      <trkpt lat="43.94532" lon="5.30171">
        <ele>435.614502</ele>
        <time>2011-05-15T16:18:21Z</time>
      </trkpt>
      <trkpt lat="43.94528" lon="5.30168">
        <ele>428.404663</ele>
        <time>2011-05-15T16:18:24Z</time>
      </trkpt>
      <trkpt lat="43.94527" lon="5.30167">
        <ele>425.040161</ele>
        <time>2011-05-15T16:18:25Z</time>
      </trkpt>
      <trkpt lat="43.94526" lon="5.30167">
        <ele>426.482056</ele>
        <time>2011-05-15T16:18:26Z</time>
      </trkpt>
      <trkpt lat="43.94525" lon="5.30166">
        <ele>430.327271</ele>
        <time>2011-05-15T16:18:27Z</time>
      </trkpt>
      <trkpt lat="43.94518" lon="5.30158">
        <ele>426.962769</ele>
        <time>2011-05-15T16:18:35Z</time>
      </trkpt>
      <trkpt lat="43.94517" lon="5.30156">
        <ele>426.482056</ele>
        <time>2011-05-15T16:18:36Z</time>
      </trkpt>
      <trkpt lat="43.94513" lon="5.30145">
        <ele>426.482056</ele>
        <time>2011-05-15T16:18:44Z</time>
      </trkpt>
      <trkpt lat="43.94503" lon="5.30127">
        <ele>429.846558</ele>
        <time>2011-05-15T16:18:56Z</time>
      </trkpt>
      <trkpt lat="43.94498" lon="5.30119">
        <ele>427.443359</ele>
        <time>2011-05-15T16:19:03Z</time>
      </trkpt>
      <trkpt lat="43.94491" lon="5.3011">
        <ele>431.288574</ele>
        <time>2011-05-15T16:19:12Z</time>
      </trkpt>
      <trkpt lat="43.94487" lon="5.30107">
        <ele>428.404663</ele>
        <time>2011-05-15T16:19:15Z</time>
      </trkpt>
      <trkpt lat="43.94486" lon="5.30106">
        <ele>432.25</ele>
        <time>2011-05-15T16:19:16Z</time>
      </trkpt>
      <trkpt lat="43.94485" lon="5.30107">
        <ele>430.327271</ele>
        <time>2011-05-15T16:19:17Z</time>
      </trkpt>
      <trkpt lat="43.9448" lon="5.30107">
        <ele>427.443359</ele>
        <time>2011-05-15T16:19:21Z</time>
      </trkpt>
      <trkpt lat="43.94477" lon="5.30106">
        <ele>424.078735</ele>
        <time>2011-05-15T16:19:24Z</time>
      </trkpt>
      <trkpt lat="43.94466" lon="5.30095">
        <ele>425.040161</ele>
        <time>2011-05-15T16:19:37Z</time>
      </trkpt>
      <trkpt lat="43.94465" lon="5.3009">
        <ele>421.194824</ele>
        <time>2011-05-15T16:19:40Z</time>
      </trkpt>
      <trkpt lat="43.94465" lon="5.30088">
        <ele>421.194824</ele>
        <time>2011-05-15T16:19:41Z</time>
      </trkpt>
      <trkpt lat="43.94458" lon="5.30073">
        <ele>416.868896</ele>
        <time>2011-05-15T16:19:51Z</time>
      </trkpt>
      <trkpt lat="43.94457" lon="5.30071">
        <ele>420.714111</ele>
        <time>2011-05-15T16:19:53Z</time>
      </trkpt>
      <trkpt lat="43.94456" lon="5.30069">
        <ele>420.714111</ele>
        <time>2011-05-15T16:19:54Z</time>
      </trkpt>
      <trkpt lat="43.94453" lon="5.30064">
        <ele>417.349609</ele>
        <time>2011-05-15T16:19:58Z</time>
      </trkpt>
      <trkpt lat="43.94453" lon="5.30063">
        <ele>417.8302</ele>
        <time>2011-05-15T16:19:59Z</time>
      </trkpt>
      <trkpt lat="43.94449" lon="5.3006">
        <ele>417.349609</ele>
        <time>2011-05-15T16:20:03Z</time>
      </trkpt>
      <trkpt lat="43.94433" lon="5.30044">
        <ele>414.465454</ele>
        <time>2011-05-15T16:20:19Z</time>
      </trkpt>
      <trkpt lat="43.94431" lon="5.30042">
        <ele>412.062256</ele>
        <time>2011-05-15T16:20:21Z</time>
      </trkpt>
      <trkpt lat="43.9443" lon="5.30042">
        <ele>412.062256</ele>
        <time>2011-05-15T16:20:22Z</time>
      </trkpt>
      <trkpt lat="43.94423" lon="5.3004">
        <ele>416.388184</ele>
        <time>2011-05-15T16:20:28Z</time>
      </trkpt>
      <trkpt lat="43.9441" lon="5.30029">
        <ele>420.714111</ele>
        <time>2011-05-15T16:20:42Z</time>
      </trkpt>
      <trkpt lat="43.94407" lon="5.30024">
        <ele>418.791504</ele>
        <time>2011-05-15T16:20:46Z</time>
      </trkpt>
      <trkpt lat="43.94405" lon="5.30022">
        <ele>416.868896</ele>
        <time>2011-05-15T16:20:48Z</time>
      </trkpt>
      <trkpt lat="43.94403" lon="5.30021">
        <ele>414.946167</ele>
        <time>2011-05-15T16:20:50Z</time>
      </trkpt>
      <trkpt lat="43.944" lon="5.30019">
        <ele>411.581665</ele>
        <time>2011-05-15T16:20:53Z</time>
      </trkpt>
      <trkpt lat="43.94397" lon="5.30017">
        <ele>410.620239</ele>
        <time>2011-05-15T16:20:55Z</time>
      </trkpt>
      <trkpt lat="43.94382" lon="5.30004">
        <ele>409.659058</ele>
        <time>2011-05-15T16:21:10Z</time>
      </trkpt>
      <trkpt lat="43.94375" lon="5.29997">
        <ele>409.659058</ele>
        <time>2011-05-15T16:21:18Z</time>
      </trkpt>
      <trkpt lat="43.94373" lon="5.2999">
        <ele>411.581665</ele>
        <time>2011-05-15T16:21:23Z</time>
      </trkpt>
      <trkpt lat="43.94372" lon="5.29987">
        <ele>407.255615</ele>
        <time>2011-05-15T16:21:25Z</time>
      </trkpt>
      <trkpt lat="43.94372" lon="5.29986">
        <ele>407.255615</ele>
        <time>2011-05-15T16:21:26Z</time>
      </trkpt>
      <trkpt lat="43.9437" lon="5.29982">
        <ele>411.581665</ele>
        <time>2011-05-15T16:21:29Z</time>
      </trkpt>
      <trkpt lat="43.94368" lon="5.29979">
        <ele>412.542847</ele>
        <time>2011-05-15T16:21:31Z</time>
      </trkpt>
      <trkpt lat="43.94366" lon="5.29977">
        <ele>413.02356</ele>
        <time>2011-05-15T16:21:33Z</time>
      </trkpt>
      <trkpt lat="43.94363" lon="5.29967">
        <ele>416.868896</ele>
        <time>2011-05-15T16:21:40Z</time>
      </trkpt>
      <trkpt lat="43.94363" lon="5.29965">
        <ele>417.349609</ele>
        <time>2011-05-15T16:21:41Z</time>
      </trkpt>
      <trkpt lat="43.94362" lon="5.29964">
        <ele>413.504272</ele>
        <time>2011-05-15T16:21:42Z</time>
      </trkpt>
      <trkpt lat="43.94361" lon="5.29962">
        <ele>418.791504</ele>
        <time>2011-05-15T16:21:43Z</time>
      </trkpt>
      <trkpt lat="43.9436" lon="5.29961">
        <ele>415.907471</ele>
        <time>2011-05-15T16:21:44Z</time>
      </trkpt>
      <trkpt lat="43.94359" lon="5.29956">
        <ele>423.117432</ele>
        <time>2011-05-15T16:21:48Z</time>
      </trkpt>
      <trkpt lat="43.94359" lon="5.29955">
        <ele>420.714111</ele>
        <time>2011-05-15T16:21:49Z</time>
      </trkpt>
      <trkpt lat="43.94359" lon="5.29953">
        <ele>414.946167</ele>
        <time>2011-05-15T16:21:51Z</time>
      </trkpt>
      <trkpt lat="43.94357" lon="5.29949">
        <ele>406.294312</ele>
        <time>2011-05-15T16:21:54Z</time>
      </trkpt>
      <trkpt lat="43.94357" lon="5.29948">
        <ele>408.697632</ele>
        <time>2011-05-15T16:21:55Z</time>
      </trkpt>
      <trkpt lat="43.94355" lon="5.29945">
        <ele>412.062256</ele>
        <time>2011-05-15T16:21:58Z</time>
      </trkpt>
      <trkpt lat="43.94354" lon="5.29944">
        <ele>413.504272</ele>
        <time>2011-05-15T16:21:59Z</time>
      </trkpt>
      <trkpt lat="43.94352" lon="5.29939">
        <ele>417.349609</ele>
        <time>2011-05-15T16:22:02Z</time>
      </trkpt>
      <trkpt lat="43.9435" lon="5.29936">
        <ele>412.542847</ele>
        <time>2011-05-15T16:22:05Z</time>
      </trkpt>
      <trkpt lat="43.94345" lon="5.2993">
        <ele>410.620239</ele>
        <time>2011-05-15T16:22:11Z</time>
      </trkpt>
      <trkpt lat="43.94342" lon="5.29922">
        <ele>415.907471</ele>
        <time>2011-05-15T16:22:16Z</time>
      </trkpt>
      <trkpt lat="43.94341" lon="5.29921">
        <ele>412.062256</ele>
        <time>2011-05-15T16:22:17Z</time>
      </trkpt>
      <trkpt lat="43.94339" lon="5.29918">
        <ele>415.907471</ele>
        <time>2011-05-15T16:22:20Z</time>
      </trkpt>
      <trkpt lat="43.94338" lon="5.29917">
        <ele>414.465454</ele>
        <time>2011-05-15T16:22:21Z</time>
      </trkpt>
      <trkpt lat="43.94336" lon="5.29915">
        <ele>414.946167</ele>
        <time>2011-05-15T16:22:23Z</time>
      </trkpt>
      <trkpt lat="43.94333" lon="5.29912">
        <ele>411.581665</ele>
        <time>2011-05-15T16:22:27Z</time>
      </trkpt>
      <trkpt lat="43.94333" lon="5.29911">
        <ele>412.062256</ele>
        <time>2011-05-15T16:22:28Z</time>
      </trkpt>
      <trkpt lat="43.9433" lon="5.29909">
        <ele>415.42688</ele>
        <time>2011-05-15T16:22:30Z</time>
      </trkpt>
      <trkpt lat="43.94328" lon="5.29908">
        <ele>412.542847</ele>
        <time>2011-05-15T16:22:32Z</time>
      </trkpt>
      <trkpt lat="43.94322" lon="5.29901">
        <ele>408.217041</ele>
        <time>2011-05-15T16:22:38Z</time>
      </trkpt>
      <trkpt lat="43.9432" lon="5.299">
        <ele>411.100952</ele>
        <time>2011-05-15T16:22:40Z</time>
      </trkpt>
      <trkpt lat="43.94318" lon="5.29899">
        <ele>404.371704</ele>
        <time>2011-05-15T16:22:42Z</time>
      </trkpt>
      <trkpt lat="43.94317" lon="5.29899">
        <ele>403.4104</ele>
        <time>2011-05-15T16:22:43Z</time>
      </trkpt>
      <trkpt lat="43.94314" lon="5.29896">
        <ele>407.255615</ele>
        <time>2011-05-15T16:22:47Z</time>
      </trkpt>
      <trkpt lat="43.94313" lon="5.29895">
        <ele>405.333008</ele>
        <time>2011-05-15T16:22:49Z</time>
      </trkpt>
      <trkpt lat="43.94309" lon="5.29892">
        <ele>409.659058</ele>
        <time>2011-05-15T16:22:52Z</time>
      </trkpt>
      <trkpt lat="43.94307" lon="5.29889">
        <ele>412.542847</ele>
        <time>2011-05-15T16:22:54Z</time>
      </trkpt>
      <trkpt lat="43.94306" lon="5.29888">
        <ele>408.217041</ele>
        <time>2011-05-15T16:22:55Z</time>
      </trkpt>
      <trkpt lat="43.94304" lon="5.29886">
        <ele>405.333008</ele>
        <time>2011-05-15T16:22:57Z</time>
      </trkpt>
      <trkpt lat="43.94301" lon="5.29883">
        <ele>410.620239</ele>
        <time>2011-05-15T16:23:00Z</time>
      </trkpt>
      <trkpt lat="43.943" lon="5.29882">
        <ele>410.139648</ele>
        <time>2011-05-15T16:23:01Z</time>
      </trkpt>
      <trkpt lat="43.94298" lon="5.29881">
        <ele>414.465454</ele>
        <time>2011-05-15T16:23:03Z</time>
      </trkpt>
      <trkpt lat="43.94295" lon="5.29878">
        <ele>411.100952</ele>
        <time>2011-05-15T16:23:06Z</time>
      </trkpt>
      <trkpt lat="43.94293" lon="5.29875">
        <ele>407.736328</ele>
        <time>2011-05-15T16:23:08Z</time>
      </trkpt>
      <trkpt lat="43.94292" lon="5.29873">
        <ele>415.907471</ele>
        <time>2011-05-15T16:23:10Z</time>
      </trkpt>
      <trkpt lat="43.94291" lon="5.29872">
        <ele>413.984863</ele>
        <time>2011-05-15T16:23:11Z</time>
      </trkpt>
      <trkpt lat="43.9429" lon="5.29871">
        <ele>408.697632</ele>
        <time>2011-05-15T16:23:12Z</time>
      </trkpt>
      <trkpt lat="43.94289" lon="5.2987">
        <ele>410.139648</ele>
        <time>2011-05-15T16:23:13Z</time>
      </trkpt>
      <trkpt lat="43.94288" lon="5.29869">
        <ele>406.294312</ele>
        <time>2011-05-15T16:23:14Z</time>
      </trkpt>
      <trkpt lat="43.94284" lon="5.29867">
        <ele>410.620239</ele>
        <time>2011-05-15T16:23:18Z</time>
      </trkpt>
      <trkpt lat="43.94281" lon="5.29861">
        <ele>406.774902</ele>
        <time>2011-05-15T16:23:22Z</time>
      </trkpt>
      <trkpt lat="43.94281" lon="5.29855">
        <ele>403.891113</ele>
        <time>2011-05-15T16:23:26Z</time>
      </trkpt>
      <trkpt lat="43.9428" lon="5.29852">
        <ele>400.526489</ele>
        <time>2011-05-15T16:23:29Z</time>
      </trkpt>
      <trkpt lat="43.94276" lon="5.29846">
        <ele>398.60376</ele>
        <time>2011-05-15T16:23:33Z</time>
      </trkpt>
      <trkpt lat="43.94271" lon="5.29842">
        <ele>399.084351</ele>
        <time>2011-05-15T16:23:37Z</time>
      </trkpt>
      <trkpt lat="43.94268" lon="5.29838">
        <ele>400.045898</ele>
        <time>2011-05-15T16:23:41Z</time>
      </trkpt>
      <trkpt lat="43.94264" lon="5.29834">
        <ele>397.642456</ele>
        <time>2011-05-15T16:23:46Z</time>
      </trkpt>
      <trkpt lat="43.94257" lon="5.29828">
        <ele>393.797241</ele>
        <time>2011-05-15T16:23:53Z</time>
      </trkpt>
      <trkpt lat="43.94255" lon="5.29826">
        <ele>392.835938</ele>
        <time>2011-05-15T16:23:55Z</time>
      </trkpt>
      <trkpt lat="43.94253" lon="5.29825">
        <ele>391.393799</ele>
        <time>2011-05-15T16:23:57Z</time>
      </trkpt>
      <trkpt lat="43.9425" lon="5.29823">
        <ele>394.277954</ele>
        <time>2011-05-15T16:24:00Z</time>
      </trkpt>
      <trkpt lat="43.94247" lon="5.29817">
        <ele>392.355347</ele>
        <time>2011-05-15T16:24:05Z</time>
      </trkpt>
      <trkpt lat="43.94246" lon="5.29814">
        <ele>400.045898</ele>
        <time>2011-05-15T16:24:07Z</time>
      </trkpt>
      <trkpt lat="43.94245" lon="5.29812">
        <ele>401.968506</ele>
        <time>2011-05-15T16:24:08Z</time>
      </trkpt>
      <trkpt lat="43.9424" lon="5.29808">
        <ele>399.084351</ele>
        <time>2011-05-15T16:24:14Z</time>
      </trkpt>
      <trkpt lat="43.94239" lon="5.29806">
        <ele>398.123169</ele>
        <time>2011-05-15T16:24:16Z</time>
      </trkpt>
      <trkpt lat="43.94238" lon="5.29805">
        <ele>397.642456</ele>
        <time>2011-05-15T16:24:17Z</time>
      </trkpt>
      <trkpt lat="43.94235" lon="5.29799">
        <ele>397.642456</ele>
        <time>2011-05-15T16:24:21Z</time>
      </trkpt>
      <trkpt lat="43.94232" lon="5.29796">
        <ele>394.758545</ele>
        <time>2011-05-15T16:24:25Z</time>
      </trkpt>
      <trkpt lat="43.94228" lon="5.2979">
        <ele>396.200562</ele>
        <time>2011-05-15T16:24:30Z</time>
      </trkpt>
      <trkpt lat="43.94226" lon="5.29788">
        <ele>392.835938</ele>
        <time>2011-05-15T16:24:32Z</time>
      </trkpt>
      <trkpt lat="43.94224" lon="5.29782">
        <ele>390.913208</ele>
        <time>2011-05-15T16:24:36Z</time>
      </trkpt>
      <trkpt lat="43.94223" lon="5.29781">
        <ele>391.874512</ele>
        <time>2011-05-15T16:24:37Z</time>
      </trkpt>
      <trkpt lat="43.94216" lon="5.29776">
        <ele>391.874512</ele>
        <time>2011-05-15T16:24:44Z</time>
      </trkpt>
      <trkpt lat="43.94211" lon="5.29772">
        <ele>387.067993</ele>
        <time>2011-05-15T16:24:50Z</time>
      </trkpt>
      <trkpt lat="43.94209" lon="5.2977">
        <ele>390.432617</ele>
        <time>2011-05-15T16:24:52Z</time>
      </trkpt>
      <trkpt lat="43.94209" lon="5.29769">
        <ele>396.200562</ele>
        <time>2011-05-15T16:24:53Z</time>
      </trkpt>
      <trkpt lat="43.94207" lon="5.29766">
        <ele>392.355347</ele>
        <time>2011-05-15T16:24:56Z</time>
      </trkpt>
      <trkpt lat="43.94201" lon="5.29761">
        <ele>394.758545</ele>
        <time>2011-05-15T16:25:04Z</time>
      </trkpt>
      <trkpt lat="43.942" lon="5.29759">
        <ele>388.990601</ele>
        <time>2011-05-15T16:25:06Z</time>
      </trkpt>
      <trkpt lat="43.94199" lon="5.29758">
        <ele>390.913208</ele>
        <time>2011-05-15T16:25:07Z</time>
      </trkpt>
      <trkpt lat="43.94195" lon="5.29754">
        <ele>390.432617</ele>
        <time>2011-05-15T16:25:13Z</time>
      </trkpt>
      <trkpt lat="43.94194" lon="5.29752">
        <ele>385.625977</ele>
        <time>2011-05-15T16:25:15Z</time>
      </trkpt>
      <trkpt lat="43.94193" lon="5.2975">
        <ele>387.067993</ele>
        <time>2011-05-15T16:25:16Z</time>
      </trkpt>
      <trkpt lat="43.94192" lon="5.29748">
        <ele>390.432617</ele>
        <time>2011-05-15T16:25:18Z</time>
      </trkpt>
      <trkpt lat="43.94192" lon="5.29746">
        <ele>390.432617</ele>
        <time>2011-05-15T16:25:19Z</time>
      </trkpt>
      <trkpt lat="43.9419" lon="5.29742">
        <ele>384.184082</ele>
        <time>2011-05-15T16:25:22Z</time>
      </trkpt>
      <trkpt lat="43.94189" lon="5.29741">
        <ele>385.145386</ele>
        <time>2011-05-15T16:25:23Z</time>
      </trkpt>
      <trkpt lat="43.94188" lon="5.29739">
        <ele>386.106689</ele>
        <time>2011-05-15T16:25:25Z</time>
      </trkpt>
      <trkpt lat="43.94187" lon="5.29734">
        <ele>390.432617</ele>
        <time>2011-05-15T16:25:28Z</time>
      </trkpt>
      <trkpt lat="43.94186" lon="5.29731">
        <ele>386.587402</ele>
        <time>2011-05-15T16:25:31Z</time>
      </trkpt>
      <trkpt lat="43.94185" lon="5.2973">
        <ele>386.587402</ele>
        <time>2011-05-15T16:25:32Z</time>
      </trkpt>
      <trkpt lat="43.94183" lon="5.29726">
        <ele>384.664795</ele>
        <time>2011-05-15T16:25:35Z</time>
      </trkpt>
      <trkpt lat="43.94182" lon="5.29724">
        <ele>381.78064</ele>
        <time>2011-05-15T16:25:38Z</time>
      </trkpt>
      <trkpt lat="43.94177" lon="5.2972">
        <ele>381.300049</ele>
        <time>2011-05-15T16:25:44Z</time>
      </trkpt>
      <trkpt lat="43.94176" lon="5.2972">
        <ele>386.587402</ele>
        <time>2011-05-15T16:25:45Z</time>
      </trkpt>
      <trkpt lat="43.94175" lon="5.29719">
        <ele>383.222656</ele>
        <time>2011-05-15T16:25:46Z</time>
      </trkpt>
      <trkpt lat="43.94172" lon="5.29717">
        <ele>379.377441</ele>
        <time>2011-05-15T16:25:49Z</time>
      </trkpt>
      <trkpt lat="43.94172" lon="5.29716">
        <ele>386.587402</ele>
        <time>2011-05-15T16:25:50Z</time>
      </trkpt>
      <trkpt lat="43.94171" lon="5.29715">
        <ele>384.664795</ele>
        <time>2011-05-15T16:25:51Z</time>
      </trkpt>
      <trkpt lat="43.94164" lon="5.29706">
        <ele>381.300049</ele>
        <time>2011-05-15T16:26:00Z</time>
      </trkpt>
      <trkpt lat="43.94161" lon="5.29703">
        <ele>383.222656</ele>
        <time>2011-05-15T16:26:04Z</time>
      </trkpt>
      <trkpt lat="43.94159" lon="5.297">
        <ele>387.548584</ele>
        <time>2011-05-15T16:26:07Z</time>
      </trkpt>
      <trkpt lat="43.94158" lon="5.29698">
        <ele>389.951904</ele>
        <time>2011-05-15T16:26:09Z</time>
      </trkpt>
      <trkpt lat="43.94156" lon="5.29695">
        <ele>387.548584</ele>
        <time>2011-05-15T16:26:12Z</time>
      </trkpt>
      <trkpt lat="43.94154" lon="5.29691">
        <ele>385.145386</ele>
        <time>2011-05-15T16:26:15Z</time>
      </trkpt>
      <trkpt lat="43.94151" lon="5.29681">
        <ele>382.742065</ele>
        <time>2011-05-15T16:26:22Z</time>
      </trkpt>
      <trkpt lat="43.9415" lon="5.29677">
        <ele>395.239136</ele>
        <time>2011-05-15T16:26:25Z</time>
      </trkpt>
      <trkpt lat="43.94151" lon="5.29674">
        <ele>389.471191</ele>
        <time>2011-05-15T16:26:27Z</time>
      </trkpt>
      <trkpt lat="43.94151" lon="5.29673">
        <ele>385.145386</ele>
        <time>2011-05-15T16:26:28Z</time>
      </trkpt>
      <trkpt lat="43.9415" lon="5.29668">
        <ele>388.029297</ele>
        <time>2011-05-15T16:26:31Z</time>
      </trkpt>
      <trkpt lat="43.94149" lon="5.29667">
        <ele>392.355347</ele>
        <time>2011-05-15T16:26:32Z</time>
      </trkpt>
      <trkpt lat="43.94148" lon="5.29666">
        <ele>395.719849</ele>
        <time>2011-05-15T16:26:34Z</time>
      </trkpt>
      <trkpt lat="43.94147" lon="5.29662">
        <ele>391.874512</ele>
        <time>2011-05-15T16:26:37Z</time>
      </trkpt>
      <trkpt lat="43.94146" lon="5.29662">
        <ele>399.565063</ele>
        <time>2011-05-15T16:26:38Z</time>
      </trkpt>
      <trkpt lat="43.94146" lon="5.29662">
        <ele>398.123169</ele>
        <time>2011-05-15T16:26:39Z</time>
      </trkpt>
      <trkpt lat="43.94146" lon="5.29661">
        <ele>393.316528</ele>
        <time>2011-05-15T16:26:40Z</time>
      </trkpt>
      <trkpt lat="43.94146" lon="5.2966">
        <ele>391.393799</ele>
        <time>2011-05-15T16:26:42Z</time>
      </trkpt>
      <trkpt lat="43.94145" lon="5.2966">
        <ele>387.067993</ele>
        <time>2011-05-15T16:26:43Z</time>
      </trkpt>
      <trkpt lat="43.94145" lon="5.29659">
        <ele>382.261353</ele>
        <time>2011-05-15T16:26:44Z</time>
      </trkpt>
      <trkpt lat="43.94145" lon="5.29658">
        <ele>388.990601</ele>
        <time>2011-05-15T16:26:45Z</time>
      </trkpt>
      <trkpt lat="43.94144" lon="5.29656">
        <ele>390.913208</ele>
        <time>2011-05-15T16:26:47Z</time>
      </trkpt>
      <trkpt lat="43.94143" lon="5.29655">
        <ele>385.145386</ele>
        <time>2011-05-15T16:26:49Z</time>
      </trkpt>
      <trkpt lat="43.94142" lon="5.29654">
        <ele>388.990601</ele>
        <time>2011-05-15T16:26:50Z</time>
      </trkpt>
      <trkpt lat="43.94142" lon="5.29653">
        <ele>392.355347</ele>
        <time>2011-05-15T16:26:51Z</time>
      </trkpt>
      <trkpt lat="43.94142" lon="5.29652">
        <ele>390.913208</ele>
        <time>2011-05-15T16:26:52Z</time>
      </trkpt>
      <trkpt lat="43.94141" lon="5.29651">
        <ele>387.548584</ele>
        <time>2011-05-15T16:26:53Z</time>
      </trkpt>
      <trkpt lat="43.94141" lon="5.29651">
        <ele>387.548584</ele>
        <time>2011-05-15T16:26:54Z</time>
      </trkpt>
      <trkpt lat="43.94141" lon="5.29649">
        <ele>385.145386</ele>
        <time>2011-05-15T16:26:56Z</time>
      </trkpt>
      <trkpt lat="43.94141" lon="5.29648">
        <ele>388.990601</ele>
        <time>2011-05-15T16:26:57Z</time>
      </trkpt>
      <trkpt lat="43.94141" lon="5.29646">
        <ele>387.067993</ele>
        <time>2011-05-15T16:26:58Z</time>
      </trkpt>
      <trkpt lat="43.94139" lon="5.29643">
        <ele>383.222656</ele>
        <time>2011-05-15T16:27:00Z</time>
      </trkpt>
      <trkpt lat="43.94139" lon="5.29642">
        <ele>383.222656</ele>
        <time>2011-05-15T16:27:01Z</time>
      </trkpt>
      <trkpt lat="43.94136" lon="5.29636">
        <ele>379.377441</ele>
        <time>2011-05-15T16:27:06Z</time>
      </trkpt>
      <trkpt lat="43.94136" lon="5.29635">
        <ele>382.742065</ele>
        <time>2011-05-15T16:27:07Z</time>
      </trkpt>
      <trkpt lat="43.94134" lon="5.29633">
        <ele>378.896851</ele>
        <time>2011-05-15T16:27:10Z</time>
      </trkpt>
      <trkpt lat="43.94133" lon="5.29632">
        <ele>378.896851</ele>
        <time>2011-05-15T16:27:11Z</time>
      </trkpt>
      <trkpt lat="43.94133" lon="5.29632">
        <ele>372.16748</ele>
        <time>2011-05-15T16:27:13Z</time>
      </trkpt>
      <trkpt lat="43.94132" lon="5.29631">
        <ele>379.377441</ele>
        <time>2011-05-15T16:27:14Z</time>
      </trkpt>
      <trkpt lat="43.94132" lon="5.29629">
        <ele>378.896851</ele>
        <time>2011-05-15T16:27:15Z</time>
      </trkpt>
      <trkpt lat="43.9413" lon="5.29627">
        <ele>383.703247</ele>
        <time>2011-05-15T16:27:17Z</time>
      </trkpt>
      <trkpt lat="43.94126" lon="5.29619">
        <ele>384.664795</ele>
        <time>2011-05-15T16:27:24Z</time>
      </trkpt>
      <trkpt lat="43.94125" lon="5.29614">
        <ele>380.819458</ele>
        <time>2011-05-15T16:27:28Z</time>
      </trkpt>
      <trkpt lat="43.94122" lon="5.29611">
        <ele>383.703247</ele>
        <time>2011-05-15T16:27:32Z</time>
      </trkpt>
      <trkpt lat="43.94122" lon="5.2961">
        <ele>387.548584</ele>
        <time>2011-05-15T16:27:33Z</time>
      </trkpt>
      <trkpt lat="43.94122" lon="5.29611">
        <ele>384.184082</ele>
        <time>2011-05-15T16:27:34Z</time>
      </trkpt>
      <trkpt lat="43.94122" lon="5.29611">
        <ele>390.913208</ele>
        <time>2011-05-15T16:27:36Z</time>
      </trkpt>
      <trkpt lat="43.94122" lon="5.29611">
        <ele>384.184082</ele>
        <time>2011-05-15T16:27:37Z</time>
      </trkpt>
      <trkpt lat="43.94122" lon="5.29611">
        <ele>389.471191</ele>
        <time>2011-05-15T16:27:39Z</time>
      </trkpt>
      <trkpt lat="43.94122" lon="5.29611">
        <ele>385.625977</ele>
        <time>2011-05-15T16:27:40Z</time>
      </trkpt>
      <trkpt lat="43.94122" lon="5.29611">
        <ele>382.261353</ele>
        <time>2011-05-15T16:27:42Z</time>
      </trkpt>
      <trkpt lat="43.94122" lon="5.29611">
        <ele>380.819458</ele>
        <time>2011-05-15T16:27:44Z</time>
      </trkpt>
      <trkpt lat="43.94121" lon="5.2961">
        <ele>383.703247</ele>
        <time>2011-05-15T16:27:47Z</time>
      </trkpt>
      <trkpt lat="43.94121" lon="5.2961">
        <ele>380.338745</ele>
        <time>2011-05-15T16:27:49Z</time>
      </trkpt>
      <trkpt lat="43.94119" lon="5.29605">
        <ele>376.974243</ele>
        <time>2011-05-15T16:27:56Z</time>
      </trkpt>
      <trkpt lat="43.94115" lon="5.29599">
        <ele>381.78064</ele>
        <time>2011-05-15T16:28:02Z</time>
      </trkpt>
      <trkpt lat="43.94115" lon="5.29598">
        <ele>380.338745</ele>
        <time>2011-05-15T16:28:03Z</time>
      </trkpt>
      <trkpt lat="43.94112" lon="5.29592">
        <ele>388.51001</ele>
        <time>2011-05-15T16:28:08Z</time>
      </trkpt>
      <trkpt lat="43.94111" lon="5.29591">
        <ele>387.548584</ele>
        <time>2011-05-15T16:28:09Z</time>
      </trkpt>
      <trkpt lat="43.9411" lon="5.2959">
        <ele>383.222656</ele>
        <time>2011-05-15T16:28:10Z</time>
      </trkpt>
      <trkpt lat="43.94109" lon="5.29589">
        <ele>384.664795</ele>
        <time>2011-05-15T16:28:11Z</time>
      </trkpt>
      <trkpt lat="43.94107" lon="5.29585">
        <ele>381.300049</ele>
        <time>2011-05-15T16:28:14Z</time>
      </trkpt>
      <trkpt lat="43.94107" lon="5.29584">
        <ele>377.935425</ele>
        <time>2011-05-15T16:28:15Z</time>
      </trkpt>
      <trkpt lat="43.94106" lon="5.29582">
        <ele>374.570801</ele>
        <time>2011-05-15T16:28:16Z</time>
      </trkpt>
      <trkpt lat="43.94105" lon="5.29577">
        <ele>370.725586</ele>
        <time>2011-05-15T16:28:20Z</time>
      </trkpt>
      <trkpt lat="43.94105" lon="5.29576">
        <ele>371.206299</ele>
        <time>2011-05-15T16:28:21Z</time>
      </trkpt>
      <trkpt lat="43.94102" lon="5.29572">
        <ele>375.051514</ele>
        <time>2011-05-15T16:28:25Z</time>
      </trkpt>
      <trkpt lat="43.94102" lon="5.29571">
        <ele>374.570801</ele>
        <time>2011-05-15T16:28:26Z</time>
      </trkpt>
      <trkpt lat="43.941" lon="5.29568">
        <ele>371.206299</ele>
        <time>2011-05-15T16:28:29Z</time>
      </trkpt>
      <trkpt lat="43.94098" lon="5.29567">
        <ele>372.648193</ele>
        <time>2011-05-15T16:28:32Z</time>
      </trkpt>
      <trkpt lat="43.94097" lon="5.29566">
        <ele>380.819458</ele>
        <time>2011-05-15T16:28:34Z</time>
      </trkpt>
      <trkpt lat="43.94097" lon="5.29566">
        <ele>376.49353</ele>
        <time>2011-05-15T16:28:35Z</time>
      </trkpt>
      <trkpt lat="43.94097" lon="5.29565">
        <ele>373.128906</ele>
        <time>2011-05-15T16:28:36Z</time>
      </trkpt>
      <trkpt lat="43.94096" lon="5.29564">
        <ele>374.570801</ele>
        <time>2011-05-15T16:28:37Z</time>
      </trkpt>
      <trkpt lat="43.94093" lon="5.29559">
        <ele>371.206299</ele>
        <time>2011-05-15T16:28:41Z</time>
      </trkpt>
      <trkpt lat="43.94089" lon="5.29551">
        <ele>370.244873</ele>
        <time>2011-05-15T16:28:50Z</time>
      </trkpt>
      <trkpt lat="43.94087" lon="5.29544">
        <ele>374.570801</ele>
        <time>2011-05-15T16:28:54Z</time>
      </trkpt>
      <trkpt lat="43.94086" lon="5.29542">
        <ele>372.648193</ele>
        <time>2011-05-15T16:28:55Z</time>
      </trkpt>
      <trkpt lat="43.94084" lon="5.29538">
        <ele>374.090088</ele>
        <time>2011-05-15T16:28:57Z</time>
      </trkpt>
      <trkpt lat="43.94079" lon="5.29532">
        <ele>373.609497</ele>
        <time>2011-05-15T16:29:02Z</time>
      </trkpt>
      <trkpt lat="43.94075" lon="5.29525">
        <ele>370.244873</ele>
        <time>2011-05-15T16:29:07Z</time>
      </trkpt>
      <trkpt lat="43.94073" lon="5.29523">
        <ele>367.841553</ele>
        <time>2011-05-15T16:29:09Z</time>
      </trkpt>
      <trkpt lat="43.94071" lon="5.29511">
        <ele>371.68689</ele>
        <time>2011-05-15T16:29:15Z</time>
      </trkpt>
      <trkpt lat="43.94071" lon="5.29508">
        <ele>374.090088</ele>
        <time>2011-05-15T16:29:17Z</time>
      </trkpt>
      <trkpt lat="43.9407" lon="5.29505">
        <ele>376.012817</ele>
        <time>2011-05-15T16:29:19Z</time>
      </trkpt>
      <trkpt lat="43.9407" lon="5.29501">
        <ele>378.416138</ele>
        <time>2011-05-15T16:29:21Z</time>
      </trkpt>
      <trkpt lat="43.94069" lon="5.29498">
        <ele>376.012817</ele>
        <time>2011-05-15T16:29:23Z</time>
      </trkpt>
      <trkpt lat="43.94066" lon="5.29493">
        <ele>373.128906</ele>
        <time>2011-05-15T16:29:27Z</time>
      </trkpt>
      <trkpt lat="43.94064" lon="5.29489">
        <ele>378.896851</ele>
        <time>2011-05-15T16:29:30Z</time>
      </trkpt>
      <trkpt lat="43.94063" lon="5.29488">
        <ele>378.416138</ele>
        <time>2011-05-15T16:29:31Z</time>
      </trkpt>
      <trkpt lat="43.94062" lon="5.29487">
        <ele>375.051514</ele>
        <time>2011-05-15T16:29:32Z</time>
      </trkpt>
      <trkpt lat="43.9406" lon="5.29484">
        <ele>369.283691</ele>
        <time>2011-05-15T16:29:34Z</time>
      </trkpt>
      <trkpt lat="43.94059" lon="5.29483">
        <ele>371.206299</ele>
        <time>2011-05-15T16:29:35Z</time>
      </trkpt>
      <trkpt lat="43.94058" lon="5.29481">
        <ele>375.532104</ele>
        <time>2011-05-15T16:29:36Z</time>
      </trkpt>
      <trkpt lat="43.94058" lon="5.29477">
        <ele>369.764282</ele>
        <time>2011-05-15T16:29:38Z</time>
      </trkpt>
      <trkpt lat="43.94057" lon="5.29475">
        <ele>381.78064</ele>
        <time>2011-05-15T16:29:39Z</time>
      </trkpt>
      <trkpt lat="43.94055" lon="5.29471">
        <ele>377.454834</ele>
        <time>2011-05-15T16:29:42Z</time>
      </trkpt>
      <trkpt lat="43.94054" lon="5.29468">
        <ele>380.338745</ele>
        <time>2011-05-15T16:29:44Z</time>
      </trkpt>
      <trkpt lat="43.94053" lon="5.29467">
        <ele>380.338745</ele>
        <time>2011-05-15T16:29:45Z</time>
      </trkpt>
      <trkpt lat="43.94052" lon="5.29467">
        <ele>377.935425</ele>
        <time>2011-05-15T16:29:46Z</time>
      </trkpt>
      <trkpt lat="43.9405" lon="5.29468">
        <ele>373.128906</ele>
        <time>2011-05-15T16:29:48Z</time>
      </trkpt>
      <trkpt lat="43.94049" lon="5.29468">
        <ele>374.570801</ele>
        <time>2011-05-15T16:29:49Z</time>
      </trkpt>
      <trkpt lat="43.94047" lon="5.29464">
        <ele>371.68689</ele>
        <time>2011-05-15T16:29:53Z</time>
      </trkpt>
      <trkpt lat="43.94045" lon="5.2946">
        <ele>367.360962</ele>
        <time>2011-05-15T16:29:56Z</time>
      </trkpt>
      <trkpt lat="43.94045" lon="5.2946">
        <ele>368.322266</ele>
        <time>2011-05-15T16:29:57Z</time>
      </trkpt>
      <trkpt lat="43.94036" lon="5.29462">
        <ele>366.399536</ele>
        <time>2011-05-15T16:30:09Z</time>
      </trkpt>
      <trkpt lat="43.94035" lon="5.29463">
        <ele>366.880249</ele>
        <time>2011-05-15T16:30:10Z</time>
      </trkpt>
      <trkpt lat="43.94032" lon="5.29466">
        <ele>365.438354</ele>
        <time>2011-05-15T16:30:13Z</time>
      </trkpt>
      <trkpt lat="43.94027" lon="5.29482">
        <ele>364.476929</ele>
        <time>2011-05-15T16:30:23Z</time>
      </trkpt>
      <trkpt lat="43.94021" lon="5.29484">
        <ele>363.035034</ele>
        <time>2011-05-15T16:30:32Z</time>
      </trkpt>
      <trkpt lat="43.9402" lon="5.29484">
        <ele>364.476929</ele>
        <time>2011-05-15T16:30:34Z</time>
      </trkpt>
      <trkpt lat="43.94015" lon="5.29483">
        <ele>362.07373</ele>
        <time>2011-05-15T16:30:39Z</time>
      </trkpt>
      <trkpt lat="43.94013" lon="5.29481">
        <ele>360.631714</ele>
        <time>2011-05-15T16:30:41Z</time>
      </trkpt>
      <trkpt lat="43.94011" lon="5.29472">
        <ele>359.189697</ele>
        <time>2011-05-15T16:30:46Z</time>
      </trkpt>
      <trkpt lat="43.94006" lon="5.29459">
        <ele>357.26709</ele>
        <time>2011-05-15T16:30:58Z</time>
      </trkpt>
      <trkpt lat="43.94007" lon="5.29456">
        <ele>360.151123</ele>
        <time>2011-05-15T16:31:00Z</time>
      </trkpt>
      <trkpt lat="43.94001" lon="5.29437">
        <ele>360.151123</ele>
        <time>2011-05-15T16:31:14Z</time>
      </trkpt>
      <trkpt lat="43.93991" lon="5.29424">
        <ele>360.151123</ele>
        <time>2011-05-15T16:31:24Z</time>
      </trkpt>
      <trkpt lat="43.93987" lon="5.2942">
        <ele>357.26709</ele>
        <time>2011-05-15T16:31:28Z</time>
      </trkpt>
      <trkpt lat="43.93987" lon="5.29419">
        <ele>357.747803</ele>
        <time>2011-05-15T16:31:29Z</time>
      </trkpt>
      <trkpt lat="43.93979" lon="5.29403">
        <ele>357.26709</ele>
        <time>2011-05-15T16:31:41Z</time>
      </trkpt>
      <trkpt lat="43.93976" lon="5.29391">
        <ele>355.825195</ele>
        <time>2011-05-15T16:31:48Z</time>
      </trkpt>
      <trkpt lat="43.93976" lon="5.29386">
        <ele>356.786377</ele>
        <time>2011-05-15T16:31:51Z</time>
      </trkpt>
      <trkpt lat="43.93977" lon="5.29374">
        <ele>352.941162</ele>
        <time>2011-05-15T16:31:59Z</time>
      </trkpt>
      <trkpt lat="43.93974" lon="5.29365">
        <ele>356.305786</ele>
        <time>2011-05-15T16:32:04Z</time>
      </trkpt>
      <trkpt lat="43.93971" lon="5.29359">
        <ele>355.344482</ele>
        <time>2011-05-15T16:32:09Z</time>
      </trkpt>
      <trkpt lat="43.9397" lon="5.29351">
        <ele>352.941162</ele>
        <time>2011-05-15T16:32:15Z</time>
      </trkpt>
      <trkpt lat="43.93969" lon="5.29341">
        <ele>352.941162</ele>
        <time>2011-05-15T16:32:21Z</time>
      </trkpt>
      <trkpt lat="43.93972" lon="5.29335">
        <ele>350.057251</ele>
        <time>2011-05-15T16:32:28Z</time>
      </trkpt>
      <trkpt lat="43.93974" lon="5.29322">
        <ele>347.653931</ele>
        <time>2011-05-15T16:32:38Z</time>
      </trkpt>
      <trkpt lat="43.93974" lon="5.29307">
        <ele>345.731323</ele>
        <time>2011-05-15T16:32:47Z</time>
      </trkpt>
      <trkpt lat="43.93973" lon="5.29303">
        <ele>344.289429</ele>
        <time>2011-05-15T16:32:49Z</time>
      </trkpt>
      <trkpt lat="43.93973" lon="5.29296">
        <ele>343.327881</ele>
        <time>2011-05-15T16:32:54Z</time>
      </trkpt>
      <trkpt lat="43.93974" lon="5.29292">
        <ele>343.808594</ele>
        <time>2011-05-15T16:32:56Z</time>
      </trkpt>
      <trkpt lat="43.93973" lon="5.29287">
        <ele>341.885986</ele>
        <time>2011-05-15T16:32:59Z</time>
      </trkpt>
      <trkpt lat="43.93972" lon="5.29269">
        <ele>338.521484</ele>
        <time>2011-05-15T16:33:10Z</time>
      </trkpt>
      <trkpt lat="43.93969" lon="5.29251">
        <ele>339.002075</ele>
        <time>2011-05-15T16:33:23Z</time>
      </trkpt>
      <trkpt lat="43.9397" lon="5.29248">
        <ele>338.040771</ele>
        <time>2011-05-15T16:33:25Z</time>
      </trkpt>
      <trkpt lat="43.9397" lon="5.29242">
        <ele>336.118164</ele>
        <time>2011-05-15T16:33:29Z</time>
      </trkpt>
      <trkpt lat="43.93971" lon="5.29238">
        <ele>335.637329</ele>
        <time>2011-05-15T16:33:31Z</time>
      </trkpt>
      <trkpt lat="43.93965" lon="5.2921">
        <ele>334.676147</ele>
        <time>2011-05-15T16:33:46Z</time>
      </trkpt>
      <trkpt lat="43.93965" lon="5.29201">
        <ele>333.714722</ele>
        <time>2011-05-15T16:34:01Z</time>
      </trkpt>
      <trkpt lat="43.93961" lon="5.29196">
        <ele>335.156738</ele>
        <time>2011-05-15T16:34:21Z</time>
      </trkpt>
      <trkpt lat="43.93956" lon="5.2919">
        <ele>334.676147</ele>
        <time>2011-05-15T16:34:47Z</time>
      </trkpt>
      <trkpt lat="43.93955" lon="5.2919">
        <ele>336.118164</ele>
        <time>2011-05-15T16:34:59Z</time>
      </trkpt>
      <trkpt lat="43.93956" lon="5.29193">
        <ele>334.676147</ele>
        <time>2011-05-15T16:35:02Z</time>
      </trkpt>
      <trkpt lat="43.93961" lon="5.29198">
        <ele>339.482666</ele>
        <time>2011-05-15T16:35:17Z</time>
      </trkpt>
      <trkpt lat="43.93961" lon="5.29198">
        <ele>339.482666</ele>
        <time>2011-05-15T16:35:18Z</time>
      </trkpt>
      <trkpt lat="43.93961" lon="5.292">
        <ele>336.598877</ele>
        <time>2011-05-15T16:35:22Z</time>
      </trkpt>
      <trkpt lat="43.93961" lon="5.292">
        <ele>333.714722</ele>
        <time>2011-05-15T16:35:33Z</time>
      </trkpt>
      <trkpt lat="43.93962" lon="5.29201">
        <ele>333.714722</ele>
        <time>2011-05-15T16:35:55Z</time>
      </trkpt>
      <trkpt lat="43.93971" lon="5.2921">
        <ele>332.75354</ele>
        <time>2011-05-15T16:36:08Z</time>
      </trkpt>
      <trkpt lat="43.93975" lon="5.29215">
        <ele>330.830933</ele>
        <time>2011-05-15T16:36:14Z</time>
      </trkpt>
      <trkpt lat="43.93986" lon="5.29234">
        <ele>327.466187</ele>
        <time>2011-05-15T16:36:31Z</time>
      </trkpt>
      <trkpt lat="43.93989" lon="5.2924">
        <ele>325.543579</ele>
        <time>2011-05-15T16:36:36Z</time>
      </trkpt>
      <trkpt lat="43.93993" lon="5.29243">
        <ele>325.062988</ele>
        <time>2011-05-15T16:36:39Z</time>
      </trkpt>
      <trkpt lat="43.93997" lon="5.29252">
        <ele>323.620972</ele>
        <time>2011-05-15T16:36:46Z</time>
      </trkpt>
      <trkpt lat="43.94" lon="5.29258">
        <ele>321.217773</ele>
        <time>2011-05-15T16:36:51Z</time>
      </trkpt>
      <trkpt lat="43.94001" lon="5.29262">
        <ele>318.814331</ele>
        <time>2011-05-15T16:36:54Z</time>
      </trkpt>
      <trkpt lat="43.9401" lon="5.29283">
        <ele>316.411011</ele>
        <time>2011-05-15T16:37:08Z</time>
      </trkpt>
      <trkpt lat="43.94017" lon="5.29299">
        <ele>315.93042</ele>
        <time>2011-05-15T16:37:18Z</time>
      </trkpt>
      <trkpt lat="43.94018" lon="5.29302">
        <ele>315.449829</ele>
        <time>2011-05-15T16:37:20Z</time>
      </trkpt>
      <trkpt lat="43.94023" lon="5.29316">
        <ele>312.085205</ele>
        <time>2011-05-15T16:37:29Z</time>
      </trkpt>
      <trkpt lat="43.94024" lon="5.29318">
        <ele>312.085205</ele>
        <time>2011-05-15T16:37:30Z</time>
      </trkpt>
      <trkpt lat="43.94029" lon="5.2933">
        <ele>310.643066</ele>
        <time>2011-05-15T16:37:38Z</time>
      </trkpt>
      <trkpt lat="43.94033" lon="5.29341">
        <ele>307.759277</ele>
        <time>2011-05-15T16:37:45Z</time>
      </trkpt>
      <trkpt lat="43.94055" lon="5.29377">
        <ele>307.278564</ele>
        <time>2011-05-15T16:38:08Z</time>
      </trkpt>
      <trkpt lat="43.94056" lon="5.29378">
        <ele>307.759277</ele>
        <time>2011-05-15T16:38:09Z</time>
      </trkpt>
      <trkpt lat="43.94077" lon="5.29407">
        <ele>303.91394</ele>
        <time>2011-05-15T16:38:31Z</time>
      </trkpt>
      <trkpt lat="43.94078" lon="5.29411">
        <ele>303.433228</ele>
        <time>2011-05-15T16:38:33Z</time>
      </trkpt>
      <trkpt lat="43.9408" lon="5.29415">
        <ele>301.991333</ele>
        <time>2011-05-15T16:38:36Z</time>
      </trkpt>
      <trkpt lat="43.94089" lon="5.29431">
        <ele>299.588013</ele>
        <time>2011-05-15T16:38:49Z</time>
      </trkpt>
      <trkpt lat="43.94092" lon="5.29436">
        <ele>300.068726</ele>
        <time>2011-05-15T16:38:53Z</time>
      </trkpt>
      <trkpt lat="43.941" lon="5.29449">
        <ele>297.184692</ele>
        <time>2011-05-15T16:39:06Z</time>
      </trkpt>
      <trkpt lat="43.94102" lon="5.29453">
        <ele>295.742676</ele>
        <time>2011-05-15T16:39:09Z</time>
      </trkpt>
      <trkpt lat="43.94107" lon="5.29462">
        <ele>296.223511</ele>
        <time>2011-05-15T16:39:16Z</time>
      </trkpt>
      <trkpt lat="43.9411" lon="5.2947">
        <ele>295.742676</ele>
        <time>2011-05-15T16:39:22Z</time>
      </trkpt>
      <trkpt lat="43.94114" lon="5.29474">
        <ele>294.300781</ele>
        <time>2011-05-15T16:39:26Z</time>
      </trkpt>
      <trkpt lat="43.94125" lon="5.29492">
        <ele>294.300781</ele>
        <time>2011-05-15T16:39:40Z</time>
      </trkpt>
      <trkpt lat="43.94129" lon="5.29498">
        <ele>293.820068</ele>
        <time>2011-05-15T16:39:46Z</time>
      </trkpt>
      <trkpt lat="43.94133" lon="5.29501">
        <ele>293.339355</ele>
        <time>2011-05-15T16:39:49Z</time>
      </trkpt>
      <trkpt lat="43.94143" lon="5.29526">
        <ele>294.300781</ele>
        <time>2011-05-15T16:40:05Z</time>
      </trkpt>
      <trkpt lat="43.94148" lon="5.29529">
        <ele>294.300781</ele>
        <time>2011-05-15T16:40:10Z</time>
      </trkpt>
      <trkpt lat="43.94149" lon="5.29533">
        <ele>293.820068</ele>
        <time>2011-05-15T16:40:12Z</time>
      </trkpt>
      <trkpt lat="43.9416" lon="5.29553">
        <ele>293.820068</ele>
        <time>2011-05-15T16:40:25Z</time>
      </trkpt>
      <trkpt lat="43.9417" lon="5.29576">
        <ele>296.704102</ele>
        <time>2011-05-15T16:40:38Z</time>
      </trkpt>
      <trkpt lat="43.94172" lon="5.29584">
        <ele>296.704102</ele>
        <time>2011-05-15T16:40:42Z</time>
      </trkpt>
      <trkpt lat="43.94174" lon="5.2959">
        <ele>296.704102</ele>
        <time>2011-05-15T16:40:46Z</time>
      </trkpt>
      <trkpt lat="43.94176" lon="5.29596">
        <ele>296.704102</ele>
        <time>2011-05-15T16:40:50Z</time>
      </trkpt>
      <trkpt lat="43.94183" lon="5.29606">
        <ele>296.704102</ele>
        <time>2011-05-15T16:40:57Z</time>
      </trkpt>
      <trkpt lat="43.94191" lon="5.29616">
        <ele>296.223511</ele>
        <time>2011-05-15T16:41:03Z</time>
      </trkpt>
      <trkpt lat="43.94199" lon="5.29634">
        <ele>294.300781</ele>
        <time>2011-05-15T16:41:13Z</time>
      </trkpt>
      <trkpt lat="43.94202" lon="5.29642">
        <ele>290.936157</ele>
        <time>2011-05-15T16:41:17Z</time>
      </trkpt>
      <trkpt lat="43.94206" lon="5.29648">
        <ele>289.01355</ele>
        <time>2011-05-15T16:41:21Z</time>
      </trkpt>
      <trkpt lat="43.94217" lon="5.29662">
        <ele>285.648804</ele>
        <time>2011-05-15T16:41:31Z</time>
      </trkpt>
      <trkpt lat="43.94233" lon="5.29692">
        <ele>287.09082</ele>
        <time>2011-05-15T16:41:49Z</time>
      </trkpt>
      <trkpt lat="43.9424" lon="5.2971">
        <ele>288.532959</ele>
        <time>2011-05-15T16:41:58Z</time>
      </trkpt>
      <trkpt lat="43.94241" lon="5.29714">
        <ele>289.01355</ele>
        <time>2011-05-15T16:42:00Z</time>
      </trkpt>
      <trkpt lat="43.94254" lon="5.29728">
        <ele>289.494141</ele>
        <time>2011-05-15T16:42:10Z</time>
      </trkpt>
      <trkpt lat="43.94258" lon="5.29734">
        <ele>289.494141</ele>
        <time>2011-05-15T16:42:14Z</time>
      </trkpt>
      <trkpt lat="43.94273" lon="5.29753">
        <ele>289.01355</ele>
        <time>2011-05-15T16:42:27Z</time>
      </trkpt>
      <trkpt lat="43.94276" lon="5.29757">
        <ele>289.494141</ele>
        <time>2011-05-15T16:42:31Z</time>
      </trkpt>
      <trkpt lat="43.9428" lon="5.2976">
        <ele>289.974854</ele>
        <time>2011-05-15T16:42:34Z</time>
      </trkpt>
      <trkpt lat="43.94284" lon="5.29764">
        <ele>289.494141</ele>
        <time>2011-05-15T16:42:37Z</time>
      </trkpt>
      <trkpt lat="43.94288" lon="5.29769">
        <ele>289.01355</ele>
        <time>2011-05-15T16:42:41Z</time>
      </trkpt>
      <trkpt lat="43.94292" lon="5.29771">
        <ele>289.01355</ele>
        <time>2011-05-15T16:42:44Z</time>
      </trkpt>
      <trkpt lat="43.9431" lon="5.29761">
        <ele>287.571411</ele>
        <time>2011-05-15T16:42:55Z</time>
      </trkpt>
      <trkpt lat="43.94311" lon="5.29756">
        <ele>287.09082</ele>
        <time>2011-05-15T16:42:58Z</time>
      </trkpt>
      <trkpt lat="43.94302" lon="5.29737">
        <ele>286.129517</ele>
        <time>2011-05-15T16:43:11Z</time>
      </trkpt>
      <trkpt lat="43.94288" lon="5.29707">
        <ele>284.206909</ele>
        <time>2011-05-15T16:43:29Z</time>
      </trkpt>
      <trkpt lat="43.94281" lon="5.29674">
        <ele>283.726196</ele>
        <time>2011-05-15T16:43:49Z</time>
      </trkpt>
      <trkpt lat="43.94295" lon="5.29647">
        <ele>281.803589</ele>
        <time>2011-05-15T16:44:06Z</time>
      </trkpt>
      <trkpt lat="43.94307" lon="5.29645">
        <ele>281.322998</ele>
        <time>2011-05-15T16:44:18Z</time>
      </trkpt>
      <trkpt lat="43.94318" lon="5.29652">
        <ele>280.361694</ele>
        <time>2011-05-15T16:44:26Z</time>
      </trkpt>
      <trkpt lat="43.94323" lon="5.29655">
        <ele>279.400269</ele>
        <time>2011-05-15T16:44:31Z</time>
      </trkpt>
      <trkpt lat="43.94331" lon="5.29664">
        <ele>276.516357</ele>
        <time>2011-05-15T16:44:39Z</time>
      </trkpt>
      <trkpt lat="43.94351" lon="5.29681">
        <ele>274.113037</ele>
        <time>2011-05-15T16:44:58Z</time>
      </trkpt>
      <trkpt lat="43.94352" lon="5.29682">
        <ele>274.113037</ele>
        <time>2011-05-15T16:44:59Z</time>
      </trkpt>
      <trkpt lat="43.94367" lon="5.29693">
        <ele>273.151855</ele>
        <time>2011-05-15T16:45:12Z</time>
      </trkpt>
      <trkpt lat="43.94369" lon="5.29695">
        <ele>271.709717</ele>
        <time>2011-05-15T16:45:14Z</time>
      </trkpt>
      <trkpt lat="43.94384" lon="5.29702">
        <ele>273.632446</ele>
        <time>2011-05-15T16:45:26Z</time>
      </trkpt>
      <trkpt lat="43.94395" lon="5.29696">
        <ele>274.59375</ele>
        <time>2011-05-15T16:45:34Z</time>
      </trkpt>
      <trkpt lat="43.94399" lon="5.29689">
        <ele>273.151855</ele>
        <time>2011-05-15T16:45:38Z</time>
      </trkpt>
      <trkpt lat="43.94401" lon="5.29679">
        <ele>271.229126</ele>
        <time>2011-05-15T16:45:43Z</time>
      </trkpt>
      <trkpt lat="43.944" lon="5.29623">
        <ele>270.748413</ele>
        <time>2011-05-15T16:46:12Z</time>
      </trkpt>
      <trkpt lat="43.94406" lon="5.29606">
        <ele>269.787109</ele>
        <time>2011-05-15T16:46:23Z</time>
      </trkpt>
      <trkpt lat="43.94418" lon="5.29589">
        <ele>270.2677</ele>
        <time>2011-05-15T16:46:36Z</time>
      </trkpt>
      <trkpt lat="43.94436" lon="5.29564">
        <ele>268.825806</ele>
        <time>2011-05-15T16:46:54Z</time>
      </trkpt>
      <trkpt lat="43.94448" lon="5.29549">
        <ele>267.864502</ele>
        <time>2011-05-15T16:47:06Z</time>
      </trkpt>
      <trkpt lat="43.94455" lon="5.29539">
        <ele>265.941895</ele>
        <time>2011-05-15T16:47:13Z</time>
      </trkpt>
      <trkpt lat="43.94468" lon="5.29522">
        <ele>264.980591</ele>
        <time>2011-05-15T16:47:27Z</time>
      </trkpt>
      <trkpt lat="43.94469" lon="5.29519">
        <ele>264.980591</ele>
        <time>2011-05-15T16:47:29Z</time>
      </trkpt>
      <trkpt lat="43.94472" lon="5.29514">
        <ele>265.461304</ele>
        <time>2011-05-15T16:47:33Z</time>
      </trkpt>
      <trkpt lat="43.94486" lon="5.29493">
        <ele>264.019287</ele>
        <time>2011-05-15T16:47:49Z</time>
      </trkpt>
      <trkpt lat="43.945" lon="5.29473">
        <ele>262.577148</ele>
        <time>2011-05-15T16:48:05Z</time>
      </trkpt>
      <trkpt lat="43.94507" lon="5.2946">
        <ele>262.577148</ele>
        <time>2011-05-15T16:48:15Z</time>
      </trkpt>
      <trkpt lat="43.94519" lon="5.29438">
        <ele>262.096558</ele>
        <time>2011-05-15T16:48:31Z</time>
      </trkpt>
      <trkpt lat="43.94529" lon="5.29415">
        <ele>263.057861</ele>
        <time>2011-05-15T16:48:49Z</time>
      </trkpt>
      <trkpt lat="43.94532" lon="5.29415">
        <ele>263.057861</ele>
        <time>2011-05-15T16:48:54Z</time>
      </trkpt>
      <trkpt lat="43.94534" lon="5.29415">
        <ele>262.577148</ele>
        <time>2011-05-15T16:48:56Z</time>
      </trkpt>
      <trkpt lat="43.94537" lon="5.29422">
        <ele>263.538574</ele>
        <time>2011-05-15T16:49:00Z</time>
      </trkpt>
      <trkpt lat="43.94537" lon="5.29424">
        <ele>264.019287</ele>
        <time>2011-05-15T16:49:02Z</time>
      </trkpt>
      <trkpt lat="43.94544" lon="5.2945">
        <ele>263.538574</ele>
        <time>2011-05-15T16:49:20Z</time>
      </trkpt>
      <trkpt lat="43.94546" lon="5.29458">
        <ele>261.615967</ele>
        <time>2011-05-15T16:49:25Z</time>
      </trkpt>
      <trkpt lat="43.94549" lon="5.29468">
        <ele>262.096558</ele>
        <time>2011-05-15T16:49:32Z</time>
      </trkpt>
      <trkpt lat="43.94551" lon="5.29474">
        <ele>262.577148</ele>
        <time>2011-05-15T16:49:36Z</time>
      </trkpt>
      <trkpt lat="43.94551" lon="5.29477">
        <ele>263.538574</ele>
        <time>2011-05-15T16:49:38Z</time>
      </trkpt>
      <trkpt lat="43.94552" lon="5.29485">
        <ele>263.057861</ele>
        <time>2011-05-15T16:49:52Z</time>
      </trkpt>
      <trkpt lat="43.94553" lon="5.29488">
        <ele>264.019287</ele>
        <time>2011-05-15T16:50:21Z</time>
      </trkpt>
      <trkpt lat="43.94555" lon="5.29487">
        <ele>264.019287</ele>
        <time>2011-05-15T16:50:23Z</time>
      </trkpt>
      <trkpt lat="43.94559" lon="5.29483">
        <ele>263.057861</ele>
        <time>2011-05-15T16:50:42Z</time>
      </trkpt>
      <trkpt lat="43.94559" lon="5.29483">
        <ele>264.499878</ele>
        <time>2011-05-15T16:52:58Z</time>
      </trkpt>
      <trkpt lat="43.94559" lon="5.29483">
        <ele>264.499878</ele>
        <time>2011-05-15T16:53:01Z</time>
      </trkpt>
    </trkseg>
  </trk>
</gpx>